<?xml version="1.0" encoding="UTF-8" standalone="no" ?>
<gpx xmlns="http://www.topografix.com/GPX/1/1" xmlns:xsi="http://www.w3.org/2001/XMLSchema-instance" xsi:schemaLocation="http://www.topografix.com/GPX/1/1 http://www.topografix.com/GPX/1/1/gpx.xsd" version="1.1" creator="VisuGPX - https://www.visugpx.com">
  <metadata>
    <name>18/05/2022</name>
    <desc><![CDATA[boucle au départ du camping de Salagou puis Mourèze, Lieuran et retour par Clermont l'hérault]]></desc>
  </metadata>
  <trk>
    <name><![CDATA[18/05/2022_1]]></name>
    <trkseg>
      <trkpt lat="43.64556" lon="3.38989">
        <ele>148</ele>
        <time>2022-05-18T05:39:29Z</time>
      </trkpt>
      <trkpt lat="43.64548" lon="3.38977">
        <ele>144.6</ele>
        <time>2022-05-18T05:39:34Z</time>
      </trkpt>
      <trkpt lat="43.64538" lon="3.38974">
        <ele>145</ele>
        <time>2022-05-18T05:39:40Z</time>
      </trkpt>
      <trkpt lat="43.64533" lon="3.3898">
        <ele>144.6</ele>
        <time>2022-05-18T05:39:44Z</time>
      </trkpt>
      <trkpt lat="43.64532" lon="3.38981">
        <ele>144.6</ele>
        <time>2022-05-18T05:39:45Z</time>
      </trkpt>
      <trkpt lat="43.64521" lon="3.38989">
        <ele>145</ele>
        <time>2022-05-18T05:39:52Z</time>
      </trkpt>
      <trkpt lat="43.64508" lon="3.38998">
        <ele>145.2</ele>
        <time>2022-05-18T05:39:58Z</time>
      </trkpt>
      <trkpt lat="43.6449" lon="3.3901">
        <ele>146.2</ele>
        <time>2022-05-18T05:40:06Z</time>
      </trkpt>
      <trkpt lat="43.64487" lon="3.39011">
        <ele>146.4</ele>
        <time>2022-05-18T05:40:07Z</time>
      </trkpt>
      <trkpt lat="43.6447" lon="3.39018">
        <ele>147</ele>
        <time>2022-05-18T05:40:13Z</time>
      </trkpt>
      <trkpt lat="43.64454" lon="3.39029">
        <ele>147.4</ele>
        <time>2022-05-18T05:40:19Z</time>
      </trkpt>
      <trkpt lat="43.64442" lon="3.39056">
        <ele>148.2</ele>
        <time>2022-05-18T05:40:26Z</time>
      </trkpt>
      <trkpt lat="43.64434" lon="3.39079">
        <ele>148.6</ele>
        <time>2022-05-18T05:40:32Z</time>
      </trkpt>
      <trkpt lat="43.64429" lon="3.39091">
        <ele>148.8</ele>
        <time>2022-05-18T05:40:35Z</time>
      </trkpt>
      <trkpt lat="43.64427" lon="3.39093">
        <ele>148.8</ele>
        <time>2022-05-18T05:40:36Z</time>
      </trkpt>
      <trkpt lat="43.64421" lon="3.39092">
        <ele>148.8</ele>
        <time>2022-05-18T05:40:38Z</time>
      </trkpt>
      <trkpt lat="43.64412" lon="3.39076">
        <ele>148.8</ele>
        <time>2022-05-18T05:40:42Z</time>
      </trkpt>
      <trkpt lat="43.64397" lon="3.39039">
        <ele>148.4</ele>
        <time>2022-05-18T05:40:49Z</time>
      </trkpt>
      <trkpt lat="43.64376" lon="3.38993">
        <ele>147.6</ele>
        <time>2022-05-18T05:40:57Z</time>
      </trkpt>
      <trkpt lat="43.64369" lon="3.3898">
        <ele>147.4</ele>
        <time>2022-05-18T05:40:59Z</time>
      </trkpt>
      <trkpt lat="43.64356" lon="3.38961">
        <ele>147</ele>
        <time>2022-05-18T05:41:02Z</time>
      </trkpt>
      <trkpt lat="43.64337" lon="3.38934">
        <ele>146.2</ele>
        <time>2022-05-18T05:41:06Z</time>
      </trkpt>
      <trkpt lat="43.64332" lon="3.38927">
        <ele>146</ele>
        <time>2022-05-18T05:41:07Z</time>
      </trkpt>
      <trkpt lat="43.64329" lon="3.38919">
        <ele>145.8</ele>
        <time>2022-05-18T05:41:08Z</time>
      </trkpt>
      <trkpt lat="43.64326" lon="3.38911">
        <ele>145.6</ele>
        <time>2022-05-18T05:41:09Z</time>
      </trkpt>
      <trkpt lat="43.64324" lon="3.38893">
        <ele>145</ele>
        <time>2022-05-18T05:41:11Z</time>
      </trkpt>
      <trkpt lat="43.64327" lon="3.38843">
        <ele>144</ele>
        <time>2022-05-18T05:41:17Z</time>
      </trkpt>
      <trkpt lat="43.64329" lon="3.38835">
        <ele>144</ele>
        <time>2022-05-18T05:41:18Z</time>
      </trkpt>
      <trkpt lat="43.64339" lon="3.38796">
        <ele>143.4</ele>
        <time>2022-05-18T05:41:23Z</time>
      </trkpt>
      <trkpt lat="43.64341" lon="3.3878">
        <ele>143.2</ele>
        <time>2022-05-18T05:41:25Z</time>
      </trkpt>
      <trkpt lat="43.64341" lon="3.38772">
        <ele>143</ele>
        <time>2022-05-18T05:41:26Z</time>
      </trkpt>
      <trkpt lat="43.64339" lon="3.38765">
        <ele>143</ele>
        <time>2022-05-18T05:41:27Z</time>
      </trkpt>
      <trkpt lat="43.64334" lon="3.3875">
        <ele>142.6</ele>
        <time>2022-05-18T05:41:29Z</time>
      </trkpt>
      <trkpt lat="43.64328" lon="3.3874">
        <ele>142.4</ele>
        <time>2022-05-18T05:41:31Z</time>
      </trkpt>
      <trkpt lat="43.64308" lon="3.38718">
        <ele>142</ele>
        <time>2022-05-18T05:41:36Z</time>
      </trkpt>
      <trkpt lat="43.64304" lon="3.38713">
        <ele>141.8</ele>
        <time>2022-05-18T05:41:37Z</time>
      </trkpt>
      <trkpt lat="43.643" lon="3.38708">
        <ele>141.8</ele>
        <time>2022-05-18T05:41:38Z</time>
      </trkpt>
      <trkpt lat="43.64289" lon="3.38687">
        <ele>141.6</ele>
        <time>2022-05-18T05:41:42Z</time>
      </trkpt>
      <trkpt lat="43.64277" lon="3.38662">
        <ele>141.4</ele>
        <time>2022-05-18T05:41:48Z</time>
      </trkpt>
      <trkpt lat="43.64268" lon="3.38641">
        <ele>141.4</ele>
        <time>2022-05-18T05:41:53Z</time>
      </trkpt>
      <trkpt lat="43.64249" lon="3.38602">
        <ele>142.4</ele>
        <time>2022-05-18T05:42:03Z</time>
      </trkpt>
      <trkpt lat="43.64236" lon="3.38566">
        <ele>143.2</ele>
        <time>2022-05-18T05:42:12Z</time>
      </trkpt>
      <trkpt lat="43.64234" lon="3.38525">
        <ele>143.4</ele>
        <time>2022-05-18T05:42:20Z</time>
      </trkpt>
      <trkpt lat="43.64239" lon="3.38483">
        <ele>142.8</ele>
        <time>2022-05-18T05:42:27Z</time>
      </trkpt>
      <trkpt lat="43.6424" lon="3.38438">
        <ele>142</ele>
        <time>2022-05-18T05:42:34Z</time>
      </trkpt>
      <trkpt lat="43.64247" lon="3.38384">
        <ele>141.2</ele>
        <time>2022-05-18T05:42:43Z</time>
      </trkpt>
      <trkpt lat="43.64257" lon="3.38334">
        <ele>141.6</ele>
        <time>2022-05-18T05:42:52Z</time>
      </trkpt>
      <trkpt lat="43.64264" lon="3.38301">
        <ele>142</ele>
        <time>2022-05-18T05:42:59Z</time>
      </trkpt>
      <trkpt lat="43.64267" lon="3.38269">
        <ele>142.8</ele>
        <time>2022-05-18T05:43:06Z</time>
      </trkpt>
      <trkpt lat="43.64266" lon="3.38259">
        <ele>142.8</ele>
        <time>2022-05-18T05:43:08Z</time>
      </trkpt>
      <trkpt lat="43.6426" lon="3.38237">
        <ele>143.2</ele>
        <time>2022-05-18T05:43:13Z</time>
      </trkpt>
      <trkpt lat="43.64247" lon="3.38218">
        <ele>143.8</ele>
        <time>2022-05-18T05:43:19Z</time>
      </trkpt>
      <trkpt lat="43.64226" lon="3.38201">
        <ele>144.4</ele>
        <time>2022-05-18T05:43:26Z</time>
      </trkpt>
      <trkpt lat="43.64207" lon="3.38177">
        <ele>144.4</ele>
        <time>2022-05-18T05:43:33Z</time>
      </trkpt>
      <trkpt lat="43.64187" lon="3.38149">
        <ele>144.6</ele>
        <time>2022-05-18T05:43:41Z</time>
      </trkpt>
      <trkpt lat="43.64159" lon="3.3814">
        <ele>144.4</ele>
        <time>2022-05-18T05:43:48Z</time>
      </trkpt>
      <trkpt lat="43.64127" lon="3.38139">
        <ele>144.6</ele>
        <time>2022-05-18T05:43:56Z</time>
      </trkpt>
      <trkpt lat="43.64114" lon="3.38138">
        <ele>145.2</ele>
        <time>2022-05-18T05:44:00Z</time>
      </trkpt>
      <trkpt lat="43.64098" lon="3.38136">
        <ele>145.6</ele>
        <time>2022-05-18T05:44:05Z</time>
      </trkpt>
      <trkpt lat="43.64087" lon="3.38131">
        <ele>146.2</ele>
        <time>2022-05-18T05:44:09Z</time>
      </trkpt>
      <trkpt lat="43.64079" lon="3.38126">
        <ele>146.6</ele>
        <time>2022-05-18T05:44:12Z</time>
      </trkpt>
      <trkpt lat="43.64063" lon="3.38108">
        <ele>147.2</ele>
        <time>2022-05-18T05:44:18Z</time>
      </trkpt>
      <trkpt lat="43.64062" lon="3.38104">
        <ele>147.2</ele>
        <time>2022-05-18T05:44:19Z</time>
      </trkpt>
      <trkpt lat="43.64061" lon="3.3809">
        <ele>147</ele>
        <time>2022-05-18T05:44:22Z</time>
      </trkpt>
      <trkpt lat="43.64061" lon="3.38073">
        <ele>147.8</ele>
        <time>2022-05-18T05:44:27Z</time>
      </trkpt>
      <trkpt lat="43.64059" lon="3.38067">
        <ele>148.2</ele>
        <time>2022-05-18T05:44:29Z</time>
      </trkpt>
      <trkpt lat="43.64053" lon="3.38054">
        <ele>149.4</ele>
        <time>2022-05-18T05:44:33Z</time>
      </trkpt>
      <trkpt lat="43.64043" lon="3.38029">
        <ele>150.4</ele>
        <time>2022-05-18T05:44:40Z</time>
      </trkpt>
      <trkpt lat="43.64041" lon="3.38021">
        <ele>150.8</ele>
        <time>2022-05-18T05:44:42Z</time>
      </trkpt>
      <trkpt lat="43.6404" lon="3.37996">
        <ele>151.6</ele>
        <time>2022-05-18T05:44:49Z</time>
      </trkpt>
      <trkpt lat="43.6404" lon="3.37992">
        <ele>151.6</ele>
        <time>2022-05-18T05:44:50Z</time>
      </trkpt>
      <trkpt lat="43.64043" lon="3.37966">
        <ele>152.6</ele>
        <time>2022-05-18T05:44:58Z</time>
      </trkpt>
      <trkpt lat="43.64044" lon="3.37959">
        <ele>153</ele>
        <time>2022-05-18T05:45:00Z</time>
      </trkpt>
      <trkpt lat="43.64045" lon="3.37938">
        <ele>153.6</ele>
        <time>2022-05-18T05:45:06Z</time>
      </trkpt>
      <trkpt lat="43.64046" lon="3.37935">
        <ele>153.8</ele>
        <time>2022-05-18T05:45:07Z</time>
      </trkpt>
      <trkpt lat="43.64056" lon="3.37921">
        <ele>154.2</ele>
        <time>2022-05-18T05:45:13Z</time>
      </trkpt>
      <trkpt lat="43.64071" lon="3.379">
        <ele>154.4</ele>
        <time>2022-05-18T05:45:21Z</time>
      </trkpt>
      <trkpt lat="43.64081" lon="3.37876">
        <ele>154.2</ele>
        <time>2022-05-18T05:45:25Z</time>
      </trkpt>
      <trkpt lat="43.64092" lon="3.37855">
        <ele>153.2</ele>
        <time>2022-05-18T05:45:28Z</time>
      </trkpt>
      <trkpt lat="43.64094" lon="3.37848">
        <ele>152.8</ele>
        <time>2022-05-18T05:45:29Z</time>
      </trkpt>
      <trkpt lat="43.64095" lon="3.37842">
        <ele>152.6</ele>
        <time>2022-05-18T05:45:30Z</time>
      </trkpt>
      <trkpt lat="43.64094" lon="3.37836">
        <ele>152.2</ele>
        <time>2022-05-18T05:45:31Z</time>
      </trkpt>
      <trkpt lat="43.64092" lon="3.37832">
        <ele>152.2</ele>
        <time>2022-05-18T05:45:32Z</time>
      </trkpt>
      <trkpt lat="43.64082" lon="3.378">
        <ele>152.4</ele>
        <time>2022-05-18T05:45:39Z</time>
      </trkpt>
      <trkpt lat="43.64081" lon="3.37779">
        <ele>152.6</ele>
        <time>2022-05-18T05:45:44Z</time>
      </trkpt>
      <trkpt lat="43.6408" lon="3.37765">
        <ele>153</ele>
        <time>2022-05-18T05:45:47Z</time>
      </trkpt>
      <trkpt lat="43.6408" lon="3.37752">
        <ele>153</ele>
        <time>2022-05-18T05:45:49Z</time>
      </trkpt>
      <trkpt lat="43.64081" lon="3.37745">
        <ele>153</ele>
        <time>2022-05-18T05:45:50Z</time>
      </trkpt>
      <trkpt lat="43.6409" lon="3.3772">
        <ele>153</ele>
        <time>2022-05-18T05:45:55Z</time>
      </trkpt>
      <trkpt lat="43.64098" lon="3.37698">
        <ele>153.2</ele>
        <time>2022-05-18T05:46:01Z</time>
      </trkpt>
      <trkpt lat="43.641" lon="3.37691">
        <ele>153.6</ele>
        <time>2022-05-18T05:46:03Z</time>
      </trkpt>
      <trkpt lat="43.6411" lon="3.37652">
        <ele>154</ele>
        <time>2022-05-18T05:46:11Z</time>
      </trkpt>
      <trkpt lat="43.64114" lon="3.37618">
        <ele>153.4</ele>
        <time>2022-05-18T05:46:17Z</time>
      </trkpt>
      <trkpt lat="43.64114" lon="3.37597">
        <ele>153.2</ele>
        <time>2022-05-18T05:46:22Z</time>
      </trkpt>
      <trkpt lat="43.64106" lon="3.37564">
        <ele>154.6</ele>
        <time>2022-05-18T05:46:31Z</time>
      </trkpt>
      <trkpt lat="43.64096" lon="3.37549">
        <ele>155.8</ele>
        <time>2022-05-18T05:46:37Z</time>
      </trkpt>
      <trkpt lat="43.64094" lon="3.37546">
        <ele>155.8</ele>
        <time>2022-05-18T05:46:38Z</time>
      </trkpt>
      <trkpt lat="43.64083" lon="3.37537">
        <ele>156.8</ele>
        <time>2022-05-18T05:46:43Z</time>
      </trkpt>
      <trkpt lat="43.64068" lon="3.37527">
        <ele>157.6</ele>
        <time>2022-05-18T05:46:50Z</time>
      </trkpt>
      <trkpt lat="43.64054" lon="3.37518">
        <ele>158.8</ele>
        <time>2022-05-18T05:46:56Z</time>
      </trkpt>
      <trkpt lat="43.64047" lon="3.37512">
        <ele>159.4</ele>
        <time>2022-05-18T05:46:59Z</time>
      </trkpt>
      <trkpt lat="43.64037" lon="3.37506">
        <ele>159.8</ele>
        <time>2022-05-18T05:47:03Z</time>
      </trkpt>
      <trkpt lat="43.64033" lon="3.37503">
        <ele>160.2</ele>
        <time>2022-05-18T05:47:05Z</time>
      </trkpt>
      <trkpt lat="43.64024" lon="3.37497">
        <ele>161</ele>
        <time>2022-05-18T05:47:09Z</time>
      </trkpt>
      <trkpt lat="43.64015" lon="3.37489">
        <ele>162.4</ele>
        <time>2022-05-18T05:47:14Z</time>
      </trkpt>
      <trkpt lat="43.64009" lon="3.37484">
        <ele>163</ele>
        <time>2022-05-18T05:47:17Z</time>
      </trkpt>
      <trkpt lat="43.64003" lon="3.3748">
        <ele>163.6</ele>
        <time>2022-05-18T05:47:20Z</time>
      </trkpt>
      <trkpt lat="43.63991" lon="3.37473">
        <ele>164.6</ele>
        <time>2022-05-18T05:47:26Z</time>
      </trkpt>
      <trkpt lat="43.63989" lon="3.37472">
        <ele>164.8</ele>
        <time>2022-05-18T05:47:27Z</time>
      </trkpt>
      <trkpt lat="43.6397" lon="3.37457">
        <ele>165.6</ele>
        <time>2022-05-18T05:47:36Z</time>
      </trkpt>
      <trkpt lat="43.6396" lon="3.37443">
        <ele>166.6</ele>
        <time>2022-05-18T05:47:43Z</time>
      </trkpt>
      <trkpt lat="43.63947" lon="3.37442">
        <ele>167.6</ele>
        <time>2022-05-18T05:47:49Z</time>
      </trkpt>
      <trkpt lat="43.63943" lon="3.37442">
        <ele>168</ele>
        <time>2022-05-18T05:47:51Z</time>
      </trkpt>
      <trkpt lat="43.63928" lon="3.37443">
        <ele>168.8</ele>
        <time>2022-05-18T05:47:58Z</time>
      </trkpt>
      <trkpt lat="43.63924" lon="3.37442">
        <ele>169</ele>
        <time>2022-05-18T05:48:00Z</time>
      </trkpt>
      <trkpt lat="43.63914" lon="3.37443">
        <ele>169.8</ele>
        <time>2022-05-18T05:48:05Z</time>
      </trkpt>
      <trkpt lat="43.63904" lon="3.37443">
        <ele>170.4</ele>
        <time>2022-05-18T05:48:10Z</time>
      </trkpt>
      <trkpt lat="43.63898" lon="3.37443">
        <ele>171</ele>
        <time>2022-05-18T05:48:13Z</time>
      </trkpt>
      <trkpt lat="43.63886" lon="3.37442">
        <ele>171.6</ele>
        <time>2022-05-18T05:48:19Z</time>
      </trkpt>
      <trkpt lat="43.6388" lon="3.37442">
        <ele>172.2</ele>
        <time>2022-05-18T05:48:22Z</time>
      </trkpt>
      <trkpt lat="43.63865" lon="3.37443">
        <ele>173.4</ele>
        <time>2022-05-18T05:48:30Z</time>
      </trkpt>
      <trkpt lat="43.63851" lon="3.37442">
        <ele>174.6</ele>
        <time>2022-05-18T05:48:37Z</time>
      </trkpt>
      <trkpt lat="43.63844" lon="3.37442">
        <ele>175.2</ele>
        <time>2022-05-18T05:48:40Z</time>
      </trkpt>
      <trkpt lat="43.6384" lon="3.37443">
        <ele>175.4</ele>
        <time>2022-05-18T05:48:42Z</time>
      </trkpt>
      <trkpt lat="43.63836" lon="3.37442">
        <ele>175.6</ele>
        <time>2022-05-18T05:48:44Z</time>
      </trkpt>
      <trkpt lat="43.63826" lon="3.37443">
        <ele>176.2</ele>
        <time>2022-05-18T05:48:49Z</time>
      </trkpt>
      <trkpt lat="43.6382" lon="3.37442">
        <ele>176.8</ele>
        <time>2022-05-18T05:48:52Z</time>
      </trkpt>
      <trkpt lat="43.63804" lon="3.37442">
        <ele>177.6</ele>
        <time>2022-05-18T05:48:59Z</time>
      </trkpt>
      <trkpt lat="43.63804" lon="3.37442">
        <ele>177.8</ele>
        <time>2022-05-18T05:49:00Z</time>
      </trkpt>
      <trkpt lat="43.6379" lon="3.37441">
        <ele>179</ele>
        <time>2022-05-18T05:49:07Z</time>
      </trkpt>
      <trkpt lat="43.63783" lon="3.37441">
        <ele>179.4</ele>
        <time>2022-05-18T05:49:09Z</time>
      </trkpt>
      <trkpt lat="43.63775" lon="3.37441">
        <ele>180</ele>
        <time>2022-05-18T05:49:14Z</time>
      </trkpt>
      <trkpt lat="43.63766" lon="3.37441">
        <ele>180.6</ele>
        <time>2022-05-18T05:49:17Z</time>
      </trkpt>
      <trkpt lat="43.63762" lon="3.37441">
        <ele>181.4</ele>
        <time>2022-05-18T05:49:20Z</time>
      </trkpt>
      <trkpt lat="43.63746" lon="3.37441">
        <ele>182</ele>
        <time>2022-05-18T05:49:27Z</time>
      </trkpt>
      <trkpt lat="43.63743" lon="3.37441">
        <ele>182.4</ele>
        <time>2022-05-18T05:49:28Z</time>
      </trkpt>
      <trkpt lat="43.63731" lon="3.37441">
        <ele>183.4</ele>
        <time>2022-05-18T05:49:34Z</time>
      </trkpt>
      <trkpt lat="43.63727" lon="3.37441">
        <ele>183.8</ele>
        <time>2022-05-18T05:49:36Z</time>
      </trkpt>
      <trkpt lat="43.63716" lon="3.37441">
        <ele>184.6</ele>
        <time>2022-05-18T05:49:41Z</time>
      </trkpt>
      <trkpt lat="43.63708" lon="3.37441">
        <ele>185</ele>
        <time>2022-05-18T05:49:45Z</time>
      </trkpt>
      <trkpt lat="43.63699" lon="3.37441">
        <ele>185.8</ele>
        <time>2022-05-18T05:49:49Z</time>
      </trkpt>
      <trkpt lat="43.63685" lon="3.37442">
        <ele>186.6</ele>
        <time>2022-05-18T05:49:56Z</time>
      </trkpt>
      <trkpt lat="43.63671" lon="3.3744">
        <ele>187.8</ele>
        <time>2022-05-18T05:50:03Z</time>
      </trkpt>
      <trkpt lat="43.63665" lon="3.3744">
        <ele>188.2</ele>
        <time>2022-05-18T05:50:05Z</time>
      </trkpt>
      <trkpt lat="43.63657" lon="3.3744">
        <ele>188.8</ele>
        <time>2022-05-18T05:50:09Z</time>
      </trkpt>
      <trkpt lat="43.63646" lon="3.3744">
        <ele>189.8</ele>
        <time>2022-05-18T05:50:15Z</time>
      </trkpt>
      <trkpt lat="43.63636" lon="3.3744">
        <ele>190.6</ele>
        <time>2022-05-18T05:50:20Z</time>
      </trkpt>
      <trkpt lat="43.63629" lon="3.37441">
        <ele>191</ele>
        <time>2022-05-18T05:50:23Z</time>
      </trkpt>
      <trkpt lat="43.63616" lon="3.37451">
        <ele>192</ele>
        <time>2022-05-18T05:50:32Z</time>
      </trkpt>
      <trkpt lat="43.63605" lon="3.3746">
        <ele>192.6</ele>
        <time>2022-05-18T05:50:39Z</time>
      </trkpt>
      <trkpt lat="43.63605" lon="3.37457">
        <ele>193</ele>
        <time>2022-05-18T05:50:41Z</time>
      </trkpt>
      <trkpt lat="43.63605" lon="3.37455">
        <ele>193</ele>
        <time>2022-05-18T05:50:42Z</time>
      </trkpt>
      <trkpt lat="43.63605" lon="3.37455">
        <ele>193.4</ele>
        <time>2022-05-18T05:50:43Z</time>
      </trkpt>
      <trkpt lat="43.63607" lon="3.37444">
        <ele>194.4</ele>
        <time>2022-05-18T05:50:47Z</time>
      </trkpt>
      <trkpt lat="43.63609" lon="3.37434">
        <ele>195.2</ele>
        <time>2022-05-18T05:50:51Z</time>
      </trkpt>
      <trkpt lat="43.63609" lon="3.37432">
        <ele>195.4</ele>
        <time>2022-05-18T05:50:52Z</time>
      </trkpt>
      <trkpt lat="43.63614" lon="3.37406">
        <ele>196.4</ele>
        <time>2022-05-18T05:51:01Z</time>
      </trkpt>
      <trkpt lat="43.63614" lon="3.37403">
        <ele>196.6</ele>
        <time>2022-05-18T05:51:02Z</time>
      </trkpt>
      <trkpt lat="43.63613" lon="3.37382">
        <ele>197.4</ele>
        <time>2022-05-18T05:51:10Z</time>
      </trkpt>
      <trkpt lat="43.63611" lon="3.37375">
        <ele>197.6</ele>
        <time>2022-05-18T05:51:13Z</time>
      </trkpt>
      <trkpt lat="43.6361" lon="3.37366">
        <ele>198</ele>
        <time>2022-05-18T05:51:17Z</time>
      </trkpt>
      <trkpt lat="43.63608" lon="3.37356">
        <ele>198.8</ele>
        <time>2022-05-18T05:51:22Z</time>
      </trkpt>
      <trkpt lat="43.63608" lon="3.37352">
        <ele>199</ele>
        <time>2022-05-18T05:51:25Z</time>
      </trkpt>
      <trkpt lat="43.63608" lon="3.37352">
        <ele>199.2</ele>
        <time>2022-05-18T05:51:26Z</time>
      </trkpt>
      <trkpt lat="43.63604" lon="3.37351">
        <ele>199.8</ele>
        <time>2022-05-18T05:51:33Z</time>
      </trkpt>
      <trkpt lat="43.63603" lon="3.37351">
        <ele>199.8</ele>
        <time>2022-05-18T05:51:34Z</time>
      </trkpt>
      <trkpt lat="43.63589" lon="3.37345">
        <ele>200.2</ele>
        <time>2022-05-18T05:51:43Z</time>
      </trkpt>
      <trkpt lat="43.63578" lon="3.37343">
        <ele>201</ele>
        <time>2022-05-18T05:51:50Z</time>
      </trkpt>
      <trkpt lat="43.63577" lon="3.37343">
        <ele>201</ele>
        <time>2022-05-18T05:51:51Z</time>
      </trkpt>
      <trkpt lat="43.63566" lon="3.37342">
        <ele>202.2</ele>
        <time>2022-05-18T05:51:58Z</time>
      </trkpt>
      <trkpt lat="43.63565" lon="3.37341">
        <ele>202.4</ele>
        <time>2022-05-18T05:51:59Z</time>
      </trkpt>
      <trkpt lat="43.63563" lon="3.37341">
        <ele>203</ele>
        <time>2022-05-18T05:52:01Z</time>
      </trkpt>
      <trkpt lat="43.63562" lon="3.37341">
        <ele>203.4</ele>
        <time>2022-05-18T05:52:03Z</time>
      </trkpt>
      <trkpt lat="43.63561" lon="3.37341">
        <ele>204.2</ele>
        <time>2022-05-18T05:52:05Z</time>
      </trkpt>
      <trkpt lat="43.63559" lon="3.3734">
        <ele>204.6</ele>
        <time>2022-05-18T05:52:07Z</time>
      </trkpt>
      <trkpt lat="43.63555" lon="3.37339">
        <ele>205.4</ele>
        <time>2022-05-18T05:52:10Z</time>
      </trkpt>
      <trkpt lat="43.63553" lon="3.37338">
        <ele>205.6</ele>
        <time>2022-05-18T05:52:11Z</time>
      </trkpt>
      <trkpt lat="43.63549" lon="3.37338">
        <ele>206.2</ele>
        <time>2022-05-18T05:52:13Z</time>
      </trkpt>
      <trkpt lat="43.63547" lon="3.37338">
        <ele>206.4</ele>
        <time>2022-05-18T05:52:14Z</time>
      </trkpt>
      <trkpt lat="43.63544" lon="3.37336">
        <ele>207.2</ele>
        <time>2022-05-18T05:52:16Z</time>
      </trkpt>
      <trkpt lat="43.63543" lon="3.37334">
        <ele>208.2</ele>
        <time>2022-05-18T05:52:18Z</time>
      </trkpt>
      <trkpt lat="43.63544" lon="3.3733">
        <ele>208.2</ele>
        <time>2022-05-18T05:52:19Z</time>
      </trkpt>
      <trkpt lat="43.63547" lon="3.37326">
        <ele>208.8</ele>
        <time>2022-05-18T05:52:22Z</time>
      </trkpt>
      <trkpt lat="43.63548" lon="3.37322">
        <ele>209</ele>
        <time>2022-05-18T05:52:24Z</time>
      </trkpt>
      <trkpt lat="43.63548" lon="3.37319">
        <ele>209.2</ele>
        <time>2022-05-18T05:52:26Z</time>
      </trkpt>
      <trkpt lat="43.63547" lon="3.37317">
        <ele>209.6</ele>
        <time>2022-05-18T05:52:28Z</time>
      </trkpt>
      <trkpt lat="43.63548" lon="3.3731">
        <ele>209.8</ele>
        <time>2022-05-18T05:52:31Z</time>
      </trkpt>
      <trkpt lat="43.6355" lon="3.37306">
        <ele>210</ele>
        <time>2022-05-18T05:52:34Z</time>
      </trkpt>
      <trkpt lat="43.63551" lon="3.37299">
        <ele>210.4</ele>
        <time>2022-05-18T05:52:38Z</time>
      </trkpt>
      <trkpt lat="43.6355" lon="3.37292">
        <ele>210.8</ele>
        <time>2022-05-18T05:52:42Z</time>
      </trkpt>
      <trkpt lat="43.63548" lon="3.37283">
        <ele>211.4</ele>
        <time>2022-05-18T05:52:48Z</time>
      </trkpt>
      <trkpt lat="43.63544" lon="3.37275">
        <ele>211.8</ele>
        <time>2022-05-18T05:52:53Z</time>
      </trkpt>
      <trkpt lat="43.63543" lon="3.37274">
        <ele>212</ele>
        <time>2022-05-18T05:52:55Z</time>
      </trkpt>
      <trkpt lat="43.63541" lon="3.37272">
        <ele>212.2</ele>
        <time>2022-05-18T05:52:56Z</time>
      </trkpt>
      <trkpt lat="43.63538" lon="3.37267">
        <ele>212.4</ele>
        <time>2022-05-18T05:52:59Z</time>
      </trkpt>
      <trkpt lat="43.63536" lon="3.37263">
        <ele>212.8</ele>
        <time>2022-05-18T05:53:02Z</time>
      </trkpt>
      <trkpt lat="43.6353" lon="3.37257">
        <ele>213.4</ele>
        <time>2022-05-18T05:53:07Z</time>
      </trkpt>
      <trkpt lat="43.63526" lon="3.37252">
        <ele>213.6</ele>
        <time>2022-05-18T05:53:11Z</time>
      </trkpt>
      <trkpt lat="43.63521" lon="3.37241">
        <ele>214.4</ele>
        <time>2022-05-18T05:53:17Z</time>
      </trkpt>
      <trkpt lat="43.6352" lon="3.37237">
        <ele>214.6</ele>
        <time>2022-05-18T05:53:19Z</time>
      </trkpt>
      <trkpt lat="43.63516" lon="3.37219">
        <ele>215.4</ele>
        <time>2022-05-18T05:53:28Z</time>
      </trkpt>
      <trkpt lat="43.63516" lon="3.37217">
        <ele>215.4</ele>
        <time>2022-05-18T05:53:30Z</time>
      </trkpt>
      <trkpt lat="43.63513" lon="3.37198">
        <ele>216</ele>
        <time>2022-05-18T05:53:38Z</time>
      </trkpt>
      <trkpt lat="43.63511" lon="3.37191">
        <ele>216.6</ele>
        <time>2022-05-18T05:53:41Z</time>
      </trkpt>
      <trkpt lat="43.6351" lon="3.37189">
        <ele>216.6</ele>
        <time>2022-05-18T05:53:42Z</time>
      </trkpt>
      <trkpt lat="43.6351" lon="3.37184">
        <ele>216.8</ele>
        <time>2022-05-18T05:53:44Z</time>
      </trkpt>
      <trkpt lat="43.63515" lon="3.37165">
        <ele>217.2</ele>
        <time>2022-05-18T05:53:52Z</time>
      </trkpt>
      <trkpt lat="43.63522" lon="3.37147">
        <ele>217.8</ele>
        <time>2022-05-18T05:53:59Z</time>
      </trkpt>
      <trkpt lat="43.63524" lon="3.37142">
        <ele>218</ele>
        <time>2022-05-18T05:54:01Z</time>
      </trkpt>
      <trkpt lat="43.63527" lon="3.37127">
        <ele>218.4</ele>
        <time>2022-05-18T05:54:07Z</time>
      </trkpt>
      <trkpt lat="43.63528" lon="3.37124">
        <ele>218.6</ele>
        <time>2022-05-18T05:54:08Z</time>
      </trkpt>
      <trkpt lat="43.63536" lon="3.37104">
        <ele>219.8</ele>
        <time>2022-05-18T05:54:16Z</time>
      </trkpt>
      <trkpt lat="43.63538" lon="3.37099">
        <ele>220.2</ele>
        <time>2022-05-18T05:54:18Z</time>
      </trkpt>
      <trkpt lat="43.63541" lon="3.37087">
        <ele>221</ele>
        <time>2022-05-18T05:54:23Z</time>
      </trkpt>
      <trkpt lat="43.63545" lon="3.37075">
        <ele>221.6</ele>
        <time>2022-05-18T05:54:28Z</time>
      </trkpt>
      <trkpt lat="43.63546" lon="3.37069">
        <ele>222</ele>
        <time>2022-05-18T05:54:30Z</time>
      </trkpt>
      <trkpt lat="43.63552" lon="3.37052">
        <ele>222.8</ele>
        <time>2022-05-18T05:54:37Z</time>
      </trkpt>
      <trkpt lat="43.63553" lon="3.37047">
        <ele>223</ele>
        <time>2022-05-18T05:54:39Z</time>
      </trkpt>
      <trkpt lat="43.63557" lon="3.37029">
        <ele>224.2</ele>
        <time>2022-05-18T05:54:46Z</time>
      </trkpt>
      <trkpt lat="43.6356" lon="3.37015">
        <ele>225.2</ele>
        <time>2022-05-18T05:54:52Z</time>
      </trkpt>
      <trkpt lat="43.63562" lon="3.37011">
        <ele>225.4</ele>
        <time>2022-05-18T05:54:54Z</time>
      </trkpt>
      <trkpt lat="43.63567" lon="3.36993">
        <ele>225.6</ele>
        <time>2022-05-18T05:55:00Z</time>
      </trkpt>
      <trkpt lat="43.63573" lon="3.36966">
        <ele>224.6</ele>
        <time>2022-05-18T05:55:09Z</time>
      </trkpt>
      <trkpt lat="43.63576" lon="3.36958">
        <ele>224</ele>
        <time>2022-05-18T05:55:12Z</time>
      </trkpt>
      <trkpt lat="43.63578" lon="3.36944">
        <ele>223.2</ele>
        <time>2022-05-18T05:55:15Z</time>
      </trkpt>
      <trkpt lat="43.63578" lon="3.36944">
        <ele>222.8</ele>
        <time>2022-05-18T05:55:16Z</time>
      </trkpt>
      <trkpt lat="43.63582" lon="3.36925">
        <ele>221.6</ele>
        <time>2022-05-18T05:55:21Z</time>
      </trkpt>
      <trkpt lat="43.63583" lon="3.3692">
        <ele>221.2</ele>
        <time>2022-05-18T05:55:23Z</time>
      </trkpt>
      <trkpt lat="43.63586" lon="3.36905">
        <ele>220.6</ele>
        <time>2022-05-18T05:55:27Z</time>
      </trkpt>
      <trkpt lat="43.63589" lon="3.36889">
        <ele>219.8</ele>
        <time>2022-05-18T05:55:32Z</time>
      </trkpt>
      <trkpt lat="43.63589" lon="3.36885">
        <ele>219.6</ele>
        <time>2022-05-18T05:55:33Z</time>
      </trkpt>
      <trkpt lat="43.6359" lon="3.36874">
        <ele>218.4</ele>
        <time>2022-05-18T05:55:38Z</time>
      </trkpt>
      <trkpt lat="43.63592" lon="3.36872">
        <ele>217.4</ele>
        <time>2022-05-18T05:55:44Z</time>
      </trkpt>
      <trkpt lat="43.63592" lon="3.36867">
        <ele>216.8</ele>
        <time>2022-05-18T05:55:49Z</time>
      </trkpt>
      <trkpt lat="43.63592" lon="3.36867">
        <ele>216.4</ele>
        <time>2022-05-18T05:55:56Z</time>
      </trkpt>
      <trkpt lat="43.63592" lon="3.36867">
        <ele>216.2</ele>
        <time>2022-05-18T05:55:58Z</time>
      </trkpt>
      <trkpt lat="43.63591" lon="3.36867">
        <ele>215.4</ele>
        <time>2022-05-18T05:58:43Z</time>
      </trkpt>
      <trkpt lat="43.6359" lon="3.36866">
        <ele>216</ele>
        <time>2022-05-18T06:00:06Z</time>
      </trkpt>
      <trkpt lat="43.63591" lon="3.36859">
        <ele>215.8</ele>
        <time>2022-05-18T06:00:09Z</time>
      </trkpt>
      <trkpt lat="43.63594" lon="3.36834">
        <ele>215.2</ele>
        <time>2022-05-18T06:00:15Z</time>
      </trkpt>
      <trkpt lat="43.63598" lon="3.36807">
        <ele>214.6</ele>
        <time>2022-05-18T06:00:19Z</time>
      </trkpt>
      <trkpt lat="43.63598" lon="3.368">
        <ele>214.4</ele>
        <time>2022-05-18T06:00:20Z</time>
      </trkpt>
      <trkpt lat="43.63603" lon="3.36772">
        <ele>213.4</ele>
        <time>2022-05-18T06:00:25Z</time>
      </trkpt>
      <trkpt lat="43.63608" lon="3.36757">
        <ele>212.2</ele>
        <time>2022-05-18T06:00:28Z</time>
      </trkpt>
      <trkpt lat="43.63618" lon="3.36732">
        <ele>211.4</ele>
        <time>2022-05-18T06:00:32Z</time>
      </trkpt>
      <trkpt lat="43.6362" lon="3.36726">
        <ele>211.2</ele>
        <time>2022-05-18T06:00:33Z</time>
      </trkpt>
      <trkpt lat="43.63631" lon="3.36704">
        <ele>210.8</ele>
        <time>2022-05-18T06:00:36Z</time>
      </trkpt>
      <trkpt lat="43.63635" lon="3.36699">
        <ele>210.6</ele>
        <time>2022-05-18T06:00:37Z</time>
      </trkpt>
      <trkpt lat="43.63653" lon="3.36678">
        <ele>210.2</ele>
        <time>2022-05-18T06:00:40Z</time>
      </trkpt>
      <trkpt lat="43.6367" lon="3.3666">
        <ele>209.4</ele>
        <time>2022-05-18T06:00:43Z</time>
      </trkpt>
      <trkpt lat="43.63678" lon="3.36652">
        <ele>209</ele>
        <time>2022-05-18T06:00:44Z</time>
      </trkpt>
      <trkpt lat="43.63691" lon="3.36637">
        <ele>208.4</ele>
        <time>2022-05-18T06:00:46Z</time>
      </trkpt>
      <trkpt lat="43.63697" lon="3.36629">
        <ele>208</ele>
        <time>2022-05-18T06:00:47Z</time>
      </trkpt>
      <trkpt lat="43.63704" lon="3.36615">
        <ele>207</ele>
        <time>2022-05-18T06:00:49Z</time>
      </trkpt>
      <trkpt lat="43.63709" lon="3.36606">
        <ele>206.6</ele>
        <time>2022-05-18T06:00:50Z</time>
      </trkpt>
      <trkpt lat="43.63712" lon="3.36598">
        <ele>206.4</ele>
        <time>2022-05-18T06:00:51Z</time>
      </trkpt>
      <trkpt lat="43.63715" lon="3.3659">
        <ele>206</ele>
        <time>2022-05-18T06:00:52Z</time>
      </trkpt>
      <trkpt lat="43.6372" lon="3.36575">
        <ele>204.8</ele>
        <time>2022-05-18T06:00:54Z</time>
      </trkpt>
      <trkpt lat="43.6373" lon="3.3655">
        <ele>203.6</ele>
        <time>2022-05-18T06:00:57Z</time>
      </trkpt>
      <trkpt lat="43.63733" lon="3.36543">
        <ele>203</ele>
        <time>2022-05-18T06:00:58Z</time>
      </trkpt>
      <trkpt lat="43.6374" lon="3.36523">
        <ele>202.2</ele>
        <time>2022-05-18T06:01:00Z</time>
      </trkpt>
      <trkpt lat="43.63744" lon="3.36503">
        <ele>201.8</ele>
        <time>2022-05-18T06:01:02Z</time>
      </trkpt>
      <trkpt lat="43.63745" lon="3.36495">
        <ele>201.2</ele>
        <time>2022-05-18T06:01:03Z</time>
      </trkpt>
      <trkpt lat="43.63748" lon="3.36455">
        <ele>199.8</ele>
        <time>2022-05-18T06:01:07Z</time>
      </trkpt>
      <trkpt lat="43.63749" lon="3.36438">
        <ele>199.2</ele>
        <time>2022-05-18T06:01:09Z</time>
      </trkpt>
      <trkpt lat="43.6375" lon="3.36419">
        <ele>198.6</ele>
        <time>2022-05-18T06:01:11Z</time>
      </trkpt>
      <trkpt lat="43.63756" lon="3.36376">
        <ele>197.6</ele>
        <time>2022-05-18T06:01:16Z</time>
      </trkpt>
      <trkpt lat="43.63764" lon="3.36355">
        <ele>197</ele>
        <time>2022-05-18T06:01:19Z</time>
      </trkpt>
      <trkpt lat="43.63774" lon="3.36335">
        <ele>196.4</ele>
        <time>2022-05-18T06:01:22Z</time>
      </trkpt>
      <trkpt lat="43.63807" lon="3.3628">
        <ele>195.6</ele>
        <time>2022-05-18T06:01:31Z</time>
      </trkpt>
      <trkpt lat="43.63807" lon="3.3628">
        <ele>195.4</ele>
        <time>2022-05-18T06:01:32Z</time>
      </trkpt>
      <trkpt lat="43.63815" lon="3.36265">
        <ele>195.2</ele>
        <time>2022-05-18T06:01:33Z</time>
      </trkpt>
      <trkpt lat="43.63831" lon="3.3623">
        <ele>194.4</ele>
        <time>2022-05-18T06:01:37Z</time>
      </trkpt>
      <trkpt lat="43.63834" lon="3.36219">
        <ele>194.2</ele>
        <time>2022-05-18T06:01:39Z</time>
      </trkpt>
      <trkpt lat="43.63851" lon="3.36165">
        <ele>193.2</ele>
        <time>2022-05-18T06:01:44Z</time>
      </trkpt>
      <trkpt lat="43.63851" lon="3.36165">
        <ele>193</ele>
        <time>2022-05-18T06:01:45Z</time>
      </trkpt>
      <trkpt lat="43.63861" lon="3.36127">
        <ele>192.2</ele>
        <time>2022-05-18T06:01:48Z</time>
      </trkpt>
      <trkpt lat="43.63872" lon="3.36088">
        <ele>191.2</ele>
        <time>2022-05-18T06:01:52Z</time>
      </trkpt>
      <trkpt lat="43.63872" lon="3.36088">
        <ele>191</ele>
        <time>2022-05-18T06:01:53Z</time>
      </trkpt>
      <trkpt lat="43.63884" lon="3.36058">
        <ele>190.4</ele>
        <time>2022-05-18T06:01:55Z</time>
      </trkpt>
      <trkpt lat="43.63887" lon="3.3605">
        <ele>190</ele>
        <time>2022-05-18T06:01:57Z</time>
      </trkpt>
      <trkpt lat="43.63904" lon="3.36009">
        <ele>189.2</ele>
        <time>2022-05-18T06:02:00Z</time>
      </trkpt>
      <trkpt lat="43.63908" lon="3.35998">
        <ele>189</ele>
        <time>2022-05-18T06:02:01Z</time>
      </trkpt>
      <trkpt lat="43.6392" lon="3.35964">
        <ele>187.4</ele>
        <time>2022-05-18T06:02:04Z</time>
      </trkpt>
      <trkpt lat="43.63922" lon="3.35952">
        <ele>186.4</ele>
        <time>2022-05-18T06:02:06Z</time>
      </trkpt>
      <trkpt lat="43.63926" lon="3.35928">
        <ele>185.8</ele>
        <time>2022-05-18T06:02:07Z</time>
      </trkpt>
      <trkpt lat="43.6393" lon="3.35892">
        <ele>184.6</ele>
        <time>2022-05-18T06:02:10Z</time>
      </trkpt>
      <trkpt lat="43.63931" lon="3.3588">
        <ele>184.2</ele>
        <time>2022-05-18T06:02:11Z</time>
      </trkpt>
      <trkpt lat="43.63932" lon="3.35868">
        <ele>183.6</ele>
        <time>2022-05-18T06:02:13Z</time>
      </trkpt>
      <trkpt lat="43.63936" lon="3.35844">
        <ele>183.4</ele>
        <time>2022-05-18T06:02:14Z</time>
      </trkpt>
      <trkpt lat="43.6394" lon="3.35832">
        <ele>182.6</ele>
        <time>2022-05-18T06:02:16Z</time>
      </trkpt>
      <trkpt lat="43.63948" lon="3.35812">
        <ele>182</ele>
        <time>2022-05-18T06:02:17Z</time>
      </trkpt>
      <trkpt lat="43.6396" lon="3.35796">
        <ele>181.4</ele>
        <time>2022-05-18T06:02:19Z</time>
      </trkpt>
      <trkpt lat="43.63989" lon="3.35775">
        <ele>180.4</ele>
        <time>2022-05-18T06:02:23Z</time>
      </trkpt>
      <trkpt lat="43.63989" lon="3.35775">
        <ele>180.2</ele>
        <time>2022-05-18T06:02:24Z</time>
      </trkpt>
      <trkpt lat="43.64027" lon="3.35754">
        <ele>179</ele>
        <time>2022-05-18T06:02:29Z</time>
      </trkpt>
      <trkpt lat="43.64038" lon="3.35737">
        <ele>178.8</ele>
        <time>2022-05-18T06:02:30Z</time>
      </trkpt>
      <trkpt lat="43.64042" lon="3.35727">
        <ele>178</ele>
        <time>2022-05-18T06:02:32Z</time>
      </trkpt>
      <trkpt lat="43.64061" lon="3.35683">
        <ele>177.2</ele>
        <time>2022-05-18T06:02:35Z</time>
      </trkpt>
      <trkpt lat="43.64067" lon="3.35673">
        <ele>177</ele>
        <time>2022-05-18T06:02:36Z</time>
      </trkpt>
      <trkpt lat="43.64073" lon="3.35665">
        <ele>175.8</ele>
        <time>2022-05-18T06:02:38Z</time>
      </trkpt>
      <trkpt lat="43.64096" lon="3.35647">
        <ele>174.8</ele>
        <time>2022-05-18T06:02:40Z</time>
      </trkpt>
      <trkpt lat="43.64104" lon="3.35642">
        <ele>174.4</ele>
        <time>2022-05-18T06:02:41Z</time>
      </trkpt>
      <trkpt lat="43.64135" lon="3.35628">
        <ele>173</ele>
        <time>2022-05-18T06:02:45Z</time>
      </trkpt>
      <trkpt lat="43.64142" lon="3.35623">
        <ele>172.8</ele>
        <time>2022-05-18T06:02:46Z</time>
      </trkpt>
      <trkpt lat="43.64155" lon="3.35612">
        <ele>172.6</ele>
        <time>2022-05-18T06:02:49Z</time>
      </trkpt>
      <trkpt lat="43.64167" lon="3.35598">
        <ele>172</ele>
        <time>2022-05-18T06:02:51Z</time>
      </trkpt>
      <trkpt lat="43.64171" lon="3.35594">
        <ele>172</ele>
        <time>2022-05-18T06:02:52Z</time>
      </trkpt>
      <trkpt lat="43.64182" lon="3.35582">
        <ele>171</ele>
        <time>2022-05-18T06:02:55Z</time>
      </trkpt>
      <trkpt lat="43.64187" lon="3.35578">
        <ele>170.6</ele>
        <time>2022-05-18T06:02:56Z</time>
      </trkpt>
      <trkpt lat="43.64196" lon="3.3557">
        <ele>170.2</ele>
        <time>2022-05-18T06:02:58Z</time>
      </trkpt>
      <trkpt lat="43.64205" lon="3.35564">
        <ele>169.6</ele>
        <time>2022-05-18T06:03:00Z</time>
      </trkpt>
      <trkpt lat="43.64227" lon="3.35552">
        <ele>168.6</ele>
        <time>2022-05-18T06:03:04Z</time>
      </trkpt>
      <trkpt lat="43.64227" lon="3.35552">
        <ele>168.4</ele>
        <time>2022-05-18T06:03:05Z</time>
      </trkpt>
      <trkpt lat="43.64256" lon="3.35543">
        <ele>167.4</ele>
        <time>2022-05-18T06:03:09Z</time>
      </trkpt>
      <trkpt lat="43.64263" lon="3.35541">
        <ele>167.2</ele>
        <time>2022-05-18T06:03:10Z</time>
      </trkpt>
      <trkpt lat="43.64286" lon="3.35531">
        <ele>166.4</ele>
        <time>2022-05-18T06:03:12Z</time>
      </trkpt>
      <trkpt lat="43.64293" lon="3.35526">
        <ele>165.6</ele>
        <time>2022-05-18T06:03:14Z</time>
      </trkpt>
      <trkpt lat="43.64308" lon="3.35511">
        <ele>165.2</ele>
        <time>2022-05-18T06:03:15Z</time>
      </trkpt>
      <trkpt lat="43.64322" lon="3.35494">
        <ele>164.6</ele>
        <time>2022-05-18T06:03:17Z</time>
      </trkpt>
      <trkpt lat="43.64336" lon="3.3548">
        <ele>163.6</ele>
        <time>2022-05-18T06:03:19Z</time>
      </trkpt>
      <trkpt lat="43.64344" lon="3.35473">
        <ele>162.6</ele>
        <time>2022-05-18T06:03:21Z</time>
      </trkpt>
      <trkpt lat="43.64358" lon="3.3546">
        <ele>161.8</ele>
        <time>2022-05-18T06:03:23Z</time>
      </trkpt>
      <trkpt lat="43.64371" lon="3.35445">
        <ele>161.6</ele>
        <time>2022-05-18T06:03:24Z</time>
      </trkpt>
      <trkpt lat="43.64371" lon="3.35445">
        <ele>161</ele>
        <time>2022-05-18T06:03:25Z</time>
      </trkpt>
      <trkpt lat="43.64382" lon="3.35429">
        <ele>160.4</ele>
        <time>2022-05-18T06:03:27Z</time>
      </trkpt>
      <trkpt lat="43.64397" lon="3.35406">
        <ele>160</ele>
        <time>2022-05-18T06:03:29Z</time>
      </trkpt>
      <trkpt lat="43.64422" lon="3.35369">
        <ele>158.8</ele>
        <time>2022-05-18T06:03:34Z</time>
      </trkpt>
      <trkpt lat="43.64452" lon="3.35327">
        <ele>157.8</ele>
        <time>2022-05-18T06:03:40Z</time>
      </trkpt>
      <trkpt lat="43.64458" lon="3.35321">
        <ele>157.4</ele>
        <time>2022-05-18T06:03:41Z</time>
      </trkpt>
      <trkpt lat="43.64481" lon="3.35297">
        <ele>156.6</ele>
        <time>2022-05-18T06:03:45Z</time>
      </trkpt>
      <trkpt lat="43.64491" lon="3.35281">
        <ele>156.2</ele>
        <time>2022-05-18T06:03:47Z</time>
      </trkpt>
      <trkpt lat="43.64505" lon="3.35256">
        <ele>155.4</ele>
        <time>2022-05-18T06:03:50Z</time>
      </trkpt>
      <trkpt lat="43.64522" lon="3.35221">
        <ele>154.4</ele>
        <time>2022-05-18T06:03:54Z</time>
      </trkpt>
      <trkpt lat="43.64526" lon="3.35212">
        <ele>154</ele>
        <time>2022-05-18T06:03:55Z</time>
      </trkpt>
      <trkpt lat="43.64541" lon="3.35174">
        <ele>153.4</ele>
        <time>2022-05-18T06:03:59Z</time>
      </trkpt>
      <trkpt lat="43.64552" lon="3.35147">
        <ele>152</ele>
        <time>2022-05-18T06:04:02Z</time>
      </trkpt>
      <trkpt lat="43.6456" lon="3.35131">
        <ele>151.4</ele>
        <time>2022-05-18T06:04:04Z</time>
      </trkpt>
      <trkpt lat="43.64568" lon="3.35116">
        <ele>150.8</ele>
        <time>2022-05-18T06:04:06Z</time>
      </trkpt>
      <trkpt lat="43.64592" lon="3.35073">
        <ele>149.8</ele>
        <time>2022-05-18T06:04:12Z</time>
      </trkpt>
      <trkpt lat="43.64592" lon="3.35073">
        <ele>149.6</ele>
        <time>2022-05-18T06:04:13Z</time>
      </trkpt>
      <trkpt lat="43.64612" lon="3.35042">
        <ele>148.6</ele>
        <time>2022-05-18T06:04:17Z</time>
      </trkpt>
      <trkpt lat="43.64616" lon="3.35037">
        <ele>148.6</ele>
        <time>2022-05-18T06:04:18Z</time>
      </trkpt>
      <trkpt lat="43.64626" lon="3.35032">
        <ele>148</ele>
        <time>2022-05-18T06:04:20Z</time>
      </trkpt>
      <trkpt lat="43.6463" lon="3.3503">
        <ele>147.4</ele>
        <time>2022-05-18T06:04:21Z</time>
      </trkpt>
      <trkpt lat="43.6464" lon="3.35024">
        <ele>146.6</ele>
        <time>2022-05-18T06:04:23Z</time>
      </trkpt>
      <trkpt lat="43.64644" lon="3.35021">
        <ele>146.2</ele>
        <time>2022-05-18T06:04:24Z</time>
      </trkpt>
      <trkpt lat="43.64659" lon="3.35006">
        <ele>145.2</ele>
        <time>2022-05-18T06:04:27Z</time>
      </trkpt>
      <trkpt lat="43.64664" lon="3.35">
        <ele>145</ele>
        <time>2022-05-18T06:04:28Z</time>
      </trkpt>
      <trkpt lat="43.64675" lon="3.34989">
        <ele>144</ele>
        <time>2022-05-18T06:04:30Z</time>
      </trkpt>
      <trkpt lat="43.6468" lon="3.34984">
        <ele>143.8</ele>
        <time>2022-05-18T06:04:31Z</time>
      </trkpt>
      <trkpt lat="43.64691" lon="3.34979">
        <ele>143.2</ele>
        <time>2022-05-18T06:04:33Z</time>
      </trkpt>
      <trkpt lat="43.64697" lon="3.34981">
        <ele>142.8</ele>
        <time>2022-05-18T06:04:34Z</time>
      </trkpt>
      <trkpt lat="43.64703" lon="3.34986">
        <ele>142.6</ele>
        <time>2022-05-18T06:04:35Z</time>
      </trkpt>
      <trkpt lat="43.64703" lon="3.34986">
        <ele>142</ele>
        <time>2022-05-18T06:04:36Z</time>
      </trkpt>
      <trkpt lat="43.64717" lon="3.35003">
        <ele>141.6</ele>
        <time>2022-05-18T06:04:38Z</time>
      </trkpt>
      <trkpt lat="43.64735" lon="3.35017">
        <ele>140.6</ele>
        <time>2022-05-18T06:04:42Z</time>
      </trkpt>
      <trkpt lat="43.64743" lon="3.3502">
        <ele>140.4</ele>
        <time>2022-05-18T06:04:44Z</time>
      </trkpt>
      <trkpt lat="43.64744" lon="3.35022">
        <ele>140.2</ele>
        <time>2022-05-18T06:04:45Z</time>
      </trkpt>
      <trkpt lat="43.64746" lon="3.35023">
        <ele>140.2</ele>
        <time>2022-05-18T06:04:46Z</time>
      </trkpt>
      <trkpt lat="43.64749" lon="3.35021">
        <ele>139.8</ele>
        <time>2022-05-18T06:04:48Z</time>
      </trkpt>
      <trkpt lat="43.64748" lon="3.35019">
        <ele>139.6</ele>
        <time>2022-05-18T06:04:50Z</time>
      </trkpt>
      <trkpt lat="43.64744" lon="3.35018">
        <ele>139.4</ele>
        <time>2022-05-18T06:04:52Z</time>
      </trkpt>
      <trkpt lat="43.64724" lon="3.35013">
        <ele>139.2</ele>
        <time>2022-05-18T06:05:00Z</time>
      </trkpt>
      <trkpt lat="43.64707" lon="3.34996">
        <ele>139.8</ele>
        <time>2022-05-18T06:05:07Z</time>
      </trkpt>
      <trkpt lat="43.64699" lon="3.34985">
        <ele>140.2</ele>
        <time>2022-05-18T06:05:12Z</time>
      </trkpt>
      <trkpt lat="43.64701" lon="3.34967">
        <ele>140.2</ele>
        <time>2022-05-18T06:05:18Z</time>
      </trkpt>
      <trkpt lat="43.64707" lon="3.3495">
        <ele>139.8</ele>
        <time>2022-05-18T06:05:25Z</time>
      </trkpt>
      <trkpt lat="43.64712" lon="3.34935">
        <ele>139.8</ele>
        <time>2022-05-18T06:05:33Z</time>
      </trkpt>
      <trkpt lat="43.64713" lon="3.3493">
        <ele>140</ele>
        <time>2022-05-18T06:05:40Z</time>
      </trkpt>
      <trkpt lat="43.64713" lon="3.34923">
        <ele>140</ele>
        <time>2022-05-18T06:05:49Z</time>
      </trkpt>
      <trkpt lat="43.64716" lon="3.34903">
        <ele>140.2</ele>
        <time>2022-05-18T06:05:54Z</time>
      </trkpt>
      <trkpt lat="43.64722" lon="3.34878">
        <ele>140.2</ele>
        <time>2022-05-18T06:06:00Z</time>
      </trkpt>
      <trkpt lat="43.64726" lon="3.34849">
        <ele>140.6</ele>
        <time>2022-05-18T06:06:08Z</time>
      </trkpt>
      <trkpt lat="43.64727" lon="3.34846">
        <ele>140.6</ele>
        <time>2022-05-18T06:06:09Z</time>
      </trkpt>
      <trkpt lat="43.64727" lon="3.34844">
        <ele>140.8</ele>
        <time>2022-05-18T06:06:11Z</time>
      </trkpt>
      <trkpt lat="43.64727" lon="3.34844">
        <ele>140.8</ele>
        <time>2022-05-18T06:06:13Z</time>
      </trkpt>
      <trkpt lat="43.64727" lon="3.34837">
        <ele>141</ele>
        <time>2022-05-18T06:06:29Z</time>
      </trkpt>
      <trkpt lat="43.64728" lon="3.34809">
        <ele>141</ele>
        <time>2022-05-18T06:06:34Z</time>
      </trkpt>
      <trkpt lat="43.64734" lon="3.34769">
        <ele>141</ele>
        <time>2022-05-18T06:06:41Z</time>
      </trkpt>
      <trkpt lat="43.64733" lon="3.3474">
        <ele>140.8</ele>
        <time>2022-05-18T06:06:47Z</time>
      </trkpt>
      <trkpt lat="43.64729" lon="3.34708">
        <ele>141.4</ele>
        <time>2022-05-18T06:06:55Z</time>
      </trkpt>
      <trkpt lat="43.64727" lon="3.34692">
        <ele>141.6</ele>
        <time>2022-05-18T06:06:59Z</time>
      </trkpt>
      <trkpt lat="43.64726" lon="3.34673">
        <ele>142</ele>
        <time>2022-05-18T06:07:04Z</time>
      </trkpt>
      <trkpt lat="43.64724" lon="3.34648">
        <ele>142.8</ele>
        <time>2022-05-18T06:07:10Z</time>
      </trkpt>
      <trkpt lat="43.64723" lon="3.34641">
        <ele>143</ele>
        <time>2022-05-18T06:07:12Z</time>
      </trkpt>
      <trkpt lat="43.64724" lon="3.34622">
        <ele>143.4</ele>
        <time>2022-05-18T06:07:18Z</time>
      </trkpt>
      <trkpt lat="43.64727" lon="3.34613">
        <ele>143.4</ele>
        <time>2022-05-18T06:07:20Z</time>
      </trkpt>
      <trkpt lat="43.64728" lon="3.34608">
        <ele>143.4</ele>
        <time>2022-05-18T06:07:21Z</time>
      </trkpt>
      <trkpt lat="43.64728" lon="3.34591">
        <ele>143.2</ele>
        <time>2022-05-18T06:07:25Z</time>
      </trkpt>
      <trkpt lat="43.64728" lon="3.34576">
        <ele>143.2</ele>
        <time>2022-05-18T06:07:30Z</time>
      </trkpt>
      <trkpt lat="43.64729" lon="3.34572">
        <ele>143.6</ele>
        <time>2022-05-18T06:07:32Z</time>
      </trkpt>
      <trkpt lat="43.6473" lon="3.3457">
        <ele>144</ele>
        <time>2022-05-18T06:07:33Z</time>
      </trkpt>
      <trkpt lat="43.64731" lon="3.34567">
        <ele>144.2</ele>
        <time>2022-05-18T06:07:34Z</time>
      </trkpt>
      <trkpt lat="43.64734" lon="3.34563">
        <ele>144.8</ele>
        <time>2022-05-18T06:07:36Z</time>
      </trkpt>
      <trkpt lat="43.64735" lon="3.34561">
        <ele>145</ele>
        <time>2022-05-18T06:07:37Z</time>
      </trkpt>
      <trkpt lat="43.64735" lon="3.34551">
        <ele>145.6</ele>
        <time>2022-05-18T06:07:40Z</time>
      </trkpt>
      <trkpt lat="43.64735" lon="3.34545">
        <ele>146.2</ele>
        <time>2022-05-18T06:07:42Z</time>
      </trkpt>
      <trkpt lat="43.64734" lon="3.34531">
        <ele>146.4</ele>
        <time>2022-05-18T06:07:46Z</time>
      </trkpt>
      <trkpt lat="43.64733" lon="3.34507">
        <ele>146.6</ele>
        <time>2022-05-18T06:07:52Z</time>
      </trkpt>
      <trkpt lat="43.64735" lon="3.34476">
        <ele>147</ele>
        <time>2022-05-18T06:08:00Z</time>
      </trkpt>
      <trkpt lat="43.64736" lon="3.34464">
        <ele>147.2</ele>
        <time>2022-05-18T06:08:03Z</time>
      </trkpt>
      <trkpt lat="43.64737" lon="3.34441">
        <ele>147.6</ele>
        <time>2022-05-18T06:08:08Z</time>
      </trkpt>
      <trkpt lat="43.64737" lon="3.34421">
        <ele>148</ele>
        <time>2022-05-18T06:08:14Z</time>
      </trkpt>
      <trkpt lat="43.6474" lon="3.34402">
        <ele>148.4</ele>
        <time>2022-05-18T06:08:18Z</time>
      </trkpt>
      <trkpt lat="43.64738" lon="3.34386">
        <ele>148.4</ele>
        <time>2022-05-18T06:08:22Z</time>
      </trkpt>
      <trkpt lat="43.64741" lon="3.3436">
        <ele>149</ele>
        <time>2022-05-18T06:08:30Z</time>
      </trkpt>
      <trkpt lat="43.64743" lon="3.34353">
        <ele>149.4</ele>
        <time>2022-05-18T06:08:32Z</time>
      </trkpt>
      <trkpt lat="43.64747" lon="3.34338">
        <ele>150</ele>
        <time>2022-05-18T06:08:37Z</time>
      </trkpt>
      <trkpt lat="43.64748" lon="3.34332">
        <ele>150.4</ele>
        <time>2022-05-18T06:08:39Z</time>
      </trkpt>
      <trkpt lat="43.64753" lon="3.34318">
        <ele>151.6</ele>
        <time>2022-05-18T06:08:44Z</time>
      </trkpt>
      <trkpt lat="43.6475" lon="3.34299">
        <ele>152</ele>
        <time>2022-05-18T06:08:49Z</time>
      </trkpt>
      <trkpt lat="43.64746" lon="3.34276">
        <ele>152.2</ele>
        <time>2022-05-18T06:08:55Z</time>
      </trkpt>
      <trkpt lat="43.64744" lon="3.34267">
        <ele>152.6</ele>
        <time>2022-05-18T06:08:58Z</time>
      </trkpt>
      <trkpt lat="43.64742" lon="3.34259">
        <ele>153.2</ele>
        <time>2022-05-18T06:09:01Z</time>
      </trkpt>
      <trkpt lat="43.64743" lon="3.34249">
        <ele>153.8</ele>
        <time>2022-05-18T06:09:05Z</time>
      </trkpt>
      <trkpt lat="43.64744" lon="3.34245">
        <ele>154</ele>
        <time>2022-05-18T06:09:07Z</time>
      </trkpt>
      <trkpt lat="43.64746" lon="3.34235">
        <ele>155</ele>
        <time>2022-05-18T06:09:11Z</time>
      </trkpt>
      <trkpt lat="43.64746" lon="3.34234">
        <ele>155.4</ele>
        <time>2022-05-18T06:09:13Z</time>
      </trkpt>
      <trkpt lat="43.64746" lon="3.34224">
        <ele>156.2</ele>
        <time>2022-05-18T06:09:16Z</time>
      </trkpt>
      <trkpt lat="43.64748" lon="3.34213">
        <ele>157.2</ele>
        <time>2022-05-18T06:09:21Z</time>
      </trkpt>
      <trkpt lat="43.64747" lon="3.34206">
        <ele>158.2</ele>
        <time>2022-05-18T06:09:25Z</time>
      </trkpt>
      <trkpt lat="43.64746" lon="3.342">
        <ele>158.8</ele>
        <time>2022-05-18T06:09:28Z</time>
      </trkpt>
      <trkpt lat="43.64746" lon="3.34198">
        <ele>159.2</ele>
        <time>2022-05-18T06:09:29Z</time>
      </trkpt>
      <trkpt lat="43.64749" lon="3.3418">
        <ele>160.4</ele>
        <time>2022-05-18T06:09:35Z</time>
      </trkpt>
      <trkpt lat="43.64759" lon="3.34149">
        <ele>160.8</ele>
        <time>2022-05-18T06:09:43Z</time>
      </trkpt>
      <trkpt lat="43.64766" lon="3.34126">
        <ele>160.6</ele>
        <time>2022-05-18T06:09:51Z</time>
      </trkpt>
      <trkpt lat="43.64771" lon="3.341">
        <ele>160.8</ele>
        <time>2022-05-18T06:09:59Z</time>
      </trkpt>
      <trkpt lat="43.64775" lon="3.34086">
        <ele>161.4</ele>
        <time>2022-05-18T06:10:03Z</time>
      </trkpt>
      <trkpt lat="43.6478" lon="3.34073">
        <ele>161.6</ele>
        <time>2022-05-18T06:10:07Z</time>
      </trkpt>
      <trkpt lat="43.64787" lon="3.3405">
        <ele>161.8</ele>
        <time>2022-05-18T06:10:14Z</time>
      </trkpt>
      <trkpt lat="43.64793" lon="3.34033">
        <ele>161.8</ele>
        <time>2022-05-18T06:10:18Z</time>
      </trkpt>
      <trkpt lat="43.64794" lon="3.34026">
        <ele>161.6</ele>
        <time>2022-05-18T06:10:19Z</time>
      </trkpt>
      <trkpt lat="43.64803" lon="3.33998">
        <ele>161.2</ele>
        <time>2022-05-18T06:10:24Z</time>
      </trkpt>
      <trkpt lat="43.6481" lon="3.33973">
        <ele>160.4</ele>
        <time>2022-05-18T06:10:30Z</time>
      </trkpt>
      <trkpt lat="43.64811" lon="3.3397">
        <ele>160.2</ele>
        <time>2022-05-18T06:10:31Z</time>
      </trkpt>
      <trkpt lat="43.64812" lon="3.33958">
        <ele>159.6</ele>
        <time>2022-05-18T06:10:36Z</time>
      </trkpt>
      <trkpt lat="43.64812" lon="3.33952">
        <ele>159.2</ele>
        <time>2022-05-18T06:10:39Z</time>
      </trkpt>
      <trkpt lat="43.64812" lon="3.33952">
        <ele>158.8</ele>
        <time>2022-05-18T06:10:41Z</time>
      </trkpt>
      <trkpt lat="43.64812" lon="3.33952">
        <ele>158</ele>
        <time>2022-05-18T06:10:45Z</time>
      </trkpt>
      <trkpt lat="43.64814" lon="3.33949">
        <ele>157.4</ele>
        <time>2022-05-18T06:10:52Z</time>
      </trkpt>
      <trkpt lat="43.64817" lon="3.3394">
        <ele>157</ele>
        <time>2022-05-18T06:10:58Z</time>
      </trkpt>
      <trkpt lat="43.64818" lon="3.33938">
        <ele>156.8</ele>
        <time>2022-05-18T06:10:59Z</time>
      </trkpt>
      <trkpt lat="43.6482" lon="3.3393">
        <ele>155.6</ele>
        <time>2022-05-18T06:11:03Z</time>
      </trkpt>
      <trkpt lat="43.6482" lon="3.33925">
        <ele>154.8</ele>
        <time>2022-05-18T06:11:05Z</time>
      </trkpt>
      <trkpt lat="43.6482" lon="3.3392">
        <ele>154.4</ele>
        <time>2022-05-18T06:11:06Z</time>
      </trkpt>
      <trkpt lat="43.64823" lon="3.3391">
        <ele>153.2</ele>
        <time>2022-05-18T06:11:09Z</time>
      </trkpt>
      <trkpt lat="43.64831" lon="3.33897">
        <ele>152.8</ele>
        <time>2022-05-18T06:11:15Z</time>
      </trkpt>
      <trkpt lat="43.64832" lon="3.33891">
        <ele>153.4</ele>
        <time>2022-05-18T06:11:18Z</time>
      </trkpt>
      <trkpt lat="43.64831" lon="3.33886">
        <ele>154.4</ele>
        <time>2022-05-18T06:11:21Z</time>
      </trkpt>
      <trkpt lat="43.64831" lon="3.33887">
        <ele>155.4</ele>
        <time>2022-05-18T06:11:26Z</time>
      </trkpt>
      <trkpt lat="43.64831" lon="3.33888">
        <ele>155.6</ele>
        <time>2022-05-18T06:11:32Z</time>
      </trkpt>
      <trkpt lat="43.64831" lon="3.33888">
        <ele>155.6</ele>
        <time>2022-05-18T06:12:24Z</time>
      </trkpt>
      <trkpt lat="43.64834" lon="3.3388">
        <ele>155.6</ele>
        <time>2022-05-18T06:12:28Z</time>
      </trkpt>
      <trkpt lat="43.64839" lon="3.33857">
        <ele>156</ele>
        <time>2022-05-18T06:12:37Z</time>
      </trkpt>
      <trkpt lat="43.64845" lon="3.33839">
        <ele>156</ele>
        <time>2022-05-18T06:12:44Z</time>
      </trkpt>
      <trkpt lat="43.64849" lon="3.33817">
        <ele>155.8</ele>
        <time>2022-05-18T06:12:49Z</time>
      </trkpt>
      <trkpt lat="43.64854" lon="3.33786">
        <ele>155.6</ele>
        <time>2022-05-18T06:12:55Z</time>
      </trkpt>
      <trkpt lat="43.64855" lon="3.33773">
        <ele>154.4</ele>
        <time>2022-05-18T06:12:59Z</time>
      </trkpt>
      <trkpt lat="43.64856" lon="3.33751">
        <ele>153.4</ele>
        <time>2022-05-18T06:13:02Z</time>
      </trkpt>
      <trkpt lat="43.64856" lon="3.33745">
        <ele>153</ele>
        <time>2022-05-18T06:13:03Z</time>
      </trkpt>
      <trkpt lat="43.64855" lon="3.33731">
        <ele>152</ele>
        <time>2022-05-18T06:13:05Z</time>
      </trkpt>
      <trkpt lat="43.64855" lon="3.33715">
        <ele>151.4</ele>
        <time>2022-05-18T06:13:08Z</time>
      </trkpt>
      <trkpt lat="43.64855" lon="3.33699">
        <ele>150.8</ele>
        <time>2022-05-18T06:13:11Z</time>
      </trkpt>
      <trkpt lat="43.64854" lon="3.3369">
        <ele>150</ele>
        <time>2022-05-18T06:13:13Z</time>
      </trkpt>
      <trkpt lat="43.64855" lon="3.33683">
        <ele>149</ele>
        <time>2022-05-18T06:13:15Z</time>
      </trkpt>
      <trkpt lat="43.64856" lon="3.33678">
        <ele>148.2</ele>
        <time>2022-05-18T06:13:17Z</time>
      </trkpt>
      <trkpt lat="43.64856" lon="3.33676">
        <ele>147.8</ele>
        <time>2022-05-18T06:13:18Z</time>
      </trkpt>
      <trkpt lat="43.64856" lon="3.33675">
        <ele>147</ele>
        <time>2022-05-18T06:13:21Z</time>
      </trkpt>
      <trkpt lat="43.64856" lon="3.33675">
        <ele>146.6</ele>
        <time>2022-05-18T06:13:22Z</time>
      </trkpt>
      <trkpt lat="43.64861" lon="3.33668">
        <ele>146.2</ele>
        <time>2022-05-18T06:13:27Z</time>
      </trkpt>
      <trkpt lat="43.6486" lon="3.33653">
        <ele>145.8</ele>
        <time>2022-05-18T06:13:31Z</time>
      </trkpt>
      <trkpt lat="43.64854" lon="3.33637">
        <ele>145.8</ele>
        <time>2022-05-18T06:13:35Z</time>
      </trkpt>
      <trkpt lat="43.64853" lon="3.33628">
        <ele>145.6</ele>
        <time>2022-05-18T06:13:37Z</time>
      </trkpt>
      <trkpt lat="43.64853" lon="3.33602">
        <ele>145.2</ele>
        <time>2022-05-18T06:13:44Z</time>
      </trkpt>
      <trkpt lat="43.64853" lon="3.33583">
        <ele>145.2</ele>
        <time>2022-05-18T06:13:49Z</time>
      </trkpt>
      <trkpt lat="43.64853" lon="3.3357">
        <ele>144.6</ele>
        <time>2022-05-18T06:13:54Z</time>
      </trkpt>
      <trkpt lat="43.64853" lon="3.3355">
        <ele>143.4</ele>
        <time>2022-05-18T06:14:00Z</time>
      </trkpt>
      <trkpt lat="43.64854" lon="3.33538">
        <ele>142.6</ele>
        <time>2022-05-18T06:14:04Z</time>
      </trkpt>
      <trkpt lat="43.64852" lon="3.33522">
        <ele>143</ele>
        <time>2022-05-18T06:14:10Z</time>
      </trkpt>
      <trkpt lat="43.64849" lon="3.33498">
        <ele>143.6</ele>
        <time>2022-05-18T06:14:16Z</time>
      </trkpt>
      <trkpt lat="43.64843" lon="3.33463">
        <ele>143.6</ele>
        <time>2022-05-18T06:14:22Z</time>
      </trkpt>
      <trkpt lat="43.64843" lon="3.33442">
        <ele>142.8</ele>
        <time>2022-05-18T06:14:26Z</time>
      </trkpt>
      <trkpt lat="43.64844" lon="3.33435">
        <ele>142.4</ele>
        <time>2022-05-18T06:14:28Z</time>
      </trkpt>
      <trkpt lat="43.64843" lon="3.33422">
        <ele>142</ele>
        <time>2022-05-18T06:14:32Z</time>
      </trkpt>
      <trkpt lat="43.64842" lon="3.33399">
        <ele>142.2</ele>
        <time>2022-05-18T06:14:39Z</time>
      </trkpt>
      <trkpt lat="43.6484" lon="3.3336">
        <ele>142.2</ele>
        <time>2022-05-18T06:14:49Z</time>
      </trkpt>
      <trkpt lat="43.64837" lon="3.33324">
        <ele>141.8</ele>
        <time>2022-05-18T06:14:57Z</time>
      </trkpt>
      <trkpt lat="43.64836" lon="3.3329">
        <ele>141.4</ele>
        <time>2022-05-18T06:15:05Z</time>
      </trkpt>
      <trkpt lat="43.64833" lon="3.33284">
        <ele>141.4</ele>
        <time>2022-05-18T06:15:07Z</time>
      </trkpt>
      <trkpt lat="43.64827" lon="3.3328">
        <ele>141.4</ele>
        <time>2022-05-18T06:15:09Z</time>
      </trkpt>
      <trkpt lat="43.6481" lon="3.33267">
        <ele>141.4</ele>
        <time>2022-05-18T06:15:16Z</time>
      </trkpt>
      <trkpt lat="43.64783" lon="3.33248">
        <ele>141.8</ele>
        <time>2022-05-18T06:15:24Z</time>
      </trkpt>
      <trkpt lat="43.64749" lon="3.33225">
        <ele>142.2</ele>
        <time>2022-05-18T06:15:34Z</time>
      </trkpt>
      <trkpt lat="43.64715" lon="3.33202">
        <ele>142.2</ele>
        <time>2022-05-18T06:15:44Z</time>
      </trkpt>
      <trkpt lat="43.64686" lon="3.33182">
        <ele>142.4</ele>
        <time>2022-05-18T06:15:52Z</time>
      </trkpt>
      <trkpt lat="43.64683" lon="3.3318">
        <ele>142.4</ele>
        <time>2022-05-18T06:15:53Z</time>
      </trkpt>
      <trkpt lat="43.64641" lon="3.33152">
        <ele>142.8</ele>
        <time>2022-05-18T06:16:04Z</time>
      </trkpt>
      <trkpt lat="43.64582" lon="3.33113">
        <ele>143</ele>
        <time>2022-05-18T06:16:19Z</time>
      </trkpt>
      <trkpt lat="43.64537" lon="3.33083">
        <ele>143.2</ele>
        <time>2022-05-18T06:16:31Z</time>
      </trkpt>
      <trkpt lat="43.6453" lon="3.33079">
        <ele>143.4</ele>
        <time>2022-05-18T06:16:33Z</time>
      </trkpt>
      <trkpt lat="43.64502" lon="3.3306">
        <ele>144.4</ele>
        <time>2022-05-18T06:16:41Z</time>
      </trkpt>
      <trkpt lat="43.64495" lon="3.33054">
        <ele>144.4</ele>
        <time>2022-05-18T06:16:43Z</time>
      </trkpt>
      <trkpt lat="43.64474" lon="3.3304">
        <ele>145</ele>
        <time>2022-05-18T06:16:49Z</time>
      </trkpt>
      <trkpt lat="43.64453" lon="3.33025">
        <ele>145.6</ele>
        <time>2022-05-18T06:16:55Z</time>
      </trkpt>
      <trkpt lat="43.64436" lon="3.33012">
        <ele>145.8</ele>
        <time>2022-05-18T06:17:00Z</time>
      </trkpt>
      <trkpt lat="43.64405" lon="3.32982">
        <ele>146.2</ele>
        <time>2022-05-18T06:17:09Z</time>
      </trkpt>
      <trkpt lat="43.64387" lon="3.32958">
        <ele>146.6</ele>
        <time>2022-05-18T06:17:15Z</time>
      </trkpt>
      <trkpt lat="43.64369" lon="3.32932">
        <ele>146.6</ele>
        <time>2022-05-18T06:17:21Z</time>
      </trkpt>
      <trkpt lat="43.64359" lon="3.3292">
        <ele>146.6</ele>
        <time>2022-05-18T06:17:24Z</time>
      </trkpt>
      <trkpt lat="43.64343" lon="3.329">
        <ele>146.8</ele>
        <time>2022-05-18T06:17:29Z</time>
      </trkpt>
      <trkpt lat="43.64318" lon="3.32873">
        <ele>147.4</ele>
        <time>2022-05-18T06:17:37Z</time>
      </trkpt>
      <trkpt lat="43.64304" lon="3.32863">
        <ele>147.6</ele>
        <time>2022-05-18T06:17:41Z</time>
      </trkpt>
      <trkpt lat="43.64293" lon="3.32858">
        <ele>148</ele>
        <time>2022-05-18T06:17:44Z</time>
      </trkpt>
      <trkpt lat="43.64256" lon="3.32848">
        <ele>148.6</ele>
        <time>2022-05-18T06:17:53Z</time>
      </trkpt>
      <trkpt lat="43.64228" lon="3.3283">
        <ele>148.2</ele>
        <time>2022-05-18T06:18:00Z</time>
      </trkpt>
      <trkpt lat="43.64191" lon="3.32812">
        <ele>148.2</ele>
        <time>2022-05-18T06:18:09Z</time>
      </trkpt>
      <trkpt lat="43.64154" lon="3.32806">
        <ele>148.2</ele>
        <time>2022-05-18T06:18:18Z</time>
      </trkpt>
      <trkpt lat="43.64119" lon="3.32794">
        <ele>147.8</ele>
        <time>2022-05-18T06:18:26Z</time>
      </trkpt>
      <trkpt lat="43.64102" lon="3.32785">
        <ele>147.8</ele>
        <time>2022-05-18T06:18:31Z</time>
      </trkpt>
      <trkpt lat="43.64073" lon="3.32767">
        <ele>147.4</ele>
        <time>2022-05-18T06:18:39Z</time>
      </trkpt>
      <trkpt lat="43.64051" lon="3.32753">
        <ele>147</ele>
        <time>2022-05-18T06:18:46Z</time>
      </trkpt>
      <trkpt lat="43.64029" lon="3.32726">
        <ele>146.8</ele>
        <time>2022-05-18T06:18:52Z</time>
      </trkpt>
      <trkpt lat="43.64013" lon="3.32697">
        <ele>147</ele>
        <time>2022-05-18T06:19:00Z</time>
      </trkpt>
      <trkpt lat="43.63996" lon="3.32659">
        <ele>147.4</ele>
        <time>2022-05-18T06:19:07Z</time>
      </trkpt>
      <trkpt lat="43.63977" lon="3.32623">
        <ele>147.6</ele>
        <time>2022-05-18T06:19:15Z</time>
      </trkpt>
      <trkpt lat="43.63952" lon="3.32594">
        <ele>147.8</ele>
        <time>2022-05-18T06:19:23Z</time>
      </trkpt>
      <trkpt lat="43.63912" lon="3.32565">
        <ele>148</ele>
        <time>2022-05-18T06:19:34Z</time>
      </trkpt>
      <trkpt lat="43.63873" lon="3.32539">
        <ele>148.4</ele>
        <time>2022-05-18T06:19:44Z</time>
      </trkpt>
      <trkpt lat="43.6384" lon="3.32513">
        <ele>148.6</ele>
        <time>2022-05-18T06:19:53Z</time>
      </trkpt>
      <trkpt lat="43.63836" lon="3.32511">
        <ele>148.6</ele>
        <time>2022-05-18T06:19:54Z</time>
      </trkpt>
      <trkpt lat="43.63814" lon="3.32492">
        <ele>149.2</ele>
        <time>2022-05-18T06:20:01Z</time>
      </trkpt>
      <trkpt lat="43.63804" lon="3.32485">
        <ele>149.8</ele>
        <time>2022-05-18T06:20:04Z</time>
      </trkpt>
      <trkpt lat="43.63783" lon="3.32472">
        <ele>150.6</ele>
        <time>2022-05-18T06:20:10Z</time>
      </trkpt>
      <trkpt lat="43.6378" lon="3.3247">
        <ele>150.8</ele>
        <time>2022-05-18T06:20:11Z</time>
      </trkpt>
      <trkpt lat="43.63755" lon="3.32459">
        <ele>151.8</ele>
        <time>2022-05-18T06:20:18Z</time>
      </trkpt>
      <trkpt lat="43.63748" lon="3.32456">
        <ele>152.4</ele>
        <time>2022-05-18T06:20:20Z</time>
      </trkpt>
      <trkpt lat="43.63734" lon="3.32449">
        <ele>153</ele>
        <time>2022-05-18T06:20:24Z</time>
      </trkpt>
      <trkpt lat="43.63721" lon="3.32438">
        <ele>153.4</ele>
        <time>2022-05-18T06:20:28Z</time>
      </trkpt>
      <trkpt lat="43.63702" lon="3.32413">
        <ele>154</ele>
        <time>2022-05-18T06:20:35Z</time>
      </trkpt>
      <trkpt lat="43.63699" lon="3.32409">
        <ele>154</ele>
        <time>2022-05-18T06:20:36Z</time>
      </trkpt>
      <trkpt lat="43.63675" lon="3.32376">
        <ele>155</ele>
        <time>2022-05-18T06:20:45Z</time>
      </trkpt>
      <trkpt lat="43.63673" lon="3.32372">
        <ele>155.2</ele>
        <time>2022-05-18T06:20:46Z</time>
      </trkpt>
      <trkpt lat="43.63647" lon="3.32335">
        <ele>156</ele>
        <time>2022-05-18T06:20:56Z</time>
      </trkpt>
      <trkpt lat="43.63641" lon="3.32329">
        <ele>156.2</ele>
        <time>2022-05-18T06:20:58Z</time>
      </trkpt>
      <trkpt lat="43.63629" lon="3.32315">
        <ele>156.4</ele>
        <time>2022-05-18T06:21:03Z</time>
      </trkpt>
      <trkpt lat="43.63624" lon="3.32309">
        <ele>156.4</ele>
        <time>2022-05-18T06:21:08Z</time>
      </trkpt>
      <trkpt lat="43.63622" lon="3.32308">
        <ele>156.4</ele>
        <time>2022-05-18T06:21:34Z</time>
      </trkpt>
      <trkpt lat="43.6361" lon="3.32298">
        <ele>156.2</ele>
        <time>2022-05-18T06:21:39Z</time>
      </trkpt>
      <trkpt lat="43.63586" lon="3.32283">
        <ele>156.2</ele>
        <time>2022-05-18T06:21:46Z</time>
      </trkpt>
      <trkpt lat="43.63554" lon="3.32277">
        <ele>156.4</ele>
        <time>2022-05-18T06:21:54Z</time>
      </trkpt>
      <trkpt lat="43.63529" lon="3.32275">
        <ele>156.6</ele>
        <time>2022-05-18T06:22:01Z</time>
      </trkpt>
      <trkpt lat="43.63499" lon="3.32272">
        <ele>157</ele>
        <time>2022-05-18T06:22:09Z</time>
      </trkpt>
      <trkpt lat="43.63487" lon="3.32272">
        <ele>157.2</ele>
        <time>2022-05-18T06:22:12Z</time>
      </trkpt>
      <trkpt lat="43.63468" lon="3.32271">
        <ele>157.4</ele>
        <time>2022-05-18T06:22:17Z</time>
      </trkpt>
      <trkpt lat="43.63436" lon="3.32268">
        <ele>157.8</ele>
        <time>2022-05-18T06:22:25Z</time>
      </trkpt>
      <trkpt lat="43.63407" lon="3.32267">
        <ele>157.8</ele>
        <time>2022-05-18T06:22:32Z</time>
      </trkpt>
      <trkpt lat="43.63375" lon="3.32263">
        <ele>158</ele>
        <time>2022-05-18T06:22:40Z</time>
      </trkpt>
      <trkpt lat="43.63364" lon="3.32258">
        <ele>158.2</ele>
        <time>2022-05-18T06:22:43Z</time>
      </trkpt>
      <trkpt lat="43.6335" lon="3.32247">
        <ele>158.4</ele>
        <time>2022-05-18T06:22:47Z</time>
      </trkpt>
      <trkpt lat="43.63331" lon="3.32227">
        <ele>158.8</ele>
        <time>2022-05-18T06:22:53Z</time>
      </trkpt>
      <trkpt lat="43.63309" lon="3.32202">
        <ele>158.8</ele>
        <time>2022-05-18T06:23:00Z</time>
      </trkpt>
      <trkpt lat="43.63286" lon="3.32172">
        <ele>158.8</ele>
        <time>2022-05-18T06:23:08Z</time>
      </trkpt>
      <trkpt lat="43.63266" lon="3.32147">
        <ele>158.8</ele>
        <time>2022-05-18T06:23:15Z</time>
      </trkpt>
      <trkpt lat="43.63237" lon="3.32112">
        <ele>159</ele>
        <time>2022-05-18T06:23:24Z</time>
      </trkpt>
      <trkpt lat="43.632" lon="3.32071">
        <ele>158.8</ele>
        <time>2022-05-18T06:23:34Z</time>
      </trkpt>
      <trkpt lat="43.63178" lon="3.32045">
        <ele>158.8</ele>
        <time>2022-05-18T06:23:41Z</time>
      </trkpt>
      <trkpt lat="43.63168" lon="3.32036">
        <ele>159.2</ele>
        <time>2022-05-18T06:23:44Z</time>
      </trkpt>
      <trkpt lat="43.63153" lon="3.32024">
        <ele>160.2</ele>
        <time>2022-05-18T06:23:49Z</time>
      </trkpt>
      <trkpt lat="43.6315" lon="3.32022">
        <ele>160.4</ele>
        <time>2022-05-18T06:23:50Z</time>
      </trkpt>
      <trkpt lat="43.63123" lon="3.32005">
        <ele>161.2</ele>
        <time>2022-05-18T06:23:57Z</time>
      </trkpt>
      <trkpt lat="43.63114" lon="3.31999">
        <ele>161.4</ele>
        <time>2022-05-18T06:23:59Z</time>
      </trkpt>
      <trkpt lat="43.63087" lon="3.31982">
        <ele>161.8</ele>
        <time>2022-05-18T06:24:06Z</time>
      </trkpt>
      <trkpt lat="43.6305" lon="3.31964">
        <ele>162</ele>
        <time>2022-05-18T06:24:15Z</time>
      </trkpt>
      <trkpt lat="43.63004" lon="3.31939">
        <ele>161.6</ele>
        <time>2022-05-18T06:24:25Z</time>
      </trkpt>
      <trkpt lat="43.62974" lon="3.31919">
        <ele>161.4</ele>
        <time>2022-05-18T06:24:33Z</time>
      </trkpt>
      <trkpt lat="43.62939" lon="3.319">
        <ele>162.4</ele>
        <time>2022-05-18T06:24:42Z</time>
      </trkpt>
      <trkpt lat="43.62935" lon="3.31897">
        <ele>162.4</ele>
        <time>2022-05-18T06:24:43Z</time>
      </trkpt>
      <trkpt lat="43.62911" lon="3.31883">
        <ele>163.2</ele>
        <time>2022-05-18T06:24:50Z</time>
      </trkpt>
      <trkpt lat="43.62904" lon="3.31878">
        <ele>163.4</ele>
        <time>2022-05-18T06:24:52Z</time>
      </trkpt>
      <trkpt lat="43.62884" lon="3.31869">
        <ele>164.2</ele>
        <time>2022-05-18T06:24:58Z</time>
      </trkpt>
      <trkpt lat="43.62874" lon="3.31864">
        <ele>164.6</ele>
        <time>2022-05-18T06:25:01Z</time>
      </trkpt>
      <trkpt lat="43.62856" lon="3.31858">
        <ele>165.2</ele>
        <time>2022-05-18T06:25:06Z</time>
      </trkpt>
      <trkpt lat="43.62845" lon="3.31854">
        <ele>165.8</ele>
        <time>2022-05-18T06:25:09Z</time>
      </trkpt>
      <trkpt lat="43.62822" lon="3.31848">
        <ele>166.4</ele>
        <time>2022-05-18T06:25:15Z</time>
      </trkpt>
      <trkpt lat="43.62797" lon="3.31844">
        <ele>166.8</ele>
        <time>2022-05-18T06:25:22Z</time>
      </trkpt>
      <trkpt lat="43.62794" lon="3.31844">
        <ele>166.8</ele>
        <time>2022-05-18T06:25:23Z</time>
      </trkpt>
      <trkpt lat="43.62762" lon="3.31841">
        <ele>167.4</ele>
        <time>2022-05-18T06:25:32Z</time>
      </trkpt>
      <trkpt lat="43.62741" lon="3.31835">
        <ele>167.8</ele>
        <time>2022-05-18T06:25:38Z</time>
      </trkpt>
      <trkpt lat="43.6273" lon="3.31832">
        <ele>168</ele>
        <time>2022-05-18T06:25:41Z</time>
      </trkpt>
      <trkpt lat="43.62695" lon="3.31822">
        <ele>168.8</ele>
        <time>2022-05-18T06:25:51Z</time>
      </trkpt>
      <trkpt lat="43.62692" lon="3.31821">
        <ele>168.8</ele>
        <time>2022-05-18T06:25:52Z</time>
      </trkpt>
      <trkpt lat="43.62672" lon="3.31814">
        <ele>169.4</ele>
        <time>2022-05-18T06:25:58Z</time>
      </trkpt>
      <trkpt lat="43.62661" lon="3.31811">
        <ele>169.8</ele>
        <time>2022-05-18T06:26:01Z</time>
      </trkpt>
      <trkpt lat="43.62634" lon="3.31803">
        <ele>170.4</ele>
        <time>2022-05-18T06:26:08Z</time>
      </trkpt>
      <trkpt lat="43.62619" lon="3.31798">
        <ele>170.8</ele>
        <time>2022-05-18T06:26:12Z</time>
      </trkpt>
      <trkpt lat="43.62592" lon="3.31791">
        <ele>171.6</ele>
        <time>2022-05-18T06:26:19Z</time>
      </trkpt>
      <trkpt lat="43.62571" lon="3.31784">
        <ele>172</ele>
        <time>2022-05-18T06:26:25Z</time>
      </trkpt>
      <trkpt lat="43.6256" lon="3.31781">
        <ele>172.4</ele>
        <time>2022-05-18T06:26:28Z</time>
      </trkpt>
      <trkpt lat="43.62539" lon="3.31773">
        <ele>173</ele>
        <time>2022-05-18T06:26:34Z</time>
      </trkpt>
      <trkpt lat="43.62525" lon="3.31769">
        <ele>173.2</ele>
        <time>2022-05-18T06:26:38Z</time>
      </trkpt>
      <trkpt lat="43.62494" lon="3.31758">
        <ele>173.8</ele>
        <time>2022-05-18T06:26:47Z</time>
      </trkpt>
      <trkpt lat="43.62486" lon="3.31756">
        <ele>174</ele>
        <time>2022-05-18T06:26:49Z</time>
      </trkpt>
      <trkpt lat="43.62458" lon="3.31747">
        <ele>174.4</ele>
        <time>2022-05-18T06:26:57Z</time>
      </trkpt>
      <trkpt lat="43.62436" lon="3.3174">
        <ele>175</ele>
        <time>2022-05-18T06:27:03Z</time>
      </trkpt>
      <trkpt lat="43.62432" lon="3.31739">
        <ele>175.2</ele>
        <time>2022-05-18T06:27:04Z</time>
      </trkpt>
      <trkpt lat="43.62402" lon="3.31731">
        <ele>175.8</ele>
        <time>2022-05-18T06:27:13Z</time>
      </trkpt>
      <trkpt lat="43.62396" lon="3.31729">
        <ele>176</ele>
        <time>2022-05-18T06:27:15Z</time>
      </trkpt>
      <trkpt lat="43.62366" lon="3.31719">
        <ele>177</ele>
        <time>2022-05-18T06:27:24Z</time>
      </trkpt>
      <trkpt lat="43.62359" lon="3.31716">
        <ele>177.2</ele>
        <time>2022-05-18T06:27:26Z</time>
      </trkpt>
      <trkpt lat="43.62334" lon="3.31709">
        <ele>177.8</ele>
        <time>2022-05-18T06:27:33Z</time>
      </trkpt>
      <trkpt lat="43.62323" lon="3.31707">
        <ele>178.2</ele>
        <time>2022-05-18T06:27:36Z</time>
      </trkpt>
      <trkpt lat="43.62305" lon="3.31702">
        <ele>178.6</ele>
        <time>2022-05-18T06:27:41Z</time>
      </trkpt>
      <trkpt lat="43.62291" lon="3.31697">
        <ele>179.2</ele>
        <time>2022-05-18T06:27:45Z</time>
      </trkpt>
      <trkpt lat="43.62274" lon="3.31692">
        <ele>179.6</ele>
        <time>2022-05-18T06:27:50Z</time>
      </trkpt>
      <trkpt lat="43.62248" lon="3.31684">
        <ele>180.2</ele>
        <time>2022-05-18T06:27:57Z</time>
      </trkpt>
      <trkpt lat="43.62241" lon="3.31682">
        <ele>180.4</ele>
        <time>2022-05-18T06:27:59Z</time>
      </trkpt>
      <trkpt lat="43.62216" lon="3.3167">
        <ele>181.2</ele>
        <time>2022-05-18T06:28:07Z</time>
      </trkpt>
      <trkpt lat="43.62213" lon="3.31668">
        <ele>181.4</ele>
        <time>2022-05-18T06:28:08Z</time>
      </trkpt>
      <trkpt lat="43.62186" lon="3.31649">
        <ele>182.2</ele>
        <time>2022-05-18T06:28:17Z</time>
      </trkpt>
      <trkpt lat="43.6218" lon="3.31644">
        <ele>182.4</ele>
        <time>2022-05-18T06:28:19Z</time>
      </trkpt>
      <trkpt lat="43.62167" lon="3.31634">
        <ele>183</ele>
        <time>2022-05-18T06:28:24Z</time>
      </trkpt>
      <trkpt lat="43.62159" lon="3.31625">
        <ele>183.6</ele>
        <time>2022-05-18T06:28:28Z</time>
      </trkpt>
      <trkpt lat="43.62154" lon="3.31621">
        <ele>183.8</ele>
        <time>2022-05-18T06:28:30Z</time>
      </trkpt>
      <trkpt lat="43.6214" lon="3.3161">
        <ele>184.6</ele>
        <time>2022-05-18T06:28:36Z</time>
      </trkpt>
      <trkpt lat="43.62132" lon="3.31603">
        <ele>185</ele>
        <time>2022-05-18T06:28:39Z</time>
      </trkpt>
      <trkpt lat="43.62121" lon="3.31593">
        <ele>185.8</ele>
        <time>2022-05-18T06:28:43Z</time>
      </trkpt>
      <trkpt lat="43.62108" lon="3.31583">
        <ele>186.6</ele>
        <time>2022-05-18T06:28:48Z</time>
      </trkpt>
      <trkpt lat="43.62106" lon="3.31581">
        <ele>186.6</ele>
        <time>2022-05-18T06:28:49Z</time>
      </trkpt>
      <trkpt lat="43.62105" lon="3.3158">
        <ele>186.8</ele>
        <time>2022-05-18T06:28:50Z</time>
      </trkpt>
      <trkpt lat="43.621" lon="3.31576">
        <ele>187</ele>
        <time>2022-05-18T06:28:52Z</time>
      </trkpt>
      <trkpt lat="43.62085" lon="3.31561">
        <ele>187.8</ele>
        <time>2022-05-18T06:28:58Z</time>
      </trkpt>
      <trkpt lat="43.62082" lon="3.31559">
        <ele>188</ele>
        <time>2022-05-18T06:28:59Z</time>
      </trkpt>
      <trkpt lat="43.62065" lon="3.31547">
        <ele>189</ele>
        <time>2022-05-18T06:29:05Z</time>
      </trkpt>
      <trkpt lat="43.62064" lon="3.31546">
        <ele>189</ele>
        <time>2022-05-18T06:29:06Z</time>
      </trkpt>
      <trkpt lat="43.62052" lon="3.31548">
        <ele>190</ele>
        <time>2022-05-18T06:29:11Z</time>
      </trkpt>
      <trkpt lat="43.6204" lon="3.31558">
        <ele>191.2</ele>
        <time>2022-05-18T06:29:17Z</time>
      </trkpt>
      <trkpt lat="43.62031" lon="3.31568">
        <ele>191.8</ele>
        <time>2022-05-18T06:29:22Z</time>
      </trkpt>
      <trkpt lat="43.62026" lon="3.31571">
        <ele>192</ele>
        <time>2022-05-18T06:29:24Z</time>
      </trkpt>
      <trkpt lat="43.62023" lon="3.31576">
        <ele>192.2</ele>
        <time>2022-05-18T06:29:26Z</time>
      </trkpt>
      <trkpt lat="43.62013" lon="3.31586">
        <ele>192.8</ele>
        <time>2022-05-18T06:29:31Z</time>
      </trkpt>
      <trkpt lat="43.62006" lon="3.31591">
        <ele>193.4</ele>
        <time>2022-05-18T06:29:34Z</time>
      </trkpt>
      <trkpt lat="43.62001" lon="3.31595">
        <ele>193.8</ele>
        <time>2022-05-18T06:29:37Z</time>
      </trkpt>
      <trkpt lat="43.62" lon="3.31598">
        <ele>193.8</ele>
        <time>2022-05-18T06:29:38Z</time>
      </trkpt>
      <trkpt lat="43.61996" lon="3.31606">
        <ele>194</ele>
        <time>2022-05-18T06:29:41Z</time>
      </trkpt>
      <trkpt lat="43.61995" lon="3.31613">
        <ele>194.6</ele>
        <time>2022-05-18T06:29:43Z</time>
      </trkpt>
      <trkpt lat="43.6199" lon="3.31621">
        <ele>195.2</ele>
        <time>2022-05-18T06:29:47Z</time>
      </trkpt>
      <trkpt lat="43.61985" lon="3.31622">
        <ele>195.8</ele>
        <time>2022-05-18T06:29:50Z</time>
      </trkpt>
      <trkpt lat="43.61982" lon="3.31624">
        <ele>196</ele>
        <time>2022-05-18T06:29:53Z</time>
      </trkpt>
      <trkpt lat="43.61982" lon="3.31624">
        <ele>196</ele>
        <time>2022-05-18T06:29:59Z</time>
      </trkpt>
      <trkpt lat="43.61982" lon="3.31624">
        <ele>196.2</ele>
        <time>2022-05-18T06:30:55Z</time>
      </trkpt>
      <trkpt lat="43.61979" lon="3.31629">
        <ele>196.2</ele>
        <time>2022-05-18T06:30:58Z</time>
      </trkpt>
      <trkpt lat="43.61978" lon="3.3164">
        <ele>196.4</ele>
        <time>2022-05-18T06:31:04Z</time>
      </trkpt>
      <trkpt lat="43.61976" lon="3.31642">
        <ele>196.4</ele>
        <time>2022-05-18T06:31:12Z</time>
      </trkpt>
      <trkpt lat="43.61975" lon="3.31646">
        <ele>196.4</ele>
        <time>2022-05-18T06:31:14Z</time>
      </trkpt>
      <trkpt lat="43.61971" lon="3.31663">
        <ele>196.6</ele>
        <time>2022-05-18T06:31:21Z</time>
      </trkpt>
      <trkpt lat="43.61971" lon="3.31665">
        <ele>196.6</ele>
        <time>2022-05-18T06:31:22Z</time>
      </trkpt>
      <trkpt lat="43.61972" lon="3.31669">
        <ele>197</ele>
        <time>2022-05-18T06:31:24Z</time>
      </trkpt>
      <trkpt lat="43.61972" lon="3.3167">
        <ele>197.2</ele>
        <time>2022-05-18T06:31:27Z</time>
      </trkpt>
      <trkpt lat="43.61973" lon="3.31673">
        <ele>197.4</ele>
        <time>2022-05-18T06:31:29Z</time>
      </trkpt>
      <trkpt lat="43.61973" lon="3.31675">
        <ele>197.4</ele>
        <time>2022-05-18T06:31:31Z</time>
      </trkpt>
      <trkpt lat="43.61971" lon="3.31679">
        <ele>197.4</ele>
        <time>2022-05-18T06:31:33Z</time>
      </trkpt>
      <trkpt lat="43.61971" lon="3.31684">
        <ele>197.4</ele>
        <time>2022-05-18T06:31:35Z</time>
      </trkpt>
      <trkpt lat="43.61968" lon="3.31689">
        <ele>197.6</ele>
        <time>2022-05-18T06:31:37Z</time>
      </trkpt>
      <trkpt lat="43.61961" lon="3.31702">
        <ele>198.2</ele>
        <time>2022-05-18T06:31:43Z</time>
      </trkpt>
      <trkpt lat="43.61955" lon="3.31712">
        <ele>198.4</ele>
        <time>2022-05-18T06:31:47Z</time>
      </trkpt>
      <trkpt lat="43.61954" lon="3.31719">
        <ele>198.4</ele>
        <time>2022-05-18T06:31:49Z</time>
      </trkpt>
      <trkpt lat="43.61955" lon="3.31744">
        <ele>198.4</ele>
        <time>2022-05-18T06:31:54Z</time>
      </trkpt>
      <trkpt lat="43.6196" lon="3.31783">
        <ele>198</ele>
        <time>2022-05-18T06:31:59Z</time>
      </trkpt>
      <trkpt lat="43.61961" lon="3.31798">
        <ele>197.6</ele>
        <time>2022-05-18T06:32:01Z</time>
      </trkpt>
      <trkpt lat="43.61966" lon="3.31829">
        <ele>197</ele>
        <time>2022-05-18T06:32:04Z</time>
      </trkpt>
      <trkpt lat="43.61968" lon="3.31849">
        <ele>196.4</ele>
        <time>2022-05-18T06:32:06Z</time>
      </trkpt>
      <trkpt lat="43.61967" lon="3.31865">
        <ele>195.8</ele>
        <time>2022-05-18T06:32:08Z</time>
      </trkpt>
      <trkpt lat="43.61965" lon="3.31875">
        <ele>195.2</ele>
        <time>2022-05-18T06:32:09Z</time>
      </trkpt>
      <trkpt lat="43.61961" lon="3.31889">
        <ele>194.8</ele>
        <time>2022-05-18T06:32:11Z</time>
      </trkpt>
      <trkpt lat="43.61955" lon="3.31921">
        <ele>194.6</ele>
        <time>2022-05-18T06:32:16Z</time>
      </trkpt>
      <trkpt lat="43.61949" lon="3.31952">
        <ele>194.8</ele>
        <time>2022-05-18T06:32:22Z</time>
      </trkpt>
      <trkpt lat="43.61947" lon="3.31987">
        <ele>195.4</ele>
        <time>2022-05-18T06:32:29Z</time>
      </trkpt>
      <trkpt lat="43.61941" lon="3.32023">
        <ele>196.4</ele>
        <time>2022-05-18T06:32:37Z</time>
      </trkpt>
      <trkpt lat="43.61939" lon="3.3203">
        <ele>196.6</ele>
        <time>2022-05-18T06:32:39Z</time>
      </trkpt>
      <trkpt lat="43.61935" lon="3.32057">
        <ele>197</ele>
        <time>2022-05-18T06:32:46Z</time>
      </trkpt>
      <trkpt lat="43.61934" lon="3.32064">
        <ele>197.6</ele>
        <time>2022-05-18T06:32:48Z</time>
      </trkpt>
      <trkpt lat="43.61931" lon="3.32085">
        <ele>198.4</ele>
        <time>2022-05-18T06:32:54Z</time>
      </trkpt>
      <trkpt lat="43.6193" lon="3.32092">
        <ele>198.4</ele>
        <time>2022-05-18T06:32:56Z</time>
      </trkpt>
      <trkpt lat="43.61926" lon="3.32113">
        <ele>199.6</ele>
        <time>2022-05-18T06:33:02Z</time>
      </trkpt>
      <trkpt lat="43.61926" lon="3.32119">
        <ele>199.8</ele>
        <time>2022-05-18T06:33:04Z</time>
      </trkpt>
      <trkpt lat="43.61927" lon="3.32135">
        <ele>200.6</ele>
        <time>2022-05-18T06:33:08Z</time>
      </trkpt>
      <trkpt lat="43.61928" lon="3.32145">
        <ele>201.2</ele>
        <time>2022-05-18T06:33:11Z</time>
      </trkpt>
      <trkpt lat="43.61928" lon="3.32165">
        <ele>201.8</ele>
        <time>2022-05-18T06:33:17Z</time>
      </trkpt>
      <trkpt lat="43.61928" lon="3.32174">
        <ele>202.4</ele>
        <time>2022-05-18T06:33:20Z</time>
      </trkpt>
      <trkpt lat="43.61927" lon="3.3218">
        <ele>202.8</ele>
        <time>2022-05-18T06:33:22Z</time>
      </trkpt>
      <trkpt lat="43.61925" lon="3.32195">
        <ele>204</ele>
        <time>2022-05-18T06:33:27Z</time>
      </trkpt>
      <trkpt lat="43.61924" lon="3.32205">
        <ele>205</ele>
        <time>2022-05-18T06:33:31Z</time>
      </trkpt>
      <trkpt lat="43.61923" lon="3.32218">
        <ele>206.2</ele>
        <time>2022-05-18T06:33:36Z</time>
      </trkpt>
      <trkpt lat="43.61921" lon="3.32232">
        <ele>207.4</ele>
        <time>2022-05-18T06:33:41Z</time>
      </trkpt>
      <trkpt lat="43.6192" lon="3.32244">
        <ele>208.2</ele>
        <time>2022-05-18T06:33:45Z</time>
      </trkpt>
      <trkpt lat="43.6192" lon="3.32246">
        <ele>208.4</ele>
        <time>2022-05-18T06:33:46Z</time>
      </trkpt>
      <trkpt lat="43.61919" lon="3.32261">
        <ele>209.4</ele>
        <time>2022-05-18T06:33:51Z</time>
      </trkpt>
      <trkpt lat="43.61919" lon="3.32263">
        <ele>209.6</ele>
        <time>2022-05-18T06:33:52Z</time>
      </trkpt>
      <trkpt lat="43.61918" lon="3.32274">
        <ele>210.4</ele>
        <time>2022-05-18T06:33:57Z</time>
      </trkpt>
      <trkpt lat="43.61916" lon="3.32291">
        <ele>211</ele>
        <time>2022-05-18T06:34:01Z</time>
      </trkpt>
      <trkpt lat="43.61914" lon="3.32302">
        <ele>211.6</ele>
        <time>2022-05-18T06:34:05Z</time>
      </trkpt>
      <trkpt lat="43.61909" lon="3.32318">
        <ele>212</ele>
        <time>2022-05-18T06:34:10Z</time>
      </trkpt>
      <trkpt lat="43.61902" lon="3.3234">
        <ele>212.6</ele>
        <time>2022-05-18T06:34:17Z</time>
      </trkpt>
      <trkpt lat="43.61898" lon="3.3235">
        <ele>213</ele>
        <time>2022-05-18T06:34:21Z</time>
      </trkpt>
      <trkpt lat="43.61895" lon="3.32364">
        <ele>213.6</ele>
        <time>2022-05-18T06:34:26Z</time>
      </trkpt>
      <trkpt lat="43.61892" lon="3.32372">
        <ele>214</ele>
        <time>2022-05-18T06:34:29Z</time>
      </trkpt>
      <trkpt lat="43.61889" lon="3.32387">
        <ele>214.6</ele>
        <time>2022-05-18T06:34:34Z</time>
      </trkpt>
      <trkpt lat="43.61888" lon="3.32393">
        <ele>215</ele>
        <time>2022-05-18T06:34:36Z</time>
      </trkpt>
      <trkpt lat="43.61883" lon="3.32409">
        <ele>215.8</ele>
        <time>2022-05-18T06:34:41Z</time>
      </trkpt>
      <trkpt lat="43.61877" lon="3.3242">
        <ele>216.2</ele>
        <time>2022-05-18T06:34:45Z</time>
      </trkpt>
      <trkpt lat="43.61866" lon="3.32442">
        <ele>216.8</ele>
        <time>2022-05-18T06:34:53Z</time>
      </trkpt>
      <trkpt lat="43.61856" lon="3.32466">
        <ele>217.2</ele>
        <time>2022-05-18T06:35:01Z</time>
      </trkpt>
      <trkpt lat="43.61848" lon="3.3249">
        <ele>217.8</ele>
        <time>2022-05-18T06:35:08Z</time>
      </trkpt>
      <trkpt lat="43.61847" lon="3.32493">
        <ele>218</ele>
        <time>2022-05-18T06:35:09Z</time>
      </trkpt>
      <trkpt lat="43.61836" lon="3.32518">
        <ele>218.8</ele>
        <time>2022-05-18T06:35:17Z</time>
      </trkpt>
      <trkpt lat="43.61827" lon="3.32534">
        <ele>219.2</ele>
        <time>2022-05-18T06:35:23Z</time>
      </trkpt>
      <trkpt lat="43.61825" lon="3.32538">
        <ele>219.2</ele>
        <time>2022-05-18T06:35:24Z</time>
      </trkpt>
      <trkpt lat="43.61818" lon="3.3256">
        <ele>219.6</ele>
        <time>2022-05-18T06:35:30Z</time>
      </trkpt>
      <trkpt lat="43.61817" lon="3.32567">
        <ele>219.8</ele>
        <time>2022-05-18T06:35:32Z</time>
      </trkpt>
      <trkpt lat="43.61814" lon="3.32585">
        <ele>220.6</ele>
        <time>2022-05-18T06:35:37Z</time>
      </trkpt>
      <trkpt lat="43.61812" lon="3.32595">
        <ele>220.8</ele>
        <time>2022-05-18T06:35:40Z</time>
      </trkpt>
      <trkpt lat="43.61809" lon="3.32606">
        <ele>221.4</ele>
        <time>2022-05-18T06:35:43Z</time>
      </trkpt>
      <trkpt lat="43.61803" lon="3.32629">
        <ele>221.8</ele>
        <time>2022-05-18T06:35:49Z</time>
      </trkpt>
      <trkpt lat="43.61801" lon="3.32638">
        <ele>222</ele>
        <time>2022-05-18T06:35:51Z</time>
      </trkpt>
      <trkpt lat="43.618" lon="3.32664">
        <ele>222.4</ele>
        <time>2022-05-18T06:35:57Z</time>
      </trkpt>
      <trkpt lat="43.618" lon="3.32682">
        <ele>222.4</ele>
        <time>2022-05-18T06:36:01Z</time>
      </trkpt>
      <trkpt lat="43.61802" lon="3.32702">
        <ele>222.8</ele>
        <time>2022-05-18T06:36:05Z</time>
      </trkpt>
      <trkpt lat="43.61804" lon="3.32722">
        <ele>223.2</ele>
        <time>2022-05-18T06:36:09Z</time>
      </trkpt>
      <trkpt lat="43.61815" lon="3.32771">
        <ele>223.6</ele>
        <time>2022-05-18T06:36:19Z</time>
      </trkpt>
      <trkpt lat="43.61816" lon="3.32807">
        <ele>223.6</ele>
        <time>2022-05-18T06:36:27Z</time>
      </trkpt>
      <trkpt lat="43.61815" lon="3.32811">
        <ele>223.8</ele>
        <time>2022-05-18T06:36:28Z</time>
      </trkpt>
      <trkpt lat="43.61806" lon="3.32826">
        <ele>224.6</ele>
        <time>2022-05-18T06:36:33Z</time>
      </trkpt>
      <trkpt lat="43.61801" lon="3.32831">
        <ele>224.8</ele>
        <time>2022-05-18T06:36:35Z</time>
      </trkpt>
      <trkpt lat="43.61794" lon="3.3284">
        <ele>225.4</ele>
        <time>2022-05-18T06:36:38Z</time>
      </trkpt>
      <trkpt lat="43.61788" lon="3.32854">
        <ele>226</ele>
        <time>2022-05-18T06:36:42Z</time>
      </trkpt>
      <trkpt lat="43.61785" lon="3.32865">
        <ele>226.6</ele>
        <time>2022-05-18T06:36:45Z</time>
      </trkpt>
      <trkpt lat="43.61785" lon="3.32878">
        <ele>227</ele>
        <time>2022-05-18T06:36:48Z</time>
      </trkpt>
      <trkpt lat="43.61786" lon="3.3289">
        <ele>227.4</ele>
        <time>2022-05-18T06:36:51Z</time>
      </trkpt>
      <trkpt lat="43.61791" lon="3.3291">
        <ele>227.8</ele>
        <time>2022-05-18T06:36:56Z</time>
      </trkpt>
      <trkpt lat="43.61794" lon="3.32917">
        <ele>228.4</ele>
        <time>2022-05-18T06:36:58Z</time>
      </trkpt>
      <trkpt lat="43.61797" lon="3.32927">
        <ele>229</ele>
        <time>2022-05-18T06:37:01Z</time>
      </trkpt>
      <trkpt lat="43.61803" lon="3.32947">
        <ele>229.8</ele>
        <time>2022-05-18T06:37:07Z</time>
      </trkpt>
      <trkpt lat="43.61805" lon="3.32953">
        <ele>230</ele>
        <time>2022-05-18T06:37:09Z</time>
      </trkpt>
      <trkpt lat="43.61809" lon="3.32969">
        <ele>230.8</ele>
        <time>2022-05-18T06:37:14Z</time>
      </trkpt>
      <trkpt lat="43.6181" lon="3.32975">
        <ele>231.2</ele>
        <time>2022-05-18T06:37:16Z</time>
      </trkpt>
      <trkpt lat="43.61815" lon="3.3299">
        <ele>232</ele>
        <time>2022-05-18T06:37:21Z</time>
      </trkpt>
      <trkpt lat="43.61816" lon="3.32994">
        <ele>232.4</ele>
        <time>2022-05-18T06:37:22Z</time>
      </trkpt>
      <trkpt lat="43.61818" lon="3.33008">
        <ele>233.4</ele>
        <time>2022-05-18T06:37:27Z</time>
      </trkpt>
      <trkpt lat="43.61818" lon="3.33018">
        <ele>234.2</ele>
        <time>2022-05-18T06:37:30Z</time>
      </trkpt>
      <trkpt lat="43.61819" lon="3.33021">
        <ele>234.6</ele>
        <time>2022-05-18T06:37:31Z</time>
      </trkpt>
      <trkpt lat="43.61819" lon="3.33037">
        <ele>235.4</ele>
        <time>2022-05-18T06:37:36Z</time>
      </trkpt>
      <trkpt lat="43.61818" lon="3.3304">
        <ele>235.6</ele>
        <time>2022-05-18T06:37:37Z</time>
      </trkpt>
      <trkpt lat="43.61815" lon="3.3306">
        <ele>236.8</ele>
        <time>2022-05-18T06:37:44Z</time>
      </trkpt>
      <trkpt lat="43.61811" lon="3.33082">
        <ele>237.8</ele>
        <time>2022-05-18T06:37:52Z</time>
      </trkpt>
      <trkpt lat="43.61811" lon="3.33087">
        <ele>238</ele>
        <time>2022-05-18T06:37:54Z</time>
      </trkpt>
      <trkpt lat="43.6181" lon="3.33098">
        <ele>238.8</ele>
        <time>2022-05-18T06:37:58Z</time>
      </trkpt>
      <trkpt lat="43.61809" lon="3.33109">
        <ele>239.4</ele>
        <time>2022-05-18T06:38:02Z</time>
      </trkpt>
      <trkpt lat="43.61807" lon="3.33116">
        <ele>240</ele>
        <time>2022-05-18T06:38:05Z</time>
      </trkpt>
      <trkpt lat="43.61804" lon="3.33128">
        <ele>240.6</ele>
        <time>2022-05-18T06:38:10Z</time>
      </trkpt>
      <trkpt lat="43.61803" lon="3.33133">
        <ele>241</ele>
        <time>2022-05-18T06:38:12Z</time>
      </trkpt>
      <trkpt lat="43.61801" lon="3.33145">
        <ele>241.6</ele>
        <time>2022-05-18T06:38:17Z</time>
      </trkpt>
      <trkpt lat="43.618" lon="3.33149">
        <ele>241.8</ele>
        <time>2022-05-18T06:38:19Z</time>
      </trkpt>
      <trkpt lat="43.61797" lon="3.33161">
        <ele>243</ele>
        <time>2022-05-18T06:38:24Z</time>
      </trkpt>
      <trkpt lat="43.61797" lon="3.33164">
        <ele>243.2</ele>
        <time>2022-05-18T06:38:25Z</time>
      </trkpt>
      <trkpt lat="43.61796" lon="3.3317">
        <ele>244.2</ele>
        <time>2022-05-18T06:38:28Z</time>
      </trkpt>
      <trkpt lat="43.61794" lon="3.33178">
        <ele>244.6</ele>
        <time>2022-05-18T06:38:31Z</time>
      </trkpt>
      <trkpt lat="43.61793" lon="3.33185">
        <ele>245.2</ele>
        <time>2022-05-18T06:38:34Z</time>
      </trkpt>
      <trkpt lat="43.6179" lon="3.33199">
        <ele>246.2</ele>
        <time>2022-05-18T06:38:40Z</time>
      </trkpt>
      <trkpt lat="43.61788" lon="3.33208">
        <ele>247.2</ele>
        <time>2022-05-18T06:38:44Z</time>
      </trkpt>
      <trkpt lat="43.61787" lon="3.33212">
        <ele>247.6</ele>
        <time>2022-05-18T06:38:46Z</time>
      </trkpt>
      <trkpt lat="43.61785" lon="3.33224">
        <ele>248.2</ele>
        <time>2022-05-18T06:38:51Z</time>
      </trkpt>
      <trkpt lat="43.61784" lon="3.33229">
        <ele>248.2</ele>
        <time>2022-05-18T06:38:53Z</time>
      </trkpt>
      <trkpt lat="43.61783" lon="3.33236">
        <ele>248.8</ele>
        <time>2022-05-18T06:38:56Z</time>
      </trkpt>
      <trkpt lat="43.61782" lon="3.33241">
        <ele>249.2</ele>
        <time>2022-05-18T06:38:58Z</time>
      </trkpt>
      <trkpt lat="43.61781" lon="3.33251">
        <ele>250.2</ele>
        <time>2022-05-18T06:39:02Z</time>
      </trkpt>
      <trkpt lat="43.6178" lon="3.33253">
        <ele>250.4</ele>
        <time>2022-05-18T06:39:03Z</time>
      </trkpt>
      <trkpt lat="43.6178" lon="3.33256">
        <ele>250.4</ele>
        <time>2022-05-18T06:39:04Z</time>
      </trkpt>
      <trkpt lat="43.61778" lon="3.33263">
        <ele>251.2</ele>
        <time>2022-05-18T06:39:07Z</time>
      </trkpt>
      <trkpt lat="43.61777" lon="3.33268">
        <ele>251.4</ele>
        <time>2022-05-18T06:39:09Z</time>
      </trkpt>
      <trkpt lat="43.61774" lon="3.33281">
        <ele>252.2</ele>
        <time>2022-05-18T06:39:14Z</time>
      </trkpt>
      <trkpt lat="43.61774" lon="3.33286">
        <ele>252.6</ele>
        <time>2022-05-18T06:39:16Z</time>
      </trkpt>
      <trkpt lat="43.61771" lon="3.333">
        <ele>253</ele>
        <time>2022-05-18T06:39:21Z</time>
      </trkpt>
      <trkpt lat="43.6177" lon="3.33309">
        <ele>253.6</ele>
        <time>2022-05-18T06:39:24Z</time>
      </trkpt>
      <trkpt lat="43.61768" lon="3.3333">
        <ele>254.2</ele>
        <time>2022-05-18T06:39:30Z</time>
      </trkpt>
      <trkpt lat="43.61765" lon="3.33341">
        <ele>254.6</ele>
        <time>2022-05-18T06:39:33Z</time>
      </trkpt>
      <trkpt lat="43.61758" lon="3.33362">
        <ele>255.2</ele>
        <time>2022-05-18T06:39:39Z</time>
      </trkpt>
      <trkpt lat="43.61751" lon="3.33379">
        <ele>255.6</ele>
        <time>2022-05-18T06:39:44Z</time>
      </trkpt>
      <trkpt lat="43.61748" lon="3.33385">
        <ele>256</ele>
        <time>2022-05-18T06:39:46Z</time>
      </trkpt>
      <trkpt lat="43.61742" lon="3.33396">
        <ele>256.6</ele>
        <time>2022-05-18T06:39:50Z</time>
      </trkpt>
      <trkpt lat="43.61738" lon="3.33404">
        <ele>257.4</ele>
        <time>2022-05-18T06:39:53Z</time>
      </trkpt>
      <trkpt lat="43.61735" lon="3.33408">
        <ele>257.8</ele>
        <time>2022-05-18T06:39:55Z</time>
      </trkpt>
      <trkpt lat="43.61723" lon="3.33432">
        <ele>258.8</ele>
        <time>2022-05-18T06:40:03Z</time>
      </trkpt>
      <trkpt lat="43.61713" lon="3.33454">
        <ele>259.6</ele>
        <time>2022-05-18T06:40:10Z</time>
      </trkpt>
      <trkpt lat="43.61708" lon="3.33464">
        <ele>259.8</ele>
        <time>2022-05-18T06:40:13Z</time>
      </trkpt>
      <trkpt lat="43.61702" lon="3.33478">
        <ele>260</ele>
        <time>2022-05-18T06:40:17Z</time>
      </trkpt>
      <trkpt lat="43.61685" lon="3.33519">
        <ele>260.6</ele>
        <time>2022-05-18T06:40:27Z</time>
      </trkpt>
      <trkpt lat="43.61683" lon="3.33523">
        <ele>260.6</ele>
        <time>2022-05-18T06:40:28Z</time>
      </trkpt>
      <trkpt lat="43.61681" lon="3.33528">
        <ele>260.8</ele>
        <time>2022-05-18T06:40:29Z</time>
      </trkpt>
      <trkpt lat="43.61666" lon="3.33563">
        <ele>261</ele>
        <time>2022-05-18T06:40:37Z</time>
      </trkpt>
      <trkpt lat="43.61647" lon="3.33598">
        <ele>261</ele>
        <time>2022-05-18T06:40:46Z</time>
      </trkpt>
      <trkpt lat="43.61622" lon="3.33634">
        <ele>260.6</ele>
        <time>2022-05-18T06:40:55Z</time>
      </trkpt>
      <trkpt lat="43.61601" lon="3.33649">
        <ele>260.6</ele>
        <time>2022-05-18T06:41:02Z</time>
      </trkpt>
      <trkpt lat="43.61572" lon="3.33656">
        <ele>261</ele>
        <time>2022-05-18T06:41:11Z</time>
      </trkpt>
      <trkpt lat="43.61544" lon="3.33666">
        <ele>260.6</ele>
        <time>2022-05-18T06:41:18Z</time>
      </trkpt>
      <trkpt lat="43.61536" lon="3.33675">
        <ele>260.6</ele>
        <time>2022-05-18T06:41:20Z</time>
      </trkpt>
      <trkpt lat="43.61529" lon="3.33689">
        <ele>260.4</ele>
        <time>2022-05-18T06:41:22Z</time>
      </trkpt>
      <trkpt lat="43.61523" lon="3.33727">
        <ele>259.4</ele>
        <time>2022-05-18T06:41:26Z</time>
      </trkpt>
      <trkpt lat="43.61521" lon="3.33748">
        <ele>258.2</ele>
        <time>2022-05-18T06:41:28Z</time>
      </trkpt>
      <trkpt lat="43.61517" lon="3.33781">
        <ele>256.8</ele>
        <time>2022-05-18T06:41:31Z</time>
      </trkpt>
      <trkpt lat="43.61514" lon="3.33792">
        <ele>256.6</ele>
        <time>2022-05-18T06:41:32Z</time>
      </trkpt>
      <trkpt lat="43.61507" lon="3.33826">
        <ele>255.4</ele>
        <time>2022-05-18T06:41:35Z</time>
      </trkpt>
      <trkpt lat="43.61501" lon="3.33858">
        <ele>254.4</ele>
        <time>2022-05-18T06:41:38Z</time>
      </trkpt>
      <trkpt lat="43.615" lon="3.33877">
        <ele>254</ele>
        <time>2022-05-18T06:41:40Z</time>
      </trkpt>
      <trkpt lat="43.61503" lon="3.339">
        <ele>253.2</ele>
        <time>2022-05-18T06:41:42Z</time>
      </trkpt>
      <trkpt lat="43.61508" lon="3.33922">
        <ele>252.2</ele>
        <time>2022-05-18T06:41:44Z</time>
      </trkpt>
      <trkpt lat="43.61516" lon="3.3397">
        <ele>251</ele>
        <time>2022-05-18T06:41:48Z</time>
      </trkpt>
      <trkpt lat="43.6152" lon="3.34005">
        <ele>249.6</ele>
        <time>2022-05-18T06:41:51Z</time>
      </trkpt>
      <trkpt lat="43.61523" lon="3.34015">
        <ele>249.4</ele>
        <time>2022-05-18T06:41:52Z</time>
      </trkpt>
      <trkpt lat="43.61526" lon="3.34025">
        <ele>249</ele>
        <time>2022-05-18T06:41:53Z</time>
      </trkpt>
      <trkpt lat="43.61529" lon="3.34034">
        <ele>248.8</ele>
        <time>2022-05-18T06:41:54Z</time>
      </trkpt>
      <trkpt lat="43.61533" lon="3.34043">
        <ele>248.2</ele>
        <time>2022-05-18T06:41:55Z</time>
      </trkpt>
      <trkpt lat="43.61542" lon="3.34059">
        <ele>247.4</ele>
        <time>2022-05-18T06:41:57Z</time>
      </trkpt>
      <trkpt lat="43.6155" lon="3.34076">
        <ele>247.2</ele>
        <time>2022-05-18T06:41:59Z</time>
      </trkpt>
      <trkpt lat="43.61554" lon="3.34094">
        <ele>246.8</ele>
        <time>2022-05-18T06:42:01Z</time>
      </trkpt>
      <trkpt lat="43.61561" lon="3.3414">
        <ele>246.6</ele>
        <time>2022-05-18T06:42:06Z</time>
      </trkpt>
      <trkpt lat="43.61566" lon="3.34178">
        <ele>246.4</ele>
        <time>2022-05-18T06:42:11Z</time>
      </trkpt>
      <trkpt lat="43.61565" lon="3.34221">
        <ele>246</ele>
        <time>2022-05-18T06:42:16Z</time>
      </trkpt>
      <trkpt lat="43.61564" lon="3.34233">
        <ele>246</ele>
        <time>2022-05-18T06:42:17Z</time>
      </trkpt>
      <trkpt lat="43.61567" lon="3.3428">
        <ele>245.2</ele>
        <time>2022-05-18T06:42:21Z</time>
      </trkpt>
      <trkpt lat="43.61569" lon="3.34292">
        <ele>245</ele>
        <time>2022-05-18T06:42:22Z</time>
      </trkpt>
      <trkpt lat="43.61575" lon="3.34328">
        <ele>243.8</ele>
        <time>2022-05-18T06:42:25Z</time>
      </trkpt>
      <trkpt lat="43.61577" lon="3.34357">
        <ele>242.8</ele>
        <time>2022-05-18T06:42:27Z</time>
      </trkpt>
      <trkpt lat="43.61579" lon="3.34368">
        <ele>242.4</ele>
        <time>2022-05-18T06:42:28Z</time>
      </trkpt>
      <trkpt lat="43.61581" lon="3.34395">
        <ele>241.2</ele>
        <time>2022-05-18T06:42:30Z</time>
      </trkpt>
      <trkpt lat="43.61582" lon="3.34408">
        <ele>240.6</ele>
        <time>2022-05-18T06:42:31Z</time>
      </trkpt>
      <trkpt lat="43.61581" lon="3.34429">
        <ele>240</ele>
        <time>2022-05-18T06:42:33Z</time>
      </trkpt>
      <trkpt lat="43.61572" lon="3.34475">
        <ele>239</ele>
        <time>2022-05-18T06:42:37Z</time>
      </trkpt>
      <trkpt lat="43.6157" lon="3.34517">
        <ele>238.6</ele>
        <time>2022-05-18T06:42:41Z</time>
      </trkpt>
      <trkpt lat="43.61568" lon="3.3453">
        <ele>238.2</ele>
        <time>2022-05-18T06:42:42Z</time>
      </trkpt>
      <trkpt lat="43.61564" lon="3.3455">
        <ele>237.8</ele>
        <time>2022-05-18T06:42:44Z</time>
      </trkpt>
      <trkpt lat="43.61562" lon="3.34561">
        <ele>237.6</ele>
        <time>2022-05-18T06:42:45Z</time>
      </trkpt>
      <trkpt lat="43.61561" lon="3.34584">
        <ele>236.4</ele>
        <time>2022-05-18T06:42:47Z</time>
      </trkpt>
      <trkpt lat="43.61565" lon="3.34619">
        <ele>235.4</ele>
        <time>2022-05-18T06:42:50Z</time>
      </trkpt>
      <trkpt lat="43.61569" lon="3.34643">
        <ele>234.6</ele>
        <time>2022-05-18T06:42:52Z</time>
      </trkpt>
      <trkpt lat="43.61571" lon="3.34655">
        <ele>234</ele>
        <time>2022-05-18T06:42:53Z</time>
      </trkpt>
      <trkpt lat="43.61574" lon="3.34697">
        <ele>233</ele>
        <time>2022-05-18T06:42:56Z</time>
      </trkpt>
      <trkpt lat="43.61576" lon="3.34708">
        <ele>232.8</ele>
        <time>2022-05-18T06:42:57Z</time>
      </trkpt>
      <trkpt lat="43.61583" lon="3.34748">
        <ele>231.4</ele>
        <time>2022-05-18T06:43:00Z</time>
      </trkpt>
      <trkpt lat="43.61586" lon="3.34761">
        <ele>231</ele>
        <time>2022-05-18T06:43:01Z</time>
      </trkpt>
      <trkpt lat="43.6159" lon="3.34773">
        <ele>230</ele>
        <time>2022-05-18T06:43:02Z</time>
      </trkpt>
      <trkpt lat="43.61597" lon="3.34796">
        <ele>229</ele>
        <time>2022-05-18T06:43:04Z</time>
      </trkpt>
      <trkpt lat="43.61601" lon="3.34806">
        <ele>228.6</ele>
        <time>2022-05-18T06:43:05Z</time>
      </trkpt>
      <trkpt lat="43.61613" lon="3.34823">
        <ele>227.8</ele>
        <time>2022-05-18T06:43:07Z</time>
      </trkpt>
      <trkpt lat="43.61619" lon="3.34829">
        <ele>227.4</ele>
        <time>2022-05-18T06:43:08Z</time>
      </trkpt>
      <trkpt lat="43.61627" lon="3.34835">
        <ele>227.2</ele>
        <time>2022-05-18T06:43:09Z</time>
      </trkpt>
      <trkpt lat="43.6164" lon="3.34847">
        <ele>226.6</ele>
        <time>2022-05-18T06:43:11Z</time>
      </trkpt>
      <trkpt lat="43.61644" lon="3.34851">
        <ele>226.2</ele>
        <time>2022-05-18T06:43:12Z</time>
      </trkpt>
      <trkpt lat="43.61649" lon="3.34857">
        <ele>226</ele>
        <time>2022-05-18T06:43:13Z</time>
      </trkpt>
      <trkpt lat="43.61654" lon="3.3487">
        <ele>225.6</ele>
        <time>2022-05-18T06:43:15Z</time>
      </trkpt>
      <trkpt lat="43.61654" lon="3.34877">
        <ele>225</ele>
        <time>2022-05-18T06:43:16Z</time>
      </trkpt>
      <trkpt lat="43.61653" lon="3.34895">
        <ele>224.6</ele>
        <time>2022-05-18T06:43:19Z</time>
      </trkpt>
      <trkpt lat="43.61656" lon="3.34918">
        <ele>224.6</ele>
        <time>2022-05-18T06:43:24Z</time>
      </trkpt>
      <trkpt lat="43.61659" lon="3.34946">
        <ele>225.4</ele>
        <time>2022-05-18T06:43:31Z</time>
      </trkpt>
      <trkpt lat="43.61663" lon="3.34966">
        <ele>226.2</ele>
        <time>2022-05-18T06:43:36Z</time>
      </trkpt>
      <trkpt lat="43.61664" lon="3.34975">
        <ele>226.4</ele>
        <time>2022-05-18T06:43:38Z</time>
      </trkpt>
      <trkpt lat="43.61671" lon="3.34998">
        <ele>227.2</ele>
        <time>2022-05-18T06:43:45Z</time>
      </trkpt>
      <trkpt lat="43.61683" lon="3.3502">
        <ele>227.4</ele>
        <time>2022-05-18T06:43:51Z</time>
      </trkpt>
      <trkpt lat="43.617" lon="3.35047">
        <ele>227.2</ele>
        <time>2022-05-18T06:43:57Z</time>
      </trkpt>
      <trkpt lat="43.61716" lon="3.35072">
        <ele>226.6</ele>
        <time>2022-05-18T06:44:02Z</time>
      </trkpt>
      <trkpt lat="43.61719" lon="3.35077">
        <ele>226.4</ele>
        <time>2022-05-18T06:44:03Z</time>
      </trkpt>
      <trkpt lat="43.6173" lon="3.35095">
        <ele>226</ele>
        <time>2022-05-18T06:44:06Z</time>
      </trkpt>
      <trkpt lat="43.6174" lon="3.35112">
        <ele>225.8</ele>
        <time>2022-05-18T06:44:09Z</time>
      </trkpt>
      <trkpt lat="43.61758" lon="3.35142">
        <ele>225.2</ele>
        <time>2022-05-18T06:44:15Z</time>
      </trkpt>
      <trkpt lat="43.61775" lon="3.35174">
        <ele>225.2</ele>
        <time>2022-05-18T06:44:22Z</time>
      </trkpt>
      <trkpt lat="43.61788" lon="3.35196">
        <ele>225.8</ele>
        <time>2022-05-18T06:44:28Z</time>
      </trkpt>
      <trkpt lat="43.61805" lon="3.35227">
        <ele>226.2</ele>
        <time>2022-05-18T06:44:35Z</time>
      </trkpt>
      <trkpt lat="43.61825" lon="3.35269">
        <ele>225</ele>
        <time>2022-05-18T06:44:42Z</time>
      </trkpt>
      <trkpt lat="43.61828" lon="3.35276">
        <ele>224.6</ele>
        <time>2022-05-18T06:44:43Z</time>
      </trkpt>
      <trkpt lat="43.61831" lon="3.35292">
        <ele>224</ele>
        <time>2022-05-18T06:44:45Z</time>
      </trkpt>
      <trkpt lat="43.61831" lon="3.35301">
        <ele>224</ele>
        <time>2022-05-18T06:44:46Z</time>
      </trkpt>
      <trkpt lat="43.61832" lon="3.3531">
        <ele>223.6</ele>
        <time>2022-05-18T06:44:47Z</time>
      </trkpt>
      <trkpt lat="43.61834" lon="3.35329">
        <ele>222.6</ele>
        <time>2022-05-18T06:44:49Z</time>
      </trkpt>
      <trkpt lat="43.61836" lon="3.35372">
        <ele>221.6</ele>
        <time>2022-05-18T06:44:53Z</time>
      </trkpt>
      <trkpt lat="43.61837" lon="3.35382">
        <ele>221.6</ele>
        <time>2022-05-18T06:44:54Z</time>
      </trkpt>
      <trkpt lat="43.61841" lon="3.354">
        <ele>221</ele>
        <time>2022-05-18T06:44:56Z</time>
      </trkpt>
      <trkpt lat="43.61844" lon="3.3541">
        <ele>220.8</ele>
        <time>2022-05-18T06:44:57Z</time>
      </trkpt>
      <trkpt lat="43.61846" lon="3.35419">
        <ele>220.2</ele>
        <time>2022-05-18T06:44:58Z</time>
      </trkpt>
      <trkpt lat="43.61851" lon="3.35432">
        <ele>219.6</ele>
        <time>2022-05-18T06:45:00Z</time>
      </trkpt>
      <trkpt lat="43.61855" lon="3.35438">
        <ele>219.2</ele>
        <time>2022-05-18T06:45:01Z</time>
      </trkpt>
      <trkpt lat="43.61858" lon="3.35446">
        <ele>218.8</ele>
        <time>2022-05-18T06:45:02Z</time>
      </trkpt>
      <trkpt lat="43.61863" lon="3.35462">
        <ele>218.2</ele>
        <time>2022-05-18T06:45:04Z</time>
      </trkpt>
      <trkpt lat="43.61863" lon="3.35469">
        <ele>218.2</ele>
        <time>2022-05-18T06:45:05Z</time>
      </trkpt>
      <trkpt lat="43.61863" lon="3.35477">
        <ele>217.8</ele>
        <time>2022-05-18T06:45:06Z</time>
      </trkpt>
      <trkpt lat="43.61859" lon="3.35494">
        <ele>217.4</ele>
        <time>2022-05-18T06:45:08Z</time>
      </trkpt>
      <trkpt lat="43.61853" lon="3.35509">
        <ele>216.8</ele>
        <time>2022-05-18T06:45:10Z</time>
      </trkpt>
      <trkpt lat="43.61841" lon="3.35541">
        <ele>216.2</ele>
        <time>2022-05-18T06:45:14Z</time>
      </trkpt>
      <trkpt lat="43.61838" lon="3.35548">
        <ele>216</ele>
        <time>2022-05-18T06:45:15Z</time>
      </trkpt>
      <trkpt lat="43.61835" lon="3.35555">
        <ele>216</ele>
        <time>2022-05-18T06:45:16Z</time>
      </trkpt>
      <trkpt lat="43.61834" lon="3.35563">
        <ele>215.6</ele>
        <time>2022-05-18T06:45:17Z</time>
      </trkpt>
      <trkpt lat="43.61834" lon="3.3557">
        <ele>215.6</ele>
        <time>2022-05-18T06:45:18Z</time>
      </trkpt>
      <trkpt lat="43.61838" lon="3.35584">
        <ele>214.6</ele>
        <time>2022-05-18T06:45:20Z</time>
      </trkpt>
      <trkpt lat="43.61841" lon="3.35591">
        <ele>213.8</ele>
        <time>2022-05-18T06:45:21Z</time>
      </trkpt>
      <trkpt lat="43.61844" lon="3.35596">
        <ele>213.4</ele>
        <time>2022-05-18T06:45:22Z</time>
      </trkpt>
      <trkpt lat="43.61853" lon="3.35623">
        <ele>212.4</ele>
        <time>2022-05-18T06:45:27Z</time>
      </trkpt>
      <trkpt lat="43.61857" lon="3.35646">
        <ele>212.2</ele>
        <time>2022-05-18T06:45:33Z</time>
      </trkpt>
      <trkpt lat="43.61856" lon="3.35663">
        <ele>212.8</ele>
        <time>2022-05-18T06:45:38Z</time>
      </trkpt>
      <trkpt lat="43.61856" lon="3.35673">
        <ele>213.4</ele>
        <time>2022-05-18T06:45:41Z</time>
      </trkpt>
      <trkpt lat="43.61859" lon="3.35678">
        <ele>213.4</ele>
        <time>2022-05-18T06:45:43Z</time>
      </trkpt>
      <trkpt lat="43.61866" lon="3.35681">
        <ele>213.6</ele>
        <time>2022-05-18T06:45:47Z</time>
      </trkpt>
      <trkpt lat="43.6187" lon="3.35681">
        <ele>213.8</ele>
        <time>2022-05-18T06:45:49Z</time>
      </trkpt>
      <trkpt lat="43.61884" lon="3.35682">
        <ele>214.4</ele>
        <time>2022-05-18T06:45:55Z</time>
      </trkpt>
      <trkpt lat="43.61889" lon="3.35682">
        <ele>214.6</ele>
        <time>2022-05-18T06:45:57Z</time>
      </trkpt>
      <trkpt lat="43.61899" lon="3.35676">
        <ele>215.4</ele>
        <time>2022-05-18T06:46:02Z</time>
      </trkpt>
      <trkpt lat="43.61902" lon="3.35673">
        <ele>215.6</ele>
        <time>2022-05-18T06:46:04Z</time>
      </trkpt>
      <trkpt lat="43.61903" lon="3.35663">
        <ele>216.4</ele>
        <time>2022-05-18T06:46:08Z</time>
      </trkpt>
      <trkpt lat="43.61902" lon="3.35661">
        <ele>216.6</ele>
        <time>2022-05-18T06:46:09Z</time>
      </trkpt>
      <trkpt lat="43.61899" lon="3.35654">
        <ele>217</ele>
        <time>2022-05-18T06:46:12Z</time>
      </trkpt>
      <trkpt lat="43.61897" lon="3.35648">
        <ele>217.2</ele>
        <time>2022-05-18T06:46:14Z</time>
      </trkpt>
      <trkpt lat="43.61897" lon="3.35647">
        <ele>217.4</ele>
        <time>2022-05-18T06:46:15Z</time>
      </trkpt>
      <trkpt lat="43.61898" lon="3.35645">
        <ele>217.6</ele>
        <time>2022-05-18T06:46:16Z</time>
      </trkpt>
      <trkpt lat="43.619" lon="3.35643">
        <ele>218</ele>
        <time>2022-05-18T06:46:18Z</time>
      </trkpt>
      <trkpt lat="43.61902" lon="3.35643">
        <ele>218.4</ele>
        <time>2022-05-18T06:46:19Z</time>
      </trkpt>
      <trkpt lat="43.61903" lon="3.35644">
        <ele>218.6</ele>
        <time>2022-05-18T06:46:20Z</time>
      </trkpt>
      <trkpt lat="43.61908" lon="3.35645">
        <ele>219.2</ele>
        <time>2022-05-18T06:46:23Z</time>
      </trkpt>
      <trkpt lat="43.6191" lon="3.35645">
        <ele>219.6</ele>
        <time>2022-05-18T06:46:24Z</time>
      </trkpt>
      <trkpt lat="43.61916" lon="3.35647">
        <ele>220.6</ele>
        <time>2022-05-18T06:46:28Z</time>
      </trkpt>
      <trkpt lat="43.61923" lon="3.35647">
        <ele>221.6</ele>
        <time>2022-05-18T06:46:32Z</time>
      </trkpt>
      <trkpt lat="43.61925" lon="3.35647">
        <ele>221.8</ele>
        <time>2022-05-18T06:46:33Z</time>
      </trkpt>
      <trkpt lat="43.61936" lon="3.35645">
        <ele>222.6</ele>
        <time>2022-05-18T06:46:39Z</time>
      </trkpt>
      <trkpt lat="43.61937" lon="3.35644">
        <ele>222.8</ele>
        <time>2022-05-18T06:46:41Z</time>
      </trkpt>
      <trkpt lat="43.61939" lon="3.35641">
        <ele>222.8</ele>
        <time>2022-05-18T06:46:43Z</time>
      </trkpt>
      <trkpt lat="43.61945" lon="3.35634">
        <ele>223.6</ele>
        <time>2022-05-18T06:46:49Z</time>
      </trkpt>
      <trkpt lat="43.61947" lon="3.35631">
        <ele>224</ele>
        <time>2022-05-18T06:46:52Z</time>
      </trkpt>
      <trkpt lat="43.61948" lon="3.35629">
        <ele>224.2</ele>
        <time>2022-05-18T06:46:54Z</time>
      </trkpt>
      <trkpt lat="43.6195" lon="3.35628">
        <ele>224.2</ele>
        <time>2022-05-18T06:46:55Z</time>
      </trkpt>
      <trkpt lat="43.61956" lon="3.35628">
        <ele>224.2</ele>
        <time>2022-05-18T06:46:58Z</time>
      </trkpt>
      <trkpt lat="43.61972" lon="3.35635">
        <ele>223.8</ele>
        <time>2022-05-18T06:47:03Z</time>
      </trkpt>
      <trkpt lat="43.61977" lon="3.35637">
        <ele>222.6</ele>
        <time>2022-05-18T06:47:06Z</time>
      </trkpt>
      <trkpt lat="43.61977" lon="3.35637">
        <ele>222.2</ele>
        <time>2022-05-18T06:47:07Z</time>
      </trkpt>
      <trkpt lat="43.61977" lon="3.35637">
        <ele>222</ele>
        <time>2022-05-18T06:47:17Z</time>
      </trkpt>
      <trkpt lat="43.61977" lon="3.35638">
        <ele>221.8</ele>
        <time>2022-05-18T06:47:31Z</time>
      </trkpt>
      <trkpt lat="43.61986" lon="3.3564">
        <ele>222.4</ele>
        <time>2022-05-18T06:48:16Z</time>
      </trkpt>
      <trkpt lat="43.61997" lon="3.35641">
        <ele>222.8</ele>
        <time>2022-05-18T06:48:23Z</time>
      </trkpt>
      <trkpt lat="43.62002" lon="3.35644">
        <ele>223.2</ele>
        <time>2022-05-18T06:48:29Z</time>
      </trkpt>
      <trkpt lat="43.62003" lon="3.35644">
        <ele>223.6</ele>
        <time>2022-05-18T06:48:31Z</time>
      </trkpt>
      <trkpt lat="43.62005" lon="3.35646">
        <ele>223.8</ele>
        <time>2022-05-18T06:48:34Z</time>
      </trkpt>
      <trkpt lat="43.6201" lon="3.35648">
        <ele>224.6</ele>
        <time>2022-05-18T06:48:42Z</time>
      </trkpt>
      <trkpt lat="43.6201" lon="3.35648">
        <ele>224.6</ele>
        <time>2022-05-18T06:48:43Z</time>
      </trkpt>
      <trkpt lat="43.62012" lon="3.35651">
        <ele>225.4</ele>
        <time>2022-05-18T06:48:51Z</time>
      </trkpt>
      <trkpt lat="43.62012" lon="3.35651">
        <ele>225.6</ele>
        <time>2022-05-18T06:48:54Z</time>
      </trkpt>
      <trkpt lat="43.62012" lon="3.35651">
        <ele>226.2</ele>
        <time>2022-05-18T06:49:04Z</time>
      </trkpt>
      <trkpt lat="43.62012" lon="3.3565">
        <ele>226.2</ele>
        <time>2022-05-18T06:51:35Z</time>
      </trkpt>
      <trkpt lat="43.62008" lon="3.35645">
        <ele>225.6</ele>
        <time>2022-05-18T06:51:42Z</time>
      </trkpt>
      <trkpt lat="43.62003" lon="3.35641">
        <ele>224.4</ele>
        <time>2022-05-18T06:51:51Z</time>
      </trkpt>
      <trkpt lat="43.62002" lon="3.35641">
        <ele>224.4</ele>
        <time>2022-05-18T06:51:52Z</time>
      </trkpt>
      <trkpt lat="43.61998" lon="3.35639">
        <ele>224</ele>
        <time>2022-05-18T06:51:57Z</time>
      </trkpt>
      <trkpt lat="43.61996" lon="3.35639">
        <ele>223.6</ele>
        <time>2022-05-18T06:52:02Z</time>
      </trkpt>
      <trkpt lat="43.61992" lon="3.35638">
        <ele>223.4</ele>
        <time>2022-05-18T06:52:06Z</time>
      </trkpt>
      <trkpt lat="43.6199" lon="3.35637">
        <ele>223.2</ele>
        <time>2022-05-18T06:52:08Z</time>
      </trkpt>
      <trkpt lat="43.61987" lon="3.35634">
        <ele>222.4</ele>
        <time>2022-05-18T06:52:15Z</time>
      </trkpt>
      <trkpt lat="43.61987" lon="3.35634">
        <ele>222.4</ele>
        <time>2022-05-18T06:52:17Z</time>
      </trkpt>
      <trkpt lat="43.61987" lon="3.35634">
        <ele>222.2</ele>
        <time>2022-05-18T06:52:23Z</time>
      </trkpt>
      <trkpt lat="43.61984" lon="3.35632">
        <ele>222.2</ele>
        <time>2022-05-18T06:53:35Z</time>
      </trkpt>
      <trkpt lat="43.61982" lon="3.3563">
        <ele>222.2</ele>
        <time>2022-05-18T06:53:37Z</time>
      </trkpt>
      <trkpt lat="43.61977" lon="3.35627">
        <ele>222.2</ele>
        <time>2022-05-18T06:53:44Z</time>
      </trkpt>
      <trkpt lat="43.61972" lon="3.35626">
        <ele>222.2</ele>
        <time>2022-05-18T06:53:59Z</time>
      </trkpt>
      <trkpt lat="43.61961" lon="3.35625">
        <ele>222.4</ele>
        <time>2022-05-18T06:54:05Z</time>
      </trkpt>
      <trkpt lat="43.61957" lon="3.35625">
        <ele>223</ele>
        <time>2022-05-18T06:54:07Z</time>
      </trkpt>
      <trkpt lat="43.61956" lon="3.35626">
        <ele>223.2</ele>
        <time>2022-05-18T06:54:08Z</time>
      </trkpt>
      <trkpt lat="43.61953" lon="3.35627">
        <ele>223.4</ele>
        <time>2022-05-18T06:54:09Z</time>
      </trkpt>
      <trkpt lat="43.61944" lon="3.3563">
        <ele>224</ele>
        <time>2022-05-18T06:54:13Z</time>
      </trkpt>
      <trkpt lat="43.61942" lon="3.35633">
        <ele>224.4</ele>
        <time>2022-05-18T06:54:15Z</time>
      </trkpt>
      <trkpt lat="43.6194" lon="3.35634">
        <ele>224.4</ele>
        <time>2022-05-18T06:54:16Z</time>
      </trkpt>
      <trkpt lat="43.61935" lon="3.35636">
        <ele>224.4</ele>
        <time>2022-05-18T06:54:18Z</time>
      </trkpt>
      <trkpt lat="43.61925" lon="3.3564">
        <ele>224</ele>
        <time>2022-05-18T06:54:23Z</time>
      </trkpt>
      <trkpt lat="43.61912" lon="3.35638">
        <ele>222.8</ele>
        <time>2022-05-18T06:54:29Z</time>
      </trkpt>
      <trkpt lat="43.61909" lon="3.35638">
        <ele>222.8</ele>
        <time>2022-05-18T06:54:30Z</time>
      </trkpt>
      <trkpt lat="43.61901" lon="3.35638">
        <ele>222.6</ele>
        <time>2022-05-18T06:54:33Z</time>
      </trkpt>
      <trkpt lat="43.61898" lon="3.35641">
        <ele>222</ele>
        <time>2022-05-18T06:54:35Z</time>
      </trkpt>
      <trkpt lat="43.61898" lon="3.35642">
        <ele>221.6</ele>
        <time>2022-05-18T06:54:36Z</time>
      </trkpt>
      <trkpt lat="43.619" lon="3.35652">
        <ele>220.4</ele>
        <time>2022-05-18T06:54:39Z</time>
      </trkpt>
      <trkpt lat="43.61904" lon="3.3566">
        <ele>219.8</ele>
        <time>2022-05-18T06:54:41Z</time>
      </trkpt>
      <trkpt lat="43.61906" lon="3.35664">
        <ele>219.4</ele>
        <time>2022-05-18T06:54:42Z</time>
      </trkpt>
      <trkpt lat="43.61905" lon="3.35667">
        <ele>219.4</ele>
        <time>2022-05-18T06:54:43Z</time>
      </trkpt>
      <trkpt lat="43.61904" lon="3.3567">
        <ele>219</ele>
        <time>2022-05-18T06:54:44Z</time>
      </trkpt>
      <trkpt lat="43.61903" lon="3.35672">
        <ele>218.6</ele>
        <time>2022-05-18T06:54:45Z</time>
      </trkpt>
      <trkpt lat="43.61902" lon="3.35674">
        <ele>218.4</ele>
        <time>2022-05-18T06:54:46Z</time>
      </trkpt>
      <trkpt lat="43.61901" lon="3.35676">
        <ele>218.2</ele>
        <time>2022-05-18T06:54:47Z</time>
      </trkpt>
      <trkpt lat="43.61895" lon="3.35679">
        <ele>217.2</ele>
        <time>2022-05-18T06:54:50Z</time>
      </trkpt>
      <trkpt lat="43.61886" lon="3.35679">
        <ele>216.6</ele>
        <time>2022-05-18T06:54:53Z</time>
      </trkpt>
      <trkpt lat="43.61876" lon="3.35679">
        <ele>216.4</ele>
        <time>2022-05-18T06:54:56Z</time>
      </trkpt>
      <trkpt lat="43.61868" lon="3.35679">
        <ele>216</ele>
        <time>2022-05-18T06:54:58Z</time>
      </trkpt>
      <trkpt lat="43.61857" lon="3.35677">
        <ele>215.2</ele>
        <time>2022-05-18T06:55:03Z</time>
      </trkpt>
      <trkpt lat="43.61855" lon="3.35678">
        <ele>214.8</ele>
        <time>2022-05-18T06:55:04Z</time>
      </trkpt>
      <trkpt lat="43.61854" lon="3.3568">
        <ele>214.8</ele>
        <time>2022-05-18T06:55:05Z</time>
      </trkpt>
      <trkpt lat="43.61853" lon="3.35684">
        <ele>214.4</ele>
        <time>2022-05-18T06:55:07Z</time>
      </trkpt>
      <trkpt lat="43.61851" lon="3.35691">
        <ele>213.6</ele>
        <time>2022-05-18T06:55:10Z</time>
      </trkpt>
      <trkpt lat="43.61851" lon="3.35693">
        <ele>213.4</ele>
        <time>2022-05-18T06:55:11Z</time>
      </trkpt>
      <trkpt lat="43.6185" lon="3.35696">
        <ele>213</ele>
        <time>2022-05-18T06:55:13Z</time>
      </trkpt>
      <trkpt lat="43.61847" lon="3.35701">
        <ele>212.6</ele>
        <time>2022-05-18T06:55:15Z</time>
      </trkpt>
      <trkpt lat="43.61842" lon="3.35714">
        <ele>212.2</ele>
        <time>2022-05-18T06:55:19Z</time>
      </trkpt>
      <trkpt lat="43.61836" lon="3.3573">
        <ele>211.6</ele>
        <time>2022-05-18T06:55:24Z</time>
      </trkpt>
      <trkpt lat="43.61833" lon="3.35741">
        <ele>211.2</ele>
        <time>2022-05-18T06:55:27Z</time>
      </trkpt>
      <trkpt lat="43.61828" lon="3.35759">
        <ele>210.6</ele>
        <time>2022-05-18T06:55:32Z</time>
      </trkpt>
      <trkpt lat="43.61826" lon="3.35766">
        <ele>210.4</ele>
        <time>2022-05-18T06:55:34Z</time>
      </trkpt>
      <trkpt lat="43.61821" lon="3.35783">
        <ele>209.6</ele>
        <time>2022-05-18T06:55:38Z</time>
      </trkpt>
      <trkpt lat="43.61816" lon="3.35798">
        <ele>209.2</ele>
        <time>2022-05-18T06:55:41Z</time>
      </trkpt>
      <trkpt lat="43.61809" lon="3.35816">
        <ele>208.8</ele>
        <time>2022-05-18T06:55:45Z</time>
      </trkpt>
      <trkpt lat="43.61797" lon="3.35852">
        <ele>208.2</ele>
        <time>2022-05-18T06:55:53Z</time>
      </trkpt>
      <trkpt lat="43.61795" lon="3.35857">
        <ele>208.2</ele>
        <time>2022-05-18T06:55:54Z</time>
      </trkpt>
      <trkpt lat="43.61786" lon="3.35887">
        <ele>207.8</ele>
        <time>2022-05-18T06:56:01Z</time>
      </trkpt>
      <trkpt lat="43.61777" lon="3.35911">
        <ele>207.4</ele>
        <time>2022-05-18T06:56:07Z</time>
      </trkpt>
      <trkpt lat="43.61774" lon="3.35919">
        <ele>207.2</ele>
        <time>2022-05-18T06:56:09Z</time>
      </trkpt>
      <trkpt lat="43.6177" lon="3.35933">
        <ele>207</ele>
        <time>2022-05-18T06:56:14Z</time>
      </trkpt>
      <trkpt lat="43.61762" lon="3.35959">
        <ele>206.4</ele>
        <time>2022-05-18T06:56:20Z</time>
      </trkpt>
      <trkpt lat="43.61758" lon="3.35973">
        <ele>206</ele>
        <time>2022-05-18T06:56:23Z</time>
      </trkpt>
      <trkpt lat="43.61754" lon="3.35988">
        <ele>205.4</ele>
        <time>2022-05-18T06:56:26Z</time>
      </trkpt>
      <trkpt lat="43.61753" lon="3.35998">
        <ele>205</ele>
        <time>2022-05-18T06:56:28Z</time>
      </trkpt>
      <trkpt lat="43.61749" lon="3.36013">
        <ele>204.4</ele>
        <time>2022-05-18T06:56:31Z</time>
      </trkpt>
      <trkpt lat="43.61745" lon="3.36038">
        <ele>204</ele>
        <time>2022-05-18T06:56:35Z</time>
      </trkpt>
      <trkpt lat="43.61742" lon="3.36051">
        <ele>203.6</ele>
        <time>2022-05-18T06:56:37Z</time>
      </trkpt>
      <trkpt lat="43.61736" lon="3.36078">
        <ele>202.8</ele>
        <time>2022-05-18T06:56:41Z</time>
      </trkpt>
      <trkpt lat="43.61733" lon="3.36092">
        <ele>202.4</ele>
        <time>2022-05-18T06:56:43Z</time>
      </trkpt>
      <trkpt lat="43.61731" lon="3.36098">
        <ele>202.4</ele>
        <time>2022-05-18T06:56:44Z</time>
      </trkpt>
      <trkpt lat="43.61726" lon="3.36124">
        <ele>201.6</ele>
        <time>2022-05-18T06:56:48Z</time>
      </trkpt>
      <trkpt lat="43.61725" lon="3.36131">
        <ele>201.4</ele>
        <time>2022-05-18T06:56:49Z</time>
      </trkpt>
      <trkpt lat="43.61725" lon="3.36145">
        <ele>201</ele>
        <time>2022-05-18T06:56:51Z</time>
      </trkpt>
      <trkpt lat="43.61726" lon="3.36165">
        <ele>200.6</ele>
        <time>2022-05-18T06:56:54Z</time>
      </trkpt>
      <trkpt lat="43.61727" lon="3.36172">
        <ele>200.4</ele>
        <time>2022-05-18T06:56:55Z</time>
      </trkpt>
      <trkpt lat="43.61733" lon="3.36208">
        <ele>199.4</ele>
        <time>2022-05-18T06:57:00Z</time>
      </trkpt>
      <trkpt lat="43.61735" lon="3.36224">
        <ele>199</ele>
        <time>2022-05-18T06:57:02Z</time>
      </trkpt>
      <trkpt lat="43.61737" lon="3.36249">
        <ele>198.4</ele>
        <time>2022-05-18T06:57:05Z</time>
      </trkpt>
      <trkpt lat="43.61736" lon="3.36266">
        <ele>198</ele>
        <time>2022-05-18T06:57:07Z</time>
      </trkpt>
      <trkpt lat="43.61731" lon="3.36281">
        <ele>197.6</ele>
        <time>2022-05-18T06:57:09Z</time>
      </trkpt>
      <trkpt lat="43.61723" lon="3.36294">
        <ele>197.2</ele>
        <time>2022-05-18T06:57:11Z</time>
      </trkpt>
      <trkpt lat="43.61714" lon="3.36306">
        <ele>197</ele>
        <time>2022-05-18T06:57:13Z</time>
      </trkpt>
      <trkpt lat="43.61703" lon="3.36323">
        <ele>196.8</ele>
        <time>2022-05-18T06:57:16Z</time>
      </trkpt>
      <trkpt lat="43.617" lon="3.3633">
        <ele>196.6</ele>
        <time>2022-05-18T06:57:17Z</time>
      </trkpt>
      <trkpt lat="43.61699" lon="3.36336">
        <ele>196.6</ele>
        <time>2022-05-18T06:57:18Z</time>
      </trkpt>
      <trkpt lat="43.61698" lon="3.36349">
        <ele>196.4</ele>
        <time>2022-05-18T06:57:20Z</time>
      </trkpt>
      <trkpt lat="43.61698" lon="3.36356">
        <ele>196.4</ele>
        <time>2022-05-18T06:57:21Z</time>
      </trkpt>
      <trkpt lat="43.61703" lon="3.36405">
        <ele>196</ele>
        <time>2022-05-18T06:57:28Z</time>
      </trkpt>
      <trkpt lat="43.61704" lon="3.36421">
        <ele>195.8</ele>
        <time>2022-05-18T06:57:30Z</time>
      </trkpt>
      <trkpt lat="43.61703" lon="3.36437">
        <ele>195.6</ele>
        <time>2022-05-18T06:57:32Z</time>
      </trkpt>
      <trkpt lat="43.61697" lon="3.3649">
        <ele>194.6</ele>
        <time>2022-05-18T06:57:38Z</time>
      </trkpt>
      <trkpt lat="43.61696" lon="3.365">
        <ele>194.6</ele>
        <time>2022-05-18T06:57:39Z</time>
      </trkpt>
      <trkpt lat="43.61686" lon="3.36559">
        <ele>193.4</ele>
        <time>2022-05-18T06:57:45Z</time>
      </trkpt>
      <trkpt lat="43.61671" lon="3.36606">
        <ele>192.2</ele>
        <time>2022-05-18T06:57:50Z</time>
      </trkpt>
      <trkpt lat="43.61659" lon="3.36644">
        <ele>191.4</ele>
        <time>2022-05-18T06:57:54Z</time>
      </trkpt>
      <trkpt lat="43.61655" lon="3.36662">
        <ele>190.8</ele>
        <time>2022-05-18T06:57:56Z</time>
      </trkpt>
      <trkpt lat="43.61655" lon="3.36679">
        <ele>190.4</ele>
        <time>2022-05-18T06:57:58Z</time>
      </trkpt>
      <trkpt lat="43.6166" lon="3.36711">
        <ele>189.8</ele>
        <time>2022-05-18T06:58:02Z</time>
      </trkpt>
      <trkpt lat="43.6166" lon="3.36719">
        <ele>189.4</ele>
        <time>2022-05-18T06:58:03Z</time>
      </trkpt>
      <trkpt lat="43.61659" lon="3.36744">
        <ele>189.4</ele>
        <time>2022-05-18T06:58:06Z</time>
      </trkpt>
      <trkpt lat="43.61657" lon="3.3676">
        <ele>188.8</ele>
        <time>2022-05-18T06:58:08Z</time>
      </trkpt>
      <trkpt lat="43.61655" lon="3.36768">
        <ele>188.8</ele>
        <time>2022-05-18T06:58:09Z</time>
      </trkpt>
      <trkpt lat="43.61641" lon="3.36814">
        <ele>188</ele>
        <time>2022-05-18T06:58:15Z</time>
      </trkpt>
      <trkpt lat="43.61637" lon="3.3683">
        <ele>187.6</ele>
        <time>2022-05-18T06:58:17Z</time>
      </trkpt>
      <trkpt lat="43.61633" lon="3.36844">
        <ele>187.4</ele>
        <time>2022-05-18T06:58:19Z</time>
      </trkpt>
      <trkpt lat="43.61628" lon="3.36858">
        <ele>187.2</ele>
        <time>2022-05-18T06:58:21Z</time>
      </trkpt>
      <trkpt lat="43.61621" lon="3.36875">
        <ele>186.6</ele>
        <time>2022-05-18T06:58:25Z</time>
      </trkpt>
      <trkpt lat="43.61621" lon="3.36876">
        <ele>186.4</ele>
        <time>2022-05-18T06:58:26Z</time>
      </trkpt>
      <trkpt lat="43.61621" lon="3.36876">
        <ele>186</ele>
        <time>2022-05-18T06:58:29Z</time>
      </trkpt>
      <trkpt lat="43.61621" lon="3.36876">
        <ele>185.4</ele>
        <time>2022-05-18T06:58:39Z</time>
      </trkpt>
      <trkpt lat="43.61621" lon="3.36876">
        <ele>185.4</ele>
        <time>2022-05-18T06:58:44Z</time>
      </trkpt>
      <trkpt lat="43.61621" lon="3.36876">
        <ele>185.2</ele>
        <time>2022-05-18T06:58:54Z</time>
      </trkpt>
      <trkpt lat="43.6162" lon="3.36884">
        <ele>185.2</ele>
        <time>2022-05-18T06:58:57Z</time>
      </trkpt>
      <trkpt lat="43.61617" lon="3.36902">
        <ele>185.2</ele>
        <time>2022-05-18T06:59:02Z</time>
      </trkpt>
      <trkpt lat="43.61611" lon="3.3693">
        <ele>185.4</ele>
        <time>2022-05-18T06:59:08Z</time>
      </trkpt>
      <trkpt lat="43.61609" lon="3.36936">
        <ele>185.4</ele>
        <time>2022-05-18T06:59:09Z</time>
      </trkpt>
      <trkpt lat="43.61605" lon="3.36955">
        <ele>185.4</ele>
        <time>2022-05-18T06:59:12Z</time>
      </trkpt>
      <trkpt lat="43.61601" lon="3.36968">
        <ele>185.4</ele>
        <time>2022-05-18T06:59:14Z</time>
      </trkpt>
      <trkpt lat="43.61599" lon="3.3699">
        <ele>185.4</ele>
        <time>2022-05-18T06:59:17Z</time>
      </trkpt>
      <trkpt lat="43.61593" lon="3.37038">
        <ele>184.6</ele>
        <time>2022-05-18T06:59:22Z</time>
      </trkpt>
      <trkpt lat="43.6159" lon="3.37062">
        <ele>184.2</ele>
        <time>2022-05-18T06:59:25Z</time>
      </trkpt>
      <trkpt lat="43.6159" lon="3.37072">
        <ele>184.2</ele>
        <time>2022-05-18T06:59:26Z</time>
      </trkpt>
      <trkpt lat="43.61588" lon="3.37102">
        <ele>183.8</ele>
        <time>2022-05-18T06:59:29Z</time>
      </trkpt>
      <trkpt lat="43.61585" lon="3.37119">
        <ele>183.6</ele>
        <time>2022-05-18T06:59:31Z</time>
      </trkpt>
      <trkpt lat="43.61583" lon="3.37128">
        <ele>183.6</ele>
        <time>2022-05-18T06:59:32Z</time>
      </trkpt>
      <trkpt lat="43.61584" lon="3.37147">
        <ele>183.4</ele>
        <time>2022-05-18T06:59:34Z</time>
      </trkpt>
      <trkpt lat="43.61586" lon="3.37157">
        <ele>183.4</ele>
        <time>2022-05-18T06:59:35Z</time>
      </trkpt>
      <trkpt lat="43.61592" lon="3.37173">
        <ele>183.2</ele>
        <time>2022-05-18T06:59:37Z</time>
      </trkpt>
      <trkpt lat="43.61595" lon="3.37182">
        <ele>183</ele>
        <time>2022-05-18T06:59:38Z</time>
      </trkpt>
      <trkpt lat="43.61595" lon="3.372">
        <ele>182.8</ele>
        <time>2022-05-18T06:59:40Z</time>
      </trkpt>
      <trkpt lat="43.61599" lon="3.3722">
        <ele>182.6</ele>
        <time>2022-05-18T06:59:42Z</time>
      </trkpt>
      <trkpt lat="43.61606" lon="3.37246">
        <ele>182.4</ele>
        <time>2022-05-18T06:59:45Z</time>
      </trkpt>
      <trkpt lat="43.61607" lon="3.37256">
        <ele>182.2</ele>
        <time>2022-05-18T06:59:46Z</time>
      </trkpt>
      <trkpt lat="43.61604" lon="3.37274">
        <ele>182</ele>
        <time>2022-05-18T06:59:48Z</time>
      </trkpt>
      <trkpt lat="43.61604" lon="3.37284">
        <ele>182</ele>
        <time>2022-05-18T06:59:49Z</time>
      </trkpt>
      <trkpt lat="43.61603" lon="3.37293">
        <ele>181.8</ele>
        <time>2022-05-18T06:59:50Z</time>
      </trkpt>
      <trkpt lat="43.61601" lon="3.37312">
        <ele>181.6</ele>
        <time>2022-05-18T06:59:52Z</time>
      </trkpt>
      <trkpt lat="43.61596" lon="3.37328">
        <ele>181.2</ele>
        <time>2022-05-18T06:59:54Z</time>
      </trkpt>
      <trkpt lat="43.61594" lon="3.37336">
        <ele>181</ele>
        <time>2022-05-18T06:59:55Z</time>
      </trkpt>
      <trkpt lat="43.61575" lon="3.37374">
        <ele>180.2</ele>
        <time>2022-05-18T07:00:00Z</time>
      </trkpt>
      <trkpt lat="43.6156" lon="3.37403">
        <ele>180</ele>
        <time>2022-05-18T07:00:04Z</time>
      </trkpt>
      <trkpt lat="43.6155" lon="3.37424">
        <ele>179.6</ele>
        <time>2022-05-18T07:00:07Z</time>
      </trkpt>
      <trkpt lat="43.61535" lon="3.3746">
        <ele>179.2</ele>
        <time>2022-05-18T07:00:12Z</time>
      </trkpt>
      <trkpt lat="43.61533" lon="3.37468">
        <ele>179.2</ele>
        <time>2022-05-18T07:00:13Z</time>
      </trkpt>
      <trkpt lat="43.61529" lon="3.37492">
        <ele>179</ele>
        <time>2022-05-18T07:00:16Z</time>
      </trkpt>
      <trkpt lat="43.61529" lon="3.375">
        <ele>179</ele>
        <time>2022-05-18T07:00:17Z</time>
      </trkpt>
      <trkpt lat="43.61528" lon="3.37517">
        <ele>178.8</ele>
        <time>2022-05-18T07:00:19Z</time>
      </trkpt>
      <trkpt lat="43.61527" lon="3.37525">
        <ele>178.8</ele>
        <time>2022-05-18T07:00:20Z</time>
      </trkpt>
      <trkpt lat="43.61521" lon="3.37551">
        <ele>178.6</ele>
        <time>2022-05-18T07:00:23Z</time>
      </trkpt>
      <trkpt lat="43.61516" lon="3.37568">
        <ele>178.2</ele>
        <time>2022-05-18T07:00:25Z</time>
      </trkpt>
      <trkpt lat="43.61512" lon="3.37588">
        <ele>177.6</ele>
        <time>2022-05-18T07:00:27Z</time>
      </trkpt>
      <trkpt lat="43.61511" lon="3.37599">
        <ele>177.6</ele>
        <time>2022-05-18T07:00:28Z</time>
      </trkpt>
      <trkpt lat="43.61508" lon="3.37629">
        <ele>177.2</ele>
        <time>2022-05-18T07:00:31Z</time>
      </trkpt>
      <trkpt lat="43.61501" lon="3.37645">
        <ele>177.2</ele>
        <time>2022-05-18T07:00:33Z</time>
      </trkpt>
      <trkpt lat="43.61488" lon="3.37671">
        <ele>176.8</ele>
        <time>2022-05-18T07:00:36Z</time>
      </trkpt>
      <trkpt lat="43.61476" lon="3.37689">
        <ele>176.2</ele>
        <time>2022-05-18T07:00:39Z</time>
      </trkpt>
      <trkpt lat="43.61472" lon="3.37696">
        <ele>176.2</ele>
        <time>2022-05-18T07:00:40Z</time>
      </trkpt>
      <trkpt lat="43.61463" lon="3.37729">
        <ele>175.6</ele>
        <time>2022-05-18T07:00:44Z</time>
      </trkpt>
      <trkpt lat="43.61459" lon="3.37735">
        <ele>175.6</ele>
        <time>2022-05-18T07:00:45Z</time>
      </trkpt>
      <trkpt lat="43.61455" lon="3.37742">
        <ele>175.6</ele>
        <time>2022-05-18T07:00:46Z</time>
      </trkpt>
      <trkpt lat="43.61446" lon="3.37755">
        <ele>175.2</ele>
        <time>2022-05-18T07:00:48Z</time>
      </trkpt>
      <trkpt lat="43.61432" lon="3.37773">
        <ele>175</ele>
        <time>2022-05-18T07:00:51Z</time>
      </trkpt>
      <trkpt lat="43.61428" lon="3.37779">
        <ele>175</ele>
        <time>2022-05-18T07:00:52Z</time>
      </trkpt>
      <trkpt lat="43.61414" lon="3.37801">
        <ele>174.6</ele>
        <time>2022-05-18T07:00:55Z</time>
      </trkpt>
      <trkpt lat="43.6141" lon="3.37808">
        <ele>174.6</ele>
        <time>2022-05-18T07:00:56Z</time>
      </trkpt>
      <trkpt lat="43.61405" lon="3.37815">
        <ele>174.4</ele>
        <time>2022-05-18T07:00:57Z</time>
      </trkpt>
      <trkpt lat="43.6138" lon="3.37842">
        <ele>174</ele>
        <time>2022-05-18T07:01:02Z</time>
      </trkpt>
      <trkpt lat="43.61357" lon="3.37859">
        <ele>173.4</ele>
        <time>2022-05-18T07:01:06Z</time>
      </trkpt>
      <trkpt lat="43.6134" lon="3.37877">
        <ele>173.2</ele>
        <time>2022-05-18T07:01:09Z</time>
      </trkpt>
      <trkpt lat="43.61335" lon="3.37883">
        <ele>173</ele>
        <time>2022-05-18T07:01:10Z</time>
      </trkpt>
      <trkpt lat="43.61326" lon="3.37893">
        <ele>172.8</ele>
        <time>2022-05-18T07:01:12Z</time>
      </trkpt>
      <trkpt lat="43.6132" lon="3.37899">
        <ele>172.6</ele>
        <time>2022-05-18T07:01:13Z</time>
      </trkpt>
      <trkpt lat="43.61304" lon="3.37915">
        <ele>172.2</ele>
        <time>2022-05-18T07:01:16Z</time>
      </trkpt>
      <trkpt lat="43.61279" lon="3.37944">
        <ele>172</ele>
        <time>2022-05-18T07:01:21Z</time>
      </trkpt>
      <trkpt lat="43.61261" lon="3.37968">
        <ele>171.8</ele>
        <time>2022-05-18T07:01:25Z</time>
      </trkpt>
      <trkpt lat="43.61254" lon="3.3798">
        <ele>171.6</ele>
        <time>2022-05-18T07:01:27Z</time>
      </trkpt>
      <trkpt lat="43.6125" lon="3.37995">
        <ele>171.4</ele>
        <time>2022-05-18T07:01:29Z</time>
      </trkpt>
      <trkpt lat="43.61246" lon="3.38011">
        <ele>171.2</ele>
        <time>2022-05-18T07:01:31Z</time>
      </trkpt>
      <trkpt lat="43.61244" lon="3.38019">
        <ele>171.2</ele>
        <time>2022-05-18T07:01:32Z</time>
      </trkpt>
      <trkpt lat="43.61241" lon="3.38027">
        <ele>171</ele>
        <time>2022-05-18T07:01:33Z</time>
      </trkpt>
      <trkpt lat="43.61229" lon="3.38048">
        <ele>170.8</ele>
        <time>2022-05-18T07:01:36Z</time>
      </trkpt>
      <trkpt lat="43.61219" lon="3.3806">
        <ele>170.6</ele>
        <time>2022-05-18T07:01:38Z</time>
      </trkpt>
      <trkpt lat="43.61208" lon="3.38068">
        <ele>170.4</ele>
        <time>2022-05-18T07:01:40Z</time>
      </trkpt>
      <trkpt lat="43.61179" lon="3.38081">
        <ele>170.2</ele>
        <time>2022-05-18T07:01:45Z</time>
      </trkpt>
      <trkpt lat="43.61167" lon="3.38086">
        <ele>170</ele>
        <time>2022-05-18T07:01:47Z</time>
      </trkpt>
      <trkpt lat="43.61156" lon="3.38091">
        <ele>169.8</ele>
        <time>2022-05-18T07:01:49Z</time>
      </trkpt>
      <trkpt lat="43.61145" lon="3.38099">
        <ele>169.6</ele>
        <time>2022-05-18T07:01:51Z</time>
      </trkpt>
      <trkpt lat="43.61136" lon="3.3811">
        <ele>169.4</ele>
        <time>2022-05-18T07:01:53Z</time>
      </trkpt>
      <trkpt lat="43.61123" lon="3.38137">
        <ele>169.2</ele>
        <time>2022-05-18T07:01:57Z</time>
      </trkpt>
      <trkpt lat="43.61105" lon="3.38172">
        <ele>168.6</ele>
        <time>2022-05-18T07:02:02Z</time>
      </trkpt>
      <trkpt lat="43.61081" lon="3.38212">
        <ele>168</ele>
        <time>2022-05-18T07:02:08Z</time>
      </trkpt>
      <trkpt lat="43.61069" lon="3.38232">
        <ele>168</ele>
        <time>2022-05-18T07:02:11Z</time>
      </trkpt>
      <trkpt lat="43.61048" lon="3.38265">
        <ele>167.6</ele>
        <time>2022-05-18T07:02:16Z</time>
      </trkpt>
      <trkpt lat="43.61039" lon="3.38276">
        <ele>167.4</ele>
        <time>2022-05-18T07:02:18Z</time>
      </trkpt>
      <trkpt lat="43.61034" lon="3.38281">
        <ele>167.4</ele>
        <time>2022-05-18T07:02:19Z</time>
      </trkpt>
      <trkpt lat="43.61023" lon="3.3829">
        <ele>167</ele>
        <time>2022-05-18T07:02:21Z</time>
      </trkpt>
      <trkpt lat="43.61017" lon="3.38293">
        <ele>167</ele>
        <time>2022-05-18T07:02:22Z</time>
      </trkpt>
      <trkpt lat="43.60997" lon="3.38305">
        <ele>166.4</ele>
        <time>2022-05-18T07:02:26Z</time>
      </trkpt>
      <trkpt lat="43.60993" lon="3.38309">
        <ele>166</ele>
        <time>2022-05-18T07:02:27Z</time>
      </trkpt>
      <trkpt lat="43.60989" lon="3.38315">
        <ele>165.8</ele>
        <time>2022-05-18T07:02:28Z</time>
      </trkpt>
      <trkpt lat="43.60974" lon="3.38334">
        <ele>165</ele>
        <time>2022-05-18T07:02:32Z</time>
      </trkpt>
      <trkpt lat="43.60964" lon="3.38348">
        <ele>165</ele>
        <time>2022-05-18T07:02:36Z</time>
      </trkpt>
      <trkpt lat="43.60959" lon="3.38356">
        <ele>165</ele>
        <time>2022-05-18T07:02:41Z</time>
      </trkpt>
      <trkpt lat="43.60956" lon="3.38367">
        <ele>165</ele>
        <time>2022-05-18T07:02:44Z</time>
      </trkpt>
      <trkpt lat="43.60957" lon="3.38372">
        <ele>165</ele>
        <time>2022-05-18T07:02:45Z</time>
      </trkpt>
      <trkpt lat="43.6096" lon="3.3839">
        <ele>164.8</ele>
        <time>2022-05-18T07:02:49Z</time>
      </trkpt>
      <trkpt lat="43.60961" lon="3.38401">
        <ele>164.6</ele>
        <time>2022-05-18T07:02:51Z</time>
      </trkpt>
      <trkpt lat="43.60961" lon="3.38437">
        <ele>164</ele>
        <time>2022-05-18T07:02:57Z</time>
      </trkpt>
      <trkpt lat="43.60958" lon="3.38456">
        <ele>163.6</ele>
        <time>2022-05-18T07:03:00Z</time>
      </trkpt>
      <trkpt lat="43.6095" lon="3.38481">
        <ele>163.4</ele>
        <time>2022-05-18T07:03:04Z</time>
      </trkpt>
      <trkpt lat="43.60934" lon="3.38527">
        <ele>162.6</ele>
        <time>2022-05-18T07:03:11Z</time>
      </trkpt>
      <trkpt lat="43.60932" lon="3.38535">
        <ele>162.6</ele>
        <time>2022-05-18T07:03:12Z</time>
      </trkpt>
      <trkpt lat="43.60919" lon="3.38589">
        <ele>161.6</ele>
        <time>2022-05-18T07:03:19Z</time>
      </trkpt>
      <trkpt lat="43.60916" lon="3.38603">
        <ele>161.2</ele>
        <time>2022-05-18T07:03:21Z</time>
      </trkpt>
      <trkpt lat="43.60913" lon="3.38623">
        <ele>161</ele>
        <time>2022-05-18T07:03:24Z</time>
      </trkpt>
      <trkpt lat="43.60911" lon="3.38643">
        <ele>160.8</ele>
        <time>2022-05-18T07:03:27Z</time>
      </trkpt>
      <trkpt lat="43.60911" lon="3.3867">
        <ele>160.6</ele>
        <time>2022-05-18T07:03:31Z</time>
      </trkpt>
      <trkpt lat="43.60912" lon="3.38677">
        <ele>160.4</ele>
        <time>2022-05-18T07:03:32Z</time>
      </trkpt>
      <trkpt lat="43.6092" lon="3.38711">
        <ele>160.4</ele>
        <time>2022-05-18T07:03:37Z</time>
      </trkpt>
      <trkpt lat="43.60926" lon="3.38724">
        <ele>160.4</ele>
        <time>2022-05-18T07:03:39Z</time>
      </trkpt>
      <trkpt lat="43.60938" lon="3.3874">
        <ele>160.4</ele>
        <time>2022-05-18T07:03:42Z</time>
      </trkpt>
      <trkpt lat="43.60943" lon="3.38744">
        <ele>160.2</ele>
        <time>2022-05-18T07:03:43Z</time>
      </trkpt>
      <trkpt lat="43.6098" lon="3.38763">
        <ele>160.2</ele>
        <time>2022-05-18T07:03:50Z</time>
      </trkpt>
      <trkpt lat="43.61026" lon="3.38783">
        <ele>159.8</ele>
        <time>2022-05-18T07:03:58Z</time>
      </trkpt>
      <trkpt lat="43.61036" lon="3.38793">
        <ele>159.6</ele>
        <time>2022-05-18T07:04:00Z</time>
      </trkpt>
      <trkpt lat="43.6104" lon="3.388">
        <ele>159.4</ele>
        <time>2022-05-18T07:04:01Z</time>
      </trkpt>
      <trkpt lat="43.61044" lon="3.38807">
        <ele>159.4</ele>
        <time>2022-05-18T07:04:02Z</time>
      </trkpt>
      <trkpt lat="43.61057" lon="3.38839">
        <ele>158.8</ele>
        <time>2022-05-18T07:04:06Z</time>
      </trkpt>
      <trkpt lat="43.61059" lon="3.38847">
        <ele>158.8</ele>
        <time>2022-05-18T07:04:07Z</time>
      </trkpt>
      <trkpt lat="43.61061" lon="3.38863">
        <ele>158.4</ele>
        <time>2022-05-18T07:04:09Z</time>
      </trkpt>
      <trkpt lat="43.61067" lon="3.38907">
        <ele>158</ele>
        <time>2022-05-18T07:04:14Z</time>
      </trkpt>
      <trkpt lat="43.61072" lon="3.38951">
        <ele>157.4</ele>
        <time>2022-05-18T07:04:19Z</time>
      </trkpt>
      <trkpt lat="43.61074" lon="3.38969">
        <ele>157.2</ele>
        <time>2022-05-18T07:04:21Z</time>
      </trkpt>
      <trkpt lat="43.61085" lon="3.39022">
        <ele>156.6</ele>
        <time>2022-05-18T07:04:27Z</time>
      </trkpt>
      <trkpt lat="43.61091" lon="3.3904">
        <ele>156.4</ele>
        <time>2022-05-18T07:04:29Z</time>
      </trkpt>
      <trkpt lat="43.61102" lon="3.39082">
        <ele>155.8</ele>
        <time>2022-05-18T07:04:34Z</time>
      </trkpt>
      <trkpt lat="43.611" lon="3.39108">
        <ele>155.4</ele>
        <time>2022-05-18T07:04:37Z</time>
      </trkpt>
      <trkpt lat="43.61099" lon="3.39116">
        <ele>155.2</ele>
        <time>2022-05-18T07:04:38Z</time>
      </trkpt>
      <trkpt lat="43.61091" lon="3.39166">
        <ele>154.4</ele>
        <time>2022-05-18T07:04:44Z</time>
      </trkpt>
      <trkpt lat="43.61091" lon="3.39175">
        <ele>154.2</ele>
        <time>2022-05-18T07:04:45Z</time>
      </trkpt>
      <trkpt lat="43.6109" lon="3.39226">
        <ele>154</ele>
        <time>2022-05-18T07:04:51Z</time>
      </trkpt>
      <trkpt lat="43.61097" lon="3.39307">
        <ele>153</ele>
        <time>2022-05-18T07:05:00Z</time>
      </trkpt>
      <trkpt lat="43.61098" lon="3.39316">
        <ele>153</ele>
        <time>2022-05-18T07:05:01Z</time>
      </trkpt>
      <trkpt lat="43.611" lon="3.39355">
        <ele>151.6</ele>
        <time>2022-05-18T07:05:05Z</time>
      </trkpt>
      <trkpt lat="43.61099" lon="3.39395">
        <ele>150.8</ele>
        <time>2022-05-18T07:05:09Z</time>
      </trkpt>
      <trkpt lat="43.61095" lon="3.39415">
        <ele>150.4</ele>
        <time>2022-05-18T07:05:11Z</time>
      </trkpt>
      <trkpt lat="43.61089" lon="3.39432">
        <ele>150</ele>
        <time>2022-05-18T07:05:13Z</time>
      </trkpt>
      <trkpt lat="43.6108" lon="3.3945">
        <ele>149.2</ele>
        <time>2022-05-18T07:05:15Z</time>
      </trkpt>
      <trkpt lat="43.61064" lon="3.39473">
        <ele>148.6</ele>
        <time>2022-05-18T07:05:18Z</time>
      </trkpt>
      <trkpt lat="43.61053" lon="3.39488">
        <ele>147.8</ele>
        <time>2022-05-18T07:05:20Z</time>
      </trkpt>
      <trkpt lat="43.61029" lon="3.39515">
        <ele>147</ele>
        <time>2022-05-18T07:05:24Z</time>
      </trkpt>
      <trkpt lat="43.61015" lon="3.39527">
        <ele>146.6</ele>
        <time>2022-05-18T07:05:26Z</time>
      </trkpt>
      <trkpt lat="43.61001" lon="3.39538">
        <ele>146.4</ele>
        <time>2022-05-18T07:05:28Z</time>
      </trkpt>
      <trkpt lat="43.60996" lon="3.39543">
        <ele>146.4</ele>
        <time>2022-05-18T07:05:29Z</time>
      </trkpt>
      <trkpt lat="43.60976" lon="3.39558">
        <ele>145.4</ele>
        <time>2022-05-18T07:05:32Z</time>
      </trkpt>
      <trkpt lat="43.60962" lon="3.39571">
        <ele>145</ele>
        <time>2022-05-18T07:05:34Z</time>
      </trkpt>
      <trkpt lat="43.60942" lon="3.3959">
        <ele>144</ele>
        <time>2022-05-18T07:05:37Z</time>
      </trkpt>
      <trkpt lat="43.60922" lon="3.3961">
        <ele>143.4</ele>
        <time>2022-05-18T07:05:40Z</time>
      </trkpt>
      <trkpt lat="43.60903" lon="3.39632">
        <ele>142.8</ele>
        <time>2022-05-18T07:05:43Z</time>
      </trkpt>
      <trkpt lat="43.60895" lon="3.39649">
        <ele>142.4</ele>
        <time>2022-05-18T07:05:45Z</time>
      </trkpt>
      <trkpt lat="43.60889" lon="3.39666">
        <ele>142</ele>
        <time>2022-05-18T07:05:47Z</time>
      </trkpt>
      <trkpt lat="43.60886" lon="3.39684">
        <ele>141.8</ele>
        <time>2022-05-18T07:05:49Z</time>
      </trkpt>
      <trkpt lat="43.60879" lon="3.39721">
        <ele>141.4</ele>
        <time>2022-05-18T07:05:54Z</time>
      </trkpt>
      <trkpt lat="43.60878" lon="3.39737">
        <ele>141.2</ele>
        <time>2022-05-18T07:05:56Z</time>
      </trkpt>
      <trkpt lat="43.60875" lon="3.3979">
        <ele>140.6</ele>
        <time>2022-05-18T07:06:02Z</time>
      </trkpt>
      <trkpt lat="43.60872" lon="3.39808">
        <ele>140.4</ele>
        <time>2022-05-18T07:06:04Z</time>
      </trkpt>
      <trkpt lat="43.6087" lon="3.39856">
        <ele>140</ele>
        <time>2022-05-18T07:06:09Z</time>
      </trkpt>
      <trkpt lat="43.60871" lon="3.39867">
        <ele>139.6</ele>
        <time>2022-05-18T07:06:10Z</time>
      </trkpt>
      <trkpt lat="43.60881" lon="3.39916">
        <ele>138.6</ele>
        <time>2022-05-18T07:06:15Z</time>
      </trkpt>
      <trkpt lat="43.60898" lon="3.39992">
        <ele>137.4</ele>
        <time>2022-05-18T07:06:22Z</time>
      </trkpt>
      <trkpt lat="43.60903" lon="3.40033">
        <ele>136.8</ele>
        <time>2022-05-18T07:06:26Z</time>
      </trkpt>
      <trkpt lat="43.60902" lon="3.40044">
        <ele>136.8</ele>
        <time>2022-05-18T07:06:27Z</time>
      </trkpt>
      <trkpt lat="43.60901" lon="3.40055">
        <ele>136.4</ele>
        <time>2022-05-18T07:06:28Z</time>
      </trkpt>
      <trkpt lat="43.60899" lon="3.40066">
        <ele>136.4</ele>
        <time>2022-05-18T07:06:29Z</time>
      </trkpt>
      <trkpt lat="43.60894" lon="3.40084">
        <ele>135.8</ele>
        <time>2022-05-18T07:06:31Z</time>
      </trkpt>
      <trkpt lat="43.60893" lon="3.40093">
        <ele>135.4</ele>
        <time>2022-05-18T07:06:32Z</time>
      </trkpt>
      <trkpt lat="43.60892" lon="3.40102">
        <ele>135.2</ele>
        <time>2022-05-18T07:06:33Z</time>
      </trkpt>
      <trkpt lat="43.60893" lon="3.40111">
        <ele>135.2</ele>
        <time>2022-05-18T07:06:34Z</time>
      </trkpt>
      <trkpt lat="43.60894" lon="3.40119">
        <ele>134.8</ele>
        <time>2022-05-18T07:06:35Z</time>
      </trkpt>
      <trkpt lat="43.60896" lon="3.40126">
        <ele>134.6</ele>
        <time>2022-05-18T07:06:36Z</time>
      </trkpt>
      <trkpt lat="43.60902" lon="3.40139">
        <ele>134</ele>
        <time>2022-05-18T07:06:38Z</time>
      </trkpt>
      <trkpt lat="43.60905" lon="3.40146">
        <ele>133.8</ele>
        <time>2022-05-18T07:06:39Z</time>
      </trkpt>
      <trkpt lat="43.60918" lon="3.40171">
        <ele>133.2</ele>
        <time>2022-05-18T07:06:43Z</time>
      </trkpt>
      <trkpt lat="43.60927" lon="3.40179">
        <ele>133</ele>
        <time>2022-05-18T07:06:45Z</time>
      </trkpt>
      <trkpt lat="43.60949" lon="3.40188">
        <ele>133</ele>
        <time>2022-05-18T07:06:49Z</time>
      </trkpt>
      <trkpt lat="43.60955" lon="3.40191">
        <ele>133</ele>
        <time>2022-05-18T07:06:50Z</time>
      </trkpt>
      <trkpt lat="43.60977" lon="3.40213">
        <ele>133</ele>
        <time>2022-05-18T07:06:55Z</time>
      </trkpt>
      <trkpt lat="43.60979" lon="3.40218">
        <ele>133</ele>
        <time>2022-05-18T07:06:56Z</time>
      </trkpt>
      <trkpt lat="43.6098" lon="3.40225">
        <ele>133</ele>
        <time>2022-05-18T07:06:58Z</time>
      </trkpt>
      <trkpt lat="43.60979" lon="3.4023">
        <ele>133</ele>
        <time>2022-05-18T07:07:00Z</time>
      </trkpt>
      <trkpt lat="43.60978" lon="3.40235">
        <ele>133</ele>
        <time>2022-05-18T07:07:02Z</time>
      </trkpt>
      <trkpt lat="43.60966" lon="3.40249">
        <ele>133.2</ele>
        <time>2022-05-18T07:07:08Z</time>
      </trkpt>
      <trkpt lat="43.60961" lon="3.40256">
        <ele>133.2</ele>
        <time>2022-05-18T07:07:10Z</time>
      </trkpt>
      <trkpt lat="43.60955" lon="3.40267">
        <ele>133</ele>
        <time>2022-05-18T07:07:13Z</time>
      </trkpt>
      <trkpt lat="43.60935" lon="3.40293">
        <ele>132.8</ele>
        <time>2022-05-18T07:07:19Z</time>
      </trkpt>
      <trkpt lat="43.60919" lon="3.40313">
        <ele>132.4</ele>
        <time>2022-05-18T07:07:24Z</time>
      </trkpt>
      <trkpt lat="43.60916" lon="3.40317">
        <ele>132.4</ele>
        <time>2022-05-18T07:07:25Z</time>
      </trkpt>
      <trkpt lat="43.60906" lon="3.4033">
        <ele>132.2</ele>
        <time>2022-05-18T07:07:28Z</time>
      </trkpt>
      <trkpt lat="43.60888" lon="3.40351">
        <ele>131.6</ele>
        <time>2022-05-18T07:07:33Z</time>
      </trkpt>
      <trkpt lat="43.60876" lon="3.40367">
        <ele>131</ele>
        <time>2022-05-18T07:07:36Z</time>
      </trkpt>
      <trkpt lat="43.60866" lon="3.40378">
        <ele>130.2</ele>
        <time>2022-05-18T07:07:38Z</time>
      </trkpt>
      <trkpt lat="43.60862" lon="3.40385">
        <ele>129.8</ele>
        <time>2022-05-18T07:07:39Z</time>
      </trkpt>
      <trkpt lat="43.60843" lon="3.40411">
        <ele>128.6</ele>
        <time>2022-05-18T07:07:43Z</time>
      </trkpt>
      <trkpt lat="43.60832" lon="3.40423">
        <ele>127.8</ele>
        <time>2022-05-18T07:07:45Z</time>
      </trkpt>
      <trkpt lat="43.60822" lon="3.40436">
        <ele>127.4</ele>
        <time>2022-05-18T07:07:47Z</time>
      </trkpt>
      <trkpt lat="43.60794" lon="3.40464">
        <ele>126.2</ele>
        <time>2022-05-18T07:07:52Z</time>
      </trkpt>
      <trkpt lat="43.60766" lon="3.40486">
        <ele>125.2</ele>
        <time>2022-05-18T07:07:57Z</time>
      </trkpt>
      <trkpt lat="43.6076" lon="3.4049">
        <ele>125</ele>
        <time>2022-05-18T07:07:58Z</time>
      </trkpt>
      <trkpt lat="43.6072" lon="3.40519">
        <ele>123.8</ele>
        <time>2022-05-18T07:08:05Z</time>
      </trkpt>
      <trkpt lat="43.60682" lon="3.40544">
        <ele>122.8</ele>
        <time>2022-05-18T07:08:12Z</time>
      </trkpt>
      <trkpt lat="43.60676" lon="3.40548">
        <ele>122.8</ele>
        <time>2022-05-18T07:08:13Z</time>
      </trkpt>
      <trkpt lat="43.60656" lon="3.40563">
        <ele>122.4</ele>
        <time>2022-05-18T07:08:17Z</time>
      </trkpt>
      <trkpt lat="43.60647" lon="3.40571">
        <ele>122.4</ele>
        <time>2022-05-18T07:08:19Z</time>
      </trkpt>
      <trkpt lat="43.60632" lon="3.40581">
        <ele>122.4</ele>
        <time>2022-05-18T07:08:22Z</time>
      </trkpt>
      <trkpt lat="43.60624" lon="3.40589">
        <ele>122.2</ele>
        <time>2022-05-18T07:08:24Z</time>
      </trkpt>
      <trkpt lat="43.6062" lon="3.40593">
        <ele>122.2</ele>
        <time>2022-05-18T07:08:25Z</time>
      </trkpt>
      <trkpt lat="43.60616" lon="3.40598">
        <ele>122.2</ele>
        <time>2022-05-18T07:08:26Z</time>
      </trkpt>
      <trkpt lat="43.6061" lon="3.40606">
        <ele>122.2</ele>
        <time>2022-05-18T07:08:28Z</time>
      </trkpt>
      <trkpt lat="43.60608" lon="3.40611">
        <ele>122.2</ele>
        <time>2022-05-18T07:08:29Z</time>
      </trkpt>
      <trkpt lat="43.60605" lon="3.40616">
        <ele>122.2</ele>
        <time>2022-05-18T07:08:30Z</time>
      </trkpt>
      <trkpt lat="43.60596" lon="3.40636">
        <ele>122</ele>
        <time>2022-05-18T07:08:34Z</time>
      </trkpt>
      <trkpt lat="43.60595" lon="3.40638">
        <ele>121.8</ele>
        <time>2022-05-18T07:08:35Z</time>
      </trkpt>
      <trkpt lat="43.60593" lon="3.40641">
        <ele>121.8</ele>
        <time>2022-05-18T07:08:36Z</time>
      </trkpt>
      <trkpt lat="43.6059" lon="3.40643">
        <ele>121.6</ele>
        <time>2022-05-18T07:08:37Z</time>
      </trkpt>
      <trkpt lat="43.60581" lon="3.40652">
        <ele>121</ele>
        <time>2022-05-18T07:08:41Z</time>
      </trkpt>
      <trkpt lat="43.6058" lon="3.40654">
        <ele>120.6</ele>
        <time>2022-05-18T07:08:42Z</time>
      </trkpt>
      <trkpt lat="43.60578" lon="3.40654">
        <ele>120.2</ele>
        <time>2022-05-18T07:08:43Z</time>
      </trkpt>
      <trkpt lat="43.60575" lon="3.40653">
        <ele>119.4</ele>
        <time>2022-05-18T07:08:45Z</time>
      </trkpt>
      <trkpt lat="43.6057" lon="3.40651">
        <ele>118.8</ele>
        <time>2022-05-18T07:08:47Z</time>
      </trkpt>
      <trkpt lat="43.60563" lon="3.40652">
        <ele>118.2</ele>
        <time>2022-05-18T07:08:50Z</time>
      </trkpt>
      <trkpt lat="43.60554" lon="3.40648">
        <ele>117.8</ele>
        <time>2022-05-18T07:08:55Z</time>
      </trkpt>
      <trkpt lat="43.60554" lon="3.40648">
        <ele>117</ele>
        <time>2022-05-18T07:08:59Z</time>
      </trkpt>
      <trkpt lat="43.60552" lon="3.40645">
        <ele>116.4</ele>
        <time>2022-05-18T07:09:07Z</time>
      </trkpt>
      <trkpt lat="43.60552" lon="3.40645">
        <ele>116</ele>
        <time>2022-05-18T07:09:13Z</time>
      </trkpt>
      <trkpt lat="43.60552" lon="3.40645">
        <ele>115.8</ele>
        <time>2022-05-18T07:09:17Z</time>
      </trkpt>
      <trkpt lat="43.60547" lon="3.40642">
        <ele>116</ele>
        <time>2022-05-18T07:09:28Z</time>
      </trkpt>
      <trkpt lat="43.60547" lon="3.40641">
        <ele>116.2</ele>
        <time>2022-05-18T07:09:36Z</time>
      </trkpt>
      <trkpt lat="43.60544" lon="3.40639">
        <ele>117</ele>
        <time>2022-05-18T07:09:49Z</time>
      </trkpt>
      <trkpt lat="43.60544" lon="3.40639">
        <ele>117.8</ele>
        <time>2022-05-18T07:09:55Z</time>
      </trkpt>
      <trkpt lat="43.60542" lon="3.40639">
        <ele>118</ele>
        <time>2022-05-18T07:10:01Z</time>
      </trkpt>
      <trkpt lat="43.6054" lon="3.40639">
        <ele>119.2</ele>
        <time>2022-05-18T07:10:11Z</time>
      </trkpt>
      <trkpt lat="43.60535" lon="3.40641">
        <ele>120.2</ele>
        <time>2022-05-18T07:10:35Z</time>
      </trkpt>
      <trkpt lat="43.60532" lon="3.40641">
        <ele>120.4</ele>
        <time>2022-05-18T07:10:45Z</time>
      </trkpt>
      <trkpt lat="43.60526" lon="3.40641">
        <ele>120.4</ele>
        <time>2022-05-18T07:10:49Z</time>
      </trkpt>
      <trkpt lat="43.60524" lon="3.40642">
        <ele>120.4</ele>
        <time>2022-05-18T07:10:50Z</time>
      </trkpt>
      <trkpt lat="43.60519" lon="3.40641">
        <ele>120.4</ele>
        <time>2022-05-18T07:10:52Z</time>
      </trkpt>
      <trkpt lat="43.60515" lon="3.40641">
        <ele>120.8</ele>
        <time>2022-05-18T07:10:54Z</time>
      </trkpt>
      <trkpt lat="43.6051" lon="3.40641">
        <ele>121.2</ele>
        <time>2022-05-18T07:10:56Z</time>
      </trkpt>
      <trkpt lat="43.60501" lon="3.40644">
        <ele>122</ele>
        <time>2022-05-18T07:11:01Z</time>
      </trkpt>
      <trkpt lat="43.605" lon="3.40645">
        <ele>122.4</ele>
        <time>2022-05-18T07:11:02Z</time>
      </trkpt>
      <trkpt lat="43.6049" lon="3.40653">
        <ele>123.4</ele>
        <time>2022-05-18T07:11:09Z</time>
      </trkpt>
      <trkpt lat="43.60489" lon="3.40654">
        <ele>123.6</ele>
        <time>2022-05-18T07:11:10Z</time>
      </trkpt>
      <trkpt lat="43.6048" lon="3.4066">
        <ele>124.4</ele>
        <time>2022-05-18T07:11:17Z</time>
      </trkpt>
      <trkpt lat="43.60464" lon="3.40668">
        <ele>124.2</ele>
        <time>2022-05-18T07:11:25Z</time>
      </trkpt>
      <trkpt lat="43.60454" lon="3.4067">
        <ele>124</ele>
        <time>2022-05-18T07:11:28Z</time>
      </trkpt>
      <trkpt lat="43.60449" lon="3.4067">
        <ele>123.8</ele>
        <time>2022-05-18T07:11:29Z</time>
      </trkpt>
      <trkpt lat="43.60436" lon="3.40665">
        <ele>123.2</ele>
        <time>2022-05-18T07:11:33Z</time>
      </trkpt>
      <trkpt lat="43.60429" lon="3.40663">
        <ele>123</ele>
        <time>2022-05-18T07:11:38Z</time>
      </trkpt>
      <trkpt lat="43.60418" lon="3.40648">
        <ele>123.6</ele>
        <time>2022-05-18T07:11:45Z</time>
      </trkpt>
      <trkpt lat="43.60405" lon="3.40635">
        <ele>123.6</ele>
        <time>2022-05-18T07:11:51Z</time>
      </trkpt>
      <trkpt lat="43.60398" lon="3.40629">
        <ele>123.4</ele>
        <time>2022-05-18T07:11:53Z</time>
      </trkpt>
      <trkpt lat="43.60386" lon="3.40621">
        <ele>122.8</ele>
        <time>2022-05-18T07:11:56Z</time>
      </trkpt>
      <trkpt lat="43.60383" lon="3.40617">
        <ele>122.6</ele>
        <time>2022-05-18T07:11:57Z</time>
      </trkpt>
      <trkpt lat="43.60361" lon="3.40596">
        <ele>121.6</ele>
        <time>2022-05-18T07:12:03Z</time>
      </trkpt>
      <trkpt lat="43.60345" lon="3.4059">
        <ele>121.2</ele>
        <time>2022-05-18T07:12:08Z</time>
      </trkpt>
      <trkpt lat="43.60326" lon="3.40583">
        <ele>121.8</ele>
        <time>2022-05-18T07:12:15Z</time>
      </trkpt>
      <trkpt lat="43.60306" lon="3.40581">
        <ele>122.4</ele>
        <time>2022-05-18T07:12:23Z</time>
      </trkpt>
      <trkpt lat="43.60285" lon="3.40583">
        <ele>122.4</ele>
        <time>2022-05-18T07:12:28Z</time>
      </trkpt>
      <trkpt lat="43.6028" lon="3.40583">
        <ele>122.4</ele>
        <time>2022-05-18T07:12:29Z</time>
      </trkpt>
      <trkpt lat="43.60259" lon="3.4058">
        <ele>122</ele>
        <time>2022-05-18T07:12:33Z</time>
      </trkpt>
      <trkpt lat="43.60242" lon="3.40572">
        <ele>120.8</ele>
        <time>2022-05-18T07:12:37Z</time>
      </trkpt>
      <trkpt lat="43.60239" lon="3.40568">
        <ele>120.4</ele>
        <time>2022-05-18T07:12:38Z</time>
      </trkpt>
      <trkpt lat="43.60232" lon="3.40552">
        <ele>119.4</ele>
        <time>2022-05-18T07:12:41Z</time>
      </trkpt>
      <trkpt lat="43.6023" lon="3.40545">
        <ele>119.2</ele>
        <time>2022-05-18T07:12:42Z</time>
      </trkpt>
      <trkpt lat="43.60224" lon="3.40532">
        <ele>118.2</ele>
        <time>2022-05-18T07:12:44Z</time>
      </trkpt>
      <trkpt lat="43.6022" lon="3.40525">
        <ele>117.2</ele>
        <time>2022-05-18T07:12:45Z</time>
      </trkpt>
      <trkpt lat="43.60214" lon="3.40513">
        <ele>116</ele>
        <time>2022-05-18T07:12:47Z</time>
      </trkpt>
      <trkpt lat="43.60208" lon="3.40502">
        <ele>115.4</ele>
        <time>2022-05-18T07:12:49Z</time>
      </trkpt>
      <trkpt lat="43.60199" lon="3.40489">
        <ele>114.8</ele>
        <time>2022-05-18T07:12:52Z</time>
      </trkpt>
      <trkpt lat="43.60195" lon="3.40478">
        <ele>114.6</ele>
        <time>2022-05-18T07:12:54Z</time>
      </trkpt>
      <trkpt lat="43.60194" lon="3.40463">
        <ele>114.6</ele>
        <time>2022-05-18T07:12:57Z</time>
      </trkpt>
      <trkpt lat="43.60203" lon="3.40451">
        <ele>114.6</ele>
        <time>2022-05-18T07:13:01Z</time>
      </trkpt>
      <trkpt lat="43.60221" lon="3.40431">
        <ele>115.2</ele>
        <time>2022-05-18T07:13:08Z</time>
      </trkpt>
      <trkpt lat="43.60231" lon="3.40415">
        <ele>115.8</ele>
        <time>2022-05-18T07:13:13Z</time>
      </trkpt>
      <trkpt lat="43.60233" lon="3.40412">
        <ele>116</ele>
        <time>2022-05-18T07:13:14Z</time>
      </trkpt>
      <trkpt lat="43.60242" lon="3.40393">
        <ele>116.2</ele>
        <time>2022-05-18T07:13:19Z</time>
      </trkpt>
      <trkpt lat="43.60245" lon="3.40371">
        <ele>116.8</ele>
        <time>2022-05-18T07:13:25Z</time>
      </trkpt>
      <trkpt lat="43.60243" lon="3.40368">
        <ele>117</ele>
        <time>2022-05-18T07:13:26Z</time>
      </trkpt>
      <trkpt lat="43.60238" lon="3.40358">
        <ele>117.2</ele>
        <time>2022-05-18T07:13:30Z</time>
      </trkpt>
      <trkpt lat="43.6023" lon="3.40341">
        <ele>118</ele>
        <time>2022-05-18T07:13:38Z</time>
      </trkpt>
      <trkpt lat="43.60224" lon="3.40323">
        <ele>119.2</ele>
        <time>2022-05-18T07:13:45Z</time>
      </trkpt>
      <trkpt lat="43.60223" lon="3.40321">
        <ele>119.4</ele>
        <time>2022-05-18T07:13:46Z</time>
      </trkpt>
      <trkpt lat="43.6022" lon="3.40307">
        <ele>120.8</ele>
        <time>2022-05-18T07:13:52Z</time>
      </trkpt>
      <trkpt lat="43.60219" lon="3.40303">
        <ele>121.2</ele>
        <time>2022-05-18T07:13:54Z</time>
      </trkpt>
      <trkpt lat="43.60217" lon="3.40297">
        <ele>121.8</ele>
        <time>2022-05-18T07:13:57Z</time>
      </trkpt>
      <trkpt lat="43.60214" lon="3.40288">
        <ele>122.8</ele>
        <time>2022-05-18T07:14:02Z</time>
      </trkpt>
      <trkpt lat="43.60213" lon="3.40286">
        <ele>123</ele>
        <time>2022-05-18T07:14:03Z</time>
      </trkpt>
      <trkpt lat="43.60209" lon="3.4028">
        <ele>124</ele>
        <time>2022-05-18T07:14:07Z</time>
      </trkpt>
      <trkpt lat="43.60206" lon="3.40274">
        <ele>124.2</ele>
        <time>2022-05-18T07:14:10Z</time>
      </trkpt>
      <trkpt lat="43.602" lon="3.40267">
        <ele>125</ele>
        <time>2022-05-18T07:14:15Z</time>
      </trkpt>
      <trkpt lat="43.60195" lon="3.40263">
        <ele>125.6</ele>
        <time>2022-05-18T07:14:20Z</time>
      </trkpt>
      <trkpt lat="43.60194" lon="3.40263">
        <ele>126.2</ele>
        <time>2022-05-18T07:14:26Z</time>
      </trkpt>
      <trkpt lat="43.60194" lon="3.40263">
        <ele>126.2</ele>
        <time>2022-05-18T07:14:27Z</time>
      </trkpt>
      <trkpt lat="43.60194" lon="3.40263">
        <ele>126.4</ele>
        <time>2022-05-18T07:14:43Z</time>
      </trkpt>
      <trkpt lat="43.60188" lon="3.40256">
        <ele>126.4</ele>
        <time>2022-05-18T07:14:59Z</time>
      </trkpt>
      <trkpt lat="43.60177" lon="3.40242">
        <ele>127.2</ele>
        <time>2022-05-18T07:15:07Z</time>
      </trkpt>
      <trkpt lat="43.60175" lon="3.40239">
        <ele>127.4</ele>
        <time>2022-05-18T07:15:09Z</time>
      </trkpt>
      <trkpt lat="43.60163" lon="3.40228">
        <ele>128.6</ele>
        <time>2022-05-18T07:15:17Z</time>
      </trkpt>
      <trkpt lat="43.60148" lon="3.40224">
        <ele>129.6</ele>
        <time>2022-05-18T07:15:26Z</time>
      </trkpt>
      <trkpt lat="43.60146" lon="3.40224">
        <ele>129.6</ele>
        <time>2022-05-18T07:15:27Z</time>
      </trkpt>
      <trkpt lat="43.60136" lon="3.40226">
        <ele>130.2</ele>
        <time>2022-05-18T07:15:33Z</time>
      </trkpt>
      <trkpt lat="43.60134" lon="3.40224">
        <ele>130.8</ele>
        <time>2022-05-18T07:15:35Z</time>
      </trkpt>
      <trkpt lat="43.60133" lon="3.40217">
        <ele>131</ele>
        <time>2022-05-18T07:15:38Z</time>
      </trkpt>
      <trkpt lat="43.60135" lon="3.40214">
        <ele>131.2</ele>
        <time>2022-05-18T07:15:40Z</time>
      </trkpt>
      <trkpt lat="43.60139" lon="3.40205">
        <ele>132</ele>
        <time>2022-05-18T07:15:45Z</time>
      </trkpt>
      <trkpt lat="43.6014" lon="3.40201">
        <ele>132.6</ele>
        <time>2022-05-18T07:15:47Z</time>
      </trkpt>
      <trkpt lat="43.60141" lon="3.40196">
        <ele>133.4</ele>
        <time>2022-05-18T07:15:49Z</time>
      </trkpt>
      <trkpt lat="43.60143" lon="3.40182">
        <ele>134.4</ele>
        <time>2022-05-18T07:15:55Z</time>
      </trkpt>
      <trkpt lat="43.60143" lon="3.4018">
        <ele>134.8</ele>
        <time>2022-05-18T07:15:56Z</time>
      </trkpt>
      <trkpt lat="43.60141" lon="3.40169">
        <ele>135.8</ele>
        <time>2022-05-18T07:16:01Z</time>
      </trkpt>
      <trkpt lat="43.60138" lon="3.40162">
        <ele>136.2</ele>
        <time>2022-05-18T07:16:04Z</time>
      </trkpt>
      <trkpt lat="43.60132" lon="3.40152">
        <ele>136.8</ele>
        <time>2022-05-18T07:16:09Z</time>
      </trkpt>
      <trkpt lat="43.60129" lon="3.40147">
        <ele>137.2</ele>
        <time>2022-05-18T07:16:12Z</time>
      </trkpt>
      <trkpt lat="43.60123" lon="3.4014">
        <ele>138</ele>
        <time>2022-05-18T07:16:17Z</time>
      </trkpt>
      <trkpt lat="43.6012" lon="3.40134">
        <ele>138.4</ele>
        <time>2022-05-18T07:16:20Z</time>
      </trkpt>
      <trkpt lat="43.60113" lon="3.40122">
        <ele>138.8</ele>
        <time>2022-05-18T07:16:27Z</time>
      </trkpt>
      <trkpt lat="43.60107" lon="3.40108">
        <ele>139.2</ele>
        <time>2022-05-18T07:16:33Z</time>
      </trkpt>
      <trkpt lat="43.60105" lon="3.40105">
        <ele>139.2</ele>
        <time>2022-05-18T07:16:34Z</time>
      </trkpt>
      <trkpt lat="43.60104" lon="3.40102">
        <ele>139.4</ele>
        <time>2022-05-18T07:16:35Z</time>
      </trkpt>
      <trkpt lat="43.60097" lon="3.40085">
        <ele>139.6</ele>
        <time>2022-05-18T07:16:40Z</time>
      </trkpt>
      <trkpt lat="43.60089" lon="3.40066">
        <ele>139.8</ele>
        <time>2022-05-18T07:16:46Z</time>
      </trkpt>
      <trkpt lat="43.60082" lon="3.40032">
        <ele>139.4</ele>
        <time>2022-05-18T07:16:53Z</time>
      </trkpt>
      <trkpt lat="43.60074" lon="3.40006">
        <ele>139</ele>
        <time>2022-05-18T07:16:58Z</time>
      </trkpt>
      <trkpt lat="43.60066" lon="3.39991">
        <ele>139</ele>
        <time>2022-05-18T07:17:03Z</time>
      </trkpt>
      <trkpt lat="43.60055" lon="3.39973">
        <ele>139.4</ele>
        <time>2022-05-18T07:17:09Z</time>
      </trkpt>
      <trkpt lat="43.60045" lon="3.39957">
        <ele>140.2</ele>
        <time>2022-05-18T07:17:14Z</time>
      </trkpt>
      <trkpt lat="43.60043" lon="3.39952">
        <ele>141</ele>
        <time>2022-05-18T07:17:16Z</time>
      </trkpt>
      <trkpt lat="43.60041" lon="3.39949">
        <ele>141.2</ele>
        <time>2022-05-18T07:17:17Z</time>
      </trkpt>
      <trkpt lat="43.60031" lon="3.3993">
        <ele>142.2</ele>
        <time>2022-05-18T07:17:24Z</time>
      </trkpt>
      <trkpt lat="43.60022" lon="3.39916">
        <ele>143.4</ele>
        <time>2022-05-18T07:17:31Z</time>
      </trkpt>
      <trkpt lat="43.60009" lon="3.39901">
        <ele>144.2</ele>
        <time>2022-05-18T07:17:38Z</time>
      </trkpt>
      <trkpt lat="43.60008" lon="3.399">
        <ele>144.4</ele>
        <time>2022-05-18T07:17:39Z</time>
      </trkpt>
      <trkpt lat="43.59996" lon="3.39891">
        <ele>145.6</ele>
        <time>2022-05-18T07:17:46Z</time>
      </trkpt>
      <trkpt lat="43.59993" lon="3.3989">
        <ele>145.8</ele>
        <time>2022-05-18T07:17:47Z</time>
      </trkpt>
      <trkpt lat="43.59985" lon="3.39886">
        <ele>146.8</ele>
        <time>2022-05-18T07:17:51Z</time>
      </trkpt>
      <trkpt lat="43.59977" lon="3.39884">
        <ele>147.4</ele>
        <time>2022-05-18T07:17:55Z</time>
      </trkpt>
      <trkpt lat="43.59973" lon="3.39883">
        <ele>147.8</ele>
        <time>2022-05-18T07:17:57Z</time>
      </trkpt>
      <trkpt lat="43.5996" lon="3.39881">
        <ele>148.6</ele>
        <time>2022-05-18T07:18:04Z</time>
      </trkpt>
      <trkpt lat="43.59956" lon="3.39879">
        <ele>148.8</ele>
        <time>2022-05-18T07:18:06Z</time>
      </trkpt>
      <trkpt lat="43.59945" lon="3.39876">
        <ele>149.6</ele>
        <time>2022-05-18T07:18:11Z</time>
      </trkpt>
      <trkpt lat="43.59942" lon="3.39875">
        <ele>149.8</ele>
        <time>2022-05-18T07:18:13Z</time>
      </trkpt>
      <trkpt lat="43.59933" lon="3.39872">
        <ele>151</ele>
        <time>2022-05-18T07:18:18Z</time>
      </trkpt>
      <trkpt lat="43.59931" lon="3.3987">
        <ele>151</ele>
        <time>2022-05-18T07:18:19Z</time>
      </trkpt>
      <trkpt lat="43.59928" lon="3.39864">
        <ele>152</ele>
        <time>2022-05-18T07:18:22Z</time>
      </trkpt>
      <trkpt lat="43.59926" lon="3.39858">
        <ele>152.6</ele>
        <time>2022-05-18T07:18:25Z</time>
      </trkpt>
      <trkpt lat="43.59925" lon="3.3985">
        <ele>153.2</ele>
        <time>2022-05-18T07:18:29Z</time>
      </trkpt>
      <trkpt lat="43.59923" lon="3.39842">
        <ele>153.8</ele>
        <time>2022-05-18T07:18:33Z</time>
      </trkpt>
      <trkpt lat="43.59921" lon="3.39833">
        <ele>154.4</ele>
        <time>2022-05-18T07:18:37Z</time>
      </trkpt>
      <trkpt lat="43.59917" lon="3.3982">
        <ele>155.4</ele>
        <time>2022-05-18T07:18:43Z</time>
      </trkpt>
      <trkpt lat="43.59914" lon="3.39812">
        <ele>156.6</ele>
        <time>2022-05-18T07:18:47Z</time>
      </trkpt>
      <trkpt lat="43.59909" lon="3.39801">
        <ele>157.6</ele>
        <time>2022-05-18T07:18:52Z</time>
      </trkpt>
      <trkpt lat="43.59908" lon="3.39799">
        <ele>157.6</ele>
        <time>2022-05-18T07:18:53Z</time>
      </trkpt>
      <trkpt lat="43.59904" lon="3.39792">
        <ele>158.8</ele>
        <time>2022-05-18T07:18:57Z</time>
      </trkpt>
      <trkpt lat="43.59901" lon="3.39788">
        <ele>159.6</ele>
        <time>2022-05-18T07:19:00Z</time>
      </trkpt>
      <trkpt lat="43.59899" lon="3.39786">
        <ele>160</ele>
        <time>2022-05-18T07:19:02Z</time>
      </trkpt>
      <trkpt lat="43.59892" lon="3.39779">
        <ele>161.2</ele>
        <time>2022-05-18T07:19:07Z</time>
      </trkpt>
      <trkpt lat="43.59886" lon="3.39772">
        <ele>162</ele>
        <time>2022-05-18T07:19:12Z</time>
      </trkpt>
      <trkpt lat="43.59884" lon="3.39772">
        <ele>162.2</ele>
        <time>2022-05-18T07:19:13Z</time>
      </trkpt>
      <trkpt lat="43.59877" lon="3.39767">
        <ele>163.2</ele>
        <time>2022-05-18T07:19:18Z</time>
      </trkpt>
      <trkpt lat="43.59874" lon="3.39765">
        <ele>163.8</ele>
        <time>2022-05-18T07:19:21Z</time>
      </trkpt>
      <trkpt lat="43.5987" lon="3.39762">
        <ele>164.4</ele>
        <time>2022-05-18T07:19:24Z</time>
      </trkpt>
      <trkpt lat="43.59865" lon="3.39759">
        <ele>165.4</ele>
        <time>2022-05-18T07:19:28Z</time>
      </trkpt>
      <trkpt lat="43.59863" lon="3.39758">
        <ele>165.4</ele>
        <time>2022-05-18T07:19:29Z</time>
      </trkpt>
      <trkpt lat="43.59859" lon="3.39755">
        <ele>166.2</ele>
        <time>2022-05-18T07:19:33Z</time>
      </trkpt>
      <trkpt lat="43.59854" lon="3.39752">
        <ele>167</ele>
        <time>2022-05-18T07:19:37Z</time>
      </trkpt>
      <trkpt lat="43.59851" lon="3.3975">
        <ele>167.4</ele>
        <time>2022-05-18T07:19:39Z</time>
      </trkpt>
      <trkpt lat="43.59846" lon="3.39746">
        <ele>168.4</ele>
        <time>2022-05-18T07:19:43Z</time>
      </trkpt>
      <trkpt lat="43.59844" lon="3.39744">
        <ele>169</ele>
        <time>2022-05-18T07:19:45Z</time>
      </trkpt>
      <trkpt lat="43.59841" lon="3.39742">
        <ele>169.4</ele>
        <time>2022-05-18T07:19:47Z</time>
      </trkpt>
      <trkpt lat="43.59838" lon="3.39739">
        <ele>169.8</ele>
        <time>2022-05-18T07:19:50Z</time>
      </trkpt>
      <trkpt lat="43.59835" lon="3.39736">
        <ele>170.2</ele>
        <time>2022-05-18T07:19:53Z</time>
      </trkpt>
      <trkpt lat="43.59833" lon="3.39734">
        <ele>170.8</ele>
        <time>2022-05-18T07:19:55Z</time>
      </trkpt>
      <trkpt lat="43.59829" lon="3.39731">
        <ele>172</ele>
        <time>2022-05-18T07:20:01Z</time>
      </trkpt>
      <trkpt lat="43.59829" lon="3.39731">
        <ele>172</ele>
        <time>2022-05-18T07:20:02Z</time>
      </trkpt>
      <trkpt lat="43.59829" lon="3.39731">
        <ele>173.4</ele>
        <time>2022-05-18T07:20:26Z</time>
      </trkpt>
      <trkpt lat="43.59829" lon="3.39731">
        <ele>173.4</ele>
        <time>2022-05-18T07:20:36Z</time>
      </trkpt>
      <trkpt lat="43.59826" lon="3.39724">
        <ele>173.4</ele>
        <time>2022-05-18T07:21:36Z</time>
      </trkpt>
      <trkpt lat="43.59818" lon="3.39715">
        <ele>174</ele>
        <time>2022-05-18T07:21:42Z</time>
      </trkpt>
      <trkpt lat="43.59815" lon="3.39711">
        <ele>174.6</ele>
        <time>2022-05-18T07:21:45Z</time>
      </trkpt>
      <trkpt lat="43.59808" lon="3.39698">
        <ele>175.6</ele>
        <time>2022-05-18T07:21:51Z</time>
      </trkpt>
      <trkpt lat="43.59807" lon="3.39697">
        <ele>175.6</ele>
        <time>2022-05-18T07:21:52Z</time>
      </trkpt>
      <trkpt lat="43.59803" lon="3.3968">
        <ele>177</ele>
        <time>2022-05-18T07:22:00Z</time>
      </trkpt>
      <trkpt lat="43.59801" lon="3.39674">
        <ele>177.8</ele>
        <time>2022-05-18T07:22:03Z</time>
      </trkpt>
      <trkpt lat="43.59801" lon="3.39672">
        <ele>178.2</ele>
        <time>2022-05-18T07:22:04Z</time>
      </trkpt>
      <trkpt lat="43.59798" lon="3.3966">
        <ele>179.2</ele>
        <time>2022-05-18T07:22:10Z</time>
      </trkpt>
      <trkpt lat="43.59797" lon="3.39654">
        <ele>179.8</ele>
        <time>2022-05-18T07:22:13Z</time>
      </trkpt>
      <trkpt lat="43.59796" lon="3.39647">
        <ele>180.4</ele>
        <time>2022-05-18T07:22:17Z</time>
      </trkpt>
      <trkpt lat="43.59795" lon="3.39643">
        <ele>180.6</ele>
        <time>2022-05-18T07:22:19Z</time>
      </trkpt>
      <trkpt lat="43.59794" lon="3.39639">
        <ele>181</ele>
        <time>2022-05-18T07:22:21Z</time>
      </trkpt>
      <trkpt lat="43.59793" lon="3.39633">
        <ele>181.6</ele>
        <time>2022-05-18T07:22:23Z</time>
      </trkpt>
      <trkpt lat="43.59791" lon="3.39618">
        <ele>182.8</ele>
        <time>2022-05-18T07:22:30Z</time>
      </trkpt>
      <trkpt lat="43.5979" lon="3.39617">
        <ele>183</ele>
        <time>2022-05-18T07:22:31Z</time>
      </trkpt>
      <trkpt lat="43.59788" lon="3.39609">
        <ele>184</ele>
        <time>2022-05-18T07:22:36Z</time>
      </trkpt>
      <trkpt lat="43.59786" lon="3.39602">
        <ele>184.8</ele>
        <time>2022-05-18T07:22:40Z</time>
      </trkpt>
      <trkpt lat="43.59786" lon="3.396">
        <ele>185</ele>
        <time>2022-05-18T07:22:41Z</time>
      </trkpt>
      <trkpt lat="43.59783" lon="3.39591">
        <ele>186.2</ele>
        <time>2022-05-18T07:22:46Z</time>
      </trkpt>
      <trkpt lat="43.59781" lon="3.39587">
        <ele>186.8</ele>
        <time>2022-05-18T07:22:49Z</time>
      </trkpt>
      <trkpt lat="43.5978" lon="3.39582">
        <ele>187.2</ele>
        <time>2022-05-18T07:22:51Z</time>
      </trkpt>
      <trkpt lat="43.59777" lon="3.39575">
        <ele>188.4</ele>
        <time>2022-05-18T07:22:56Z</time>
      </trkpt>
      <trkpt lat="43.59776" lon="3.39573">
        <ele>188.6</ele>
        <time>2022-05-18T07:22:57Z</time>
      </trkpt>
      <trkpt lat="43.59772" lon="3.39566">
        <ele>189.4</ele>
        <time>2022-05-18T07:23:01Z</time>
      </trkpt>
      <trkpt lat="43.59772" lon="3.39564">
        <ele>189.6</ele>
        <time>2022-05-18T07:23:02Z</time>
      </trkpt>
      <trkpt lat="43.5977" lon="3.39563">
        <ele>189.8</ele>
        <time>2022-05-18T07:23:04Z</time>
      </trkpt>
      <trkpt lat="43.59764" lon="3.39557">
        <ele>190.8</ele>
        <time>2022-05-18T07:23:11Z</time>
      </trkpt>
      <trkpt lat="43.59756" lon="3.39546">
        <ele>191.8</ele>
        <time>2022-05-18T07:23:20Z</time>
      </trkpt>
      <trkpt lat="43.59755" lon="3.39544">
        <ele>191.8</ele>
        <time>2022-05-18T07:23:21Z</time>
      </trkpt>
      <trkpt lat="43.59747" lon="3.3954">
        <ele>192.6</ele>
        <time>2022-05-18T07:23:27Z</time>
      </trkpt>
      <trkpt lat="43.59744" lon="3.39539">
        <ele>193</ele>
        <time>2022-05-18T07:23:29Z</time>
      </trkpt>
      <trkpt lat="43.59733" lon="3.39535">
        <ele>194</ele>
        <time>2022-05-18T07:23:37Z</time>
      </trkpt>
      <trkpt lat="43.59722" lon="3.39531">
        <ele>194.8</ele>
        <time>2022-05-18T07:23:45Z</time>
      </trkpt>
      <trkpt lat="43.59719" lon="3.3953">
        <ele>195.2</ele>
        <time>2022-05-18T07:23:47Z</time>
      </trkpt>
      <trkpt lat="43.59716" lon="3.3953">
        <ele>195.6</ele>
        <time>2022-05-18T07:23:51Z</time>
      </trkpt>
      <trkpt lat="43.59716" lon="3.3953">
        <ele>196.2</ele>
        <time>2022-05-18T07:23:58Z</time>
      </trkpt>
      <trkpt lat="43.59716" lon="3.3953">
        <ele>196.4</ele>
        <time>2022-05-18T07:24:07Z</time>
      </trkpt>
      <trkpt lat="43.59711" lon="3.39526">
        <ele>196.4</ele>
        <time>2022-05-18T07:24:37Z</time>
      </trkpt>
      <trkpt lat="43.597" lon="3.39522">
        <ele>196.6</ele>
        <time>2022-05-18T07:24:44Z</time>
      </trkpt>
      <trkpt lat="43.59698" lon="3.39522">
        <ele>196.8</ele>
        <time>2022-05-18T07:24:45Z</time>
      </trkpt>
      <trkpt lat="43.59688" lon="3.39517">
        <ele>197.2</ele>
        <time>2022-05-18T07:24:51Z</time>
      </trkpt>
      <trkpt lat="43.59685" lon="3.39514">
        <ele>197.4</ele>
        <time>2022-05-18T07:24:53Z</time>
      </trkpt>
      <trkpt lat="43.59682" lon="3.39512">
        <ele>197.4</ele>
        <time>2022-05-18T07:24:55Z</time>
      </trkpt>
      <trkpt lat="43.59677" lon="3.39511">
        <ele>197.8</ele>
        <time>2022-05-18T07:24:58Z</time>
      </trkpt>
      <trkpt lat="43.59669" lon="3.39507">
        <ele>198.6</ele>
        <time>2022-05-18T07:25:03Z</time>
      </trkpt>
      <trkpt lat="43.59664" lon="3.39507">
        <ele>198.8</ele>
        <time>2022-05-18T07:25:06Z</time>
      </trkpt>
      <trkpt lat="43.59658" lon="3.39507">
        <ele>199.6</ele>
        <time>2022-05-18T07:25:10Z</time>
      </trkpt>
      <trkpt lat="43.5965" lon="3.39508">
        <ele>200.4</ele>
        <time>2022-05-18T07:25:15Z</time>
      </trkpt>
      <trkpt lat="43.59648" lon="3.39508">
        <ele>200.6</ele>
        <time>2022-05-18T07:25:16Z</time>
      </trkpt>
      <trkpt lat="43.59633" lon="3.39512">
        <ele>201.8</ele>
        <time>2022-05-18T07:25:25Z</time>
      </trkpt>
      <trkpt lat="43.59631" lon="3.39512">
        <ele>201.8</ele>
        <time>2022-05-18T07:25:26Z</time>
      </trkpt>
      <trkpt lat="43.59621" lon="3.39515">
        <ele>202.8</ele>
        <time>2022-05-18T07:25:32Z</time>
      </trkpt>
      <trkpt lat="43.59615" lon="3.39518">
        <ele>203.8</ele>
        <time>2022-05-18T07:25:36Z</time>
      </trkpt>
      <trkpt lat="43.59613" lon="3.39519">
        <ele>204.2</ele>
        <time>2022-05-18T07:25:37Z</time>
      </trkpt>
      <trkpt lat="43.59603" lon="3.39524">
        <ele>205.4</ele>
        <time>2022-05-18T07:25:44Z</time>
      </trkpt>
      <trkpt lat="43.59601" lon="3.39526">
        <ele>205.6</ele>
        <time>2022-05-18T07:25:45Z</time>
      </trkpt>
      <trkpt lat="43.59598" lon="3.39528">
        <ele>206.4</ele>
        <time>2022-05-18T07:25:48Z</time>
      </trkpt>
      <trkpt lat="43.59593" lon="3.39532">
        <ele>207</ele>
        <time>2022-05-18T07:25:52Z</time>
      </trkpt>
      <trkpt lat="43.5959" lon="3.39534">
        <ele>207.4</ele>
        <time>2022-05-18T07:25:54Z</time>
      </trkpt>
      <trkpt lat="43.5958" lon="3.39539">
        <ele>208.4</ele>
        <time>2022-05-18T07:26:00Z</time>
      </trkpt>
      <trkpt lat="43.59578" lon="3.39539">
        <ele>208.6</ele>
        <time>2022-05-18T07:26:02Z</time>
      </trkpt>
      <trkpt lat="43.59568" lon="3.39542">
        <ele>209.4</ele>
        <time>2022-05-18T07:26:08Z</time>
      </trkpt>
      <trkpt lat="43.59564" lon="3.39542">
        <ele>210.6</ele>
        <time>2022-05-18T07:26:11Z</time>
      </trkpt>
      <trkpt lat="43.59561" lon="3.39542">
        <ele>210.8</ele>
        <time>2022-05-18T07:26:12Z</time>
      </trkpt>
      <trkpt lat="43.59551" lon="3.39542">
        <ele>211.6</ele>
        <time>2022-05-18T07:26:19Z</time>
      </trkpt>
      <trkpt lat="43.59549" lon="3.39541">
        <ele>211.8</ele>
        <time>2022-05-18T07:26:20Z</time>
      </trkpt>
      <trkpt lat="43.59537" lon="3.3954">
        <ele>212.8</ele>
        <time>2022-05-18T07:26:28Z</time>
      </trkpt>
      <trkpt lat="43.59536" lon="3.3954">
        <ele>213</ele>
        <time>2022-05-18T07:26:29Z</time>
      </trkpt>
      <trkpt lat="43.59526" lon="3.39539">
        <ele>214</ele>
        <time>2022-05-18T07:26:36Z</time>
      </trkpt>
      <trkpt lat="43.59525" lon="3.39539">
        <ele>214.2</ele>
        <time>2022-05-18T07:26:37Z</time>
      </trkpt>
      <trkpt lat="43.59516" lon="3.39538">
        <ele>215.2</ele>
        <time>2022-05-18T07:26:43Z</time>
      </trkpt>
      <trkpt lat="43.59508" lon="3.39536">
        <ele>216.4</ele>
        <time>2022-05-18T07:26:48Z</time>
      </trkpt>
      <trkpt lat="43.59506" lon="3.39535">
        <ele>216.4</ele>
        <time>2022-05-18T07:26:49Z</time>
      </trkpt>
      <trkpt lat="43.59499" lon="3.39533">
        <ele>217.2</ele>
        <time>2022-05-18T07:26:53Z</time>
      </trkpt>
      <trkpt lat="43.59497" lon="3.39532">
        <ele>217.4</ele>
        <time>2022-05-18T07:26:55Z</time>
      </trkpt>
      <trkpt lat="43.59491" lon="3.39528">
        <ele>217.8</ele>
        <time>2022-05-18T07:26:59Z</time>
      </trkpt>
      <trkpt lat="43.59487" lon="3.39529">
        <ele>218.4</ele>
        <time>2022-05-18T07:27:02Z</time>
      </trkpt>
      <trkpt lat="43.59485" lon="3.3953">
        <ele>219</ele>
        <time>2022-05-18T07:27:04Z</time>
      </trkpt>
      <trkpt lat="43.59483" lon="3.39531">
        <ele>219.2</ele>
        <time>2022-05-18T07:27:05Z</time>
      </trkpt>
      <trkpt lat="43.59482" lon="3.39534">
        <ele>219.8</ele>
        <time>2022-05-18T07:27:06Z</time>
      </trkpt>
      <trkpt lat="43.59482" lon="3.39536">
        <ele>220</ele>
        <time>2022-05-18T07:27:07Z</time>
      </trkpt>
      <trkpt lat="43.59483" lon="3.39539">
        <ele>220.4</ele>
        <time>2022-05-18T07:27:09Z</time>
      </trkpt>
      <trkpt lat="43.59488" lon="3.39543">
        <ele>220.8</ele>
        <time>2022-05-18T07:27:12Z</time>
      </trkpt>
      <trkpt lat="43.59495" lon="3.39547">
        <ele>221.4</ele>
        <time>2022-05-18T07:27:16Z</time>
      </trkpt>
      <trkpt lat="43.59504" lon="3.39553">
        <ele>221.8</ele>
        <time>2022-05-18T07:27:21Z</time>
      </trkpt>
      <trkpt lat="43.59508" lon="3.39556">
        <ele>222.2</ele>
        <time>2022-05-18T07:27:24Z</time>
      </trkpt>
      <trkpt lat="43.59517" lon="3.39562">
        <ele>222.8</ele>
        <time>2022-05-18T07:27:30Z</time>
      </trkpt>
      <trkpt lat="43.59521" lon="3.39566">
        <ele>223</ele>
        <time>2022-05-18T07:27:33Z</time>
      </trkpt>
      <trkpt lat="43.59531" lon="3.39576">
        <ele>224</ele>
        <time>2022-05-18T07:27:40Z</time>
      </trkpt>
      <trkpt lat="43.59534" lon="3.39578">
        <ele>224.2</ele>
        <time>2022-05-18T07:27:42Z</time>
      </trkpt>
      <trkpt lat="43.59542" lon="3.39584">
        <ele>225</ele>
        <time>2022-05-18T07:27:47Z</time>
      </trkpt>
      <trkpt lat="43.59547" lon="3.39587">
        <ele>225.4</ele>
        <time>2022-05-18T07:27:50Z</time>
      </trkpt>
      <trkpt lat="43.59563" lon="3.39598">
        <ele>226.2</ele>
        <time>2022-05-18T07:27:59Z</time>
      </trkpt>
      <trkpt lat="43.59566" lon="3.39599">
        <ele>226.4</ele>
        <time>2022-05-18T07:28:00Z</time>
      </trkpt>
      <trkpt lat="43.5958" lon="3.39604">
        <ele>227.4</ele>
        <time>2022-05-18T07:28:07Z</time>
      </trkpt>
      <trkpt lat="43.59595" lon="3.39604">
        <ele>228.4</ele>
        <time>2022-05-18T07:28:15Z</time>
      </trkpt>
      <trkpt lat="43.59606" lon="3.39604">
        <ele>229</ele>
        <time>2022-05-18T07:28:22Z</time>
      </trkpt>
      <trkpt lat="43.59608" lon="3.3961">
        <ele>229.4</ele>
        <time>2022-05-18T07:28:25Z</time>
      </trkpt>
      <trkpt lat="43.59607" lon="3.39614">
        <ele>229.6</ele>
        <time>2022-05-18T07:28:27Z</time>
      </trkpt>
      <trkpt lat="43.59596" lon="3.39618">
        <ele>230.4</ele>
        <time>2022-05-18T07:28:34Z</time>
      </trkpt>
      <trkpt lat="43.59576" lon="3.39623">
        <ele>231.4</ele>
        <time>2022-05-18T07:28:46Z</time>
      </trkpt>
      <trkpt lat="43.59575" lon="3.39623">
        <ele>231.6</ele>
        <time>2022-05-18T07:28:47Z</time>
      </trkpt>
      <trkpt lat="43.59565" lon="3.39623">
        <ele>233</ele>
        <time>2022-05-18T07:28:53Z</time>
      </trkpt>
      <trkpt lat="43.5956" lon="3.39623">
        <ele>233.6</ele>
        <time>2022-05-18T07:28:56Z</time>
      </trkpt>
      <trkpt lat="43.5955" lon="3.3962">
        <ele>234</ele>
        <time>2022-05-18T07:29:01Z</time>
      </trkpt>
      <trkpt lat="43.59548" lon="3.39619">
        <ele>234.2</ele>
        <time>2022-05-18T07:29:02Z</time>
      </trkpt>
      <trkpt lat="43.59543" lon="3.39618">
        <ele>234.6</ele>
        <time>2022-05-18T07:29:06Z</time>
      </trkpt>
      <trkpt lat="43.59536" lon="3.39616">
        <ele>235.2</ele>
        <time>2022-05-18T07:29:10Z</time>
      </trkpt>
      <trkpt lat="43.59528" lon="3.39614">
        <ele>236.2</ele>
        <time>2022-05-18T07:29:15Z</time>
      </trkpt>
      <trkpt lat="43.59524" lon="3.39613">
        <ele>236.4</ele>
        <time>2022-05-18T07:29:17Z</time>
      </trkpt>
      <trkpt lat="43.59511" lon="3.39608">
        <ele>237.4</ele>
        <time>2022-05-18T07:29:25Z</time>
      </trkpt>
      <trkpt lat="43.59499" lon="3.39603">
        <ele>238.4</ele>
        <time>2022-05-18T07:29:33Z</time>
      </trkpt>
      <trkpt lat="43.59497" lon="3.39602">
        <ele>238.6</ele>
        <time>2022-05-18T07:29:34Z</time>
      </trkpt>
      <trkpt lat="43.59481" lon="3.39598">
        <ele>239.6</ele>
        <time>2022-05-18T07:29:43Z</time>
      </trkpt>
      <trkpt lat="43.59478" lon="3.39597">
        <ele>239.8</ele>
        <time>2022-05-18T07:29:45Z</time>
      </trkpt>
      <trkpt lat="43.59467" lon="3.39595">
        <ele>240.6</ele>
        <time>2022-05-18T07:29:52Z</time>
      </trkpt>
      <trkpt lat="43.59465" lon="3.39595">
        <ele>240.6</ele>
        <time>2022-05-18T07:29:53Z</time>
      </trkpt>
      <trkpt lat="43.59449" lon="3.3959">
        <ele>241.8</ele>
        <time>2022-05-18T07:30:02Z</time>
      </trkpt>
      <trkpt lat="43.59447" lon="3.39589">
        <ele>242</ele>
        <time>2022-05-18T07:30:03Z</time>
      </trkpt>
      <trkpt lat="43.59435" lon="3.39585">
        <ele>242.8</ele>
        <time>2022-05-18T07:30:10Z</time>
      </trkpt>
      <trkpt lat="43.59417" lon="3.39579">
        <ele>244</ele>
        <time>2022-05-18T07:30:20Z</time>
      </trkpt>
      <trkpt lat="43.59416" lon="3.39578">
        <ele>244</ele>
        <time>2022-05-18T07:30:21Z</time>
      </trkpt>
      <trkpt lat="43.594" lon="3.39572">
        <ele>244.8</ele>
        <time>2022-05-18T07:30:29Z</time>
      </trkpt>
      <trkpt lat="43.59393" lon="3.3957">
        <ele>245.2</ele>
        <time>2022-05-18T07:30:33Z</time>
      </trkpt>
      <trkpt lat="43.59387" lon="3.39568">
        <ele>245.6</ele>
        <time>2022-05-18T07:30:37Z</time>
      </trkpt>
      <trkpt lat="43.59375" lon="3.39567">
        <ele>246.2</ele>
        <time>2022-05-18T07:30:44Z</time>
      </trkpt>
      <trkpt lat="43.59374" lon="3.39567">
        <ele>246.4</ele>
        <time>2022-05-18T07:30:45Z</time>
      </trkpt>
      <trkpt lat="43.59369" lon="3.39568">
        <ele>246.6</ele>
        <time>2022-05-18T07:30:48Z</time>
      </trkpt>
      <trkpt lat="43.59363" lon="3.39568">
        <ele>247.2</ele>
        <time>2022-05-18T07:30:52Z</time>
      </trkpt>
      <trkpt lat="43.59358" lon="3.39568">
        <ele>247.4</ele>
        <time>2022-05-18T07:30:55Z</time>
      </trkpt>
      <trkpt lat="43.5935" lon="3.39567">
        <ele>248.2</ele>
        <time>2022-05-18T07:31:00Z</time>
      </trkpt>
      <trkpt lat="43.59348" lon="3.39567">
        <ele>248.4</ele>
        <time>2022-05-18T07:31:01Z</time>
      </trkpt>
      <trkpt lat="43.59335" lon="3.39567">
        <ele>249.2</ele>
        <time>2022-05-18T07:31:09Z</time>
      </trkpt>
      <trkpt lat="43.59333" lon="3.39567">
        <ele>249.4</ele>
        <time>2022-05-18T07:31:10Z</time>
      </trkpt>
      <trkpt lat="43.5932" lon="3.39567">
        <ele>250.4</ele>
        <time>2022-05-18T07:31:18Z</time>
      </trkpt>
      <trkpt lat="43.5931" lon="3.39572">
        <ele>251.4</ele>
        <time>2022-05-18T07:31:25Z</time>
      </trkpt>
      <trkpt lat="43.59307" lon="3.39573">
        <ele>251.8</ele>
        <time>2022-05-18T07:31:27Z</time>
      </trkpt>
      <trkpt lat="43.59295" lon="3.39581">
        <ele>252.4</ele>
        <time>2022-05-18T07:31:34Z</time>
      </trkpt>
      <trkpt lat="43.59293" lon="3.39582">
        <ele>252.6</ele>
        <time>2022-05-18T07:31:35Z</time>
      </trkpt>
      <trkpt lat="43.59285" lon="3.3959">
        <ele>253.2</ele>
        <time>2022-05-18T07:31:41Z</time>
      </trkpt>
      <trkpt lat="43.59281" lon="3.39596">
        <ele>253.8</ele>
        <time>2022-05-18T07:31:44Z</time>
      </trkpt>
      <trkpt lat="43.59274" lon="3.39607">
        <ele>254.4</ele>
        <time>2022-05-18T07:31:49Z</time>
      </trkpt>
      <trkpt lat="43.59273" lon="3.3961">
        <ele>254.8</ele>
        <time>2022-05-18T07:31:51Z</time>
      </trkpt>
      <trkpt lat="43.59266" lon="3.39616">
        <ele>255.8</ele>
        <time>2022-05-18T07:31:57Z</time>
      </trkpt>
      <trkpt lat="43.59261" lon="3.39618">
        <ele>256.6</ele>
        <time>2022-05-18T07:32:01Z</time>
      </trkpt>
      <trkpt lat="43.5926" lon="3.39616">
        <ele>257</ele>
        <time>2022-05-18T07:32:03Z</time>
      </trkpt>
      <trkpt lat="43.5926" lon="3.39616">
        <ele>258</ele>
        <time>2022-05-18T07:32:10Z</time>
      </trkpt>
      <trkpt lat="43.59257" lon="3.3961">
        <ele>257.8</ele>
        <time>2022-05-18T07:33:17Z</time>
      </trkpt>
      <trkpt lat="43.59251" lon="3.396">
        <ele>258</ele>
        <time>2022-05-18T07:33:21Z</time>
      </trkpt>
      <trkpt lat="43.59248" lon="3.39597">
        <ele>258.2</ele>
        <time>2022-05-18T07:33:23Z</time>
      </trkpt>
      <trkpt lat="43.59234" lon="3.3958">
        <ele>258.6</ele>
        <time>2022-05-18T07:33:32Z</time>
      </trkpt>
      <trkpt lat="43.59227" lon="3.39571">
        <ele>259.2</ele>
        <time>2022-05-18T07:33:37Z</time>
      </trkpt>
      <trkpt lat="43.59224" lon="3.39568">
        <ele>259.2</ele>
        <time>2022-05-18T07:33:39Z</time>
      </trkpt>
      <trkpt lat="43.59213" lon="3.39552">
        <ele>260.2</ele>
        <time>2022-05-18T07:33:47Z</time>
      </trkpt>
      <trkpt lat="43.5921" lon="3.39549">
        <ele>260.4</ele>
        <time>2022-05-18T07:33:49Z</time>
      </trkpt>
      <trkpt lat="43.59206" lon="3.39538">
        <ele>261.2</ele>
        <time>2022-05-18T07:33:54Z</time>
      </trkpt>
      <trkpt lat="43.59203" lon="3.39533">
        <ele>261.4</ele>
        <time>2022-05-18T07:33:56Z</time>
      </trkpt>
      <trkpt lat="43.59196" lon="3.39519">
        <ele>262.2</ele>
        <time>2022-05-18T07:34:03Z</time>
      </trkpt>
      <trkpt lat="43.59195" lon="3.39517">
        <ele>262.4</ele>
        <time>2022-05-18T07:34:04Z</time>
      </trkpt>
      <trkpt lat="43.59187" lon="3.39503">
        <ele>263.4</ele>
        <time>2022-05-18T07:34:11Z</time>
      </trkpt>
      <trkpt lat="43.59186" lon="3.39501">
        <ele>263.4</ele>
        <time>2022-05-18T07:34:12Z</time>
      </trkpt>
      <trkpt lat="43.59177" lon="3.39489">
        <ele>264.4</ele>
        <time>2022-05-18T07:34:19Z</time>
      </trkpt>
      <trkpt lat="43.59172" lon="3.39483">
        <ele>264.6</ele>
        <time>2022-05-18T07:34:22Z</time>
      </trkpt>
      <trkpt lat="43.59165" lon="3.39473">
        <ele>265.6</ele>
        <time>2022-05-18T07:34:27Z</time>
      </trkpt>
      <trkpt lat="43.59163" lon="3.39469">
        <ele>266</ele>
        <time>2022-05-18T07:34:29Z</time>
      </trkpt>
      <trkpt lat="43.59158" lon="3.39459">
        <ele>266.8</ele>
        <time>2022-05-18T07:34:34Z</time>
      </trkpt>
      <trkpt lat="43.59156" lon="3.39455">
        <ele>267</ele>
        <time>2022-05-18T07:34:36Z</time>
      </trkpt>
      <trkpt lat="43.5915" lon="3.39448">
        <ele>267.8</ele>
        <time>2022-05-18T07:34:40Z</time>
      </trkpt>
      <trkpt lat="43.59145" lon="3.39441">
        <ele>268</ele>
        <time>2022-05-18T07:34:43Z</time>
      </trkpt>
      <trkpt lat="43.59141" lon="3.39424">
        <ele>269</ele>
        <time>2022-05-18T07:34:50Z</time>
      </trkpt>
      <trkpt lat="43.5914" lon="3.3942">
        <ele>269.2</ele>
        <time>2022-05-18T07:34:52Z</time>
      </trkpt>
      <trkpt lat="43.59138" lon="3.39411">
        <ele>270</ele>
        <time>2022-05-18T07:34:55Z</time>
      </trkpt>
      <trkpt lat="43.59135" lon="3.39393">
        <ele>271</ele>
        <time>2022-05-18T07:35:02Z</time>
      </trkpt>
      <trkpt lat="43.59134" lon="3.39391">
        <ele>271.2</ele>
        <time>2022-05-18T07:35:03Z</time>
      </trkpt>
      <trkpt lat="43.59133" lon="3.39381">
        <ele>272.2</ele>
        <time>2022-05-18T07:35:08Z</time>
      </trkpt>
      <trkpt lat="43.59133" lon="3.39377">
        <ele>272.6</ele>
        <time>2022-05-18T07:35:10Z</time>
      </trkpt>
      <trkpt lat="43.59133" lon="3.39375">
        <ele>272.8</ele>
        <time>2022-05-18T07:35:11Z</time>
      </trkpt>
      <trkpt lat="43.59132" lon="3.39372">
        <ele>273.4</ele>
        <time>2022-05-18T07:35:13Z</time>
      </trkpt>
      <trkpt lat="43.59131" lon="3.39365">
        <ele>274</ele>
        <time>2022-05-18T07:35:17Z</time>
      </trkpt>
      <trkpt lat="43.5913" lon="3.39364">
        <ele>274</ele>
        <time>2022-05-18T07:35:18Z</time>
      </trkpt>
      <trkpt lat="43.59129" lon="3.39362">
        <ele>274.2</ele>
        <time>2022-05-18T07:35:20Z</time>
      </trkpt>
      <trkpt lat="43.59129" lon="3.3936">
        <ele>274.4</ele>
        <time>2022-05-18T07:35:21Z</time>
      </trkpt>
      <trkpt lat="43.5913" lon="3.39357">
        <ele>274.6</ele>
        <time>2022-05-18T07:35:23Z</time>
      </trkpt>
      <trkpt lat="43.5913" lon="3.39356">
        <ele>274.6</ele>
        <time>2022-05-18T07:35:24Z</time>
      </trkpt>
      <trkpt lat="43.59132" lon="3.39356">
        <ele>274.6</ele>
        <time>2022-05-18T07:35:25Z</time>
      </trkpt>
      <trkpt lat="43.59134" lon="3.39354">
        <ele>274.6</ele>
        <time>2022-05-18T07:35:27Z</time>
      </trkpt>
      <trkpt lat="43.59135" lon="3.39351">
        <ele>274.6</ele>
        <time>2022-05-18T07:35:29Z</time>
      </trkpt>
      <trkpt lat="43.59135" lon="3.39349">
        <ele>274.6</ele>
        <time>2022-05-18T07:35:30Z</time>
      </trkpt>
      <trkpt lat="43.59133" lon="3.39347">
        <ele>274.6</ele>
        <time>2022-05-18T07:35:35Z</time>
      </trkpt>
      <trkpt lat="43.59133" lon="3.39347">
        <ele>274</ele>
        <time>2022-05-18T07:36:58Z</time>
      </trkpt>
      <trkpt lat="43.59133" lon="3.39347">
        <ele>274.2</ele>
        <time>2022-05-18T07:37:28Z</time>
      </trkpt>
      <trkpt lat="43.59133" lon="3.39347">
        <ele>274.4</ele>
        <time>2022-05-18T07:38:09Z</time>
      </trkpt>
      <trkpt lat="43.59133" lon="3.39347">
        <ele>274</ele>
        <time>2022-05-18T07:38:55Z</time>
      </trkpt>
      <trkpt lat="43.59133" lon="3.39347">
        <ele>274.2</ele>
        <time>2022-05-18T07:39:23Z</time>
      </trkpt>
      <trkpt lat="43.59133" lon="3.39347">
        <ele>274.2</ele>
        <time>2022-05-18T07:39:54Z</time>
      </trkpt>
      <trkpt lat="43.59133" lon="3.39347">
        <ele>274.6</ele>
        <time>2022-05-18T07:42:48Z</time>
      </trkpt>
      <trkpt lat="43.59133" lon="3.39347">
        <ele>274.6</ele>
        <time>2022-05-18T07:42:53Z</time>
      </trkpt>
      <trkpt lat="43.59131" lon="3.39349">
        <ele>274.6</ele>
        <time>2022-05-18T07:42:55Z</time>
      </trkpt>
      <trkpt lat="43.5913" lon="3.39351">
        <ele>274.6</ele>
        <time>2022-05-18T07:42:56Z</time>
      </trkpt>
      <trkpt lat="43.59125" lon="3.39364">
        <ele>274.6</ele>
        <time>2022-05-18T07:43:03Z</time>
      </trkpt>
      <trkpt lat="43.59122" lon="3.39381">
        <ele>274.8</ele>
        <time>2022-05-18T07:43:10Z</time>
      </trkpt>
      <trkpt lat="43.59122" lon="3.39403">
        <ele>275.8</ele>
        <time>2022-05-18T07:43:19Z</time>
      </trkpt>
      <trkpt lat="43.59122" lon="3.39405">
        <ele>276</ele>
        <time>2022-05-18T07:43:20Z</time>
      </trkpt>
      <trkpt lat="43.59121" lon="3.39428">
        <ele>276.6</ele>
        <time>2022-05-18T07:43:29Z</time>
      </trkpt>
      <trkpt lat="43.59122" lon="3.39447">
        <ele>277</ele>
        <time>2022-05-18T07:43:37Z</time>
      </trkpt>
      <trkpt lat="43.59125" lon="3.39472">
        <ele>278</ele>
        <time>2022-05-18T07:43:47Z</time>
      </trkpt>
      <trkpt lat="43.59125" lon="3.39475">
        <ele>278</ele>
        <time>2022-05-18T07:43:48Z</time>
      </trkpt>
      <trkpt lat="43.59131" lon="3.39498">
        <ele>278.4</ele>
        <time>2022-05-18T07:43:56Z</time>
      </trkpt>
      <trkpt lat="43.59138" lon="3.39525">
        <ele>278.8</ele>
        <time>2022-05-18T07:44:06Z</time>
      </trkpt>
      <trkpt lat="43.59139" lon="3.39529">
        <ele>279</ele>
        <time>2022-05-18T07:44:08Z</time>
      </trkpt>
      <trkpt lat="43.59141" lon="3.39541">
        <ele>279.6</ele>
        <time>2022-05-18T07:44:13Z</time>
      </trkpt>
      <trkpt lat="43.59143" lon="3.39549">
        <ele>280.2</ele>
        <time>2022-05-18T07:44:16Z</time>
      </trkpt>
      <trkpt lat="43.59145" lon="3.39562">
        <ele>280.6</ele>
        <time>2022-05-18T07:44:21Z</time>
      </trkpt>
      <trkpt lat="43.59147" lon="3.39575">
        <ele>281.4</ele>
        <time>2022-05-18T07:44:26Z</time>
      </trkpt>
      <trkpt lat="43.59149" lon="3.39587">
        <ele>281.6</ele>
        <time>2022-05-18T07:44:30Z</time>
      </trkpt>
      <trkpt lat="43.5915" lon="3.39604">
        <ele>282.4</ele>
        <time>2022-05-18T07:44:36Z</time>
      </trkpt>
      <trkpt lat="43.5915" lon="3.3961">
        <ele>282.6</ele>
        <time>2022-05-18T07:44:38Z</time>
      </trkpt>
      <trkpt lat="43.59149" lon="3.39632">
        <ele>283.2</ele>
        <time>2022-05-18T07:44:46Z</time>
      </trkpt>
      <trkpt lat="43.59147" lon="3.39653">
        <ele>283.4</ele>
        <time>2022-05-18T07:44:53Z</time>
      </trkpt>
      <trkpt lat="43.59146" lon="3.39655">
        <ele>283.4</ele>
        <time>2022-05-18T07:44:54Z</time>
      </trkpt>
      <trkpt lat="43.59145" lon="3.39677">
        <ele>284.4</ele>
        <time>2022-05-18T07:45:01Z</time>
      </trkpt>
      <trkpt lat="43.59142" lon="3.39693">
        <ele>284.2</ele>
        <time>2022-05-18T07:45:08Z</time>
      </trkpt>
      <trkpt lat="43.59142" lon="3.397">
        <ele>284.2</ele>
        <time>2022-05-18T07:45:11Z</time>
      </trkpt>
      <trkpt lat="43.5914" lon="3.39711">
        <ele>284.4</ele>
        <time>2022-05-18T07:45:15Z</time>
      </trkpt>
      <trkpt lat="43.59141" lon="3.39731">
        <ele>284.2</ele>
        <time>2022-05-18T07:45:22Z</time>
      </trkpt>
      <trkpt lat="43.59139" lon="3.3975">
        <ele>284.2</ele>
        <time>2022-05-18T07:45:29Z</time>
      </trkpt>
      <trkpt lat="43.59132" lon="3.39769">
        <ele>284.4</ele>
        <time>2022-05-18T07:45:36Z</time>
      </trkpt>
      <trkpt lat="43.59125" lon="3.39781">
        <ele>284.4</ele>
        <time>2022-05-18T07:45:41Z</time>
      </trkpt>
      <trkpt lat="43.59108" lon="3.39811">
        <ele>284</ele>
        <time>2022-05-18T07:45:51Z</time>
      </trkpt>
      <trkpt lat="43.59095" lon="3.3983">
        <ele>283.6</ele>
        <time>2022-05-18T07:45:55Z</time>
      </trkpt>
      <trkpt lat="43.59091" lon="3.39835">
        <ele>283.6</ele>
        <time>2022-05-18T07:45:56Z</time>
      </trkpt>
      <trkpt lat="43.59086" lon="3.39839">
        <ele>283.6</ele>
        <time>2022-05-18T07:45:57Z</time>
      </trkpt>
      <trkpt lat="43.59074" lon="3.39844">
        <ele>282.6</ele>
        <time>2022-05-18T07:45:59Z</time>
      </trkpt>
      <trkpt lat="43.59048" lon="3.3984">
        <ele>281.4</ele>
        <time>2022-05-18T07:46:03Z</time>
      </trkpt>
      <trkpt lat="43.59042" lon="3.3984">
        <ele>281.4</ele>
        <time>2022-05-18T07:46:04Z</time>
      </trkpt>
      <trkpt lat="43.59022" lon="3.39843">
        <ele>280.6</ele>
        <time>2022-05-18T07:46:07Z</time>
      </trkpt>
      <trkpt lat="43.59016" lon="3.39846">
        <ele>280.4</ele>
        <time>2022-05-18T07:46:08Z</time>
      </trkpt>
      <trkpt lat="43.58993" lon="3.3986">
        <ele>279.6</ele>
        <time>2022-05-18T07:46:12Z</time>
      </trkpt>
      <trkpt lat="43.58983" lon="3.39866">
        <ele>279.2</ele>
        <time>2022-05-18T07:46:14Z</time>
      </trkpt>
      <trkpt lat="43.58975" lon="3.3987">
        <ele>279.2</ele>
        <time>2022-05-18T07:46:16Z</time>
      </trkpt>
      <trkpt lat="43.58971" lon="3.3987">
        <ele>279</ele>
        <time>2022-05-18T07:46:18Z</time>
      </trkpt>
      <trkpt lat="43.5897" lon="3.39869">
        <ele>279</ele>
        <time>2022-05-18T07:46:19Z</time>
      </trkpt>
      <trkpt lat="43.58969" lon="3.39867">
        <ele>278.8</ele>
        <time>2022-05-18T07:46:20Z</time>
      </trkpt>
      <trkpt lat="43.5897" lon="3.39863">
        <ele>278.8</ele>
        <time>2022-05-18T07:46:22Z</time>
      </trkpt>
      <trkpt lat="43.58972" lon="3.39863">
        <ele>278.6</ele>
        <time>2022-05-18T07:46:23Z</time>
      </trkpt>
      <trkpt lat="43.58983" lon="3.39862">
        <ele>278.4</ele>
        <time>2022-05-18T07:46:29Z</time>
      </trkpt>
      <trkpt lat="43.58994" lon="3.39852">
        <ele>278.4</ele>
        <time>2022-05-18T07:46:37Z</time>
      </trkpt>
      <trkpt lat="43.58996" lon="3.39848">
        <ele>278.4</ele>
        <time>2022-05-18T07:46:39Z</time>
      </trkpt>
      <trkpt lat="43.58996" lon="3.39842">
        <ele>278.6</ele>
        <time>2022-05-18T07:46:42Z</time>
      </trkpt>
      <trkpt lat="43.58994" lon="3.39831">
        <ele>278.6</ele>
        <time>2022-05-18T07:46:48Z</time>
      </trkpt>
      <trkpt lat="43.58994" lon="3.3983">
        <ele>278.6</ele>
        <time>2022-05-18T07:46:53Z</time>
      </trkpt>
      <trkpt lat="43.58992" lon="3.39828">
        <ele>278.6</ele>
        <time>2022-05-18T07:47:01Z</time>
      </trkpt>
      <trkpt lat="43.58989" lon="3.39824">
        <ele>278.6</ele>
        <time>2022-05-18T07:47:03Z</time>
      </trkpt>
      <trkpt lat="43.58983" lon="3.39814">
        <ele>278.6</ele>
        <time>2022-05-18T07:47:08Z</time>
      </trkpt>
      <trkpt lat="43.58976" lon="3.3981">
        <ele>278.4</ele>
        <time>2022-05-18T07:47:14Z</time>
      </trkpt>
      <trkpt lat="43.58976" lon="3.3981">
        <ele>278.2</ele>
        <time>2022-05-18T07:47:16Z</time>
      </trkpt>
      <trkpt lat="43.58975" lon="3.39812">
        <ele>278.2</ele>
        <time>2022-05-18T07:47:34Z</time>
      </trkpt>
      <trkpt lat="43.58976" lon="3.39815">
        <ele>278.4</ele>
        <time>2022-05-18T07:47:36Z</time>
      </trkpt>
      <trkpt lat="43.58983" lon="3.39816">
        <ele>278.4</ele>
        <time>2022-05-18T07:47:40Z</time>
      </trkpt>
      <trkpt lat="43.58985" lon="3.39818">
        <ele>278.4</ele>
        <time>2022-05-18T07:47:41Z</time>
      </trkpt>
      <trkpt lat="43.58993" lon="3.39833">
        <ele>278.4</ele>
        <time>2022-05-18T07:47:47Z</time>
      </trkpt>
      <trkpt lat="43.58997" lon="3.39853">
        <ele>278.4</ele>
        <time>2022-05-18T07:47:54Z</time>
      </trkpt>
      <trkpt lat="43.58992" lon="3.39861">
        <ele>278.2</ele>
        <time>2022-05-18T07:47:58Z</time>
      </trkpt>
      <trkpt lat="43.58985" lon="3.39863">
        <ele>277.6</ele>
        <time>2022-05-18T07:48:03Z</time>
      </trkpt>
      <trkpt lat="43.58979" lon="3.39864">
        <ele>277.6</ele>
        <time>2022-05-18T07:48:08Z</time>
      </trkpt>
      <trkpt lat="43.58979" lon="3.39867">
        <ele>277.6</ele>
        <time>2022-05-18T07:48:10Z</time>
      </trkpt>
      <trkpt lat="43.58982" lon="3.39868">
        <ele>277.6</ele>
        <time>2022-05-18T07:48:12Z</time>
      </trkpt>
      <trkpt lat="43.58985" lon="3.39865">
        <ele>277.8</ele>
        <time>2022-05-18T07:48:14Z</time>
      </trkpt>
      <trkpt lat="43.58998" lon="3.39859">
        <ele>277.8</ele>
        <time>2022-05-18T07:48:21Z</time>
      </trkpt>
      <trkpt lat="43.59014" lon="3.39852">
        <ele>278</ele>
        <time>2022-05-18T07:48:29Z</time>
      </trkpt>
      <trkpt lat="43.59028" lon="3.39845">
        <ele>278.2</ele>
        <time>2022-05-18T07:48:36Z</time>
      </trkpt>
      <trkpt lat="43.59044" lon="3.3984">
        <ele>278.4</ele>
        <time>2022-05-18T07:48:43Z</time>
      </trkpt>
      <trkpt lat="43.59065" lon="3.39844">
        <ele>279.6</ele>
        <time>2022-05-18T07:48:52Z</time>
      </trkpt>
      <trkpt lat="43.59076" lon="3.39847">
        <ele>279.8</ele>
        <time>2022-05-18T07:48:57Z</time>
      </trkpt>
      <trkpt lat="43.59078" lon="3.3985">
        <ele>279.8</ele>
        <time>2022-05-18T07:48:59Z</time>
      </trkpt>
      <trkpt lat="43.59075" lon="3.39857">
        <ele>280</ele>
        <time>2022-05-18T07:49:03Z</time>
      </trkpt>
      <trkpt lat="43.5907" lon="3.39863">
        <ele>279.4</ele>
        <time>2022-05-18T07:49:10Z</time>
      </trkpt>
      <trkpt lat="43.59065" lon="3.39869">
        <ele>279</ele>
        <time>2022-05-18T07:49:18Z</time>
      </trkpt>
      <trkpt lat="43.59052" lon="3.3988">
        <ele>278.6</ele>
        <time>2022-05-18T07:49:24Z</time>
      </trkpt>
      <trkpt lat="43.59049" lon="3.39883">
        <ele>278.6</ele>
        <time>2022-05-18T07:49:25Z</time>
      </trkpt>
      <trkpt lat="43.59037" lon="3.39893">
        <ele>278.2</ele>
        <time>2022-05-18T07:49:29Z</time>
      </trkpt>
      <trkpt lat="43.59022" lon="3.3992">
        <ele>277.6</ele>
        <time>2022-05-18T07:49:35Z</time>
      </trkpt>
      <trkpt lat="43.59019" lon="3.39924">
        <ele>277.2</ele>
        <time>2022-05-18T07:49:36Z</time>
      </trkpt>
      <trkpt lat="43.59012" lon="3.39934">
        <ele>276</ele>
        <time>2022-05-18T07:49:38Z</time>
      </trkpt>
      <trkpt lat="43.59005" lon="3.39944">
        <ele>275.2</ele>
        <time>2022-05-18T07:49:40Z</time>
      </trkpt>
      <trkpt lat="43.58999" lon="3.3995">
        <ele>274.4</ele>
        <time>2022-05-18T07:49:42Z</time>
      </trkpt>
      <trkpt lat="43.58986" lon="3.39963">
        <ele>273.6</ele>
        <time>2022-05-18T07:49:46Z</time>
      </trkpt>
      <trkpt lat="43.58983" lon="3.39966">
        <ele>273</ele>
        <time>2022-05-18T07:49:47Z</time>
      </trkpt>
      <trkpt lat="43.58973" lon="3.39972">
        <ele>271.8</ele>
        <time>2022-05-18T07:49:50Z</time>
      </trkpt>
      <trkpt lat="43.58966" lon="3.39977">
        <ele>271.2</ele>
        <time>2022-05-18T07:49:52Z</time>
      </trkpt>
      <trkpt lat="43.58957" lon="3.39985">
        <ele>270.6</ele>
        <time>2022-05-18T07:49:55Z</time>
      </trkpt>
      <trkpt lat="43.58943" lon="3.39999">
        <ele>269.6</ele>
        <time>2022-05-18T07:50:00Z</time>
      </trkpt>
      <trkpt lat="43.5893" lon="3.4002">
        <ele>269.2</ele>
        <time>2022-05-18T07:50:06Z</time>
      </trkpt>
      <trkpt lat="43.58921" lon="3.40035">
        <ele>268.8</ele>
        <time>2022-05-18T07:50:11Z</time>
      </trkpt>
      <trkpt lat="43.58913" lon="3.40053">
        <ele>268.4</ele>
        <time>2022-05-18T07:50:16Z</time>
      </trkpt>
      <trkpt lat="43.58911" lon="3.40057">
        <ele>268.2</ele>
        <time>2022-05-18T07:50:17Z</time>
      </trkpt>
      <trkpt lat="43.58902" lon="3.40075">
        <ele>268</ele>
        <time>2022-05-18T07:50:23Z</time>
      </trkpt>
      <trkpt lat="43.58893" lon="3.40094">
        <ele>267.6</ele>
        <time>2022-05-18T07:50:30Z</time>
      </trkpt>
      <trkpt lat="43.58892" lon="3.40096">
        <ele>267.6</ele>
        <time>2022-05-18T07:50:34Z</time>
      </trkpt>
      <trkpt lat="43.58888" lon="3.40105">
        <ele>267.4</ele>
        <time>2022-05-18T07:50:46Z</time>
      </trkpt>
      <trkpt lat="43.58882" lon="3.40126">
        <ele>267.6</ele>
        <time>2022-05-18T07:50:52Z</time>
      </trkpt>
      <trkpt lat="43.58873" lon="3.4016">
        <ele>267.6</ele>
        <time>2022-05-18T07:51:01Z</time>
      </trkpt>
      <trkpt lat="43.58865" lon="3.40187">
        <ele>268</ele>
        <time>2022-05-18T07:51:09Z</time>
      </trkpt>
      <trkpt lat="43.58858" lon="3.40206">
        <ele>268.6</ele>
        <time>2022-05-18T07:51:16Z</time>
      </trkpt>
      <trkpt lat="43.58854" lon="3.40228">
        <ele>269</ele>
        <time>2022-05-18T07:51:22Z</time>
      </trkpt>
      <trkpt lat="43.58849" lon="3.4025">
        <ele>268.8</ele>
        <time>2022-05-18T07:51:28Z</time>
      </trkpt>
      <trkpt lat="43.58844" lon="3.40273">
        <ele>268.2</ele>
        <time>2022-05-18T07:51:35Z</time>
      </trkpt>
      <trkpt lat="43.58844" lon="3.40273">
        <ele>267.4</ele>
        <time>2022-05-18T07:51:39Z</time>
      </trkpt>
      <trkpt lat="43.58844" lon="3.40273">
        <ele>267.4</ele>
        <time>2022-05-18T07:51:40Z</time>
      </trkpt>
      <trkpt lat="43.58844" lon="3.40273">
        <ele>267</ele>
        <time>2022-05-18T07:52:45Z</time>
      </trkpt>
      <trkpt lat="43.5884" lon="3.40278">
        <ele>267</ele>
        <time>2022-05-18T07:52:48Z</time>
      </trkpt>
      <trkpt lat="43.58834" lon="3.403">
        <ele>266.8</ele>
        <time>2022-05-18T07:52:54Z</time>
      </trkpt>
      <trkpt lat="43.5883" lon="3.4031">
        <ele>266.4</ele>
        <time>2022-05-18T07:52:56Z</time>
      </trkpt>
      <trkpt lat="43.58826" lon="3.40322">
        <ele>266.2</ele>
        <time>2022-05-18T07:52:58Z</time>
      </trkpt>
      <trkpt lat="43.58821" lon="3.40341">
        <ele>265.4</ele>
        <time>2022-05-18T07:53:01Z</time>
      </trkpt>
      <trkpt lat="43.58817" lon="3.40364">
        <ele>264.2</ele>
        <time>2022-05-18T07:53:04Z</time>
      </trkpt>
      <trkpt lat="43.58812" lon="3.40405">
        <ele>263</ele>
        <time>2022-05-18T07:53:08Z</time>
      </trkpt>
      <trkpt lat="43.58803" lon="3.40459">
        <ele>261.8</ele>
        <time>2022-05-18T07:53:12Z</time>
      </trkpt>
      <trkpt lat="43.58799" lon="3.40489">
        <ele>260.6</ele>
        <time>2022-05-18T07:53:14Z</time>
      </trkpt>
      <trkpt lat="43.58797" lon="3.40504">
        <ele>259.2</ele>
        <time>2022-05-18T07:53:15Z</time>
      </trkpt>
      <trkpt lat="43.58796" lon="3.40518">
        <ele>258.6</ele>
        <time>2022-05-18T07:53:16Z</time>
      </trkpt>
      <trkpt lat="43.58794" lon="3.4053">
        <ele>257.4</ele>
        <time>2022-05-18T07:53:17Z</time>
      </trkpt>
      <trkpt lat="43.58791" lon="3.40541">
        <ele>257</ele>
        <time>2022-05-18T07:53:18Z</time>
      </trkpt>
      <trkpt lat="43.58788" lon="3.4055">
        <ele>256.2</ele>
        <time>2022-05-18T07:53:19Z</time>
      </trkpt>
      <trkpt lat="43.58783" lon="3.4056">
        <ele>254</ele>
        <time>2022-05-18T07:53:20Z</time>
      </trkpt>
      <trkpt lat="43.58776" lon="3.40574">
        <ele>252.2</ele>
        <time>2022-05-18T07:53:22Z</time>
      </trkpt>
      <trkpt lat="43.58773" lon="3.40579">
        <ele>251.8</ele>
        <time>2022-05-18T07:53:23Z</time>
      </trkpt>
      <trkpt lat="43.58771" lon="3.40584">
        <ele>250.2</ele>
        <time>2022-05-18T07:53:24Z</time>
      </trkpt>
      <trkpt lat="43.58768" lon="3.40591">
        <ele>248</ele>
        <time>2022-05-18T07:53:26Z</time>
      </trkpt>
      <trkpt lat="43.58767" lon="3.406">
        <ele>246</ele>
        <time>2022-05-18T07:53:28Z</time>
      </trkpt>
      <trkpt lat="43.58769" lon="3.40603">
        <ele>245.6</ele>
        <time>2022-05-18T07:53:29Z</time>
      </trkpt>
      <trkpt lat="43.5877" lon="3.40605">
        <ele>244.2</ele>
        <time>2022-05-18T07:53:30Z</time>
      </trkpt>
      <trkpt lat="43.58772" lon="3.40611">
        <ele>242.8</ele>
        <time>2022-05-18T07:53:32Z</time>
      </trkpt>
      <trkpt lat="43.58774" lon="3.40617">
        <ele>241.6</ele>
        <time>2022-05-18T07:53:34Z</time>
      </trkpt>
      <trkpt lat="43.58775" lon="3.4062">
        <ele>241</ele>
        <time>2022-05-18T07:53:35Z</time>
      </trkpt>
      <trkpt lat="43.58775" lon="3.40625">
        <ele>240.6</ele>
        <time>2022-05-18T07:53:37Z</time>
      </trkpt>
      <trkpt lat="43.58776" lon="3.4063">
        <ele>239.8</ele>
        <time>2022-05-18T07:53:39Z</time>
      </trkpt>
      <trkpt lat="43.58778" lon="3.40635">
        <ele>239.2</ele>
        <time>2022-05-18T07:53:41Z</time>
      </trkpt>
      <trkpt lat="43.58779" lon="3.40644">
        <ele>238.4</ele>
        <time>2022-05-18T07:53:45Z</time>
      </trkpt>
      <trkpt lat="43.58779" lon="3.40647">
        <ele>238</ele>
        <time>2022-05-18T07:53:46Z</time>
      </trkpt>
      <trkpt lat="43.58781" lon="3.40659">
        <ele>236.8</ele>
        <time>2022-05-18T07:53:50Z</time>
      </trkpt>
      <trkpt lat="43.58782" lon="3.40663">
        <ele>236.8</ele>
        <time>2022-05-18T07:53:51Z</time>
      </trkpt>
      <trkpt lat="43.58783" lon="3.40677">
        <ele>235.8</ele>
        <time>2022-05-18T07:53:56Z</time>
      </trkpt>
      <trkpt lat="43.58784" lon="3.40679">
        <ele>235.8</ele>
        <time>2022-05-18T07:53:57Z</time>
      </trkpt>
      <trkpt lat="43.58792" lon="3.40689">
        <ele>234.8</ele>
        <time>2022-05-18T07:54:02Z</time>
      </trkpt>
      <trkpt lat="43.58794" lon="3.40692">
        <ele>234.6</ele>
        <time>2022-05-18T07:54:03Z</time>
      </trkpt>
      <trkpt lat="43.58806" lon="3.40704">
        <ele>233.6</ele>
        <time>2022-05-18T07:54:08Z</time>
      </trkpt>
      <trkpt lat="43.58811" lon="3.40711">
        <ele>232.6</ele>
        <time>2022-05-18T07:54:10Z</time>
      </trkpt>
      <trkpt lat="43.58814" lon="3.40715">
        <ele>232.4</ele>
        <time>2022-05-18T07:54:11Z</time>
      </trkpt>
      <trkpt lat="43.58816" lon="3.40719">
        <ele>232</ele>
        <time>2022-05-18T07:54:12Z</time>
      </trkpt>
      <trkpt lat="43.58827" lon="3.4074">
        <ele>231.4</ele>
        <time>2022-05-18T07:54:16Z</time>
      </trkpt>
      <trkpt lat="43.58838" lon="3.4076">
        <ele>230.2</ele>
        <time>2022-05-18T07:54:20Z</time>
      </trkpt>
      <trkpt lat="43.58841" lon="3.40765">
        <ele>229.8</ele>
        <time>2022-05-18T07:54:21Z</time>
      </trkpt>
      <trkpt lat="43.58846" lon="3.40777">
        <ele>228.8</ele>
        <time>2022-05-18T07:54:23Z</time>
      </trkpt>
      <trkpt lat="43.58852" lon="3.40798">
        <ele>228.2</ele>
        <time>2022-05-18T07:54:26Z</time>
      </trkpt>
      <trkpt lat="43.58855" lon="3.40805">
        <ele>227.8</ele>
        <time>2022-05-18T07:54:27Z</time>
      </trkpt>
      <trkpt lat="43.58859" lon="3.40811">
        <ele>227.4</ele>
        <time>2022-05-18T07:54:28Z</time>
      </trkpt>
      <trkpt lat="43.5887" lon="3.40826">
        <ele>226.2</ele>
        <time>2022-05-18T07:54:31Z</time>
      </trkpt>
      <trkpt lat="43.58873" lon="3.4083">
        <ele>226</ele>
        <time>2022-05-18T07:54:32Z</time>
      </trkpt>
      <trkpt lat="43.58876" lon="3.40835">
        <ele>225.8</ele>
        <time>2022-05-18T07:54:33Z</time>
      </trkpt>
      <trkpt lat="43.58884" lon="3.4085">
        <ele>225.4</ele>
        <time>2022-05-18T07:54:36Z</time>
      </trkpt>
      <trkpt lat="43.58888" lon="3.40855">
        <ele>225.4</ele>
        <time>2022-05-18T07:54:37Z</time>
      </trkpt>
      <trkpt lat="43.58896" lon="3.40866">
        <ele>225.2</ele>
        <time>2022-05-18T07:54:39Z</time>
      </trkpt>
      <trkpt lat="43.5891" lon="3.40885">
        <ele>224.2</ele>
        <time>2022-05-18T07:54:42Z</time>
      </trkpt>
      <trkpt lat="43.58915" lon="3.40892">
        <ele>224.2</ele>
        <time>2022-05-18T07:54:43Z</time>
      </trkpt>
      <trkpt lat="43.58939" lon="3.40923">
        <ele>223.2</ele>
        <time>2022-05-18T07:54:47Z</time>
      </trkpt>
      <trkpt lat="43.5896" lon="3.40949">
        <ele>222</ele>
        <time>2022-05-18T07:54:50Z</time>
      </trkpt>
      <trkpt lat="43.58966" lon="3.40958">
        <ele>221.2</ele>
        <time>2022-05-18T07:54:51Z</time>
      </trkpt>
      <trkpt lat="43.58972" lon="3.40968">
        <ele>220.8</ele>
        <time>2022-05-18T07:54:52Z</time>
      </trkpt>
      <trkpt lat="43.58982" lon="3.40989">
        <ele>219.6</ele>
        <time>2022-05-18T07:54:54Z</time>
      </trkpt>
      <trkpt lat="43.58986" lon="3.40999">
        <ele>219.2</ele>
        <time>2022-05-18T07:54:55Z</time>
      </trkpt>
      <trkpt lat="43.58995" lon="3.41032">
        <ele>218.6</ele>
        <time>2022-05-18T07:54:58Z</time>
      </trkpt>
      <trkpt lat="43.59" lon="3.41056">
        <ele>218</ele>
        <time>2022-05-18T07:55:00Z</time>
      </trkpt>
      <trkpt lat="43.59005" lon="3.41079">
        <ele>216.8</ele>
        <time>2022-05-18T07:55:02Z</time>
      </trkpt>
      <trkpt lat="43.59008" lon="3.41105">
        <ele>216.2</ele>
        <time>2022-05-18T07:55:04Z</time>
      </trkpt>
      <trkpt lat="43.59009" lon="3.41114">
        <ele>216</ele>
        <time>2022-05-18T07:55:05Z</time>
      </trkpt>
      <trkpt lat="43.59009" lon="3.41126">
        <ele>215.2</ele>
        <time>2022-05-18T07:55:06Z</time>
      </trkpt>
      <trkpt lat="43.59007" lon="3.41168">
        <ele>214.2</ele>
        <time>2022-05-18T07:55:10Z</time>
      </trkpt>
      <trkpt lat="43.59003" lon="3.41213">
        <ele>213.6</ele>
        <time>2022-05-18T07:55:15Z</time>
      </trkpt>
      <trkpt lat="43.59003" lon="3.41228">
        <ele>213.8</ele>
        <time>2022-05-18T07:55:17Z</time>
      </trkpt>
      <trkpt lat="43.59004" lon="3.41242">
        <ele>213.6</ele>
        <time>2022-05-18T07:55:19Z</time>
      </trkpt>
      <trkpt lat="43.59007" lon="3.41272">
        <ele>213.2</ele>
        <time>2022-05-18T07:55:23Z</time>
      </trkpt>
      <trkpt lat="43.59009" lon="3.41289">
        <ele>212.8</ele>
        <time>2022-05-18T07:55:25Z</time>
      </trkpt>
      <trkpt lat="43.59011" lon="3.4132">
        <ele>212</ele>
        <time>2022-05-18T07:55:29Z</time>
      </trkpt>
      <trkpt lat="43.59009" lon="3.41343">
        <ele>211</ele>
        <time>2022-05-18T07:55:32Z</time>
      </trkpt>
      <trkpt lat="43.59009" lon="3.4135">
        <ele>210.8</ele>
        <time>2022-05-18T07:55:33Z</time>
      </trkpt>
      <trkpt lat="43.59008" lon="3.41358">
        <ele>210.6</ele>
        <time>2022-05-18T07:55:34Z</time>
      </trkpt>
      <trkpt lat="43.59005" lon="3.41383">
        <ele>209.8</ele>
        <time>2022-05-18T07:55:38Z</time>
      </trkpt>
      <trkpt lat="43.59004" lon="3.41399">
        <ele>208.6</ele>
        <time>2022-05-18T07:55:41Z</time>
      </trkpt>
      <trkpt lat="43.59003" lon="3.41415">
        <ele>207.8</ele>
        <time>2022-05-18T07:55:44Z</time>
      </trkpt>
      <trkpt lat="43.59003" lon="3.4142">
        <ele>207.4</ele>
        <time>2022-05-18T07:55:45Z</time>
      </trkpt>
      <trkpt lat="43.59003" lon="3.4144">
        <ele>206.8</ele>
        <time>2022-05-18T07:55:48Z</time>
      </trkpt>
      <trkpt lat="43.59003" lon="3.41448">
        <ele>206.2</ele>
        <time>2022-05-18T07:55:49Z</time>
      </trkpt>
      <trkpt lat="43.59004" lon="3.41456">
        <ele>206.2</ele>
        <time>2022-05-18T07:55:50Z</time>
      </trkpt>
      <trkpt lat="43.59004" lon="3.41483">
        <ele>205.4</ele>
        <time>2022-05-18T07:55:53Z</time>
      </trkpt>
      <trkpt lat="43.59004" lon="3.41493">
        <ele>205</ele>
        <time>2022-05-18T07:55:54Z</time>
      </trkpt>
      <trkpt lat="43.59003" lon="3.41539">
        <ele>203.8</ele>
        <time>2022-05-18T07:55:58Z</time>
      </trkpt>
      <trkpt lat="43.59003" lon="3.41551">
        <ele>203.4</ele>
        <time>2022-05-18T07:55:59Z</time>
      </trkpt>
      <trkpt lat="43.59002" lon="3.41563">
        <ele>202.8</ele>
        <time>2022-05-18T07:56:00Z</time>
      </trkpt>
      <trkpt lat="43.59" lon="3.41574">
        <ele>202.6</ele>
        <time>2022-05-18T07:56:01Z</time>
      </trkpt>
      <trkpt lat="43.58994" lon="3.41597">
        <ele>202</ele>
        <time>2022-05-18T07:56:03Z</time>
      </trkpt>
      <trkpt lat="43.5899" lon="3.41609">
        <ele>201.2</ele>
        <time>2022-05-18T07:56:04Z</time>
      </trkpt>
      <trkpt lat="43.58986" lon="3.4163">
        <ele>200</ele>
        <time>2022-05-18T07:56:06Z</time>
      </trkpt>
      <trkpt lat="43.58984" lon="3.41639">
        <ele>199.2</ele>
        <time>2022-05-18T07:56:07Z</time>
      </trkpt>
      <trkpt lat="43.58983" lon="3.41647">
        <ele>198.8</ele>
        <time>2022-05-18T07:56:08Z</time>
      </trkpt>
      <trkpt lat="43.5898" lon="3.41662">
        <ele>197.6</ele>
        <time>2022-05-18T07:56:10Z</time>
      </trkpt>
      <trkpt lat="43.58979" lon="3.41669">
        <ele>196.4</ele>
        <time>2022-05-18T07:56:11Z</time>
      </trkpt>
      <trkpt lat="43.5898" lon="3.41674">
        <ele>196</ele>
        <time>2022-05-18T07:56:12Z</time>
      </trkpt>
      <trkpt lat="43.58983" lon="3.41677">
        <ele>194.6</ele>
        <time>2022-05-18T07:56:13Z</time>
      </trkpt>
      <trkpt lat="43.58986" lon="3.41679">
        <ele>194.2</ele>
        <time>2022-05-18T07:56:14Z</time>
      </trkpt>
      <trkpt lat="43.58988" lon="3.41677">
        <ele>193.2</ele>
        <time>2022-05-18T07:56:15Z</time>
      </trkpt>
      <trkpt lat="43.58993" lon="3.41669">
        <ele>192</ele>
        <time>2022-05-18T07:56:17Z</time>
      </trkpt>
      <trkpt lat="43.58998" lon="3.4166">
        <ele>191</ele>
        <time>2022-05-18T07:56:19Z</time>
      </trkpt>
      <trkpt lat="43.59" lon="3.41656">
        <ele>190.2</ele>
        <time>2022-05-18T07:56:20Z</time>
      </trkpt>
      <trkpt lat="43.59005" lon="3.41648">
        <ele>189.2</ele>
        <time>2022-05-18T07:56:22Z</time>
      </trkpt>
      <trkpt lat="43.59012" lon="3.41637">
        <ele>188.4</ele>
        <time>2022-05-18T07:56:25Z</time>
      </trkpt>
      <trkpt lat="43.59014" lon="3.41633">
        <ele>188.2</ele>
        <time>2022-05-18T07:56:26Z</time>
      </trkpt>
      <trkpt lat="43.59023" lon="3.41624">
        <ele>187.8</ele>
        <time>2022-05-18T07:56:29Z</time>
      </trkpt>
      <trkpt lat="43.59025" lon="3.41624">
        <ele>187.4</ele>
        <time>2022-05-18T07:56:30Z</time>
      </trkpt>
      <trkpt lat="43.59028" lon="3.4163">
        <ele>187</ele>
        <time>2022-05-18T07:56:32Z</time>
      </trkpt>
      <trkpt lat="43.59028" lon="3.41635">
        <ele>186.6</ele>
        <time>2022-05-18T07:56:33Z</time>
      </trkpt>
      <trkpt lat="43.59025" lon="3.41642">
        <ele>185.6</ele>
        <time>2022-05-18T07:56:35Z</time>
      </trkpt>
      <trkpt lat="43.5902" lon="3.41653">
        <ele>184.6</ele>
        <time>2022-05-18T07:56:38Z</time>
      </trkpt>
      <trkpt lat="43.59019" lon="3.41657">
        <ele>184</ele>
        <time>2022-05-18T07:56:39Z</time>
      </trkpt>
      <trkpt lat="43.59015" lon="3.41676">
        <ele>182.6</ele>
        <time>2022-05-18T07:56:43Z</time>
      </trkpt>
      <trkpt lat="43.59011" lon="3.41692">
        <ele>181.2</ele>
        <time>2022-05-18T07:56:48Z</time>
      </trkpt>
      <trkpt lat="43.5901" lon="3.41696">
        <ele>181.2</ele>
        <time>2022-05-18T07:56:49Z</time>
      </trkpt>
      <trkpt lat="43.59006" lon="3.41709">
        <ele>180.2</ele>
        <time>2022-05-18T07:56:52Z</time>
      </trkpt>
      <trkpt lat="43.59001" lon="3.4172">
        <ele>179.6</ele>
        <time>2022-05-18T07:56:54Z</time>
      </trkpt>
      <trkpt lat="43.58998" lon="3.41726">
        <ele>179.2</ele>
        <time>2022-05-18T07:56:55Z</time>
      </trkpt>
      <trkpt lat="43.58995" lon="3.41734">
        <ele>178.8</ele>
        <time>2022-05-18T07:56:56Z</time>
      </trkpt>
      <trkpt lat="43.58992" lon="3.41743">
        <ele>178.6</ele>
        <time>2022-05-18T07:56:57Z</time>
      </trkpt>
      <trkpt lat="43.58989" lon="3.41754">
        <ele>178.4</ele>
        <time>2022-05-18T07:56:58Z</time>
      </trkpt>
      <trkpt lat="43.58983" lon="3.41786">
        <ele>177.8</ele>
        <time>2022-05-18T07:57:01Z</time>
      </trkpt>
      <trkpt lat="43.58982" lon="3.41796">
        <ele>177.6</ele>
        <time>2022-05-18T07:57:02Z</time>
      </trkpt>
      <trkpt lat="43.58982" lon="3.41805">
        <ele>177.2</ele>
        <time>2022-05-18T07:57:03Z</time>
      </trkpt>
      <trkpt lat="43.58983" lon="3.41813">
        <ele>176.8</ele>
        <time>2022-05-18T07:57:04Z</time>
      </trkpt>
      <trkpt lat="43.58981" lon="3.41826">
        <ele>175.2</ele>
        <time>2022-05-18T07:57:06Z</time>
      </trkpt>
      <trkpt lat="43.58978" lon="3.4183">
        <ele>173.8</ele>
        <time>2022-05-18T07:57:07Z</time>
      </trkpt>
      <trkpt lat="43.58972" lon="3.4184">
        <ele>172.4</ele>
        <time>2022-05-18T07:57:09Z</time>
      </trkpt>
      <trkpt lat="43.58963" lon="3.41849">
        <ele>171.4</ele>
        <time>2022-05-18T07:57:11Z</time>
      </trkpt>
      <trkpt lat="43.58951" lon="3.41862">
        <ele>169.8</ele>
        <time>2022-05-18T07:57:14Z</time>
      </trkpt>
      <trkpt lat="43.58945" lon="3.41874">
        <ele>169.2</ele>
        <time>2022-05-18T07:57:16Z</time>
      </trkpt>
      <trkpt lat="43.58945" lon="3.41889">
        <ele>168.6</ele>
        <time>2022-05-18T07:57:18Z</time>
      </trkpt>
      <trkpt lat="43.58946" lon="3.41898">
        <ele>168.4</ele>
        <time>2022-05-18T07:57:19Z</time>
      </trkpt>
      <trkpt lat="43.58945" lon="3.41907">
        <ele>167.8</ele>
        <time>2022-05-18T07:57:20Z</time>
      </trkpt>
      <trkpt lat="43.58944" lon="3.41916">
        <ele>167.4</ele>
        <time>2022-05-18T07:57:21Z</time>
      </trkpt>
      <trkpt lat="43.58935" lon="3.41947">
        <ele>166.4</ele>
        <time>2022-05-18T07:57:24Z</time>
      </trkpt>
      <trkpt lat="43.58932" lon="3.41958">
        <ele>165.6</ele>
        <time>2022-05-18T07:57:25Z</time>
      </trkpt>
      <trkpt lat="43.5893" lon="3.41968">
        <ele>165.4</ele>
        <time>2022-05-18T07:57:26Z</time>
      </trkpt>
      <trkpt lat="43.58927" lon="3.41985">
        <ele>164.6</ele>
        <time>2022-05-18T07:57:28Z</time>
      </trkpt>
      <trkpt lat="43.58926" lon="3.41991">
        <ele>164.4</ele>
        <time>2022-05-18T07:57:29Z</time>
      </trkpt>
      <trkpt lat="43.58923" lon="3.42001">
        <ele>161.8</ele>
        <time>2022-05-18T07:57:31Z</time>
      </trkpt>
      <trkpt lat="43.58923" lon="3.42005">
        <ele>161.4</ele>
        <time>2022-05-18T07:57:32Z</time>
      </trkpt>
      <trkpt lat="43.58923" lon="3.42008">
        <ele>160.4</ele>
        <time>2022-05-18T07:57:33Z</time>
      </trkpt>
      <trkpt lat="43.58926" lon="3.42013">
        <ele>159.2</ele>
        <time>2022-05-18T07:57:35Z</time>
      </trkpt>
      <trkpt lat="43.58929" lon="3.42015">
        <ele>159</ele>
        <time>2022-05-18T07:57:36Z</time>
      </trkpt>
      <trkpt lat="43.58935" lon="3.42015">
        <ele>157.6</ele>
        <time>2022-05-18T07:57:38Z</time>
      </trkpt>
      <trkpt lat="43.58949" lon="3.42018">
        <ele>156.8</ele>
        <time>2022-05-18T07:57:42Z</time>
      </trkpt>
      <trkpt lat="43.58956" lon="3.42019">
        <ele>156.4</ele>
        <time>2022-05-18T07:57:44Z</time>
      </trkpt>
      <trkpt lat="43.58974" lon="3.4202">
        <ele>155.6</ele>
        <time>2022-05-18T07:57:50Z</time>
      </trkpt>
      <trkpt lat="43.58977" lon="3.42021">
        <ele>155.4</ele>
        <time>2022-05-18T07:57:51Z</time>
      </trkpt>
      <trkpt lat="43.58985" lon="3.42023">
        <ele>154.6</ele>
        <time>2022-05-18T07:57:55Z</time>
      </trkpt>
      <trkpt lat="43.58986" lon="3.42023">
        <ele>154.4</ele>
        <time>2022-05-18T07:57:56Z</time>
      </trkpt>
      <trkpt lat="43.58986" lon="3.42023">
        <ele>153.6</ele>
        <time>2022-05-18T07:57:59Z</time>
      </trkpt>
      <trkpt lat="43.58986" lon="3.42023">
        <ele>153.2</ele>
        <time>2022-05-18T07:58:01Z</time>
      </trkpt>
      <trkpt lat="43.58986" lon="3.42023">
        <ele>152.6</ele>
        <time>2022-05-18T07:58:27Z</time>
      </trkpt>
      <trkpt lat="43.58989" lon="3.42024">
        <ele>152.8</ele>
        <time>2022-05-18T07:58:49Z</time>
      </trkpt>
      <trkpt lat="43.58992" lon="3.42024">
        <ele>152.6</ele>
        <time>2022-05-18T07:58:50Z</time>
      </trkpt>
      <trkpt lat="43.58996" lon="3.42025">
        <ele>152.6</ele>
        <time>2022-05-18T07:58:51Z</time>
      </trkpt>
      <trkpt lat="43.59018" lon="3.42035">
        <ele>152.2</ele>
        <time>2022-05-18T07:58:55Z</time>
      </trkpt>
      <trkpt lat="43.59047" lon="3.42059">
        <ele>151</ele>
        <time>2022-05-18T07:58:59Z</time>
      </trkpt>
      <trkpt lat="43.59054" lon="3.42065">
        <ele>149.2</ele>
        <time>2022-05-18T07:59:00Z</time>
      </trkpt>
      <trkpt lat="43.59067" lon="3.42077">
        <ele>147</ele>
        <time>2022-05-18T07:59:02Z</time>
      </trkpt>
      <trkpt lat="43.59083" lon="3.42089">
        <ele>144</ele>
        <time>2022-05-18T07:59:04Z</time>
      </trkpt>
      <trkpt lat="43.59088" lon="3.42093">
        <ele>143</ele>
        <time>2022-05-18T07:59:05Z</time>
      </trkpt>
      <trkpt lat="43.59094" lon="3.42097">
        <ele>141.2</ele>
        <time>2022-05-18T07:59:06Z</time>
      </trkpt>
      <trkpt lat="43.59106" lon="3.42103">
        <ele>139.6</ele>
        <time>2022-05-18T07:59:08Z</time>
      </trkpt>
      <trkpt lat="43.59117" lon="3.42108">
        <ele>135.6</ele>
        <time>2022-05-18T07:59:10Z</time>
      </trkpt>
      <trkpt lat="43.59126" lon="3.42114">
        <ele>132.8</ele>
        <time>2022-05-18T07:59:12Z</time>
      </trkpt>
      <trkpt lat="43.5913" lon="3.42118">
        <ele>131.2</ele>
        <time>2022-05-18T07:59:13Z</time>
      </trkpt>
      <trkpt lat="43.59133" lon="3.42124">
        <ele>130.4</ele>
        <time>2022-05-18T07:59:14Z</time>
      </trkpt>
      <trkpt lat="43.59135" lon="3.42131">
        <ele>129.6</ele>
        <time>2022-05-18T07:59:15Z</time>
      </trkpt>
      <trkpt lat="43.59137" lon="3.42139">
        <ele>128.4</ele>
        <time>2022-05-18T07:59:16Z</time>
      </trkpt>
      <trkpt lat="43.5914" lon="3.42148">
        <ele>126.8</ele>
        <time>2022-05-18T07:59:17Z</time>
      </trkpt>
      <trkpt lat="43.59142" lon="3.42156">
        <ele>126.4</ele>
        <time>2022-05-18T07:59:18Z</time>
      </trkpt>
      <trkpt lat="43.59144" lon="3.42164">
        <ele>125.2</ele>
        <time>2022-05-18T07:59:19Z</time>
      </trkpt>
      <trkpt lat="43.59147" lon="3.42175">
        <ele>123.2</ele>
        <time>2022-05-18T07:59:21Z</time>
      </trkpt>
      <trkpt lat="43.59147" lon="3.42181">
        <ele>122.8</ele>
        <time>2022-05-18T07:59:22Z</time>
      </trkpt>
      <trkpt lat="43.59148" lon="3.42186">
        <ele>121.2</ele>
        <time>2022-05-18T07:59:23Z</time>
      </trkpt>
      <trkpt lat="43.5915" lon="3.42195">
        <ele>119.4</ele>
        <time>2022-05-18T07:59:25Z</time>
      </trkpt>
      <trkpt lat="43.59151" lon="3.422">
        <ele>118.4</ele>
        <time>2022-05-18T07:59:26Z</time>
      </trkpt>
      <trkpt lat="43.59152" lon="3.42206">
        <ele>118</ele>
        <time>2022-05-18T07:59:27Z</time>
      </trkpt>
      <trkpt lat="43.59154" lon="3.42213">
        <ele>117.2</ele>
        <time>2022-05-18T07:59:28Z</time>
      </trkpt>
      <trkpt lat="43.59159" lon="3.42239">
        <ele>115.8</ele>
        <time>2022-05-18T07:59:31Z</time>
      </trkpt>
      <trkpt lat="43.59158" lon="3.42259">
        <ele>114.4</ele>
        <time>2022-05-18T07:59:33Z</time>
      </trkpt>
      <trkpt lat="43.59155" lon="3.42279">
        <ele>113.2</ele>
        <time>2022-05-18T07:59:35Z</time>
      </trkpt>
      <trkpt lat="43.59154" lon="3.42288">
        <ele>111.8</ele>
        <time>2022-05-18T07:59:36Z</time>
      </trkpt>
      <trkpt lat="43.59153" lon="3.42297">
        <ele>111.4</ele>
        <time>2022-05-18T07:59:37Z</time>
      </trkpt>
      <trkpt lat="43.59153" lon="3.42305">
        <ele>110.2</ele>
        <time>2022-05-18T07:59:38Z</time>
      </trkpt>
      <trkpt lat="43.59154" lon="3.42312">
        <ele>108.8</ele>
        <time>2022-05-18T07:59:39Z</time>
      </trkpt>
      <trkpt lat="43.59155" lon="3.42321">
        <ele>108.2</ele>
        <time>2022-05-18T07:59:40Z</time>
      </trkpt>
      <trkpt lat="43.59157" lon="3.42329">
        <ele>106.8</ele>
        <time>2022-05-18T07:59:41Z</time>
      </trkpt>
      <trkpt lat="43.5916" lon="3.42337">
        <ele>105.8</ele>
        <time>2022-05-18T07:59:42Z</time>
      </trkpt>
      <trkpt lat="43.59164" lon="3.42344">
        <ele>104.6</ele>
        <time>2022-05-18T07:59:43Z</time>
      </trkpt>
      <trkpt lat="43.59169" lon="3.42352">
        <ele>103.8</ele>
        <time>2022-05-18T07:59:44Z</time>
      </trkpt>
      <trkpt lat="43.59174" lon="3.42361">
        <ele>102.2</ele>
        <time>2022-05-18T07:59:45Z</time>
      </trkpt>
      <trkpt lat="43.59185" lon="3.42381">
        <ele>100.8</ele>
        <time>2022-05-18T07:59:47Z</time>
      </trkpt>
      <trkpt lat="43.59191" lon="3.42391">
        <ele>100.2</ele>
        <time>2022-05-18T07:59:48Z</time>
      </trkpt>
      <trkpt lat="43.59196" lon="3.42398">
        <ele>99.6</ele>
        <time>2022-05-18T07:59:49Z</time>
      </trkpt>
      <trkpt lat="43.59208" lon="3.4241">
        <ele>97.2</ele>
        <time>2022-05-18T07:59:51Z</time>
      </trkpt>
      <trkpt lat="43.59219" lon="3.42419">
        <ele>94.8</ele>
        <time>2022-05-18T07:59:53Z</time>
      </trkpt>
      <trkpt lat="43.59224" lon="3.42424">
        <ele>92.8</ele>
        <time>2022-05-18T07:59:54Z</time>
      </trkpt>
      <trkpt lat="43.59228" lon="3.4243">
        <ele>92</ele>
        <time>2022-05-18T07:59:55Z</time>
      </trkpt>
      <trkpt lat="43.59229" lon="3.42437">
        <ele>91.2</ele>
        <time>2022-05-18T07:59:56Z</time>
      </trkpt>
      <trkpt lat="43.59229" lon="3.42451">
        <ele>90.6</ele>
        <time>2022-05-18T07:59:58Z</time>
      </trkpt>
      <trkpt lat="43.59229" lon="3.42459">
        <ele>90.4</ele>
        <time>2022-05-18T07:59:59Z</time>
      </trkpt>
      <trkpt lat="43.59227" lon="3.42475">
        <ele>89</ele>
        <time>2022-05-18T08:00:01Z</time>
      </trkpt>
      <trkpt lat="43.59227" lon="3.42495">
        <ele>87.8</ele>
        <time>2022-05-18T08:00:04Z</time>
      </trkpt>
      <trkpt lat="43.59228" lon="3.42506">
        <ele>86.8</ele>
        <time>2022-05-18T08:00:07Z</time>
      </trkpt>
      <trkpt lat="43.59229" lon="3.42513">
        <ele>85.6</ele>
        <time>2022-05-18T08:00:10Z</time>
      </trkpt>
      <trkpt lat="43.5923" lon="3.42515">
        <ele>85.2</ele>
        <time>2022-05-18T08:00:11Z</time>
      </trkpt>
      <trkpt lat="43.5923" lon="3.4252">
        <ele>84.6</ele>
        <time>2022-05-18T08:00:15Z</time>
      </trkpt>
      <trkpt lat="43.5923" lon="3.4252">
        <ele>84.4</ele>
        <time>2022-05-18T08:00:24Z</time>
      </trkpt>
      <trkpt lat="43.5923" lon="3.4252">
        <ele>84.2</ele>
        <time>2022-05-18T08:00:31Z</time>
      </trkpt>
      <trkpt lat="43.5923" lon="3.4252">
        <ele>84.2</ele>
        <time>2022-05-18T08:00:41Z</time>
      </trkpt>
      <trkpt lat="43.5923" lon="3.4252">
        <ele>84</ele>
        <time>2022-05-18T08:01:00Z</time>
      </trkpt>
      <trkpt lat="43.59232" lon="3.42529">
        <ele>84</ele>
        <time>2022-05-18T08:01:03Z</time>
      </trkpt>
      <trkpt lat="43.59238" lon="3.42551">
        <ele>84.2</ele>
        <time>2022-05-18T08:01:09Z</time>
      </trkpt>
      <trkpt lat="43.59248" lon="3.4259">
        <ele>85.8</ele>
        <time>2022-05-18T08:01:20Z</time>
      </trkpt>
      <trkpt lat="43.59255" lon="3.42623">
        <ele>86.4</ele>
        <time>2022-05-18T08:01:29Z</time>
      </trkpt>
      <trkpt lat="43.59262" lon="3.4264">
        <ele>86.8</ele>
        <time>2022-05-18T08:01:35Z</time>
      </trkpt>
      <trkpt lat="43.59276" lon="3.42664">
        <ele>87.2</ele>
        <time>2022-05-18T08:01:42Z</time>
      </trkpt>
      <trkpt lat="43.59297" lon="3.427">
        <ele>86.4</ele>
        <time>2022-05-18T08:01:50Z</time>
      </trkpt>
      <trkpt lat="43.5932" lon="3.42737">
        <ele>86.4</ele>
        <time>2022-05-18T08:01:58Z</time>
      </trkpt>
      <trkpt lat="43.59336" lon="3.42762">
        <ele>86.4</ele>
        <time>2022-05-18T08:02:04Z</time>
      </trkpt>
      <trkpt lat="43.59353" lon="3.42785">
        <ele>86.6</ele>
        <time>2022-05-18T08:02:10Z</time>
      </trkpt>
      <trkpt lat="43.59372" lon="3.42811">
        <ele>86.8</ele>
        <time>2022-05-18T08:02:18Z</time>
      </trkpt>
      <trkpt lat="43.59385" lon="3.42815">
        <ele>86.8</ele>
        <time>2022-05-18T08:02:23Z</time>
      </trkpt>
      <trkpt lat="43.5939" lon="3.42816">
        <ele>87</ele>
        <time>2022-05-18T08:02:25Z</time>
      </trkpt>
      <trkpt lat="43.59393" lon="3.42813">
        <ele>87</ele>
        <time>2022-05-18T08:02:27Z</time>
      </trkpt>
      <trkpt lat="43.59394" lon="3.4281">
        <ele>87</ele>
        <time>2022-05-18T08:02:28Z</time>
      </trkpt>
      <trkpt lat="43.59395" lon="3.42801">
        <ele>87.2</ele>
        <time>2022-05-18T08:02:31Z</time>
      </trkpt>
      <trkpt lat="43.59396" lon="3.42767">
        <ele>88</ele>
        <time>2022-05-18T08:02:40Z</time>
      </trkpt>
      <trkpt lat="43.59396" lon="3.42755">
        <ele>88</ele>
        <time>2022-05-18T08:02:43Z</time>
      </trkpt>
      <trkpt lat="43.59396" lon="3.42726">
        <ele>88.6</ele>
        <time>2022-05-18T08:02:50Z</time>
      </trkpt>
      <trkpt lat="43.59397" lon="3.42693">
        <ele>89</ele>
        <time>2022-05-18T08:02:58Z</time>
      </trkpt>
      <trkpt lat="43.59397" lon="3.42669">
        <ele>89.4</ele>
        <time>2022-05-18T08:03:04Z</time>
      </trkpt>
      <trkpt lat="43.59397" lon="3.42657">
        <ele>89.6</ele>
        <time>2022-05-18T08:03:07Z</time>
      </trkpt>
      <trkpt lat="43.59397" lon="3.42647">
        <ele>89.8</ele>
        <time>2022-05-18T08:03:10Z</time>
      </trkpt>
      <trkpt lat="43.59399" lon="3.42644">
        <ele>89.8</ele>
        <time>2022-05-18T08:03:11Z</time>
      </trkpt>
      <trkpt lat="43.5941" lon="3.42629">
        <ele>90.2</ele>
        <time>2022-05-18T08:03:18Z</time>
      </trkpt>
      <trkpt lat="43.59416" lon="3.42622">
        <ele>90.6</ele>
        <time>2022-05-18T08:03:21Z</time>
      </trkpt>
      <trkpt lat="43.59424" lon="3.42611">
        <ele>91</ele>
        <time>2022-05-18T08:03:26Z</time>
      </trkpt>
      <trkpt lat="43.59431" lon="3.426">
        <ele>91.6</ele>
        <time>2022-05-18T08:03:30Z</time>
      </trkpt>
      <trkpt lat="43.59442" lon="3.42583">
        <ele>92.2</ele>
        <time>2022-05-18T08:03:37Z</time>
      </trkpt>
      <trkpt lat="43.5945" lon="3.42569">
        <ele>92.8</ele>
        <time>2022-05-18T08:03:42Z</time>
      </trkpt>
      <trkpt lat="43.59458" lon="3.42556">
        <ele>93.6</ele>
        <time>2022-05-18T08:03:47Z</time>
      </trkpt>
      <trkpt lat="43.59464" lon="3.42546">
        <ele>94</ele>
        <time>2022-05-18T08:03:51Z</time>
      </trkpt>
      <trkpt lat="43.59471" lon="3.42534">
        <ele>94.8</ele>
        <time>2022-05-18T08:03:56Z</time>
      </trkpt>
      <trkpt lat="43.59475" lon="3.42524">
        <ele>95</ele>
        <time>2022-05-18T08:04:00Z</time>
      </trkpt>
      <trkpt lat="43.59476" lon="3.42518">
        <ele>95.4</ele>
        <time>2022-05-18T08:04:02Z</time>
      </trkpt>
      <trkpt lat="43.59478" lon="3.42496">
        <ele>96.2</ele>
        <time>2022-05-18T08:04:10Z</time>
      </trkpt>
      <trkpt lat="43.5948" lon="3.42468">
        <ele>96.8</ele>
        <time>2022-05-18T08:04:20Z</time>
      </trkpt>
      <trkpt lat="43.5948" lon="3.42463">
        <ele>97.2</ele>
        <time>2022-05-18T08:04:22Z</time>
      </trkpt>
      <trkpt lat="43.59482" lon="3.42445">
        <ele>97.6</ele>
        <time>2022-05-18T08:04:28Z</time>
      </trkpt>
      <trkpt lat="43.59483" lon="3.42436">
        <ele>98.2</ele>
        <time>2022-05-18T08:04:31Z</time>
      </trkpt>
      <trkpt lat="43.59487" lon="3.42421">
        <ele>99</ele>
        <time>2022-05-18T08:04:36Z</time>
      </trkpt>
      <trkpt lat="43.59489" lon="3.42416">
        <ele>99.4</ele>
        <time>2022-05-18T08:04:38Z</time>
      </trkpt>
      <trkpt lat="43.59496" lon="3.42407">
        <ele>100.2</ele>
        <time>2022-05-18T08:04:43Z</time>
      </trkpt>
      <trkpt lat="43.59501" lon="3.42402">
        <ele>100.4</ele>
        <time>2022-05-18T08:04:46Z</time>
      </trkpt>
      <trkpt lat="43.59512" lon="3.42396">
        <ele>101.4</ele>
        <time>2022-05-18T08:04:52Z</time>
      </trkpt>
      <trkpt lat="43.59515" lon="3.42394">
        <ele>101.6</ele>
        <time>2022-05-18T08:04:54Z</time>
      </trkpt>
      <trkpt lat="43.59526" lon="3.42389">
        <ele>102.4</ele>
        <time>2022-05-18T08:05:00Z</time>
      </trkpt>
      <trkpt lat="43.59528" lon="3.42389">
        <ele>102.6</ele>
        <time>2022-05-18T08:05:01Z</time>
      </trkpt>
      <trkpt lat="43.5954" lon="3.42383">
        <ele>103.8</ele>
        <time>2022-05-18T08:05:09Z</time>
      </trkpt>
      <trkpt lat="43.59542" lon="3.42382">
        <ele>104.2</ele>
        <time>2022-05-18T08:05:10Z</time>
      </trkpt>
      <trkpt lat="43.59547" lon="3.4238">
        <ele>105</ele>
        <time>2022-05-18T08:05:13Z</time>
      </trkpt>
      <trkpt lat="43.59553" lon="3.42378">
        <ele>105.8</ele>
        <time>2022-05-18T08:05:17Z</time>
      </trkpt>
      <trkpt lat="43.59554" lon="3.42378">
        <ele>106.2</ele>
        <time>2022-05-18T08:05:18Z</time>
      </trkpt>
      <trkpt lat="43.59564" lon="3.42377">
        <ele>106.8</ele>
        <time>2022-05-18T08:05:24Z</time>
      </trkpt>
      <trkpt lat="43.5957" lon="3.42375">
        <ele>107.2</ele>
        <time>2022-05-18T08:05:27Z</time>
      </trkpt>
      <trkpt lat="43.59579" lon="3.42372">
        <ele>107.6</ele>
        <time>2022-05-18T08:05:31Z</time>
      </trkpt>
      <trkpt lat="43.59597" lon="3.42361">
        <ele>108</ele>
        <time>2022-05-18T08:05:39Z</time>
      </trkpt>
      <trkpt lat="43.5961" lon="3.42351">
        <ele>108</ele>
        <time>2022-05-18T08:05:45Z</time>
      </trkpt>
      <trkpt lat="43.59617" lon="3.42346">
        <ele>108.2</ele>
        <time>2022-05-18T08:05:48Z</time>
      </trkpt>
      <trkpt lat="43.59628" lon="3.42337">
        <ele>108.6</ele>
        <time>2022-05-18T08:05:55Z</time>
      </trkpt>
      <trkpt lat="43.59645" lon="3.42336">
        <ele>109.2</ele>
        <time>2022-05-18T08:06:03Z</time>
      </trkpt>
      <trkpt lat="43.59647" lon="3.42337">
        <ele>109.2</ele>
        <time>2022-05-18T08:06:04Z</time>
      </trkpt>
      <trkpt lat="43.59664" lon="3.42346">
        <ele>109.8</ele>
        <time>2022-05-18T08:06:12Z</time>
      </trkpt>
      <trkpt lat="43.59678" lon="3.42352">
        <ele>110.2</ele>
        <time>2022-05-18T08:06:19Z</time>
      </trkpt>
      <trkpt lat="43.59689" lon="3.42356">
        <ele>111</ele>
        <time>2022-05-18T08:06:26Z</time>
      </trkpt>
      <trkpt lat="43.59694" lon="3.42357">
        <ele>111.4</ele>
        <time>2022-05-18T08:06:29Z</time>
      </trkpt>
      <trkpt lat="43.59699" lon="3.42359">
        <ele>112.2</ele>
        <time>2022-05-18T08:06:32Z</time>
      </trkpt>
      <trkpt lat="43.59701" lon="3.42359">
        <ele>112.6</ele>
        <time>2022-05-18T08:06:33Z</time>
      </trkpt>
      <trkpt lat="43.59713" lon="3.42361">
        <ele>113.2</ele>
        <time>2022-05-18T08:06:39Z</time>
      </trkpt>
      <trkpt lat="43.59728" lon="3.42368">
        <ele>113.4</ele>
        <time>2022-05-18T08:06:47Z</time>
      </trkpt>
      <trkpt lat="43.59729" lon="3.4237">
        <ele>113.6</ele>
        <time>2022-05-18T08:06:48Z</time>
      </trkpt>
      <trkpt lat="43.59739" lon="3.42375">
        <ele>114.4</ele>
        <time>2022-05-18T08:06:54Z</time>
      </trkpt>
      <trkpt lat="43.5974" lon="3.42375">
        <ele>114.6</ele>
        <time>2022-05-18T08:06:55Z</time>
      </trkpt>
      <trkpt lat="43.59747" lon="3.42372">
        <ele>115.2</ele>
        <time>2022-05-18T08:06:59Z</time>
      </trkpt>
      <trkpt lat="43.59747" lon="3.42371">
        <ele>115.2</ele>
        <time>2022-05-18T08:07:00Z</time>
      </trkpt>
      <trkpt lat="43.59749" lon="3.42363">
        <ele>115.8</ele>
        <time>2022-05-18T08:07:04Z</time>
      </trkpt>
      <trkpt lat="43.59752" lon="3.42354">
        <ele>116.8</ele>
        <time>2022-05-18T08:07:08Z</time>
      </trkpt>
      <trkpt lat="43.59752" lon="3.42352">
        <ele>117</ele>
        <time>2022-05-18T08:07:09Z</time>
      </trkpt>
      <trkpt lat="43.59754" lon="3.42345">
        <ele>118</ele>
        <time>2022-05-18T08:07:12Z</time>
      </trkpt>
      <trkpt lat="43.59755" lon="3.42341">
        <ele>118.4</ele>
        <time>2022-05-18T08:07:14Z</time>
      </trkpt>
      <trkpt lat="43.59758" lon="3.42331">
        <ele>119.2</ele>
        <time>2022-05-18T08:07:19Z</time>
      </trkpt>
      <trkpt lat="43.59759" lon="3.42327">
        <ele>119.4</ele>
        <time>2022-05-18T08:07:21Z</time>
      </trkpt>
      <trkpt lat="43.59761" lon="3.42321">
        <ele>120.2</ele>
        <time>2022-05-18T08:07:24Z</time>
      </trkpt>
      <trkpt lat="43.59764" lon="3.42312">
        <ele>120.8</ele>
        <time>2022-05-18T08:07:28Z</time>
      </trkpt>
      <trkpt lat="43.59765" lon="3.42306">
        <ele>121.4</ele>
        <time>2022-05-18T08:07:31Z</time>
      </trkpt>
      <trkpt lat="43.59767" lon="3.42296">
        <ele>122.2</ele>
        <time>2022-05-18T08:07:36Z</time>
      </trkpt>
      <trkpt lat="43.59766" lon="3.42294">
        <ele>122.4</ele>
        <time>2022-05-18T08:07:37Z</time>
      </trkpt>
      <trkpt lat="43.59765" lon="3.42292">
        <ele>122.4</ele>
        <time>2022-05-18T08:07:38Z</time>
      </trkpt>
      <trkpt lat="43.59763" lon="3.42287">
        <ele>123.2</ele>
        <time>2022-05-18T08:07:41Z</time>
      </trkpt>
      <trkpt lat="43.59761" lon="3.42286">
        <ele>123.6</ele>
        <time>2022-05-18T08:07:42Z</time>
      </trkpt>
      <trkpt lat="43.59758" lon="3.4228">
        <ele>124.4</ele>
        <time>2022-05-18T08:07:46Z</time>
      </trkpt>
      <trkpt lat="43.59759" lon="3.42278">
        <ele>124.8</ele>
        <time>2022-05-18T08:07:47Z</time>
      </trkpt>
      <trkpt lat="43.59759" lon="3.42276">
        <ele>125</ele>
        <time>2022-05-18T08:07:48Z</time>
      </trkpt>
      <trkpt lat="43.59764" lon="3.42275">
        <ele>125.8</ele>
        <time>2022-05-18T08:07:51Z</time>
      </trkpt>
      <trkpt lat="43.59765" lon="3.42274">
        <ele>126</ele>
        <time>2022-05-18T08:07:52Z</time>
      </trkpt>
      <trkpt lat="43.59774" lon="3.42274">
        <ele>127</ele>
        <time>2022-05-18T08:07:58Z</time>
      </trkpt>
      <trkpt lat="43.59781" lon="3.42274">
        <ele>127.8</ele>
        <time>2022-05-18T08:08:03Z</time>
      </trkpt>
      <trkpt lat="43.59788" lon="3.42277">
        <ele>128.2</ele>
        <time>2022-05-18T08:08:08Z</time>
      </trkpt>
      <trkpt lat="43.59794" lon="3.4228">
        <ele>128.4</ele>
        <time>2022-05-18T08:08:12Z</time>
      </trkpt>
      <trkpt lat="43.59804" lon="3.42288">
        <ele>129</ele>
        <time>2022-05-18T08:08:20Z</time>
      </trkpt>
      <trkpt lat="43.59807" lon="3.42291">
        <ele>129.2</ele>
        <time>2022-05-18T08:08:22Z</time>
      </trkpt>
      <trkpt lat="43.59816" lon="3.42301">
        <ele>129.8</ele>
        <time>2022-05-18T08:08:29Z</time>
      </trkpt>
      <trkpt lat="43.59823" lon="3.42306">
        <ele>130.2</ele>
        <time>2022-05-18T08:08:34Z</time>
      </trkpt>
      <trkpt lat="43.59829" lon="3.42309">
        <ele>130.4</ele>
        <time>2022-05-18T08:08:38Z</time>
      </trkpt>
      <trkpt lat="43.59842" lon="3.4231">
        <ele>131</ele>
        <time>2022-05-18T08:08:47Z</time>
      </trkpt>
      <trkpt lat="43.59847" lon="3.42309">
        <ele>131.6</ele>
        <time>2022-05-18T08:08:50Z</time>
      </trkpt>
      <trkpt lat="43.59848" lon="3.42309">
        <ele>131.6</ele>
        <time>2022-05-18T08:08:51Z</time>
      </trkpt>
      <trkpt lat="43.59857" lon="3.42309">
        <ele>132.4</ele>
        <time>2022-05-18T08:08:57Z</time>
      </trkpt>
      <trkpt lat="43.5986" lon="3.42309">
        <ele>132.6</ele>
        <time>2022-05-18T08:08:59Z</time>
      </trkpt>
      <trkpt lat="43.59867" lon="3.42309">
        <ele>133.6</ele>
        <time>2022-05-18T08:09:04Z</time>
      </trkpt>
      <trkpt lat="43.59868" lon="3.42309">
        <ele>133.8</ele>
        <time>2022-05-18T08:09:05Z</time>
      </trkpt>
      <trkpt lat="43.59877" lon="3.4231">
        <ele>135</ele>
        <time>2022-05-18T08:09:11Z</time>
      </trkpt>
      <trkpt lat="43.59878" lon="3.4231">
        <ele>135</ele>
        <time>2022-05-18T08:09:12Z</time>
      </trkpt>
      <trkpt lat="43.59885" lon="3.42314">
        <ele>136</ele>
        <time>2022-05-18T08:09:17Z</time>
      </trkpt>
      <trkpt lat="43.59888" lon="3.42317">
        <ele>136.4</ele>
        <time>2022-05-18T08:09:19Z</time>
      </trkpt>
      <trkpt lat="43.59895" lon="3.42322">
        <ele>137</ele>
        <time>2022-05-18T08:09:23Z</time>
      </trkpt>
      <trkpt lat="43.599" lon="3.42325">
        <ele>137.4</ele>
        <time>2022-05-18T08:09:26Z</time>
      </trkpt>
      <trkpt lat="43.59905" lon="3.42328">
        <ele>138.2</ele>
        <time>2022-05-18T08:09:29Z</time>
      </trkpt>
      <trkpt lat="43.59917" lon="3.42333">
        <ele>138.8</ele>
        <time>2022-05-18T08:09:37Z</time>
      </trkpt>
      <trkpt lat="43.59922" lon="3.42334">
        <ele>139.2</ele>
        <time>2022-05-18T08:09:40Z</time>
      </trkpt>
      <trkpt lat="43.59929" lon="3.42336">
        <ele>140</ele>
        <time>2022-05-18T08:09:45Z</time>
      </trkpt>
      <trkpt lat="43.5993" lon="3.42336">
        <ele>140.6</ele>
        <time>2022-05-18T08:09:46Z</time>
      </trkpt>
      <trkpt lat="43.59933" lon="3.42338">
        <ele>141.8</ele>
        <time>2022-05-18T08:09:52Z</time>
      </trkpt>
      <trkpt lat="43.59934" lon="3.42338">
        <ele>142.6</ele>
        <time>2022-05-18T08:10:33Z</time>
      </trkpt>
      <trkpt lat="43.59939" lon="3.42338">
        <ele>142.6</ele>
        <time>2022-05-18T08:10:36Z</time>
      </trkpt>
      <trkpt lat="43.59948" lon="3.42338">
        <ele>143.2</ele>
        <time>2022-05-18T08:10:41Z</time>
      </trkpt>
      <trkpt lat="43.59951" lon="3.42338">
        <ele>143.4</ele>
        <time>2022-05-18T08:10:43Z</time>
      </trkpt>
      <trkpt lat="43.59966" lon="3.42339">
        <ele>144</ele>
        <time>2022-05-18T08:10:53Z</time>
      </trkpt>
      <trkpt lat="43.59968" lon="3.4234">
        <ele>144.2</ele>
        <time>2022-05-18T08:10:54Z</time>
      </trkpt>
      <trkpt lat="43.59977" lon="3.42345">
        <ele>145.2</ele>
        <time>2022-05-18T08:11:01Z</time>
      </trkpt>
      <trkpt lat="43.59987" lon="3.42351">
        <ele>146.2</ele>
        <time>2022-05-18T08:11:08Z</time>
      </trkpt>
      <trkpt lat="43.59988" lon="3.42353">
        <ele>146.2</ele>
        <time>2022-05-18T08:11:09Z</time>
      </trkpt>
      <trkpt lat="43.59997" lon="3.42358">
        <ele>147.2</ele>
        <time>2022-05-18T08:11:15Z</time>
      </trkpt>
      <trkpt lat="43.59999" lon="3.42358">
        <ele>147.4</ele>
        <time>2022-05-18T08:11:16Z</time>
      </trkpt>
      <trkpt lat="43.60007" lon="3.42358">
        <ele>148.4</ele>
        <time>2022-05-18T08:11:21Z</time>
      </trkpt>
      <trkpt lat="43.60009" lon="3.42359">
        <ele>148.4</ele>
        <time>2022-05-18T08:11:22Z</time>
      </trkpt>
      <trkpt lat="43.60021" lon="3.42362">
        <ele>149.4</ele>
        <time>2022-05-18T08:11:30Z</time>
      </trkpt>
      <trkpt lat="43.60034" lon="3.42365">
        <ele>150.4</ele>
        <time>2022-05-18T08:11:38Z</time>
      </trkpt>
      <trkpt lat="43.60035" lon="3.42366">
        <ele>150.6</ele>
        <time>2022-05-18T08:11:39Z</time>
      </trkpt>
      <trkpt lat="43.60041" lon="3.4237">
        <ele>151.6</ele>
        <time>2022-05-18T08:11:44Z</time>
      </trkpt>
      <trkpt lat="43.60043" lon="3.42372">
        <ele>152</ele>
        <time>2022-05-18T08:11:46Z</time>
      </trkpt>
      <trkpt lat="43.60047" lon="3.42377">
        <ele>152.8</ele>
        <time>2022-05-18T08:11:50Z</time>
      </trkpt>
      <trkpt lat="43.6005" lon="3.42384">
        <ele>153.8</ele>
        <time>2022-05-18T08:11:54Z</time>
      </trkpt>
      <trkpt lat="43.60051" lon="3.42386">
        <ele>153.8</ele>
        <time>2022-05-18T08:11:55Z</time>
      </trkpt>
      <trkpt lat="43.60056" lon="3.42395">
        <ele>155</ele>
        <time>2022-05-18T08:12:00Z</time>
      </trkpt>
      <trkpt lat="43.60058" lon="3.42397">
        <ele>155.4</ele>
        <time>2022-05-18T08:12:02Z</time>
      </trkpt>
      <trkpt lat="43.6006" lon="3.42402">
        <ele>156.2</ele>
        <time>2022-05-18T08:12:05Z</time>
      </trkpt>
      <trkpt lat="43.60063" lon="3.42406">
        <ele>156.6</ele>
        <time>2022-05-18T08:12:08Z</time>
      </trkpt>
      <trkpt lat="43.60065" lon="3.4241">
        <ele>157.2</ele>
        <time>2022-05-18T08:12:11Z</time>
      </trkpt>
      <trkpt lat="43.60068" lon="3.42415">
        <ele>158</ele>
        <time>2022-05-18T08:12:15Z</time>
      </trkpt>
      <trkpt lat="43.6007" lon="3.42418">
        <ele>158.4</ele>
        <time>2022-05-18T08:12:17Z</time>
      </trkpt>
      <trkpt lat="43.60076" lon="3.42426">
        <ele>159.2</ele>
        <time>2022-05-18T08:12:23Z</time>
      </trkpt>
      <trkpt lat="43.60077" lon="3.42427">
        <ele>159.4</ele>
        <time>2022-05-18T08:12:24Z</time>
      </trkpt>
      <trkpt lat="43.60087" lon="3.42438">
        <ele>160.4</ele>
        <time>2022-05-18T08:12:33Z</time>
      </trkpt>
      <trkpt lat="43.60093" lon="3.42439">
        <ele>160.8</ele>
        <time>2022-05-18T08:12:38Z</time>
      </trkpt>
      <trkpt lat="43.60097" lon="3.42438">
        <ele>161</ele>
        <time>2022-05-18T08:12:41Z</time>
      </trkpt>
      <trkpt lat="43.60109" lon="3.42437">
        <ele>161</ele>
        <time>2022-05-18T08:12:47Z</time>
      </trkpt>
      <trkpt lat="43.60125" lon="3.42437">
        <ele>160</ele>
        <time>2022-05-18T08:12:55Z</time>
      </trkpt>
      <trkpt lat="43.60132" lon="3.42438">
        <ele>159.4</ele>
        <time>2022-05-18T08:12:59Z</time>
      </trkpt>
      <trkpt lat="43.60136" lon="3.42439">
        <ele>159</ele>
        <time>2022-05-18T08:13:02Z</time>
      </trkpt>
      <trkpt lat="43.60145" lon="3.42441">
        <ele>158.4</ele>
        <time>2022-05-18T08:13:08Z</time>
      </trkpt>
      <trkpt lat="43.60148" lon="3.42443">
        <ele>158</ele>
        <time>2022-05-18T08:13:10Z</time>
      </trkpt>
      <trkpt lat="43.60155" lon="3.42444">
        <ele>157.2</ele>
        <time>2022-05-18T08:13:15Z</time>
      </trkpt>
      <trkpt lat="43.60157" lon="3.42445">
        <ele>157</ele>
        <time>2022-05-18T08:13:16Z</time>
      </trkpt>
      <trkpt lat="43.6017" lon="3.42452">
        <ele>156.2</ele>
        <time>2022-05-18T08:13:23Z</time>
      </trkpt>
      <trkpt lat="43.60179" lon="3.42458">
        <ele>155.2</ele>
        <time>2022-05-18T08:13:30Z</time>
      </trkpt>
      <trkpt lat="43.60179" lon="3.42458">
        <ele>155</ele>
        <time>2022-05-18T08:13:31Z</time>
      </trkpt>
      <trkpt lat="43.60179" lon="3.42458">
        <ele>154.8</ele>
        <time>2022-05-18T08:13:38Z</time>
      </trkpt>
      <trkpt lat="43.60185" lon="3.42463">
        <ele>154.8</ele>
        <time>2022-05-18T08:13:53Z</time>
      </trkpt>
      <trkpt lat="43.60203" lon="3.42478">
        <ele>154.8</ele>
        <time>2022-05-18T08:13:59Z</time>
      </trkpt>
      <trkpt lat="43.60221" lon="3.42492">
        <ele>154.2</ele>
        <time>2022-05-18T08:14:03Z</time>
      </trkpt>
      <trkpt lat="43.60225" lon="3.42494">
        <ele>154</ele>
        <time>2022-05-18T08:14:04Z</time>
      </trkpt>
      <trkpt lat="43.6023" lon="3.42495">
        <ele>154</ele>
        <time>2022-05-18T08:14:05Z</time>
      </trkpt>
      <trkpt lat="43.60241" lon="3.42496">
        <ele>153.6</ele>
        <time>2022-05-18T08:14:07Z</time>
      </trkpt>
      <trkpt lat="43.6025" lon="3.42495">
        <ele>153.4</ele>
        <time>2022-05-18T08:14:09Z</time>
      </trkpt>
      <trkpt lat="43.60265" lon="3.42494">
        <ele>153</ele>
        <time>2022-05-18T08:14:13Z</time>
      </trkpt>
      <trkpt lat="43.60269" lon="3.42496">
        <ele>153</ele>
        <time>2022-05-18T08:14:15Z</time>
      </trkpt>
      <trkpt lat="43.60271" lon="3.42497">
        <ele>153</ele>
        <time>2022-05-18T08:14:16Z</time>
      </trkpt>
      <trkpt lat="43.60272" lon="3.42498">
        <ele>153.2</ele>
        <time>2022-05-18T08:14:17Z</time>
      </trkpt>
      <trkpt lat="43.60274" lon="3.425">
        <ele>153.2</ele>
        <time>2022-05-18T08:14:18Z</time>
      </trkpt>
      <trkpt lat="43.60277" lon="3.4251">
        <ele>153.6</ele>
        <time>2022-05-18T08:14:22Z</time>
      </trkpt>
      <trkpt lat="43.60285" lon="3.42535">
        <ele>153</ele>
        <time>2022-05-18T08:14:28Z</time>
      </trkpt>
      <trkpt lat="43.60287" lon="3.4254">
        <ele>153</ele>
        <time>2022-05-18T08:14:29Z</time>
      </trkpt>
      <trkpt lat="43.60297" lon="3.42569">
        <ele>151.6</ele>
        <time>2022-05-18T08:14:33Z</time>
      </trkpt>
      <trkpt lat="43.60306" lon="3.42592">
        <ele>150.2</ele>
        <time>2022-05-18T08:14:36Z</time>
      </trkpt>
      <trkpt lat="43.60309" lon="3.42606">
        <ele>149.8</ele>
        <time>2022-05-18T08:14:38Z</time>
      </trkpt>
      <trkpt lat="43.60307" lon="3.4262">
        <ele>149.2</ele>
        <time>2022-05-18T08:14:40Z</time>
      </trkpt>
      <trkpt lat="43.60303" lon="3.42641">
        <ele>147.8</ele>
        <time>2022-05-18T08:14:43Z</time>
      </trkpt>
      <trkpt lat="43.60303" lon="3.42654">
        <ele>147</ele>
        <time>2022-05-18T08:14:45Z</time>
      </trkpt>
      <trkpt lat="43.60304" lon="3.42661">
        <ele>146.6</ele>
        <time>2022-05-18T08:14:46Z</time>
      </trkpt>
      <trkpt lat="43.6031" lon="3.42682">
        <ele>145.4</ele>
        <time>2022-05-18T08:14:49Z</time>
      </trkpt>
      <trkpt lat="43.60311" lon="3.4269">
        <ele>145.2</ele>
        <time>2022-05-18T08:14:50Z</time>
      </trkpt>
      <trkpt lat="43.60312" lon="3.42706">
        <ele>144.2</ele>
        <time>2022-05-18T08:14:52Z</time>
      </trkpt>
      <trkpt lat="43.60314" lon="3.42731">
        <ele>141.8</ele>
        <time>2022-05-18T08:14:56Z</time>
      </trkpt>
      <trkpt lat="43.60317" lon="3.42735">
        <ele>141.2</ele>
        <time>2022-05-18T08:14:57Z</time>
      </trkpt>
      <trkpt lat="43.60319" lon="3.42736">
        <ele>140.4</ele>
        <time>2022-05-18T08:14:58Z</time>
      </trkpt>
      <trkpt lat="43.60325" lon="3.42739">
        <ele>139.8</ele>
        <time>2022-05-18T08:15:01Z</time>
      </trkpt>
      <trkpt lat="43.60332" lon="3.42742">
        <ele>139.4</ele>
        <time>2022-05-18T08:15:04Z</time>
      </trkpt>
      <trkpt lat="43.60335" lon="3.42744">
        <ele>139.2</ele>
        <time>2022-05-18T08:15:06Z</time>
      </trkpt>
      <trkpt lat="43.60337" lon="3.42748">
        <ele>139.2</ele>
        <time>2022-05-18T08:15:08Z</time>
      </trkpt>
      <trkpt lat="43.60339" lon="3.42755">
        <ele>139.4</ele>
        <time>2022-05-18T08:15:11Z</time>
      </trkpt>
      <trkpt lat="43.60347" lon="3.42768">
        <ele>140.2</ele>
        <time>2022-05-18T08:15:19Z</time>
      </trkpt>
      <trkpt lat="43.60348" lon="3.42771">
        <ele>140.4</ele>
        <time>2022-05-18T08:15:20Z</time>
      </trkpt>
      <trkpt lat="43.6036" lon="3.42788">
        <ele>141.2</ele>
        <time>2022-05-18T08:15:27Z</time>
      </trkpt>
      <trkpt lat="43.60365" lon="3.42794">
        <ele>141.6</ele>
        <time>2022-05-18T08:15:30Z</time>
      </trkpt>
      <trkpt lat="43.60375" lon="3.42803">
        <ele>142</ele>
        <time>2022-05-18T08:15:35Z</time>
      </trkpt>
      <trkpt lat="43.60391" lon="3.42811">
        <ele>142.2</ele>
        <time>2022-05-18T08:15:42Z</time>
      </trkpt>
      <trkpt lat="43.60398" lon="3.42814">
        <ele>142.2</ele>
        <time>2022-05-18T08:15:47Z</time>
      </trkpt>
      <trkpt lat="43.60414" lon="3.42821">
        <ele>142.6</ele>
        <time>2022-05-18T08:15:55Z</time>
      </trkpt>
      <trkpt lat="43.60431" lon="3.42828">
        <ele>142.4</ele>
        <time>2022-05-18T08:16:01Z</time>
      </trkpt>
      <trkpt lat="43.60459" lon="3.42829">
        <ele>142</ele>
        <time>2022-05-18T08:16:09Z</time>
      </trkpt>
      <trkpt lat="43.60472" lon="3.42827">
        <ele>141.6</ele>
        <time>2022-05-18T08:16:13Z</time>
      </trkpt>
      <trkpt lat="43.60479" lon="3.42826">
        <ele>141.4</ele>
        <time>2022-05-18T08:16:15Z</time>
      </trkpt>
      <trkpt lat="43.60504" lon="3.42819">
        <ele>141</ele>
        <time>2022-05-18T08:16:22Z</time>
      </trkpt>
      <trkpt lat="43.60521" lon="3.42813">
        <ele>140.4</ele>
        <time>2022-05-18T08:16:27Z</time>
      </trkpt>
      <trkpt lat="43.60528" lon="3.42811">
        <ele>140.4</ele>
        <time>2022-05-18T08:16:29Z</time>
      </trkpt>
      <trkpt lat="43.60545" lon="3.42814">
        <ele>140</ele>
        <time>2022-05-18T08:16:34Z</time>
      </trkpt>
      <trkpt lat="43.60553" lon="3.42821">
        <ele>139.4</ele>
        <time>2022-05-18T08:16:38Z</time>
      </trkpt>
      <trkpt lat="43.60554" lon="3.42824">
        <ele>139.4</ele>
        <time>2022-05-18T08:16:39Z</time>
      </trkpt>
      <trkpt lat="43.60563" lon="3.42843">
        <ele>139.4</ele>
        <time>2022-05-18T08:16:44Z</time>
      </trkpt>
      <trkpt lat="43.60575" lon="3.42853">
        <ele>139</ele>
        <time>2022-05-18T08:16:48Z</time>
      </trkpt>
      <trkpt lat="43.60596" lon="3.42859">
        <ele>138.6</ele>
        <time>2022-05-18T08:16:54Z</time>
      </trkpt>
      <trkpt lat="43.60604" lon="3.4286">
        <ele>138.4</ele>
        <time>2022-05-18T08:16:56Z</time>
      </trkpt>
      <trkpt lat="43.60618" lon="3.42863">
        <ele>137.8</ele>
        <time>2022-05-18T08:17:00Z</time>
      </trkpt>
      <trkpt lat="43.60627" lon="3.42869">
        <ele>137.2</ele>
        <time>2022-05-18T08:17:04Z</time>
      </trkpt>
      <trkpt lat="43.60637" lon="3.42875">
        <ele>136.6</ele>
        <time>2022-05-18T08:17:10Z</time>
      </trkpt>
      <trkpt lat="43.60644" lon="3.42877">
        <ele>136.2</ele>
        <time>2022-05-18T08:17:15Z</time>
      </trkpt>
      <trkpt lat="43.60646" lon="3.42876">
        <ele>136.2</ele>
        <time>2022-05-18T08:17:16Z</time>
      </trkpt>
      <trkpt lat="43.60653" lon="3.42871">
        <ele>136.2</ele>
        <time>2022-05-18T08:17:19Z</time>
      </trkpt>
      <trkpt lat="43.60662" lon="3.42867">
        <ele>136.4</ele>
        <time>2022-05-18T08:17:23Z</time>
      </trkpt>
      <trkpt lat="43.60668" lon="3.42866">
        <ele>136.8</ele>
        <time>2022-05-18T08:17:26Z</time>
      </trkpt>
      <trkpt lat="43.60671" lon="3.42865">
        <ele>137.4</ele>
        <time>2022-05-18T08:17:28Z</time>
      </trkpt>
      <trkpt lat="43.60678" lon="3.42865">
        <ele>138.4</ele>
        <time>2022-05-18T08:17:32Z</time>
      </trkpt>
      <trkpt lat="43.60683" lon="3.42867">
        <ele>139.2</ele>
        <time>2022-05-18T08:17:35Z</time>
      </trkpt>
      <trkpt lat="43.60686" lon="3.42867">
        <ele>139.6</ele>
        <time>2022-05-18T08:17:36Z</time>
      </trkpt>
      <trkpt lat="43.6069" lon="3.42867">
        <ele>140</ele>
        <time>2022-05-18T08:17:38Z</time>
      </trkpt>
      <trkpt lat="43.60697" lon="3.42865">
        <ele>140.6</ele>
        <time>2022-05-18T08:17:43Z</time>
      </trkpt>
      <trkpt lat="43.60701" lon="3.42864">
        <ele>140.8</ele>
        <time>2022-05-18T08:17:45Z</time>
      </trkpt>
      <trkpt lat="43.6071" lon="3.42864">
        <ele>141.2</ele>
        <time>2022-05-18T08:17:51Z</time>
      </trkpt>
      <trkpt lat="43.60714" lon="3.42861">
        <ele>141.8</ele>
        <time>2022-05-18T08:17:54Z</time>
      </trkpt>
      <trkpt lat="43.6072" lon="3.42858">
        <ele>142.4</ele>
        <time>2022-05-18T08:17:58Z</time>
      </trkpt>
      <trkpt lat="43.60722" lon="3.42857">
        <ele>142.8</ele>
        <time>2022-05-18T08:18:00Z</time>
      </trkpt>
      <trkpt lat="43.60734" lon="3.42853">
        <ele>143.8</ele>
        <time>2022-05-18T08:18:08Z</time>
      </trkpt>
      <trkpt lat="43.60735" lon="3.42852">
        <ele>143.8</ele>
        <time>2022-05-18T08:18:09Z</time>
      </trkpt>
      <trkpt lat="43.60739" lon="3.42849">
        <ele>144</ele>
        <time>2022-05-18T08:18:12Z</time>
      </trkpt>
      <trkpt lat="43.60744" lon="3.42843">
        <ele>144.6</ele>
        <time>2022-05-18T08:18:16Z</time>
      </trkpt>
      <trkpt lat="43.60747" lon="3.4284">
        <ele>145</ele>
        <time>2022-05-18T08:18:18Z</time>
      </trkpt>
      <trkpt lat="43.60758" lon="3.42829">
        <ele>146</ele>
        <time>2022-05-18T08:18:26Z</time>
      </trkpt>
      <trkpt lat="43.6077" lon="3.42816">
        <ele>146.8</ele>
        <time>2022-05-18T08:18:35Z</time>
      </trkpt>
      <trkpt lat="43.60772" lon="3.42813">
        <ele>147</ele>
        <time>2022-05-18T08:18:37Z</time>
      </trkpt>
      <trkpt lat="43.6078" lon="3.428">
        <ele>148</ele>
        <time>2022-05-18T08:18:45Z</time>
      </trkpt>
      <trkpt lat="43.6078" lon="3.42798">
        <ele>148</ele>
        <time>2022-05-18T08:18:46Z</time>
      </trkpt>
      <trkpt lat="43.60785" lon="3.42788">
        <ele>149.2</ele>
        <time>2022-05-18T08:18:52Z</time>
      </trkpt>
      <trkpt lat="43.60787" lon="3.42786">
        <ele>149.4</ele>
        <time>2022-05-18T08:18:53Z</time>
      </trkpt>
      <trkpt lat="43.60792" lon="3.42778">
        <ele>150.2</ele>
        <time>2022-05-18T08:18:58Z</time>
      </trkpt>
      <trkpt lat="43.60796" lon="3.42774">
        <ele>150.8</ele>
        <time>2022-05-18T08:19:01Z</time>
      </trkpt>
      <trkpt lat="43.608" lon="3.4277">
        <ele>151.4</ele>
        <time>2022-05-18T08:19:04Z</time>
      </trkpt>
      <trkpt lat="43.60806" lon="3.42765">
        <ele>152</ele>
        <time>2022-05-18T08:19:08Z</time>
      </trkpt>
      <trkpt lat="43.6081" lon="3.42761">
        <ele>152.2</ele>
        <time>2022-05-18T08:19:10Z</time>
      </trkpt>
      <trkpt lat="43.60817" lon="3.42754">
        <ele>152.6</ele>
        <time>2022-05-18T08:19:14Z</time>
      </trkpt>
      <trkpt lat="43.60824" lon="3.42746">
        <ele>152.6</ele>
        <time>2022-05-18T08:19:18Z</time>
      </trkpt>
      <trkpt lat="43.60831" lon="3.42731">
        <ele>153.2</ele>
        <time>2022-05-18T08:19:25Z</time>
      </trkpt>
      <trkpt lat="43.60836" lon="3.42721">
        <ele>153.6</ele>
        <time>2022-05-18T08:19:30Z</time>
      </trkpt>
      <trkpt lat="43.6084" lon="3.42713">
        <ele>153.8</ele>
        <time>2022-05-18T08:19:33Z</time>
      </trkpt>
      <trkpt lat="43.60847" lon="3.42689">
        <ele>154</ele>
        <time>2022-05-18T08:19:38Z</time>
      </trkpt>
      <trkpt lat="43.60849" lon="3.42682">
        <ele>153.8</ele>
        <time>2022-05-18T08:19:39Z</time>
      </trkpt>
      <trkpt lat="43.60856" lon="3.42656">
        <ele>153.2</ele>
        <time>2022-05-18T08:19:43Z</time>
      </trkpt>
      <trkpt lat="43.60859" lon="3.42643">
        <ele>152.6</ele>
        <time>2022-05-18T08:19:46Z</time>
      </trkpt>
      <trkpt lat="43.60861" lon="3.42635">
        <ele>152</ele>
        <time>2022-05-18T08:19:48Z</time>
      </trkpt>
      <trkpt lat="43.60865" lon="3.42624">
        <ele>151.6</ele>
        <time>2022-05-18T08:19:51Z</time>
      </trkpt>
      <trkpt lat="43.60872" lon="3.42609">
        <ele>151.4</ele>
        <time>2022-05-18T08:19:55Z</time>
      </trkpt>
      <trkpt lat="43.60876" lon="3.42606">
        <ele>151.2</ele>
        <time>2022-05-18T08:19:56Z</time>
      </trkpt>
      <trkpt lat="43.60884" lon="3.42601">
        <ele>151</ele>
        <time>2022-05-18T08:19:58Z</time>
      </trkpt>
      <trkpt lat="43.60889" lon="3.426">
        <ele>150.8</ele>
        <time>2022-05-18T08:19:59Z</time>
      </trkpt>
      <trkpt lat="43.60894" lon="3.426">
        <ele>150.8</ele>
        <time>2022-05-18T08:20:00Z</time>
      </trkpt>
      <trkpt lat="43.60899" lon="3.426">
        <ele>150.4</ele>
        <time>2022-05-18T08:20:01Z</time>
      </trkpt>
      <trkpt lat="43.60904" lon="3.42601">
        <ele>150.4</ele>
        <time>2022-05-18T08:20:02Z</time>
      </trkpt>
      <trkpt lat="43.60908" lon="3.426">
        <ele>150</ele>
        <time>2022-05-18T08:20:03Z</time>
      </trkpt>
      <trkpt lat="43.60916" lon="3.42601">
        <ele>149.6</ele>
        <time>2022-05-18T08:20:05Z</time>
      </trkpt>
      <trkpt lat="43.60919" lon="3.426">
        <ele>149.2</ele>
        <time>2022-05-18T08:20:06Z</time>
      </trkpt>
      <trkpt lat="43.60932" lon="3.42592">
        <ele>148.2</ele>
        <time>2022-05-18T08:20:11Z</time>
      </trkpt>
      <trkpt lat="43.60937" lon="3.42588">
        <ele>148</ele>
        <time>2022-05-18T08:20:13Z</time>
      </trkpt>
      <trkpt lat="43.60952" lon="3.42573">
        <ele>147.8</ele>
        <time>2022-05-18T08:20:21Z</time>
      </trkpt>
      <trkpt lat="43.60963" lon="3.42563">
        <ele>148.6</ele>
        <time>2022-05-18T08:20:27Z</time>
      </trkpt>
      <trkpt lat="43.60969" lon="3.42558">
        <ele>149.4</ele>
        <time>2022-05-18T08:20:30Z</time>
      </trkpt>
      <trkpt lat="43.60983" lon="3.42545">
        <ele>150.4</ele>
        <time>2022-05-18T08:20:37Z</time>
      </trkpt>
      <trkpt lat="43.60985" lon="3.42543">
        <ele>150.4</ele>
        <time>2022-05-18T08:20:38Z</time>
      </trkpt>
      <trkpt lat="43.60996" lon="3.42528">
        <ele>151.2</ele>
        <time>2022-05-18T08:20:45Z</time>
      </trkpt>
      <trkpt lat="43.61001" lon="3.42523">
        <ele>151.4</ele>
        <time>2022-05-18T08:20:48Z</time>
      </trkpt>
      <trkpt lat="43.61011" lon="3.42516">
        <ele>152</ele>
        <time>2022-05-18T08:20:53Z</time>
      </trkpt>
      <trkpt lat="43.61015" lon="3.42513">
        <ele>152.4</ele>
        <time>2022-05-18T08:20:55Z</time>
      </trkpt>
      <trkpt lat="43.61018" lon="3.4251">
        <ele>152.6</ele>
        <time>2022-05-18T08:20:57Z</time>
      </trkpt>
      <trkpt lat="43.6103" lon="3.42502">
        <ele>153</ele>
        <time>2022-05-18T08:21:03Z</time>
      </trkpt>
      <trkpt lat="43.61036" lon="3.42498">
        <ele>153.4</ele>
        <time>2022-05-18T08:21:06Z</time>
      </trkpt>
      <trkpt lat="43.61049" lon="3.42486">
        <ele>154.4</ele>
        <time>2022-05-18T08:21:14Z</time>
      </trkpt>
      <trkpt lat="43.61051" lon="3.42484">
        <ele>154.6</ele>
        <time>2022-05-18T08:21:15Z</time>
      </trkpt>
      <trkpt lat="43.61062" lon="3.42467">
        <ele>155.6</ele>
        <time>2022-05-18T08:21:23Z</time>
      </trkpt>
      <trkpt lat="43.61069" lon="3.42453">
        <ele>156.6</ele>
        <time>2022-05-18T08:21:29Z</time>
      </trkpt>
      <trkpt lat="43.61073" lon="3.42443">
        <ele>157.2</ele>
        <time>2022-05-18T08:21:33Z</time>
      </trkpt>
      <trkpt lat="43.61076" lon="3.42435">
        <ele>157.6</ele>
        <time>2022-05-18T08:21:36Z</time>
      </trkpt>
      <trkpt lat="43.61082" lon="3.42421">
        <ele>158.6</ele>
        <time>2022-05-18T08:21:42Z</time>
      </trkpt>
      <trkpt lat="43.61082" lon="3.42419">
        <ele>158.8</ele>
        <time>2022-05-18T08:21:43Z</time>
      </trkpt>
      <trkpt lat="43.61089" lon="3.42401">
        <ele>159.8</ele>
        <time>2022-05-18T08:21:50Z</time>
      </trkpt>
      <trkpt lat="43.61094" lon="3.42386">
        <ele>160.8</ele>
        <time>2022-05-18T08:21:56Z</time>
      </trkpt>
      <trkpt lat="43.61098" lon="3.42379">
        <ele>161.4</ele>
        <time>2022-05-18T08:21:59Z</time>
      </trkpt>
      <trkpt lat="43.61103" lon="3.42368">
        <ele>162</ele>
        <time>2022-05-18T08:22:04Z</time>
      </trkpt>
      <trkpt lat="43.61106" lon="3.42361">
        <ele>162.2</ele>
        <time>2022-05-18T08:22:07Z</time>
      </trkpt>
      <trkpt lat="43.61111" lon="3.4235">
        <ele>163</ele>
        <time>2022-05-18T08:22:12Z</time>
      </trkpt>
      <trkpt lat="43.61114" lon="3.42341">
        <ele>163.4</ele>
        <time>2022-05-18T08:22:16Z</time>
      </trkpt>
      <trkpt lat="43.61117" lon="3.42331">
        <ele>164</ele>
        <time>2022-05-18T08:22:20Z</time>
      </trkpt>
      <trkpt lat="43.61122" lon="3.42319">
        <ele>165</ele>
        <time>2022-05-18T08:22:25Z</time>
      </trkpt>
      <trkpt lat="43.61123" lon="3.42314">
        <ele>165.2</ele>
        <time>2022-05-18T08:22:27Z</time>
      </trkpt>
      <trkpt lat="43.61128" lon="3.42301">
        <ele>166.2</ele>
        <time>2022-05-18T08:22:33Z</time>
      </trkpt>
      <trkpt lat="43.6113" lon="3.42296">
        <ele>166.4</ele>
        <time>2022-05-18T08:22:35Z</time>
      </trkpt>
      <trkpt lat="43.61133" lon="3.42284">
        <ele>167.4</ele>
        <time>2022-05-18T08:22:40Z</time>
      </trkpt>
      <trkpt lat="43.61136" lon="3.42275">
        <ele>168.2</ele>
        <time>2022-05-18T08:22:44Z</time>
      </trkpt>
      <trkpt lat="43.61138" lon="3.4227">
        <ele>168.6</ele>
        <time>2022-05-18T08:22:46Z</time>
      </trkpt>
      <trkpt lat="43.61143" lon="3.42256">
        <ele>169.8</ele>
        <time>2022-05-18T08:22:53Z</time>
      </trkpt>
      <trkpt lat="43.61148" lon="3.42244">
        <ele>170.8</ele>
        <time>2022-05-18T08:22:59Z</time>
      </trkpt>
      <trkpt lat="43.61152" lon="3.42236">
        <ele>171.4</ele>
        <time>2022-05-18T08:23:03Z</time>
      </trkpt>
      <trkpt lat="43.61155" lon="3.42231">
        <ele>172</ele>
        <time>2022-05-18T08:23:06Z</time>
      </trkpt>
      <trkpt lat="43.61158" lon="3.42223">
        <ele>173</ele>
        <time>2022-05-18T08:23:10Z</time>
      </trkpt>
      <trkpt lat="43.6116" lon="3.4222">
        <ele>173.6</ele>
        <time>2022-05-18T08:23:12Z</time>
      </trkpt>
      <trkpt lat="43.61163" lon="3.42215">
        <ele>173.8</ele>
        <time>2022-05-18T08:23:15Z</time>
      </trkpt>
      <trkpt lat="43.61171" lon="3.42205">
        <ele>174.8</ele>
        <time>2022-05-18T08:23:21Z</time>
      </trkpt>
      <trkpt lat="43.61178" lon="3.42191">
        <ele>176.2</ele>
        <time>2022-05-18T08:23:28Z</time>
      </trkpt>
      <trkpt lat="43.61179" lon="3.42189">
        <ele>176.4</ele>
        <time>2022-05-18T08:23:29Z</time>
      </trkpt>
      <trkpt lat="43.61182" lon="3.42179">
        <ele>177.4</ele>
        <time>2022-05-18T08:23:33Z</time>
      </trkpt>
      <trkpt lat="43.61183" lon="3.42168">
        <ele>178.2</ele>
        <time>2022-05-18T08:23:37Z</time>
      </trkpt>
      <trkpt lat="43.61183" lon="3.42166">
        <ele>178.4</ele>
        <time>2022-05-18T08:23:38Z</time>
      </trkpt>
      <trkpt lat="43.61187" lon="3.42153">
        <ele>179.8</ele>
        <time>2022-05-18T08:23:43Z</time>
      </trkpt>
      <trkpt lat="43.61189" lon="3.42146">
        <ele>180</ele>
        <time>2022-05-18T08:23:46Z</time>
      </trkpt>
      <trkpt lat="43.61192" lon="3.42136">
        <ele>180.8</ele>
        <time>2022-05-18T08:23:50Z</time>
      </trkpt>
      <trkpt lat="43.61194" lon="3.42126">
        <ele>181.6</ele>
        <time>2022-05-18T08:23:54Z</time>
      </trkpt>
      <trkpt lat="43.61195" lon="3.42124">
        <ele>181.8</ele>
        <time>2022-05-18T08:23:55Z</time>
      </trkpt>
      <trkpt lat="43.61196" lon="3.42114">
        <ele>183</ele>
        <time>2022-05-18T08:23:59Z</time>
      </trkpt>
      <trkpt lat="43.61198" lon="3.42104">
        <ele>183.8</ele>
        <time>2022-05-18T08:24:03Z</time>
      </trkpt>
      <trkpt lat="43.61199" lon="3.42101">
        <ele>184.2</ele>
        <time>2022-05-18T08:24:04Z</time>
      </trkpt>
      <trkpt lat="43.61201" lon="3.42089">
        <ele>185.2</ele>
        <time>2022-05-18T08:24:09Z</time>
      </trkpt>
      <trkpt lat="43.61202" lon="3.4208">
        <ele>186.2</ele>
        <time>2022-05-18T08:24:13Z</time>
      </trkpt>
      <trkpt lat="43.61206" lon="3.42068">
        <ele>187.4</ele>
        <time>2022-05-18T08:24:18Z</time>
      </trkpt>
      <trkpt lat="43.61208" lon="3.42061">
        <ele>188.2</ele>
        <time>2022-05-18T08:24:21Z</time>
      </trkpt>
      <trkpt lat="43.61208" lon="3.42059">
        <ele>188.6</ele>
        <time>2022-05-18T08:24:22Z</time>
      </trkpt>
      <trkpt lat="43.61212" lon="3.42048">
        <ele>189.6</ele>
        <time>2022-05-18T08:24:27Z</time>
      </trkpt>
      <trkpt lat="43.61214" lon="3.42038">
        <ele>191</ele>
        <time>2022-05-18T08:24:31Z</time>
      </trkpt>
      <trkpt lat="43.61217" lon="3.42027">
        <ele>192.2</ele>
        <time>2022-05-18T08:24:36Z</time>
      </trkpt>
      <trkpt lat="43.61217" lon="3.42025">
        <ele>192.4</ele>
        <time>2022-05-18T08:24:37Z</time>
      </trkpt>
      <trkpt lat="43.61216" lon="3.42022">
        <ele>192.6</ele>
        <time>2022-05-18T08:24:38Z</time>
      </trkpt>
      <trkpt lat="43.61217" lon="3.42018">
        <ele>193.2</ele>
        <time>2022-05-18T08:24:40Z</time>
      </trkpt>
      <trkpt lat="43.61218" lon="3.42008">
        <ele>194.6</ele>
        <time>2022-05-18T08:24:44Z</time>
      </trkpt>
      <trkpt lat="43.61218" lon="3.42006">
        <ele>194.8</ele>
        <time>2022-05-18T08:24:45Z</time>
      </trkpt>
      <trkpt lat="43.61217" lon="3.41999">
        <ele>195.8</ele>
        <time>2022-05-18T08:24:48Z</time>
      </trkpt>
      <trkpt lat="43.61217" lon="3.4199">
        <ele>197</ele>
        <time>2022-05-18T08:24:52Z</time>
      </trkpt>
      <trkpt lat="43.61216" lon="3.41983">
        <ele>197.8</ele>
        <time>2022-05-18T08:24:55Z</time>
      </trkpt>
      <trkpt lat="43.61215" lon="3.41981">
        <ele>198.2</ele>
        <time>2022-05-18T08:24:56Z</time>
      </trkpt>
      <trkpt lat="43.61213" lon="3.41979">
        <ele>198.6</ele>
        <time>2022-05-18T08:24:58Z</time>
      </trkpt>
      <trkpt lat="43.61208" lon="3.41974">
        <ele>199.2</ele>
        <time>2022-05-18T08:25:02Z</time>
      </trkpt>
      <trkpt lat="43.61204" lon="3.41971">
        <ele>200</ele>
        <time>2022-05-18T08:25:05Z</time>
      </trkpt>
      <trkpt lat="43.61201" lon="3.41969">
        <ele>200.2</ele>
        <time>2022-05-18T08:25:07Z</time>
      </trkpt>
      <trkpt lat="43.61198" lon="3.41967">
        <ele>201</ele>
        <time>2022-05-18T08:25:12Z</time>
      </trkpt>
      <trkpt lat="43.61198" lon="3.41967">
        <ele>201.4</ele>
        <time>2022-05-18T08:25:20Z</time>
      </trkpt>
      <trkpt lat="43.61198" lon="3.41967">
        <ele>201</ele>
        <time>2022-05-18T08:25:31Z</time>
      </trkpt>
      <trkpt lat="43.61198" lon="3.41967">
        <ele>201.6</ele>
        <time>2022-05-18T08:26:15Z</time>
      </trkpt>
      <trkpt lat="43.61198" lon="3.41967">
        <ele>201.2</ele>
        <time>2022-05-18T08:27:05Z</time>
      </trkpt>
      <trkpt lat="43.61198" lon="3.41967">
        <ele>201.2</ele>
        <time>2022-05-18T08:27:39Z</time>
      </trkpt>
      <trkpt lat="43.61198" lon="3.41967">
        <ele>201.2</ele>
        <time>2022-05-18T08:28:17Z</time>
      </trkpt>
      <trkpt lat="43.61198" lon="3.41967">
        <ele>201.2</ele>
        <time>2022-05-18T08:28:53Z</time>
      </trkpt>
      <trkpt lat="43.61198" lon="3.41967">
        <ele>201.6</ele>
        <time>2022-05-18T08:29:28Z</time>
      </trkpt>
      <trkpt lat="43.61198" lon="3.41967">
        <ele>202.4</ele>
        <time>2022-05-18T08:29:47Z</time>
      </trkpt>
      <trkpt lat="43.61192" lon="3.41965">
        <ele>202.6</ele>
        <time>2022-05-18T08:29:52Z</time>
      </trkpt>
      <trkpt lat="43.61181" lon="3.41956">
        <ele>202.6</ele>
        <time>2022-05-18T08:29:56Z</time>
      </trkpt>
      <trkpt lat="43.61179" lon="3.41952">
        <ele>202.6</ele>
        <time>2022-05-18T08:29:57Z</time>
      </trkpt>
      <trkpt lat="43.61178" lon="3.41942">
        <ele>202.2</ele>
        <time>2022-05-18T08:29:59Z</time>
      </trkpt>
      <trkpt lat="43.61173" lon="3.41914">
        <ele>201.4</ele>
        <time>2022-05-18T08:30:04Z</time>
      </trkpt>
      <trkpt lat="43.61172" lon="3.41907">
        <ele>201.2</ele>
        <time>2022-05-18T08:30:05Z</time>
      </trkpt>
      <trkpt lat="43.61164" lon="3.41891">
        <ele>200.6</ele>
        <time>2022-05-18T08:30:08Z</time>
      </trkpt>
      <trkpt lat="43.61153" lon="3.41885">
        <ele>200</ele>
        <time>2022-05-18T08:30:11Z</time>
      </trkpt>
      <trkpt lat="43.61151" lon="3.41883">
        <ele>200</ele>
        <time>2022-05-18T08:30:12Z</time>
      </trkpt>
      <trkpt lat="43.61142" lon="3.41876">
        <ele>200</ele>
        <time>2022-05-18T08:30:17Z</time>
      </trkpt>
      <trkpt lat="43.6114" lon="3.41872">
        <ele>200</ele>
        <time>2022-05-18T08:30:19Z</time>
      </trkpt>
      <trkpt lat="43.61139" lon="3.41867">
        <ele>200</ele>
        <time>2022-05-18T08:30:21Z</time>
      </trkpt>
      <trkpt lat="43.61139" lon="3.41865">
        <ele>200.2</ele>
        <time>2022-05-18T08:30:22Z</time>
      </trkpt>
      <trkpt lat="43.61143" lon="3.41851">
        <ele>201.2</ele>
        <time>2022-05-18T08:30:28Z</time>
      </trkpt>
      <trkpt lat="43.61146" lon="3.41843">
        <ele>202.4</ele>
        <time>2022-05-18T08:30:32Z</time>
      </trkpt>
      <trkpt lat="43.61148" lon="3.41835">
        <ele>203.4</ele>
        <time>2022-05-18T08:30:36Z</time>
      </trkpt>
      <trkpt lat="43.61151" lon="3.41826">
        <ele>204.4</ele>
        <time>2022-05-18T08:30:42Z</time>
      </trkpt>
      <trkpt lat="43.61151" lon="3.41822">
        <ele>205</ele>
        <time>2022-05-18T08:30:44Z</time>
      </trkpt>
      <trkpt lat="43.61151" lon="3.41817">
        <ele>205.6</ele>
        <time>2022-05-18T08:30:46Z</time>
      </trkpt>
      <trkpt lat="43.61151" lon="3.41805">
        <ele>206.6</ele>
        <time>2022-05-18T08:30:51Z</time>
      </trkpt>
      <trkpt lat="43.61149" lon="3.41793">
        <ele>207.6</ele>
        <time>2022-05-18T08:30:57Z</time>
      </trkpt>
      <trkpt lat="43.61149" lon="3.41791">
        <ele>207.8</ele>
        <time>2022-05-18T08:30:58Z</time>
      </trkpt>
      <trkpt lat="43.61149" lon="3.41787">
        <ele>208.6</ele>
        <time>2022-05-18T08:31:00Z</time>
      </trkpt>
      <trkpt lat="43.61149" lon="3.41783">
        <ele>209.2</ele>
        <time>2022-05-18T08:31:02Z</time>
      </trkpt>
      <trkpt lat="43.6115" lon="3.41779">
        <ele>209.6</ele>
        <time>2022-05-18T08:31:04Z</time>
      </trkpt>
      <trkpt lat="43.6115" lon="3.41775">
        <ele>210.6</ele>
        <time>2022-05-18T08:31:06Z</time>
      </trkpt>
      <trkpt lat="43.6115" lon="3.41774">
        <ele>210.8</ele>
        <time>2022-05-18T08:31:07Z</time>
      </trkpt>
      <trkpt lat="43.6115" lon="3.41771">
        <ele>211</ele>
        <time>2022-05-18T08:31:08Z</time>
      </trkpt>
      <trkpt lat="43.61152" lon="3.41764">
        <ele>211.6</ele>
        <time>2022-05-18T08:31:12Z</time>
      </trkpt>
      <trkpt lat="43.61153" lon="3.41754">
        <ele>212.4</ele>
        <time>2022-05-18T08:31:17Z</time>
      </trkpt>
      <trkpt lat="43.61154" lon="3.41751">
        <ele>212.8</ele>
        <time>2022-05-18T08:31:19Z</time>
      </trkpt>
      <trkpt lat="43.61155" lon="3.41743">
        <ele>213.4</ele>
        <time>2022-05-18T08:31:23Z</time>
      </trkpt>
      <trkpt lat="43.61156" lon="3.41735">
        <ele>214</ele>
        <time>2022-05-18T08:31:27Z</time>
      </trkpt>
      <trkpt lat="43.61157" lon="3.41728">
        <ele>214.6</ele>
        <time>2022-05-18T08:31:31Z</time>
      </trkpt>
      <trkpt lat="43.61158" lon="3.41724">
        <ele>215</ele>
        <time>2022-05-18T08:31:33Z</time>
      </trkpt>
      <trkpt lat="43.6116" lon="3.41711">
        <ele>216</ele>
        <time>2022-05-18T08:31:40Z</time>
      </trkpt>
      <trkpt lat="43.6116" lon="3.41709">
        <ele>216.2</ele>
        <time>2022-05-18T08:31:41Z</time>
      </trkpt>
      <trkpt lat="43.61163" lon="3.41698">
        <ele>217.2</ele>
        <time>2022-05-18T08:31:47Z</time>
      </trkpt>
      <trkpt lat="43.61163" lon="3.41696">
        <ele>217.2</ele>
        <time>2022-05-18T08:31:48Z</time>
      </trkpt>
      <trkpt lat="43.61167" lon="3.41681">
        <ele>218.2</ele>
        <time>2022-05-18T08:31:55Z</time>
      </trkpt>
      <trkpt lat="43.61169" lon="3.41665">
        <ele>219.2</ele>
        <time>2022-05-18T08:32:02Z</time>
      </trkpt>
      <trkpt lat="43.6117" lon="3.41663">
        <ele>219.4</ele>
        <time>2022-05-18T08:32:04Z</time>
      </trkpt>
      <trkpt lat="43.61176" lon="3.41635">
        <ele>220</ele>
        <time>2022-05-18T08:32:16Z</time>
      </trkpt>
      <trkpt lat="43.61176" lon="3.41635">
        <ele>220</ele>
        <time>2022-05-18T08:32:17Z</time>
      </trkpt>
      <trkpt lat="43.6118" lon="3.41619">
        <ele>220.2</ele>
        <time>2022-05-18T08:32:22Z</time>
      </trkpt>
      <trkpt lat="43.61182" lon="3.41614">
        <ele>220.6</ele>
        <time>2022-05-18T08:32:25Z</time>
      </trkpt>
      <trkpt lat="43.61189" lon="3.41586">
        <ele>221.4</ele>
        <time>2022-05-18T08:32:33Z</time>
      </trkpt>
      <trkpt lat="43.61189" lon="3.41586">
        <ele>221.4</ele>
        <time>2022-05-18T08:32:34Z</time>
      </trkpt>
      <trkpt lat="43.61189" lon="3.41561">
        <ele>221.6</ele>
        <time>2022-05-18T08:32:41Z</time>
      </trkpt>
      <trkpt lat="43.61191" lon="3.4154">
        <ele>222.4</ele>
        <time>2022-05-18T08:32:49Z</time>
      </trkpt>
      <trkpt lat="43.61191" lon="3.41538">
        <ele>222.6</ele>
        <time>2022-05-18T08:32:50Z</time>
      </trkpt>
      <trkpt lat="43.61199" lon="3.41516">
        <ele>223.2</ele>
        <time>2022-05-18T08:32:58Z</time>
      </trkpt>
      <trkpt lat="43.61202" lon="3.41507">
        <ele>223.4</ele>
        <time>2022-05-18T08:33:01Z</time>
      </trkpt>
      <trkpt lat="43.61206" lon="3.4149">
        <ele>224</ele>
        <time>2022-05-18T08:33:07Z</time>
      </trkpt>
      <trkpt lat="43.61214" lon="3.41462">
        <ele>224.6</ele>
        <time>2022-05-18T08:33:17Z</time>
      </trkpt>
      <trkpt lat="43.61215" lon="3.41459">
        <ele>224.6</ele>
        <time>2022-05-18T08:33:19Z</time>
      </trkpt>
      <trkpt lat="43.61224" lon="3.41443">
        <ele>224.4</ele>
        <time>2022-05-18T08:33:27Z</time>
      </trkpt>
      <trkpt lat="43.61229" lon="3.41434">
        <ele>223.6</ele>
        <time>2022-05-18T08:33:34Z</time>
      </trkpt>
      <trkpt lat="43.61229" lon="3.41434">
        <ele>223.2</ele>
        <time>2022-05-18T08:33:36Z</time>
      </trkpt>
      <trkpt lat="43.61229" lon="3.41434">
        <ele>222.6</ele>
        <time>2022-05-18T08:33:54Z</time>
      </trkpt>
      <trkpt lat="43.61229" lon="3.41434">
        <ele>222.2</ele>
        <time>2022-05-18T08:34:02Z</time>
      </trkpt>
      <trkpt lat="43.61233" lon="3.4143">
        <ele>222.2</ele>
        <time>2022-05-18T08:34:04Z</time>
      </trkpt>
      <trkpt lat="43.61251" lon="3.41412">
        <ele>221.6</ele>
        <time>2022-05-18T08:34:10Z</time>
      </trkpt>
      <trkpt lat="43.61264" lon="3.41404">
        <ele>220.8</ele>
        <time>2022-05-18T08:34:13Z</time>
      </trkpt>
      <trkpt lat="43.61274" lon="3.41398">
        <ele>219</ele>
        <time>2022-05-18T08:34:16Z</time>
      </trkpt>
      <trkpt lat="43.61276" lon="3.41396">
        <ele>218</ele>
        <time>2022-05-18T08:34:17Z</time>
      </trkpt>
      <trkpt lat="43.61284" lon="3.41386">
        <ele>216.2</ele>
        <time>2022-05-18T08:34:20Z</time>
      </trkpt>
      <trkpt lat="43.61288" lon="3.41378">
        <ele>215.2</ele>
        <time>2022-05-18T08:34:22Z</time>
      </trkpt>
      <trkpt lat="43.6129" lon="3.41373">
        <ele>215</ele>
        <time>2022-05-18T08:34:23Z</time>
      </trkpt>
      <trkpt lat="43.61291" lon="3.41369">
        <ele>213.8</ele>
        <time>2022-05-18T08:34:24Z</time>
      </trkpt>
      <trkpt lat="43.61293" lon="3.41359">
        <ele>212.4</ele>
        <time>2022-05-18T08:34:26Z</time>
      </trkpt>
      <trkpt lat="43.61295" lon="3.41348">
        <ele>211.2</ele>
        <time>2022-05-18T08:34:28Z</time>
      </trkpt>
      <trkpt lat="43.61296" lon="3.41342">
        <ele>210.8</ele>
        <time>2022-05-18T08:34:29Z</time>
      </trkpt>
      <trkpt lat="43.61297" lon="3.41335">
        <ele>209.4</ele>
        <time>2022-05-18T08:34:31Z</time>
      </trkpt>
      <trkpt lat="43.61298" lon="3.41311">
        <ele>207</ele>
        <time>2022-05-18T08:34:33Z</time>
      </trkpt>
      <trkpt lat="43.61299" lon="3.41303">
        <ele>206.4</ele>
        <time>2022-05-18T08:34:34Z</time>
      </trkpt>
      <trkpt lat="43.61299" lon="3.41303">
        <ele>205.2</ele>
        <time>2022-05-18T08:34:35Z</time>
      </trkpt>
      <trkpt lat="43.61299" lon="3.41288">
        <ele>203.8</ele>
        <time>2022-05-18T08:34:37Z</time>
      </trkpt>
      <trkpt lat="43.613" lon="3.4127">
        <ele>202.4</ele>
        <time>2022-05-18T08:34:39Z</time>
      </trkpt>
      <trkpt lat="43.61299" lon="3.41265">
        <ele>201.8</ele>
        <time>2022-05-18T08:34:40Z</time>
      </trkpt>
      <trkpt lat="43.61299" lon="3.41261">
        <ele>201.2</ele>
        <time>2022-05-18T08:34:41Z</time>
      </trkpt>
      <trkpt lat="43.61299" lon="3.41256">
        <ele>200</ele>
        <time>2022-05-18T08:34:42Z</time>
      </trkpt>
      <trkpt lat="43.61297" lon="3.41249">
        <ele>198.2</ele>
        <time>2022-05-18T08:34:44Z</time>
      </trkpt>
      <trkpt lat="43.61296" lon="3.41245">
        <ele>197.8</ele>
        <time>2022-05-18T08:34:45Z</time>
      </trkpt>
      <trkpt lat="43.61296" lon="3.41241">
        <ele>197</ele>
        <time>2022-05-18T08:34:46Z</time>
      </trkpt>
      <trkpt lat="43.61293" lon="3.41233">
        <ele>195.6</ele>
        <time>2022-05-18T08:34:48Z</time>
      </trkpt>
      <trkpt lat="43.61291" lon="3.41223">
        <ele>194.6</ele>
        <time>2022-05-18T08:34:50Z</time>
      </trkpt>
      <trkpt lat="43.61291" lon="3.41223">
        <ele>194.4</ele>
        <time>2022-05-18T08:34:51Z</time>
      </trkpt>
      <trkpt lat="43.61288" lon="3.41212">
        <ele>193.4</ele>
        <time>2022-05-18T08:34:53Z</time>
      </trkpt>
      <trkpt lat="43.61284" lon="3.41204">
        <ele>192</ele>
        <time>2022-05-18T08:34:55Z</time>
      </trkpt>
      <trkpt lat="43.61279" lon="3.41197">
        <ele>190.6</ele>
        <time>2022-05-18T08:34:57Z</time>
      </trkpt>
      <trkpt lat="43.61276" lon="3.4119">
        <ele>189</ele>
        <time>2022-05-18T08:34:59Z</time>
      </trkpt>
      <trkpt lat="43.61275" lon="3.41185">
        <ele>187.6</ele>
        <time>2022-05-18T08:35:01Z</time>
      </trkpt>
      <trkpt lat="43.61274" lon="3.41184">
        <ele>187.2</ele>
        <time>2022-05-18T08:35:02Z</time>
      </trkpt>
      <trkpt lat="43.61274" lon="3.41183">
        <ele>186</ele>
        <time>2022-05-18T08:35:03Z</time>
      </trkpt>
      <trkpt lat="43.61274" lon="3.41183">
        <ele>184.6</ele>
        <time>2022-05-18T08:35:05Z</time>
      </trkpt>
      <trkpt lat="43.61274" lon="3.41183">
        <ele>183.6</ele>
        <time>2022-05-18T08:35:07Z</time>
      </trkpt>
      <trkpt lat="43.61274" lon="3.41183">
        <ele>183.2</ele>
        <time>2022-05-18T08:35:08Z</time>
      </trkpt>
      <trkpt lat="43.61274" lon="3.41183">
        <ele>182.6</ele>
        <time>2022-05-18T08:35:14Z</time>
      </trkpt>
      <trkpt lat="43.61274" lon="3.41183">
        <ele>182.6</ele>
        <time>2022-05-18T08:35:15Z</time>
      </trkpt>
      <trkpt lat="43.61274" lon="3.41183">
        <ele>182</ele>
        <time>2022-05-18T08:35:31Z</time>
      </trkpt>
      <trkpt lat="43.61273" lon="3.41178">
        <ele>182</ele>
        <time>2022-05-18T08:35:53Z</time>
      </trkpt>
      <trkpt lat="43.61273" lon="3.41171">
        <ele>182</ele>
        <time>2022-05-18T08:35:54Z</time>
      </trkpt>
      <trkpt lat="43.61274" lon="3.4116">
        <ele>181.6</ele>
        <time>2022-05-18T08:35:58Z</time>
      </trkpt>
      <trkpt lat="43.61275" lon="3.41145">
        <ele>181</ele>
        <time>2022-05-18T08:36:01Z</time>
      </trkpt>
      <trkpt lat="43.61277" lon="3.41133">
        <ele>179.8</ele>
        <time>2022-05-18T08:36:04Z</time>
      </trkpt>
      <trkpt lat="43.61278" lon="3.41128">
        <ele>179.4</ele>
        <time>2022-05-18T08:36:05Z</time>
      </trkpt>
      <trkpt lat="43.6128" lon="3.41123">
        <ele>178.6</ele>
        <time>2022-05-18T08:36:06Z</time>
      </trkpt>
      <trkpt lat="43.61287" lon="3.41102">
        <ele>177.2</ele>
        <time>2022-05-18T08:36:09Z</time>
      </trkpt>
      <trkpt lat="43.61287" lon="3.41102">
        <ele>176.8</ele>
        <time>2022-05-18T08:36:10Z</time>
      </trkpt>
      <trkpt lat="43.61292" lon="3.41086">
        <ele>176</ele>
        <time>2022-05-18T08:36:11Z</time>
      </trkpt>
      <trkpt lat="43.61295" lon="3.41073">
        <ele>173.6</ele>
        <time>2022-05-18T08:36:13Z</time>
      </trkpt>
      <trkpt lat="43.61297" lon="3.41068">
        <ele>173</ele>
        <time>2022-05-18T08:36:14Z</time>
      </trkpt>
      <trkpt lat="43.61299" lon="3.41062">
        <ele>171.8</ele>
        <time>2022-05-18T08:36:15Z</time>
      </trkpt>
      <trkpt lat="43.61302" lon="3.41053">
        <ele>170.8</ele>
        <time>2022-05-18T08:36:17Z</time>
      </trkpt>
      <trkpt lat="43.61307" lon="3.4104">
        <ele>169.2</ele>
        <time>2022-05-18T08:36:20Z</time>
      </trkpt>
      <trkpt lat="43.61309" lon="3.41037">
        <ele>167.6</ele>
        <time>2022-05-18T08:36:21Z</time>
      </trkpt>
      <trkpt lat="43.61312" lon="3.41036">
        <ele>166.2</ele>
        <time>2022-05-18T08:36:22Z</time>
      </trkpt>
      <trkpt lat="43.61314" lon="3.41036">
        <ele>165.8</ele>
        <time>2022-05-18T08:36:23Z</time>
      </trkpt>
      <trkpt lat="43.61315" lon="3.41035">
        <ele>165</ele>
        <time>2022-05-18T08:36:24Z</time>
      </trkpt>
      <trkpt lat="43.61319" lon="3.41034">
        <ele>163.8</ele>
        <time>2022-05-18T08:36:27Z</time>
      </trkpt>
      <trkpt lat="43.6132" lon="3.41034">
        <ele>163.4</ele>
        <time>2022-05-18T08:36:28Z</time>
      </trkpt>
      <trkpt lat="43.61322" lon="3.41032">
        <ele>162.8</ele>
        <time>2022-05-18T08:36:30Z</time>
      </trkpt>
      <trkpt lat="43.61322" lon="3.41032">
        <ele>162.2</ele>
        <time>2022-05-18T08:36:33Z</time>
      </trkpt>
      <trkpt lat="43.61322" lon="3.41032">
        <ele>161.8</ele>
        <time>2022-05-18T08:36:37Z</time>
      </trkpt>
      <trkpt lat="43.61322" lon="3.41032">
        <ele>161.4</ele>
        <time>2022-05-18T08:37:18Z</time>
      </trkpt>
      <trkpt lat="43.61322" lon="3.41032">
        <ele>161.2</ele>
        <time>2022-05-18T08:37:41Z</time>
      </trkpt>
      <trkpt lat="43.61322" lon="3.41032">
        <ele>161.6</ele>
        <time>2022-05-18T08:38:10Z</time>
      </trkpt>
      <trkpt lat="43.61332" lon="3.41033">
        <ele>161.4</ele>
        <time>2022-05-18T08:38:14Z</time>
      </trkpt>
      <trkpt lat="43.61345" lon="3.4103">
        <ele>160.6</ele>
        <time>2022-05-18T08:38:17Z</time>
      </trkpt>
      <trkpt lat="43.61356" lon="3.41025">
        <ele>160</ele>
        <time>2022-05-18T08:38:20Z</time>
      </trkpt>
      <trkpt lat="43.61377" lon="3.41008">
        <ele>159.6</ele>
        <time>2022-05-18T08:38:26Z</time>
      </trkpt>
      <trkpt lat="43.61398" lon="3.40997">
        <ele>158.8</ele>
        <time>2022-05-18T08:38:33Z</time>
      </trkpt>
      <trkpt lat="43.61413" lon="3.40989">
        <ele>158.6</ele>
        <time>2022-05-18T08:38:38Z</time>
      </trkpt>
      <trkpt lat="43.61416" lon="3.40987">
        <ele>158.6</ele>
        <time>2022-05-18T08:38:39Z</time>
      </trkpt>
      <trkpt lat="43.61423" lon="3.40986">
        <ele>158</ele>
        <time>2022-05-18T08:38:41Z</time>
      </trkpt>
      <trkpt lat="43.61429" lon="3.40984">
        <ele>157.2</ele>
        <time>2022-05-18T08:38:43Z</time>
      </trkpt>
      <trkpt lat="43.61434" lon="3.40982">
        <ele>156.8</ele>
        <time>2022-05-18T08:38:45Z</time>
      </trkpt>
      <trkpt lat="43.61436" lon="3.40975">
        <ele>156.4</ele>
        <time>2022-05-18T08:38:48Z</time>
      </trkpt>
      <trkpt lat="43.61436" lon="3.40973">
        <ele>156.2</ele>
        <time>2022-05-18T08:38:49Z</time>
      </trkpt>
      <trkpt lat="43.61435" lon="3.40969">
        <ele>156.2</ele>
        <time>2022-05-18T08:38:50Z</time>
      </trkpt>
      <trkpt lat="43.61426" lon="3.40954">
        <ele>155.2</ele>
        <time>2022-05-18T08:38:55Z</time>
      </trkpt>
      <trkpt lat="43.61425" lon="3.40951">
        <ele>155.2</ele>
        <time>2022-05-18T08:38:56Z</time>
      </trkpt>
      <trkpt lat="43.61427" lon="3.40941">
        <ele>154.4</ele>
        <time>2022-05-18T08:38:59Z</time>
      </trkpt>
      <trkpt lat="43.61428" lon="3.40938">
        <ele>154</ele>
        <time>2022-05-18T08:39:00Z</time>
      </trkpt>
      <trkpt lat="43.61433" lon="3.40926">
        <ele>153</ele>
        <time>2022-05-18T08:39:03Z</time>
      </trkpt>
      <trkpt lat="43.6144" lon="3.40908">
        <ele>152.2</ele>
        <time>2022-05-18T08:39:06Z</time>
      </trkpt>
      <trkpt lat="43.61446" lon="3.40892">
        <ele>152</ele>
        <time>2022-05-18T08:39:08Z</time>
      </trkpt>
      <trkpt lat="43.61456" lon="3.40868">
        <ele>151.2</ele>
        <time>2022-05-18T08:39:11Z</time>
      </trkpt>
      <trkpt lat="43.61459" lon="3.4086">
        <ele>151</ele>
        <time>2022-05-18T08:39:12Z</time>
      </trkpt>
      <trkpt lat="43.61468" lon="3.40836">
        <ele>149.6</ele>
        <time>2022-05-18T08:39:15Z</time>
      </trkpt>
      <trkpt lat="43.61473" lon="3.40824">
        <ele>148.2</ele>
        <time>2022-05-18T08:39:17Z</time>
      </trkpt>
      <trkpt lat="43.61474" lon="3.40821">
        <ele>147.6</ele>
        <time>2022-05-18T08:39:18Z</time>
      </trkpt>
      <trkpt lat="43.61475" lon="3.40818">
        <ele>146.8</ele>
        <time>2022-05-18T08:39:20Z</time>
      </trkpt>
      <trkpt lat="43.61475" lon="3.40818">
        <ele>146</ele>
        <time>2022-05-18T08:39:22Z</time>
      </trkpt>
      <trkpt lat="43.61475" lon="3.40818">
        <ele>145.4</ele>
        <time>2022-05-18T08:39:24Z</time>
      </trkpt>
      <trkpt lat="43.61475" lon="3.40818">
        <ele>144.4</ele>
        <time>2022-05-18T08:39:29Z</time>
      </trkpt>
      <trkpt lat="43.61478" lon="3.40818">
        <ele>144</ele>
        <time>2022-05-18T08:39:56Z</time>
      </trkpt>
      <trkpt lat="43.61488" lon="3.40824">
        <ele>144.2</ele>
        <time>2022-05-18T08:40:02Z</time>
      </trkpt>
      <trkpt lat="43.61502" lon="3.40834">
        <ele>145</ele>
        <time>2022-05-18T08:40:08Z</time>
      </trkpt>
      <trkpt lat="43.61521" lon="3.40847">
        <ele>145.6</ele>
        <time>2022-05-18T08:40:16Z</time>
      </trkpt>
      <trkpt lat="43.61542" lon="3.40861">
        <ele>146.6</ele>
        <time>2022-05-18T08:40:24Z</time>
      </trkpt>
      <trkpt lat="43.61562" lon="3.40874">
        <ele>147.8</ele>
        <time>2022-05-18T08:40:33Z</time>
      </trkpt>
      <trkpt lat="43.61567" lon="3.40878">
        <ele>148</ele>
        <time>2022-05-18T08:40:34Z</time>
      </trkpt>
      <trkpt lat="43.61588" lon="3.40891">
        <ele>149</ele>
        <time>2022-05-18T08:40:42Z</time>
      </trkpt>
      <trkpt lat="43.61596" lon="3.40896">
        <ele>149.2</ele>
        <time>2022-05-18T08:40:45Z</time>
      </trkpt>
      <trkpt lat="43.61617" lon="3.40909">
        <ele>150</ele>
        <time>2022-05-18T08:40:53Z</time>
      </trkpt>
      <trkpt lat="43.61625" lon="3.40914">
        <ele>150.2</ele>
        <time>2022-05-18T08:40:55Z</time>
      </trkpt>
      <trkpt lat="43.61633" lon="3.40919">
        <ele>151</ele>
        <time>2022-05-18T08:40:59Z</time>
      </trkpt>
      <trkpt lat="43.61655" lon="3.40934">
        <ele>152</ele>
        <time>2022-05-18T08:41:06Z</time>
      </trkpt>
      <trkpt lat="43.61658" lon="3.40935">
        <ele>152.2</ele>
        <time>2022-05-18T08:41:07Z</time>
      </trkpt>
      <trkpt lat="43.61682" lon="3.40951">
        <ele>153.2</ele>
        <time>2022-05-18T08:41:16Z</time>
      </trkpt>
      <trkpt lat="43.61685" lon="3.40953">
        <ele>153.6</ele>
        <time>2022-05-18T08:41:17Z</time>
      </trkpt>
      <trkpt lat="43.61702" lon="3.40962">
        <ele>154.6</ele>
        <time>2022-05-18T08:41:23Z</time>
      </trkpt>
      <trkpt lat="43.61714" lon="3.40972">
        <ele>155.4</ele>
        <time>2022-05-18T08:41:28Z</time>
      </trkpt>
      <trkpt lat="43.6172" lon="3.40975">
        <ele>155.6</ele>
        <time>2022-05-18T08:41:30Z</time>
      </trkpt>
      <trkpt lat="43.61741" lon="3.40988">
        <ele>156.6</ele>
        <time>2022-05-18T08:41:38Z</time>
      </trkpt>
      <trkpt lat="43.61744" lon="3.4099">
        <ele>156.8</ele>
        <time>2022-05-18T08:41:39Z</time>
      </trkpt>
      <trkpt lat="43.61765" lon="3.41004">
        <ele>157.6</ele>
        <time>2022-05-18T08:41:47Z</time>
      </trkpt>
      <trkpt lat="43.61767" lon="3.41005">
        <ele>157.8</ele>
        <time>2022-05-18T08:41:48Z</time>
      </trkpt>
      <trkpt lat="43.61793" lon="3.41021">
        <ele>158.8</ele>
        <time>2022-05-18T08:41:58Z</time>
      </trkpt>
      <trkpt lat="43.61816" lon="3.41034">
        <ele>160</ele>
        <time>2022-05-18T08:42:07Z</time>
      </trkpt>
      <trkpt lat="43.61821" lon="3.41038">
        <ele>160.2</ele>
        <time>2022-05-18T08:42:09Z</time>
      </trkpt>
      <trkpt lat="43.61836" lon="3.41047">
        <ele>161</ele>
        <time>2022-05-18T08:42:15Z</time>
      </trkpt>
      <trkpt lat="43.61843" lon="3.41051">
        <ele>161.4</ele>
        <time>2022-05-18T08:42:18Z</time>
      </trkpt>
      <trkpt lat="43.61851" lon="3.41056">
        <ele>162.2</ele>
        <time>2022-05-18T08:42:22Z</time>
      </trkpt>
      <trkpt lat="43.61861" lon="3.41064">
        <ele>163</ele>
        <time>2022-05-18T08:42:27Z</time>
      </trkpt>
      <trkpt lat="43.61867" lon="3.41068">
        <ele>163.2</ele>
        <time>2022-05-18T08:42:29Z</time>
      </trkpt>
      <trkpt lat="43.61884" lon="3.41079">
        <ele>164.2</ele>
        <time>2022-05-18T08:42:36Z</time>
      </trkpt>
      <trkpt lat="43.61889" lon="3.41082">
        <ele>164.4</ele>
        <time>2022-05-18T08:42:37Z</time>
      </trkpt>
      <trkpt lat="43.619" lon="3.41089">
        <ele>165.2</ele>
        <time>2022-05-18T08:42:42Z</time>
      </trkpt>
      <trkpt lat="43.61909" lon="3.41095">
        <ele>165.6</ele>
        <time>2022-05-18T08:42:44Z</time>
      </trkpt>
      <trkpt lat="43.61932" lon="3.41108">
        <ele>166.2</ele>
        <time>2022-05-18T08:42:51Z</time>
      </trkpt>
      <trkpt lat="43.6196" lon="3.41124">
        <ele>166.4</ele>
        <time>2022-05-18T08:42:58Z</time>
      </trkpt>
      <trkpt lat="43.61993" lon="3.41143">
        <ele>165.6</ele>
        <time>2022-05-18T08:43:05Z</time>
      </trkpt>
      <trkpt lat="43.62039" lon="3.41171">
        <ele>164.6</ele>
        <time>2022-05-18T08:43:13Z</time>
      </trkpt>
      <trkpt lat="43.62039" lon="3.41171">
        <ele>164.4</ele>
        <time>2022-05-18T08:43:14Z</time>
      </trkpt>
      <trkpt lat="43.62073" lon="3.41196">
        <ele>163.2</ele>
        <time>2022-05-18T08:43:19Z</time>
      </trkpt>
      <trkpt lat="43.62092" lon="3.41213">
        <ele>162.6</ele>
        <time>2022-05-18T08:43:22Z</time>
      </trkpt>
      <trkpt lat="43.62102" lon="3.41223">
        <ele>162.2</ele>
        <time>2022-05-18T08:43:24Z</time>
      </trkpt>
      <trkpt lat="43.62118" lon="3.41241">
        <ele>161.2</ele>
        <time>2022-05-18T08:43:27Z</time>
      </trkpt>
      <trkpt lat="43.62139" lon="3.41269">
        <ele>160.2</ele>
        <time>2022-05-18T08:43:31Z</time>
      </trkpt>
      <trkpt lat="43.62157" lon="3.41295">
        <ele>159.4</ele>
        <time>2022-05-18T08:43:35Z</time>
      </trkpt>
      <trkpt lat="43.62166" lon="3.41311">
        <ele>159</ele>
        <time>2022-05-18T08:43:37Z</time>
      </trkpt>
      <trkpt lat="43.62175" lon="3.41329">
        <ele>158.6</ele>
        <time>2022-05-18T08:43:39Z</time>
      </trkpt>
      <trkpt lat="43.62189" lon="3.41351">
        <ele>157.8</ele>
        <time>2022-05-18T08:43:42Z</time>
      </trkpt>
      <trkpt lat="43.62207" lon="3.41381">
        <ele>156.6</ele>
        <time>2022-05-18T08:43:46Z</time>
      </trkpt>
      <trkpt lat="43.62211" lon="3.41389">
        <ele>156</ele>
        <time>2022-05-18T08:43:47Z</time>
      </trkpt>
      <trkpt lat="43.62217" lon="3.41398">
        <ele>155.8</ele>
        <time>2022-05-18T08:43:48Z</time>
      </trkpt>
      <trkpt lat="43.62222" lon="3.41405">
        <ele>155.4</ele>
        <time>2022-05-18T08:43:49Z</time>
      </trkpt>
      <trkpt lat="43.62226" lon="3.41412">
        <ele>155.2</ele>
        <time>2022-05-18T08:43:50Z</time>
      </trkpt>
      <trkpt lat="43.62235" lon="3.41425">
        <ele>155</ele>
        <time>2022-05-18T08:43:52Z</time>
      </trkpt>
      <trkpt lat="43.62252" lon="3.41455">
        <ele>154.4</ele>
        <time>2022-05-18T08:43:56Z</time>
      </trkpt>
      <trkpt lat="43.62269" lon="3.41487">
        <ele>153.2</ele>
        <time>2022-05-18T08:44:00Z</time>
      </trkpt>
      <trkpt lat="43.62269" lon="3.41487">
        <ele>153</ele>
        <time>2022-05-18T08:44:01Z</time>
      </trkpt>
      <trkpt lat="43.62282" lon="3.41513">
        <ele>152.2</ele>
        <time>2022-05-18T08:44:03Z</time>
      </trkpt>
      <trkpt lat="43.62299" lon="3.41546">
        <ele>151</ele>
        <time>2022-05-18T08:44:07Z</time>
      </trkpt>
      <trkpt lat="43.62303" lon="3.41554">
        <ele>150.6</ele>
        <time>2022-05-18T08:44:08Z</time>
      </trkpt>
      <trkpt lat="43.62313" lon="3.41569">
        <ele>150</ele>
        <time>2022-05-18T08:44:10Z</time>
      </trkpt>
      <trkpt lat="43.62326" lon="3.41591">
        <ele>149</ele>
        <time>2022-05-18T08:44:13Z</time>
      </trkpt>
      <trkpt lat="43.62335" lon="3.41608">
        <ele>148.4</ele>
        <time>2022-05-18T08:44:15Z</time>
      </trkpt>
      <trkpt lat="43.62339" lon="3.41616">
        <ele>148</ele>
        <time>2022-05-18T08:44:16Z</time>
      </trkpt>
      <trkpt lat="43.62342" lon="3.41624">
        <ele>147.8</ele>
        <time>2022-05-18T08:44:17Z</time>
      </trkpt>
      <trkpt lat="43.62344" lon="3.41631">
        <ele>147.4</ele>
        <time>2022-05-18T08:44:18Z</time>
      </trkpt>
      <trkpt lat="43.62344" lon="3.41631">
        <ele>147.4</ele>
        <time>2022-05-18T08:44:19Z</time>
      </trkpt>
      <trkpt lat="43.6235" lon="3.41653">
        <ele>146.8</ele>
        <time>2022-05-18T08:44:21Z</time>
      </trkpt>
      <trkpt lat="43.6235" lon="3.41653">
        <ele>146.6</ele>
        <time>2022-05-18T08:44:22Z</time>
      </trkpt>
      <trkpt lat="43.62351" lon="3.41664">
        <ele>146.2</ele>
        <time>2022-05-18T08:44:23Z</time>
      </trkpt>
      <trkpt lat="43.62351" lon="3.41671">
        <ele>145.4</ele>
        <time>2022-05-18T08:44:25Z</time>
      </trkpt>
      <trkpt lat="43.62354" lon="3.41679">
        <ele>144.8</ele>
        <time>2022-05-18T08:44:26Z</time>
      </trkpt>
      <trkpt lat="43.62356" lon="3.41681">
        <ele>144.6</ele>
        <time>2022-05-18T08:44:27Z</time>
      </trkpt>
      <trkpt lat="43.62356" lon="3.41681">
        <ele>144</ele>
        <time>2022-05-18T08:44:28Z</time>
      </trkpt>
      <trkpt lat="43.6236" lon="3.4168">
        <ele>143.8</ele>
        <time>2022-05-18T08:44:29Z</time>
      </trkpt>
      <trkpt lat="43.62363" lon="3.41677">
        <ele>143.4</ele>
        <time>2022-05-18T08:44:31Z</time>
      </trkpt>
      <trkpt lat="43.62365" lon="3.41676">
        <ele>143</ele>
        <time>2022-05-18T08:44:32Z</time>
      </trkpt>
      <trkpt lat="43.62374" lon="3.4168">
        <ele>142.6</ele>
        <time>2022-05-18T08:44:36Z</time>
      </trkpt>
      <trkpt lat="43.62387" lon="3.41697">
        <ele>142.4</ele>
        <time>2022-05-18T08:44:43Z</time>
      </trkpt>
      <trkpt lat="43.62388" lon="3.41699">
        <ele>142.4</ele>
        <time>2022-05-18T08:44:44Z</time>
      </trkpt>
      <trkpt lat="43.6239" lon="3.41705">
        <ele>142.2</ele>
        <time>2022-05-18T08:44:47Z</time>
      </trkpt>
      <trkpt lat="43.6239" lon="3.41705">
        <ele>142</ele>
        <time>2022-05-18T08:44:49Z</time>
      </trkpt>
      <trkpt lat="43.6239" lon="3.41705">
        <ele>141.2</ele>
        <time>2022-05-18T08:44:58Z</time>
      </trkpt>
      <trkpt lat="43.62394" lon="3.41712">
        <ele>141</ele>
        <time>2022-05-18T08:45:17Z</time>
      </trkpt>
      <trkpt lat="43.62406" lon="3.41735">
        <ele>141.2</ele>
        <time>2022-05-18T08:45:22Z</time>
      </trkpt>
      <trkpt lat="43.62429" lon="3.41778">
        <ele>141</ele>
        <time>2022-05-18T08:45:29Z</time>
      </trkpt>
      <trkpt lat="43.62446" lon="3.41828">
        <ele>139.8</ele>
        <time>2022-05-18T08:45:36Z</time>
      </trkpt>
      <trkpt lat="43.62448" lon="3.41835">
        <ele>139.8</ele>
        <time>2022-05-18T08:45:37Z</time>
      </trkpt>
      <trkpt lat="43.62459" lon="3.41882">
        <ele>139</ele>
        <time>2022-05-18T08:45:43Z</time>
      </trkpt>
      <trkpt lat="43.6246" lon="3.41889">
        <ele>138.8</ele>
        <time>2022-05-18T08:45:44Z</time>
      </trkpt>
      <trkpt lat="43.62464" lon="3.41917">
        <ele>138.4</ele>
        <time>2022-05-18T08:45:47Z</time>
      </trkpt>
      <trkpt lat="43.62464" lon="3.41926">
        <ele>138.2</ele>
        <time>2022-05-18T08:45:48Z</time>
      </trkpt>
      <trkpt lat="43.62465" lon="3.41944">
        <ele>137.8</ele>
        <time>2022-05-18T08:45:50Z</time>
      </trkpt>
      <trkpt lat="43.62467" lon="3.41964">
        <ele>137.6</ele>
        <time>2022-05-18T08:45:52Z</time>
      </trkpt>
      <trkpt lat="43.62469" lon="3.41981">
        <ele>137</ele>
        <time>2022-05-18T08:45:54Z</time>
      </trkpt>
      <trkpt lat="43.6247" lon="3.41987">
        <ele>136.8</ele>
        <time>2022-05-18T08:45:55Z</time>
      </trkpt>
      <trkpt lat="43.62474" lon="3.42009">
        <ele>136.2</ele>
        <time>2022-05-18T08:45:57Z</time>
      </trkpt>
      <trkpt lat="43.62478" lon="3.42028">
        <ele>135.6</ele>
        <time>2022-05-18T08:45:59Z</time>
      </trkpt>
      <trkpt lat="43.62486" lon="3.42059">
        <ele>135.2</ele>
        <time>2022-05-18T08:46:02Z</time>
      </trkpt>
      <trkpt lat="43.62503" lon="3.421">
        <ele>134.6</ele>
        <time>2022-05-18T08:46:06Z</time>
      </trkpt>
      <trkpt lat="43.62507" lon="3.42111">
        <ele>134.2</ele>
        <time>2022-05-18T08:46:07Z</time>
      </trkpt>
      <trkpt lat="43.62514" lon="3.42128">
        <ele>133.6</ele>
        <time>2022-05-18T08:46:09Z</time>
      </trkpt>
      <trkpt lat="43.62533" lon="3.42178">
        <ele>132.2</ele>
        <time>2022-05-18T08:46:14Z</time>
      </trkpt>
      <trkpt lat="43.62559" lon="3.42228">
        <ele>131</ele>
        <time>2022-05-18T08:46:19Z</time>
      </trkpt>
      <trkpt lat="43.62562" lon="3.4224">
        <ele>130.6</ele>
        <time>2022-05-18T08:46:20Z</time>
      </trkpt>
      <trkpt lat="43.62564" lon="3.4225">
        <ele>130.2</ele>
        <time>2022-05-18T08:46:21Z</time>
      </trkpt>
      <trkpt lat="43.62564" lon="3.4225">
        <ele>129.8</ele>
        <time>2022-05-18T08:46:22Z</time>
      </trkpt>
      <trkpt lat="43.62566" lon="3.42269">
        <ele>129.4</ele>
        <time>2022-05-18T08:46:23Z</time>
      </trkpt>
      <trkpt lat="43.62567" lon="3.42282">
        <ele>129.4</ele>
        <time>2022-05-18T08:46:24Z</time>
      </trkpt>
      <trkpt lat="43.62569" lon="3.42303">
        <ele>129</ele>
        <time>2022-05-18T08:46:26Z</time>
      </trkpt>
      <trkpt lat="43.62569" lon="3.42312">
        <ele>128.6</ele>
        <time>2022-05-18T08:46:27Z</time>
      </trkpt>
      <trkpt lat="43.6257" lon="3.42345">
        <ele>128</ele>
        <time>2022-05-18T08:46:30Z</time>
      </trkpt>
      <trkpt lat="43.62569" lon="3.42376">
        <ele>127.6</ele>
        <time>2022-05-18T08:46:33Z</time>
      </trkpt>
      <trkpt lat="43.62571" lon="3.42415">
        <ele>126.8</ele>
        <time>2022-05-18T08:46:37Z</time>
      </trkpt>
      <trkpt lat="43.62571" lon="3.42426">
        <ele>126.4</ele>
        <time>2022-05-18T08:46:38Z</time>
      </trkpt>
      <trkpt lat="43.6257" lon="3.42458">
        <ele>125.2</ele>
        <time>2022-05-18T08:46:41Z</time>
      </trkpt>
      <trkpt lat="43.62571" lon="3.4249">
        <ele>124.4</ele>
        <time>2022-05-18T08:46:44Z</time>
      </trkpt>
      <trkpt lat="43.6257" lon="3.425">
        <ele>124</ele>
        <time>2022-05-18T08:46:45Z</time>
      </trkpt>
      <trkpt lat="43.6257" lon="3.4254">
        <ele>122.8</ele>
        <time>2022-05-18T08:46:49Z</time>
      </trkpt>
      <trkpt lat="43.6257" lon="3.42557">
        <ele>122</ele>
        <time>2022-05-18T08:46:51Z</time>
      </trkpt>
      <trkpt lat="43.62571" lon="3.42565">
        <ele>121.8</ele>
        <time>2022-05-18T08:46:52Z</time>
      </trkpt>
      <trkpt lat="43.62573" lon="3.42571">
        <ele>121.6</ele>
        <time>2022-05-18T08:46:53Z</time>
      </trkpt>
      <trkpt lat="43.62577" lon="3.42574">
        <ele>121.4</ele>
        <time>2022-05-18T08:46:54Z</time>
      </trkpt>
      <trkpt lat="43.6259" lon="3.4257">
        <ele>120.6</ele>
        <time>2022-05-18T08:46:57Z</time>
      </trkpt>
      <trkpt lat="43.62606" lon="3.42556">
        <ele>119.4</ele>
        <time>2022-05-18T08:47:01Z</time>
      </trkpt>
      <trkpt lat="43.62616" lon="3.42549">
        <ele>119</ele>
        <time>2022-05-18T08:47:03Z</time>
      </trkpt>
      <trkpt lat="43.62619" lon="3.42545">
        <ele>119</ele>
        <time>2022-05-18T08:47:04Z</time>
      </trkpt>
      <trkpt lat="43.62631" lon="3.42519">
        <ele>118.8</ele>
        <time>2022-05-18T08:47:09Z</time>
      </trkpt>
      <trkpt lat="43.62641" lon="3.42482">
        <ele>119.6</ele>
        <time>2022-05-18T08:47:16Z</time>
      </trkpt>
      <trkpt lat="43.62651" lon="3.42452">
        <ele>120.2</ele>
        <time>2022-05-18T08:47:22Z</time>
      </trkpt>
      <trkpt lat="43.62658" lon="3.42431">
        <ele>120.6</ele>
        <time>2022-05-18T08:47:26Z</time>
      </trkpt>
      <trkpt lat="43.62663" lon="3.42417">
        <ele>121</ele>
        <time>2022-05-18T08:47:29Z</time>
      </trkpt>
      <trkpt lat="43.62669" lon="3.42403">
        <ele>121.4</ele>
        <time>2022-05-18T08:47:32Z</time>
      </trkpt>
      <trkpt lat="43.62675" lon="3.42392">
        <ele>121.8</ele>
        <time>2022-05-18T08:47:35Z</time>
      </trkpt>
      <trkpt lat="43.62685" lon="3.42374">
        <ele>122.6</ele>
        <time>2022-05-18T08:47:40Z</time>
      </trkpt>
      <trkpt lat="43.62688" lon="3.42368">
        <ele>122.8</ele>
        <time>2022-05-18T08:47:42Z</time>
      </trkpt>
      <trkpt lat="43.62693" lon="3.42358">
        <ele>123.4</ele>
        <time>2022-05-18T08:47:45Z</time>
      </trkpt>
      <trkpt lat="43.62695" lon="3.42356">
        <ele>123.6</ele>
        <time>2022-05-18T08:47:46Z</time>
      </trkpt>
      <trkpt lat="43.62708" lon="3.42327">
        <ele>124.8</ele>
        <time>2022-05-18T08:47:54Z</time>
      </trkpt>
      <trkpt lat="43.62718" lon="3.42303">
        <ele>125.8</ele>
        <time>2022-05-18T08:48:00Z</time>
      </trkpt>
      <trkpt lat="43.62719" lon="3.423">
        <ele>125.8</ele>
        <time>2022-05-18T08:48:01Z</time>
      </trkpt>
      <trkpt lat="43.62727" lon="3.42283">
        <ele>126.6</ele>
        <time>2022-05-18T08:48:06Z</time>
      </trkpt>
      <trkpt lat="43.62731" lon="3.42271">
        <ele>127</ele>
        <time>2022-05-18T08:48:09Z</time>
      </trkpt>
      <trkpt lat="43.62735" lon="3.42263">
        <ele>127.2</ele>
        <time>2022-05-18T08:48:11Z</time>
      </trkpt>
      <trkpt lat="43.62746" lon="3.4224">
        <ele>127.8</ele>
        <time>2022-05-18T08:48:17Z</time>
      </trkpt>
      <trkpt lat="43.62749" lon="3.42233">
        <ele>128.2</ele>
        <time>2022-05-18T08:48:19Z</time>
      </trkpt>
      <trkpt lat="43.62761" lon="3.42213">
        <ele>129.2</ele>
        <time>2022-05-18T08:48:25Z</time>
      </trkpt>
      <trkpt lat="43.62763" lon="3.42211">
        <ele>129.4</ele>
        <time>2022-05-18T08:48:26Z</time>
      </trkpt>
      <trkpt lat="43.62772" lon="3.42195">
        <ele>130</ele>
        <time>2022-05-18T08:48:31Z</time>
      </trkpt>
      <trkpt lat="43.62774" lon="3.42193">
        <ele>130.2</ele>
        <time>2022-05-18T08:48:32Z</time>
      </trkpt>
      <trkpt lat="43.62782" lon="3.42181">
        <ele>130.8</ele>
        <time>2022-05-18T08:48:36Z</time>
      </trkpt>
      <trkpt lat="43.62782" lon="3.42181">
        <ele>131</ele>
        <time>2022-05-18T08:48:37Z</time>
      </trkpt>
      <trkpt lat="43.6279" lon="3.42165">
        <ele>131.4</ele>
        <time>2022-05-18T08:48:41Z</time>
      </trkpt>
      <trkpt lat="43.62797" lon="3.42152">
        <ele>131.8</ele>
        <time>2022-05-18T08:48:45Z</time>
      </trkpt>
      <trkpt lat="43.62805" lon="3.42138">
        <ele>132.4</ele>
        <time>2022-05-18T08:48:49Z</time>
      </trkpt>
      <trkpt lat="43.62809" lon="3.42132">
        <ele>132.8</ele>
        <time>2022-05-18T08:48:51Z</time>
      </trkpt>
      <trkpt lat="43.62811" lon="3.42129">
        <ele>133</ele>
        <time>2022-05-18T08:48:52Z</time>
      </trkpt>
      <trkpt lat="43.62817" lon="3.4212">
        <ele>133.2</ele>
        <time>2022-05-18T08:48:55Z</time>
      </trkpt>
      <trkpt lat="43.62821" lon="3.42113">
        <ele>133.4</ele>
        <time>2022-05-18T08:48:57Z</time>
      </trkpt>
      <trkpt lat="43.62834" lon="3.4209">
        <ele>134.4</ele>
        <time>2022-05-18T08:49:04Z</time>
      </trkpt>
      <trkpt lat="43.62836" lon="3.42087">
        <ele>134.4</ele>
        <time>2022-05-18T08:49:05Z</time>
      </trkpt>
      <trkpt lat="43.62847" lon="3.42071">
        <ele>135</ele>
        <time>2022-05-18T08:49:10Z</time>
      </trkpt>
      <trkpt lat="43.62854" lon="3.4206">
        <ele>135.6</ele>
        <time>2022-05-18T08:49:14Z</time>
      </trkpt>
      <trkpt lat="43.62861" lon="3.42048">
        <ele>135.8</ele>
        <time>2022-05-18T08:49:18Z</time>
      </trkpt>
      <trkpt lat="43.62871" lon="3.42034">
        <ele>136.4</ele>
        <time>2022-05-18T08:49:23Z</time>
      </trkpt>
      <trkpt lat="43.62875" lon="3.42028">
        <ele>136.6</ele>
        <time>2022-05-18T08:49:25Z</time>
      </trkpt>
      <trkpt lat="43.62893" lon="3.42004">
        <ele>137.4</ele>
        <time>2022-05-18T08:49:33Z</time>
      </trkpt>
      <trkpt lat="43.62895" lon="3.42002">
        <ele>137.8</ele>
        <time>2022-05-18T08:49:34Z</time>
      </trkpt>
      <trkpt lat="43.62906" lon="3.41985">
        <ele>138.2</ele>
        <time>2022-05-18T08:49:39Z</time>
      </trkpt>
      <trkpt lat="43.62913" lon="3.41977">
        <ele>138.8</ele>
        <time>2022-05-18T08:49:42Z</time>
      </trkpt>
      <trkpt lat="43.62927" lon="3.41965">
        <ele>139.2</ele>
        <time>2022-05-18T08:49:47Z</time>
      </trkpt>
      <trkpt lat="43.62935" lon="3.41959">
        <ele>139.8</ele>
        <time>2022-05-18T08:49:50Z</time>
      </trkpt>
      <trkpt lat="43.62946" lon="3.41951">
        <ele>140.4</ele>
        <time>2022-05-18T08:49:54Z</time>
      </trkpt>
      <trkpt lat="43.62955" lon="3.41943">
        <ele>140.8</ele>
        <time>2022-05-18T08:49:58Z</time>
      </trkpt>
      <trkpt lat="43.62961" lon="3.4194">
        <ele>141.4</ele>
        <time>2022-05-18T08:50:01Z</time>
      </trkpt>
      <trkpt lat="43.62971" lon="3.41934">
        <ele>142</ele>
        <time>2022-05-18T08:50:05Z</time>
      </trkpt>
      <trkpt lat="43.62973" lon="3.41933">
        <ele>142</ele>
        <time>2022-05-18T08:50:06Z</time>
      </trkpt>
      <trkpt lat="43.62994" lon="3.41926">
        <ele>142.6</ele>
        <time>2022-05-18T08:50:13Z</time>
      </trkpt>
      <trkpt lat="43.63002" lon="3.41923">
        <ele>143</ele>
        <time>2022-05-18T08:50:16Z</time>
      </trkpt>
      <trkpt lat="43.63007" lon="3.4192">
        <ele>143.4</ele>
        <time>2022-05-18T08:50:18Z</time>
      </trkpt>
      <trkpt lat="43.63026" lon="3.4191">
        <ele>143.8</ele>
        <time>2022-05-18T08:50:24Z</time>
      </trkpt>
      <trkpt lat="43.63032" lon="3.41906">
        <ele>144.2</ele>
        <time>2022-05-18T08:50:26Z</time>
      </trkpt>
      <trkpt lat="43.63053" lon="3.41895">
        <ele>144.8</ele>
        <time>2022-05-18T08:50:32Z</time>
      </trkpt>
      <trkpt lat="43.63063" lon="3.4189">
        <ele>145.2</ele>
        <time>2022-05-18T08:50:35Z</time>
      </trkpt>
      <trkpt lat="43.63076" lon="3.41882">
        <ele>145.8</ele>
        <time>2022-05-18T08:50:39Z</time>
      </trkpt>
      <trkpt lat="43.63095" lon="3.41873">
        <ele>146.4</ele>
        <time>2022-05-18T08:50:45Z</time>
      </trkpt>
      <trkpt lat="43.63101" lon="3.4187">
        <ele>146.6</ele>
        <time>2022-05-18T08:50:47Z</time>
      </trkpt>
      <trkpt lat="43.63126" lon="3.41857">
        <ele>147</ele>
        <time>2022-05-18T08:50:54Z</time>
      </trkpt>
      <trkpt lat="43.63136" lon="3.41853">
        <ele>147.2</ele>
        <time>2022-05-18T08:50:57Z</time>
      </trkpt>
      <trkpt lat="43.63152" lon="3.41845">
        <ele>147.6</ele>
        <time>2022-05-18T08:51:01Z</time>
      </trkpt>
      <trkpt lat="43.63168" lon="3.41836">
        <ele>148.2</ele>
        <time>2022-05-18T08:51:05Z</time>
      </trkpt>
      <trkpt lat="43.63176" lon="3.41832">
        <ele>148.4</ele>
        <time>2022-05-18T08:51:07Z</time>
      </trkpt>
      <trkpt lat="43.63206" lon="3.41817">
        <ele>149.4</ele>
        <time>2022-05-18T08:51:15Z</time>
      </trkpt>
      <trkpt lat="43.63214" lon="3.41814">
        <ele>149.6</ele>
        <time>2022-05-18T08:51:17Z</time>
      </trkpt>
      <trkpt lat="43.63235" lon="3.41808">
        <ele>150.4</ele>
        <time>2022-05-18T08:51:23Z</time>
      </trkpt>
      <trkpt lat="43.63239" lon="3.41809">
        <ele>150.6</ele>
        <time>2022-05-18T08:51:24Z</time>
      </trkpt>
      <trkpt lat="43.63258" lon="3.41811">
        <ele>150.8</ele>
        <time>2022-05-18T08:51:29Z</time>
      </trkpt>
      <trkpt lat="43.63276" lon="3.41809">
        <ele>151.2</ele>
        <time>2022-05-18T08:51:34Z</time>
      </trkpt>
      <trkpt lat="43.63277" lon="3.41805">
        <ele>151.4</ele>
        <time>2022-05-18T08:51:35Z</time>
      </trkpt>
      <trkpt lat="43.63273" lon="3.41792">
        <ele>151.6</ele>
        <time>2022-05-18T08:51:38Z</time>
      </trkpt>
      <trkpt lat="43.63271" lon="3.41787">
        <ele>151.8</ele>
        <time>2022-05-18T08:51:39Z</time>
      </trkpt>
      <trkpt lat="43.6327" lon="3.41775">
        <ele>151.8</ele>
        <time>2022-05-18T08:51:41Z</time>
      </trkpt>
      <trkpt lat="43.63272" lon="3.4177">
        <ele>151.8</ele>
        <time>2022-05-18T08:51:42Z</time>
      </trkpt>
      <trkpt lat="43.63287" lon="3.41759">
        <ele>151.8</ele>
        <time>2022-05-18T08:51:46Z</time>
      </trkpt>
      <trkpt lat="43.63302" lon="3.41764">
        <ele>151.8</ele>
        <time>2022-05-18T08:51:50Z</time>
      </trkpt>
      <trkpt lat="43.63323" lon="3.41785">
        <ele>152.6</ele>
        <time>2022-05-18T08:51:57Z</time>
      </trkpt>
      <trkpt lat="43.6333" lon="3.41791">
        <ele>153</ele>
        <time>2022-05-18T08:51:59Z</time>
      </trkpt>
      <trkpt lat="43.63351" lon="3.418">
        <ele>153.6</ele>
        <time>2022-05-18T08:52:05Z</time>
      </trkpt>
      <trkpt lat="43.63379" lon="3.41802">
        <ele>154.4</ele>
        <time>2022-05-18T08:52:12Z</time>
      </trkpt>
      <trkpt lat="43.63387" lon="3.41803">
        <ele>154.6</ele>
        <time>2022-05-18T08:52:14Z</time>
      </trkpt>
      <trkpt lat="43.63414" lon="3.41804">
        <ele>155.6</ele>
        <time>2022-05-18T08:52:21Z</time>
      </trkpt>
      <trkpt lat="43.63421" lon="3.41805">
        <ele>155.8</ele>
        <time>2022-05-18T08:52:23Z</time>
      </trkpt>
      <trkpt lat="43.63433" lon="3.41812">
        <ele>156.2</ele>
        <time>2022-05-18T08:52:27Z</time>
      </trkpt>
      <trkpt lat="43.63446" lon="3.41823">
        <ele>157</ele>
        <time>2022-05-18T08:52:32Z</time>
      </trkpt>
      <trkpt lat="43.6345" lon="3.41826">
        <ele>157.2</ele>
        <time>2022-05-18T08:52:34Z</time>
      </trkpt>
      <trkpt lat="43.63457" lon="3.41828">
        <ele>157.4</ele>
        <time>2022-05-18T08:52:37Z</time>
      </trkpt>
      <trkpt lat="43.6346" lon="3.41832">
        <ele>157.6</ele>
        <time>2022-05-18T08:52:39Z</time>
      </trkpt>
      <trkpt lat="43.63468" lon="3.41837">
        <ele>157.8</ele>
        <time>2022-05-18T08:52:44Z</time>
      </trkpt>
      <trkpt lat="43.63473" lon="3.41838">
        <ele>157.8</ele>
        <time>2022-05-18T08:52:48Z</time>
      </trkpt>
      <trkpt lat="43.63476" lon="3.41838">
        <ele>157.8</ele>
        <time>2022-05-18T08:52:50Z</time>
      </trkpt>
      <trkpt lat="43.63481" lon="3.41839">
        <ele>158</ele>
        <time>2022-05-18T08:52:53Z</time>
      </trkpt>
      <trkpt lat="43.63492" lon="3.4184">
        <ele>158.4</ele>
        <time>2022-05-18T08:52:59Z</time>
      </trkpt>
      <trkpt lat="43.63507" lon="3.41843">
        <ele>158.8</ele>
        <time>2022-05-18T08:53:08Z</time>
      </trkpt>
      <trkpt lat="43.63517" lon="3.41843">
        <ele>159.2</ele>
        <time>2022-05-18T08:53:13Z</time>
      </trkpt>
      <trkpt lat="43.63529" lon="3.41842">
        <ele>159.6</ele>
        <time>2022-05-18T08:53:19Z</time>
      </trkpt>
      <trkpt lat="43.63545" lon="3.41844">
        <ele>160</ele>
        <time>2022-05-18T08:53:27Z</time>
      </trkpt>
      <trkpt lat="43.63551" lon="3.41844">
        <ele>160.2</ele>
        <time>2022-05-18T08:53:30Z</time>
      </trkpt>
      <trkpt lat="43.63555" lon="3.41845">
        <ele>160.2</ele>
        <time>2022-05-18T08:53:32Z</time>
      </trkpt>
      <trkpt lat="43.63561" lon="3.41846">
        <ele>160.6</ele>
        <time>2022-05-18T08:53:35Z</time>
      </trkpt>
      <trkpt lat="43.63562" lon="3.41848">
        <ele>160.8</ele>
        <time>2022-05-18T08:53:36Z</time>
      </trkpt>
      <trkpt lat="43.63564" lon="3.41852">
        <ele>161</ele>
        <time>2022-05-18T08:53:38Z</time>
      </trkpt>
      <trkpt lat="43.63569" lon="3.41862">
        <ele>161.2</ele>
        <time>2022-05-18T08:53:42Z</time>
      </trkpt>
      <trkpt lat="43.63573" lon="3.41874">
        <ele>161.6</ele>
        <time>2022-05-18T08:53:46Z</time>
      </trkpt>
      <trkpt lat="43.63575" lon="3.41877">
        <ele>161.6</ele>
        <time>2022-05-18T08:53:47Z</time>
      </trkpt>
      <trkpt lat="43.63578" lon="3.41878">
        <ele>161.6</ele>
        <time>2022-05-18T08:53:48Z</time>
      </trkpt>
      <trkpt lat="43.63584" lon="3.41875">
        <ele>161.6</ele>
        <time>2022-05-18T08:53:50Z</time>
      </trkpt>
      <trkpt lat="43.6359" lon="3.41866">
        <ele>162</ele>
        <time>2022-05-18T08:53:54Z</time>
      </trkpt>
      <trkpt lat="43.63605" lon="3.4185">
        <ele>162.2</ele>
        <time>2022-05-18T08:54:02Z</time>
      </trkpt>
      <trkpt lat="43.63614" lon="3.41844">
        <ele>162.4</ele>
        <time>2022-05-18T08:54:06Z</time>
      </trkpt>
      <trkpt lat="43.6362" lon="3.41842">
        <ele>162.4</ele>
        <time>2022-05-18T08:54:09Z</time>
      </trkpt>
      <trkpt lat="43.63629" lon="3.41842">
        <ele>162.6</ele>
        <time>2022-05-18T08:54:14Z</time>
      </trkpt>
      <trkpt lat="43.63636" lon="3.41843">
        <ele>163.4</ele>
        <time>2022-05-18T08:54:18Z</time>
      </trkpt>
      <trkpt lat="43.63646" lon="3.41845">
        <ele>163.8</ele>
        <time>2022-05-18T08:54:23Z</time>
      </trkpt>
      <trkpt lat="43.63663" lon="3.41846">
        <ele>164.6</ele>
        <time>2022-05-18T08:54:31Z</time>
      </trkpt>
      <trkpt lat="43.63687" lon="3.41847">
        <ele>165.6</ele>
        <time>2022-05-18T08:54:40Z</time>
      </trkpt>
      <trkpt lat="43.63689" lon="3.41847">
        <ele>165.8</ele>
        <time>2022-05-18T08:54:41Z</time>
      </trkpt>
      <trkpt lat="43.63706" lon="3.41849">
        <ele>166.6</ele>
        <time>2022-05-18T08:54:47Z</time>
      </trkpt>
      <trkpt lat="43.63711" lon="3.4185">
        <ele>166.8</ele>
        <time>2022-05-18T08:54:49Z</time>
      </trkpt>
      <trkpt lat="43.63728" lon="3.41852">
        <ele>167.8</ele>
        <time>2022-05-18T08:54:56Z</time>
      </trkpt>
      <trkpt lat="43.63733" lon="3.41852">
        <ele>167.8</ele>
        <time>2022-05-18T08:54:57Z</time>
      </trkpt>
      <trkpt lat="43.63743" lon="3.41853">
        <ele>168</ele>
        <time>2022-05-18T08:55:01Z</time>
      </trkpt>
      <trkpt lat="43.6376" lon="3.41854">
        <ele>168.8</ele>
        <time>2022-05-18T08:55:07Z</time>
      </trkpt>
      <trkpt lat="43.63778" lon="3.41855">
        <ele>170</ele>
        <time>2022-05-18T08:55:14Z</time>
      </trkpt>
      <trkpt lat="43.63784" lon="3.41855">
        <ele>170.4</ele>
        <time>2022-05-18T08:55:16Z</time>
      </trkpt>
      <trkpt lat="43.63797" lon="3.41856">
        <ele>171</ele>
        <time>2022-05-18T08:55:21Z</time>
      </trkpt>
      <trkpt lat="43.63811" lon="3.41857">
        <ele>172.2</ele>
        <time>2022-05-18T08:55:27Z</time>
      </trkpt>
      <trkpt lat="43.63831" lon="3.4186">
        <ele>173.4</ele>
        <time>2022-05-18T08:55:35Z</time>
      </trkpt>
      <trkpt lat="43.63836" lon="3.4186">
        <ele>173.6</ele>
        <time>2022-05-18T08:55:37Z</time>
      </trkpt>
      <trkpt lat="43.63847" lon="3.41862">
        <ele>174.6</ele>
        <time>2022-05-18T08:55:42Z</time>
      </trkpt>
      <trkpt lat="43.63861" lon="3.41862">
        <ele>175.2</ele>
        <time>2022-05-18T08:55:48Z</time>
      </trkpt>
      <trkpt lat="43.63868" lon="3.41862">
        <ele>175.6</ele>
        <time>2022-05-18T08:55:51Z</time>
      </trkpt>
      <trkpt lat="43.63882" lon="3.41863">
        <ele>176.6</ele>
        <time>2022-05-18T08:55:57Z</time>
      </trkpt>
      <trkpt lat="43.63885" lon="3.41863">
        <ele>176.8</ele>
        <time>2022-05-18T08:55:58Z</time>
      </trkpt>
      <trkpt lat="43.63901" lon="3.41863">
        <ele>177.8</ele>
        <time>2022-05-18T08:56:05Z</time>
      </trkpt>
      <trkpt lat="43.63904" lon="3.41864">
        <ele>177.8</ele>
        <time>2022-05-18T08:56:06Z</time>
      </trkpt>
      <trkpt lat="43.6392" lon="3.41866">
        <ele>178.8</ele>
        <time>2022-05-18T08:56:13Z</time>
      </trkpt>
      <trkpt lat="43.63924" lon="3.41866">
        <ele>179</ele>
        <time>2022-05-18T08:56:15Z</time>
      </trkpt>
      <trkpt lat="43.63933" lon="3.41866">
        <ele>179.8</ele>
        <time>2022-05-18T08:56:20Z</time>
      </trkpt>
      <trkpt lat="43.63947" lon="3.41867">
        <ele>180.8</ele>
        <time>2022-05-18T08:56:28Z</time>
      </trkpt>
      <trkpt lat="43.63952" lon="3.41867">
        <ele>181</ele>
        <time>2022-05-18T08:56:30Z</time>
      </trkpt>
      <trkpt lat="43.63964" lon="3.41868">
        <ele>181.6</ele>
        <time>2022-05-18T08:56:36Z</time>
      </trkpt>
      <trkpt lat="43.63972" lon="3.41868">
        <ele>182.2</ele>
        <time>2022-05-18T08:56:41Z</time>
      </trkpt>
      <trkpt lat="43.63973" lon="3.41868">
        <ele>182.2</ele>
        <time>2022-05-18T08:56:42Z</time>
      </trkpt>
      <trkpt lat="43.63973" lon="3.41868">
        <ele>183.2</ele>
        <time>2022-05-18T08:56:47Z</time>
      </trkpt>
      <trkpt lat="43.63973" lon="3.41868">
        <ele>183.6</ele>
        <time>2022-05-18T08:57:11Z</time>
      </trkpt>
      <trkpt lat="43.6398" lon="3.41863">
        <ele>183.4</ele>
        <time>2022-05-18T08:59:28Z</time>
      </trkpt>
      <trkpt lat="43.63993" lon="3.4185">
        <ele>183.6</ele>
        <time>2022-05-18T08:59:35Z</time>
      </trkpt>
      <trkpt lat="43.64008" lon="3.41832">
        <ele>184.6</ele>
        <time>2022-05-18T08:59:43Z</time>
      </trkpt>
      <trkpt lat="43.64024" lon="3.41816">
        <ele>185.4</ele>
        <time>2022-05-18T08:59:51Z</time>
      </trkpt>
      <trkpt lat="43.64026" lon="3.41815">
        <ele>185.6</ele>
        <time>2022-05-18T08:59:52Z</time>
      </trkpt>
      <trkpt lat="43.64039" lon="3.41801">
        <ele>186.6</ele>
        <time>2022-05-18T08:59:59Z</time>
      </trkpt>
      <trkpt lat="43.64041" lon="3.41798">
        <ele>186.8</ele>
        <time>2022-05-18T09:00:00Z</time>
      </trkpt>
      <trkpt lat="43.64053" lon="3.41783">
        <ele>187.8</ele>
        <time>2022-05-18T09:00:06Z</time>
      </trkpt>
      <trkpt lat="43.64056" lon="3.41778">
        <ele>188.2</ele>
        <time>2022-05-18T09:00:08Z</time>
      </trkpt>
      <trkpt lat="43.64064" lon="3.41766">
        <ele>188.8</ele>
        <time>2022-05-18T09:00:12Z</time>
      </trkpt>
      <trkpt lat="43.64065" lon="3.41762">
        <ele>188.8</ele>
        <time>2022-05-18T09:00:13Z</time>
      </trkpt>
      <trkpt lat="43.64068" lon="3.41737">
        <ele>189.8</ele>
        <time>2022-05-18T09:00:19Z</time>
      </trkpt>
      <trkpt lat="43.64068" lon="3.41733">
        <ele>189.8</ele>
        <time>2022-05-18T09:00:20Z</time>
      </trkpt>
      <trkpt lat="43.64065" lon="3.4171">
        <ele>189.8</ele>
        <time>2022-05-18T09:00:26Z</time>
      </trkpt>
      <trkpt lat="43.64058" lon="3.41674">
        <ele>189.8</ele>
        <time>2022-05-18T09:00:35Z</time>
      </trkpt>
      <trkpt lat="43.64044" lon="3.41638">
        <ele>189.4</ele>
        <time>2022-05-18T09:00:43Z</time>
      </trkpt>
      <trkpt lat="43.64031" lon="3.41603">
        <ele>189</ele>
        <time>2022-05-18T09:00:49Z</time>
      </trkpt>
      <trkpt lat="43.6402" lon="3.41557">
        <ele>188.8</ele>
        <time>2022-05-18T09:00:56Z</time>
      </trkpt>
      <trkpt lat="43.64018" lon="3.41542">
        <ele>188.8</ele>
        <time>2022-05-18T09:00:58Z</time>
      </trkpt>
      <trkpt lat="43.64017" lon="3.41504">
        <ele>188.4</ele>
        <time>2022-05-18T09:01:03Z</time>
      </trkpt>
      <trkpt lat="43.64013" lon="3.4145">
        <ele>188</ele>
        <time>2022-05-18T09:01:10Z</time>
      </trkpt>
      <trkpt lat="43.64002" lon="3.41381">
        <ele>187.8</ele>
        <time>2022-05-18T09:01:19Z</time>
      </trkpt>
      <trkpt lat="43.64002" lon="3.41373">
        <ele>187.8</ele>
        <time>2022-05-18T09:01:20Z</time>
      </trkpt>
      <trkpt lat="43.64002" lon="3.41366">
        <ele>187.6</ele>
        <time>2022-05-18T09:01:21Z</time>
      </trkpt>
      <trkpt lat="43.64002" lon="3.41358">
        <ele>187.6</ele>
        <time>2022-05-18T09:01:22Z</time>
      </trkpt>
      <trkpt lat="43.64004" lon="3.41351">
        <ele>187.4</ele>
        <time>2022-05-18T09:01:23Z</time>
      </trkpt>
      <trkpt lat="43.64007" lon="3.41345">
        <ele>187.4</ele>
        <time>2022-05-18T09:01:24Z</time>
      </trkpt>
      <trkpt lat="43.64017" lon="3.41336">
        <ele>187.4</ele>
        <time>2022-05-18T09:01:26Z</time>
      </trkpt>
      <trkpt lat="43.64026" lon="3.4133">
        <ele>187.4</ele>
        <time>2022-05-18T09:01:28Z</time>
      </trkpt>
      <trkpt lat="43.64034" lon="3.41323">
        <ele>187.2</ele>
        <time>2022-05-18T09:01:30Z</time>
      </trkpt>
      <trkpt lat="43.64038" lon="3.41319">
        <ele>187.2</ele>
        <time>2022-05-18T09:01:31Z</time>
      </trkpt>
      <trkpt lat="43.64041" lon="3.41314">
        <ele>187.2</ele>
        <time>2022-05-18T09:01:32Z</time>
      </trkpt>
      <trkpt lat="43.64048" lon="3.41299">
        <ele>187.6</ele>
        <time>2022-05-18T09:01:35Z</time>
      </trkpt>
      <trkpt lat="43.6405" lon="3.41294">
        <ele>187.6</ele>
        <time>2022-05-18T09:01:36Z</time>
      </trkpt>
      <trkpt lat="43.64059" lon="3.41267">
        <ele>188.2</ele>
        <time>2022-05-18T09:01:41Z</time>
      </trkpt>
      <trkpt lat="43.64062" lon="3.41259">
        <ele>188.6</ele>
        <time>2022-05-18T09:01:43Z</time>
      </trkpt>
      <trkpt lat="43.64065" lon="3.41249">
        <ele>189.2</ele>
        <time>2022-05-18T09:01:46Z</time>
      </trkpt>
      <trkpt lat="43.64068" lon="3.4124">
        <ele>189.8</ele>
        <time>2022-05-18T09:01:49Z</time>
      </trkpt>
      <trkpt lat="43.64071" lon="3.41228">
        <ele>190</ele>
        <time>2022-05-18T09:01:53Z</time>
      </trkpt>
      <trkpt lat="43.64082" lon="3.41193">
        <ele>190.4</ele>
        <time>2022-05-18T09:02:01Z</time>
      </trkpt>
      <trkpt lat="43.64084" lon="3.41184">
        <ele>190.8</ele>
        <time>2022-05-18T09:02:03Z</time>
      </trkpt>
      <trkpt lat="43.64091" lon="3.41161">
        <ele>191.2</ele>
        <time>2022-05-18T09:02:08Z</time>
      </trkpt>
      <trkpt lat="43.64096" lon="3.41147">
        <ele>191.8</ele>
        <time>2022-05-18T09:02:11Z</time>
      </trkpt>
      <trkpt lat="43.64103" lon="3.41123">
        <ele>192.4</ele>
        <time>2022-05-18T09:02:16Z</time>
      </trkpt>
      <trkpt lat="43.64107" lon="3.41113">
        <ele>193</ele>
        <time>2022-05-18T09:02:18Z</time>
      </trkpt>
      <trkpt lat="43.64116" lon="3.41088">
        <ele>193.8</ele>
        <time>2022-05-18T09:02:23Z</time>
      </trkpt>
      <trkpt lat="43.6412" lon="3.41079">
        <ele>194</ele>
        <time>2022-05-18T09:02:25Z</time>
      </trkpt>
      <trkpt lat="43.64128" lon="3.41058">
        <ele>194.6</ele>
        <time>2022-05-18T09:02:29Z</time>
      </trkpt>
      <trkpt lat="43.64133" lon="3.41047">
        <ele>195.2</ele>
        <time>2022-05-18T09:02:31Z</time>
      </trkpt>
      <trkpt lat="43.64151" lon="3.41019">
        <ele>196.2</ele>
        <time>2022-05-18T09:02:37Z</time>
      </trkpt>
      <trkpt lat="43.64154" lon="3.41015">
        <ele>196.4</ele>
        <time>2022-05-18T09:02:38Z</time>
      </trkpt>
      <trkpt lat="43.64173" lon="3.40995">
        <ele>196.8</ele>
        <time>2022-05-18T09:02:43Z</time>
      </trkpt>
      <trkpt lat="43.64175" lon="3.4099">
        <ele>196.8</ele>
        <time>2022-05-18T09:02:44Z</time>
      </trkpt>
      <trkpt lat="43.64186" lon="3.40964">
        <ele>197.4</ele>
        <time>2022-05-18T09:02:49Z</time>
      </trkpt>
      <trkpt lat="43.6419" lon="3.40949">
        <ele>197.6</ele>
        <time>2022-05-18T09:02:52Z</time>
      </trkpt>
      <trkpt lat="43.64197" lon="3.4092">
        <ele>198.6</ele>
        <time>2022-05-18T09:02:57Z</time>
      </trkpt>
      <trkpt lat="43.64202" lon="3.40898">
        <ele>199</ele>
        <time>2022-05-18T09:03:01Z</time>
      </trkpt>
      <trkpt lat="43.64209" lon="3.40872">
        <ele>199.6</ele>
        <time>2022-05-18T09:03:06Z</time>
      </trkpt>
      <trkpt lat="43.64213" lon="3.40851">
        <ele>200</ele>
        <time>2022-05-18T09:03:10Z</time>
      </trkpt>
      <trkpt lat="43.64219" lon="3.40826">
        <ele>200.8</ele>
        <time>2022-05-18T09:03:15Z</time>
      </trkpt>
      <trkpt lat="43.64223" lon="3.40811">
        <ele>201</ele>
        <time>2022-05-18T09:03:18Z</time>
      </trkpt>
      <trkpt lat="43.64231" lon="3.40773">
        <ele>201.8</ele>
        <time>2022-05-18T09:03:25Z</time>
      </trkpt>
      <trkpt lat="43.64234" lon="3.4076">
        <ele>202</ele>
        <time>2022-05-18T09:03:27Z</time>
      </trkpt>
      <trkpt lat="43.64244" lon="3.40716">
        <ele>202</ele>
        <time>2022-05-18T09:03:33Z</time>
      </trkpt>
      <trkpt lat="43.64246" lon="3.40708">
        <ele>202</ele>
        <time>2022-05-18T09:03:34Z</time>
      </trkpt>
      <trkpt lat="43.64254" lon="3.40642">
        <ele>200.6</ele>
        <time>2022-05-18T09:03:41Z</time>
      </trkpt>
      <trkpt lat="43.64255" lon="3.40632">
        <ele>200.6</ele>
        <time>2022-05-18T09:03:42Z</time>
      </trkpt>
      <trkpt lat="43.64253" lon="3.406">
        <ele>199.6</ele>
        <time>2022-05-18T09:03:45Z</time>
      </trkpt>
      <trkpt lat="43.64251" lon="3.40589">
        <ele>199.4</ele>
        <time>2022-05-18T09:03:46Z</time>
      </trkpt>
      <trkpt lat="43.64243" lon="3.40543">
        <ele>198.2</ele>
        <time>2022-05-18T09:03:50Z</time>
      </trkpt>
      <trkpt lat="43.64239" lon="3.40519">
        <ele>197.6</ele>
        <time>2022-05-18T09:03:52Z</time>
      </trkpt>
      <trkpt lat="43.64234" lon="3.40494">
        <ele>197</ele>
        <time>2022-05-18T09:03:54Z</time>
      </trkpt>
      <trkpt lat="43.64222" lon="3.4043">
        <ele>196</ele>
        <time>2022-05-18T09:03:59Z</time>
      </trkpt>
      <trkpt lat="43.64211" lon="3.40378">
        <ele>194.8</ele>
        <time>2022-05-18T09:04:03Z</time>
      </trkpt>
      <trkpt lat="43.64204" lon="3.40339">
        <ele>193.8</ele>
        <time>2022-05-18T09:04:06Z</time>
      </trkpt>
      <trkpt lat="43.64197" lon="3.40299">
        <ele>192.8</ele>
        <time>2022-05-18T09:04:09Z</time>
      </trkpt>
      <trkpt lat="43.64189" lon="3.4026">
        <ele>191.6</ele>
        <time>2022-05-18T09:04:12Z</time>
      </trkpt>
      <trkpt lat="43.64185" lon="3.40234">
        <ele>190.8</ele>
        <time>2022-05-18T09:04:14Z</time>
      </trkpt>
      <trkpt lat="43.64182" lon="3.40222">
        <ele>190.4</ele>
        <time>2022-05-18T09:04:15Z</time>
      </trkpt>
      <trkpt lat="43.64173" lon="3.40171">
        <ele>189.2</ele>
        <time>2022-05-18T09:04:19Z</time>
      </trkpt>
      <trkpt lat="43.64168" lon="3.40145">
        <ele>188.2</ele>
        <time>2022-05-18T09:04:21Z</time>
      </trkpt>
      <trkpt lat="43.64162" lon="3.40119">
        <ele>187.6</ele>
        <time>2022-05-18T09:04:23Z</time>
      </trkpt>
      <trkpt lat="43.64156" lon="3.40094">
        <ele>187.2</ele>
        <time>2022-05-18T09:04:25Z</time>
      </trkpt>
      <trkpt lat="43.64148" lon="3.40056">
        <ele>186.2</ele>
        <time>2022-05-18T09:04:28Z</time>
      </trkpt>
      <trkpt lat="43.64139" lon="3.40017">
        <ele>185.2</ele>
        <time>2022-05-18T09:04:31Z</time>
      </trkpt>
      <trkpt lat="43.64136" lon="3.40005">
        <ele>185</ele>
        <time>2022-05-18T09:04:32Z</time>
      </trkpt>
      <trkpt lat="43.64129" lon="3.39965">
        <ele>183.4</ele>
        <time>2022-05-18T09:04:35Z</time>
      </trkpt>
      <trkpt lat="43.64124" lon="3.39926">
        <ele>182.6</ele>
        <time>2022-05-18T09:04:38Z</time>
      </trkpt>
      <trkpt lat="43.64123" lon="3.39913">
        <ele>182.2</ele>
        <time>2022-05-18T09:04:39Z</time>
      </trkpt>
      <trkpt lat="43.64122" lon="3.39887">
        <ele>181.4</ele>
        <time>2022-05-18T09:04:41Z</time>
      </trkpt>
      <trkpt lat="43.64122" lon="3.39874">
        <ele>181.2</ele>
        <time>2022-05-18T09:04:42Z</time>
      </trkpt>
      <trkpt lat="43.64124" lon="3.39861">
        <ele>180.8</ele>
        <time>2022-05-18T09:04:43Z</time>
      </trkpt>
      <trkpt lat="43.64135" lon="3.39824">
        <ele>179.6</ele>
        <time>2022-05-18T09:04:46Z</time>
      </trkpt>
      <trkpt lat="43.64149" lon="3.39789">
        <ele>178.6</ele>
        <time>2022-05-18T09:04:49Z</time>
      </trkpt>
      <trkpt lat="43.64154" lon="3.39777">
        <ele>178</ele>
        <time>2022-05-18T09:04:50Z</time>
      </trkpt>
      <trkpt lat="43.64164" lon="3.39753">
        <ele>177.4</ele>
        <time>2022-05-18T09:04:52Z</time>
      </trkpt>
      <trkpt lat="43.64169" lon="3.39741">
        <ele>177</ele>
        <time>2022-05-18T09:04:53Z</time>
      </trkpt>
      <trkpt lat="43.64174" lon="3.39729">
        <ele>176.2</ele>
        <time>2022-05-18T09:04:54Z</time>
      </trkpt>
      <trkpt lat="43.64188" lon="3.39693">
        <ele>174.8</ele>
        <time>2022-05-18T09:04:57Z</time>
      </trkpt>
      <trkpt lat="43.64203" lon="3.39656">
        <ele>173.6</ele>
        <time>2022-05-18T09:05:00Z</time>
      </trkpt>
      <trkpt lat="43.64208" lon="3.39644">
        <ele>172.8</ele>
        <time>2022-05-18T09:05:01Z</time>
      </trkpt>
      <trkpt lat="43.64214" lon="3.39631">
        <ele>172.4</ele>
        <time>2022-05-18T09:05:02Z</time>
      </trkpt>
      <trkpt lat="43.64228" lon="3.39596">
        <ele>171.4</ele>
        <time>2022-05-18T09:05:05Z</time>
      </trkpt>
      <trkpt lat="43.64246" lon="3.3955">
        <ele>170.2</ele>
        <time>2022-05-18T09:05:09Z</time>
      </trkpt>
      <trkpt lat="43.64252" lon="3.39536">
        <ele>170</ele>
        <time>2022-05-18T09:05:10Z</time>
      </trkpt>
      <trkpt lat="43.64262" lon="3.39514">
        <ele>169.2</ele>
        <time>2022-05-18T09:05:12Z</time>
      </trkpt>
      <trkpt lat="43.64271" lon="3.39491">
        <ele>168</ele>
        <time>2022-05-18T09:05:14Z</time>
      </trkpt>
      <trkpt lat="43.6429" lon="3.39444">
        <ele>166.8</ele>
        <time>2022-05-18T09:05:18Z</time>
      </trkpt>
      <trkpt lat="43.643" lon="3.3942">
        <ele>166.2</ele>
        <time>2022-05-18T09:05:20Z</time>
      </trkpt>
      <trkpt lat="43.6431" lon="3.39397">
        <ele>165.2</ele>
        <time>2022-05-18T09:05:22Z</time>
      </trkpt>
      <trkpt lat="43.64324" lon="3.39362">
        <ele>163.4</ele>
        <time>2022-05-18T09:05:25Z</time>
      </trkpt>
      <trkpt lat="43.64338" lon="3.39328">
        <ele>162.2</ele>
        <time>2022-05-18T09:05:28Z</time>
      </trkpt>
      <trkpt lat="43.64343" lon="3.39316">
        <ele>162</ele>
        <time>2022-05-18T09:05:29Z</time>
      </trkpt>
      <trkpt lat="43.64352" lon="3.39293">
        <ele>161.2</ele>
        <time>2022-05-18T09:05:31Z</time>
      </trkpt>
      <trkpt lat="43.64371" lon="3.39249">
        <ele>159.8</ele>
        <time>2022-05-18T09:05:35Z</time>
      </trkpt>
      <trkpt lat="43.64388" lon="3.39206">
        <ele>158.8</ele>
        <time>2022-05-18T09:05:39Z</time>
      </trkpt>
      <trkpt lat="43.64393" lon="3.39195">
        <ele>158.4</ele>
        <time>2022-05-18T09:05:40Z</time>
      </trkpt>
      <trkpt lat="43.6441" lon="3.39153">
        <ele>157.4</ele>
        <time>2022-05-18T09:05:44Z</time>
      </trkpt>
      <trkpt lat="43.64431" lon="3.39102">
        <ele>156.4</ele>
        <time>2022-05-18T09:05:49Z</time>
      </trkpt>
      <trkpt lat="43.64435" lon="3.39092">
        <ele>156.2</ele>
        <time>2022-05-18T09:05:50Z</time>
      </trkpt>
      <trkpt lat="43.64448" lon="3.39064">
        <ele>155.2</ele>
        <time>2022-05-18T09:05:53Z</time>
      </trkpt>
      <trkpt lat="43.64454" lon="3.39056">
        <ele>155.2</ele>
        <time>2022-05-18T09:05:54Z</time>
      </trkpt>
      <trkpt lat="43.6446" lon="3.39049">
        <ele>154.8</ele>
        <time>2022-05-18T09:05:55Z</time>
      </trkpt>
      <trkpt lat="43.64486" lon="3.39021">
        <ele>154</ele>
        <time>2022-05-18T09:05:59Z</time>
      </trkpt>
      <trkpt lat="43.64493" lon="3.39014">
        <ele>153.8</ele>
        <time>2022-05-18T09:06:00Z</time>
      </trkpt>
      <trkpt lat="43.64515" lon="3.38995">
        <ele>152.6</ele>
        <time>2022-05-18T09:06:03Z</time>
      </trkpt>
      <trkpt lat="43.64529" lon="3.38984">
        <ele>152.2</ele>
        <time>2022-05-18T09:06:05Z</time>
      </trkpt>
      <trkpt lat="43.64538" lon="3.38975">
        <ele>151.6</ele>
        <time>2022-05-18T09:06:07Z</time>
      </trkpt>
      <trkpt lat="43.64542" lon="3.38972">
        <ele>151.2</ele>
        <time>2022-05-18T09:06:08Z</time>
      </trkpt>
      <trkpt lat="43.64547" lon="3.38965">
        <ele>150.6</ele>
        <time>2022-05-18T09:06:10Z</time>
      </trkpt>
      <trkpt lat="43.6455" lon="3.38958">
        <ele>150</ele>
        <time>2022-05-18T09:06:12Z</time>
      </trkpt>
      <trkpt lat="43.6455" lon="3.38952">
        <ele>149.4</ele>
        <time>2022-05-18T09:06:14Z</time>
      </trkpt>
      <trkpt lat="43.64551" lon="3.38947">
        <ele>148.8</ele>
        <time>2022-05-18T09:06:17Z</time>
      </trkpt>
      <trkpt lat="43.64552" lon="3.38942">
        <ele>148.6</ele>
        <time>2022-05-18T09:06:22Z</time>
      </trkpt>
      <trkpt lat="43.64555" lon="3.38936">
        <ele>148.6</ele>
        <time>2022-05-18T09:06:29Z</time>
      </trkpt>
      <trkpt lat="43.64555" lon="3.38935">
        <ele>148.6</ele>
        <time>2022-05-18T09:06:36Z</time>
      </trkpt>
      <trkpt lat="43.64553" lon="3.38939">
        <ele>148.4</ele>
        <time>2022-05-18T09:06:44Z</time>
      </trkpt>
      <trkpt lat="43.64552" lon="3.3894">
        <ele>148.4</ele>
        <time>2022-05-18T09:06:52Z</time>
      </trkpt>
    </trkseg>
  </trk>
</gpx>